<?xml version="1.0" encoding="UTF-8" standalone="no" ?>
<gpx xmlns="http://www.topografix.com/GPX/1/1" xmlns:xsi="http://www.w3.org/2001/XMLSchema-instance" xsi:schemaLocation="http://www.topografix.com/GPX/1/1 http://www.topografix.com/GPX/1/1/gpx.xsd" version="1.1" creator="VisuGPX - https://www.visugpx.com">
  <metadata>
    <name>2017-06-16 Bike ride-Amberieux-Rance O 35</name>
    <desc><![CDATA[2017-06-16 Bike ride-Amberieux-Rance O 35]]></desc>
  </metadata>
  <wpt lat="45.9246" lon="4.73705">
    <ele>174</ele>
    <name><![CDATA[2017-06-16 10:03 (Start)]]></name>
  </wpt>
  <wpt lat="45.92461" lon="4.73713">
    <ele>174</ele>
    <name><![CDATA[2017-06-16 10:03 (End)]]></name>
    <desc><![CDATA[Created by Google My Tracks on Android  Name: 2017-06-16 10:03 Activity type: biking Description: - Total distance: 35.25 km (21.9 mi) Total time: 1:56:22 Moving time: 1:47:17 Average speed: 18.17 km/h (11.3 mi/h) Average moving speed: 19.71 km/h (12.2 mi/h) Max speed: 47.34 km/h (29.4 mi/h) Average pace: 3:18 min/km (5:19 min/mi) Average moving pace: 3:03 min/km (4:54 min/mi) Fastest pace: 1:16 min/km (2:02 min/mi) Max elevation: 299 m (981 ft) Min elevation: 162 m (530 ft) Elevation gain: 543 m (1782 ft) Max grade: 61 % Min grade: -13 % Recorded: 16/06/2017 10:03]]></desc>
  </wpt>
  <trk>
    <name><![CDATA[2017-06-16 10:03]]></name>
    <trkseg>
      <trkpt lat="45.9246" lon="4.73705">
        <ele>174</ele>
        <time>2017-06-16T08:03:02.859Z</time>
      </trkpt>
      <trkpt lat="45.92466" lon="4.73696">
        <ele>174</ele>
        <time>2017-06-16T08:04:49Z</time>
      </trkpt>
      <trkpt lat="45.92466" lon="4.73693">
        <ele>174</ele>
        <time>2017-06-16T08:04:50Z</time>
      </trkpt>
      <trkpt lat="45.92466" lon="4.73682">
        <ele>174</ele>
        <time>2017-06-16T08:04:54Z</time>
      </trkpt>
      <trkpt lat="45.92467" lon="4.73678">
        <ele>174</ele>
        <time>2017-06-16T08:04:55Z</time>
      </trkpt>
      <trkpt lat="45.92468" lon="4.73666">
        <ele>174</ele>
        <time>2017-06-16T08:04:58Z</time>
      </trkpt>
      <trkpt lat="45.92469" lon="4.73661">
        <ele>174</ele>
        <time>2017-06-16T08:04:59Z</time>
      </trkpt>
      <trkpt lat="45.92471" lon="4.73652">
        <ele>174</ele>
        <time>2017-06-16T08:05:01Z</time>
      </trkpt>
      <trkpt lat="45.92473" lon="4.73647">
        <ele>174</ele>
        <time>2017-06-16T08:05:02Z</time>
      </trkpt>
      <trkpt lat="45.92478" lon="4.73641">
        <ele>174</ele>
        <time>2017-06-16T08:05:04Z</time>
      </trkpt>
      <trkpt lat="45.92481" lon="4.73641">
        <ele>174</ele>
        <time>2017-06-16T08:05:05Z</time>
      </trkpt>
      <trkpt lat="45.92488" lon="4.7364">
        <ele>174</ele>
        <time>2017-06-16T08:05:07Z</time>
      </trkpt>
      <trkpt lat="45.92491" lon="4.73641">
        <ele>174</ele>
        <time>2017-06-16T08:05:08Z</time>
      </trkpt>
      <trkpt lat="45.92498" lon="4.73641">
        <ele>174</ele>
        <time>2017-06-16T08:05:10Z</time>
      </trkpt>
      <trkpt lat="45.92502" lon="4.73642">
        <ele>174</ele>
        <time>2017-06-16T08:05:11Z</time>
      </trkpt>
      <trkpt lat="45.92509" lon="4.73642">
        <ele>174</ele>
        <time>2017-06-16T08:05:13Z</time>
      </trkpt>
      <trkpt lat="45.92512" lon="4.73643">
        <ele>174</ele>
        <time>2017-06-16T08:05:14Z</time>
      </trkpt>
      <trkpt lat="45.9252" lon="4.73643">
        <ele>173</ele>
        <time>2017-06-16T08:05:16Z</time>
      </trkpt>
      <trkpt lat="45.92524" lon="4.73643">
        <ele>173</ele>
        <time>2017-06-16T08:05:17Z</time>
      </trkpt>
      <trkpt lat="45.92533" lon="4.73643">
        <ele>173</ele>
        <time>2017-06-16T08:05:19Z</time>
      </trkpt>
      <trkpt lat="45.92538" lon="4.73641">
        <ele>173</ele>
        <time>2017-06-16T08:05:20Z</time>
      </trkpt>
      <trkpt lat="45.92546" lon="4.73639">
        <ele>173</ele>
        <time>2017-06-16T08:05:22Z</time>
      </trkpt>
      <trkpt lat="45.92551" lon="4.73639">
        <ele>173</ele>
        <time>2017-06-16T08:05:23Z</time>
      </trkpt>
      <trkpt lat="45.92556" lon="4.73638">
        <ele>173</ele>
        <time>2017-06-16T08:05:24Z</time>
      </trkpt>
      <trkpt lat="45.92561" lon="4.73636">
        <ele>173</ele>
        <time>2017-06-16T08:05:25Z</time>
      </trkpt>
      <trkpt lat="45.92565" lon="4.73635">
        <ele>173</ele>
        <time>2017-06-16T08:05:26Z</time>
      </trkpt>
      <trkpt lat="45.9257" lon="4.73633">
        <ele>173</ele>
        <time>2017-06-16T08:05:27Z</time>
      </trkpt>
      <trkpt lat="45.92575" lon="4.73633">
        <ele>173</ele>
        <time>2017-06-16T08:05:28Z</time>
      </trkpt>
      <trkpt lat="45.9258" lon="4.73631">
        <ele>173</ele>
        <time>2017-06-16T08:05:29Z</time>
      </trkpt>
      <trkpt lat="45.92584" lon="4.7363">
        <ele>172</ele>
        <time>2017-06-16T08:05:30Z</time>
      </trkpt>
      <trkpt lat="45.92589" lon="4.73628">
        <ele>172</ele>
        <time>2017-06-16T08:05:31Z</time>
      </trkpt>
      <trkpt lat="45.92595" lon="4.73626">
        <ele>173</ele>
        <time>2017-06-16T08:05:32Z</time>
      </trkpt>
      <trkpt lat="45.926" lon="4.73623">
        <ele>173</ele>
        <time>2017-06-16T08:05:33Z</time>
      </trkpt>
      <trkpt lat="45.92605" lon="4.73622">
        <ele>173</ele>
        <time>2017-06-16T08:05:34Z</time>
      </trkpt>
      <trkpt lat="45.9261" lon="4.73621">
        <ele>173</ele>
        <time>2017-06-16T08:05:35Z</time>
      </trkpt>
      <trkpt lat="45.92616" lon="4.73629">
        <ele>173</ele>
        <time>2017-06-16T08:05:36Z</time>
      </trkpt>
      <trkpt lat="45.9262" lon="4.73634">
        <ele>173</ele>
        <time>2017-06-16T08:05:37Z</time>
      </trkpt>
      <trkpt lat="45.92623" lon="4.73639">
        <ele>173</ele>
        <time>2017-06-16T08:05:38Z</time>
      </trkpt>
      <trkpt lat="45.92626" lon="4.73646">
        <ele>173</ele>
        <time>2017-06-16T08:05:39Z</time>
      </trkpt>
      <trkpt lat="45.92628" lon="4.73654">
        <ele>173</ele>
        <time>2017-06-16T08:05:40Z</time>
      </trkpt>
      <trkpt lat="45.9263" lon="4.7366">
        <ele>173</ele>
        <time>2017-06-16T08:05:41Z</time>
      </trkpt>
      <trkpt lat="45.92633" lon="4.73665">
        <ele>173</ele>
        <time>2017-06-16T08:05:42Z</time>
      </trkpt>
      <trkpt lat="45.92636" lon="4.73671">
        <ele>173</ele>
        <time>2017-06-16T08:05:43Z</time>
      </trkpt>
      <trkpt lat="45.92639" lon="4.73677">
        <ele>173</ele>
        <time>2017-06-16T08:05:44Z</time>
      </trkpt>
      <trkpt lat="45.92642" lon="4.73683">
        <ele>173</ele>
        <time>2017-06-16T08:05:45Z</time>
      </trkpt>
      <trkpt lat="45.92646" lon="4.73688">
        <ele>173</ele>
        <time>2017-06-16T08:05:46Z</time>
      </trkpt>
      <trkpt lat="45.9265" lon="4.73692">
        <ele>173</ele>
        <time>2017-06-16T08:05:47Z</time>
      </trkpt>
      <trkpt lat="45.92654" lon="4.73696">
        <ele>173</ele>
        <time>2017-06-16T08:05:48Z</time>
      </trkpt>
      <trkpt lat="45.92658" lon="4.73701">
        <ele>173</ele>
        <time>2017-06-16T08:05:49Z</time>
      </trkpt>
      <trkpt lat="45.92662" lon="4.73704">
        <ele>173</ele>
        <time>2017-06-16T08:05:50Z</time>
      </trkpt>
      <trkpt lat="45.92667" lon="4.73708">
        <ele>174</ele>
        <time>2017-06-16T08:05:51Z</time>
      </trkpt>
      <trkpt lat="45.92672" lon="4.73711">
        <ele>174</ele>
        <time>2017-06-16T08:05:52Z</time>
      </trkpt>
      <trkpt lat="45.92677" lon="4.73713">
        <ele>174</ele>
        <time>2017-06-16T08:05:53Z</time>
      </trkpt>
      <trkpt lat="45.92682" lon="4.73714">
        <ele>173</ele>
        <time>2017-06-16T08:05:54Z</time>
      </trkpt>
      <trkpt lat="45.92687" lon="4.73715">
        <ele>173</ele>
        <time>2017-06-16T08:05:55Z</time>
      </trkpt>
      <trkpt lat="45.92693" lon="4.73717">
        <ele>173</ele>
        <time>2017-06-16T08:05:56Z</time>
      </trkpt>
      <trkpt lat="45.92699" lon="4.73719">
        <ele>173</ele>
        <time>2017-06-16T08:05:57Z</time>
      </trkpt>
      <trkpt lat="45.92704" lon="4.7372">
        <ele>173</ele>
        <time>2017-06-16T08:05:58Z</time>
      </trkpt>
      <trkpt lat="45.92709" lon="4.73722">
        <ele>173</ele>
        <time>2017-06-16T08:05:59Z</time>
      </trkpt>
      <trkpt lat="45.92714" lon="4.73723">
        <ele>173</ele>
        <time>2017-06-16T08:06:00Z</time>
      </trkpt>
      <trkpt lat="45.92719" lon="4.73723">
        <ele>173</ele>
        <time>2017-06-16T08:06:01Z</time>
      </trkpt>
      <trkpt lat="45.92724" lon="4.73723">
        <ele>173</ele>
        <time>2017-06-16T08:06:02Z</time>
      </trkpt>
      <trkpt lat="45.92729" lon="4.73723">
        <ele>173</ele>
        <time>2017-06-16T08:06:03Z</time>
      </trkpt>
      <trkpt lat="45.92734" lon="4.73723">
        <ele>173</ele>
        <time>2017-06-16T08:06:04Z</time>
      </trkpt>
      <trkpt lat="45.92739" lon="4.73722">
        <ele>173</ele>
        <time>2017-06-16T08:06:05Z</time>
      </trkpt>
      <trkpt lat="45.92743" lon="4.73723">
        <ele>173</ele>
        <time>2017-06-16T08:06:06Z</time>
      </trkpt>
      <trkpt lat="45.92748" lon="4.73723">
        <ele>173</ele>
        <time>2017-06-16T08:06:07Z</time>
      </trkpt>
      <trkpt lat="45.92753" lon="4.73725">
        <ele>172</ele>
        <time>2017-06-16T08:06:08Z</time>
      </trkpt>
      <trkpt lat="45.92757" lon="4.73726">
        <ele>172</ele>
        <time>2017-06-16T08:06:09Z</time>
      </trkpt>
      <trkpt lat="45.92765" lon="4.73728">
        <ele>172</ele>
        <time>2017-06-16T08:06:11Z</time>
      </trkpt>
      <trkpt lat="45.92769" lon="4.73729">
        <ele>172</ele>
        <time>2017-06-16T08:06:12Z</time>
      </trkpt>
      <trkpt lat="45.92777" lon="4.73732">
        <ele>172</ele>
        <time>2017-06-16T08:06:14Z</time>
      </trkpt>
      <trkpt lat="45.9278" lon="4.73737">
        <ele>172</ele>
        <time>2017-06-16T08:06:15Z</time>
      </trkpt>
      <trkpt lat="45.92783" lon="4.73746">
        <ele>172</ele>
        <time>2017-06-16T08:06:17Z</time>
      </trkpt>
      <trkpt lat="45.92785" lon="4.73751">
        <ele>173</ele>
        <time>2017-06-16T08:06:18Z</time>
      </trkpt>
      <trkpt lat="45.92789" lon="4.73756">
        <ele>173</ele>
        <time>2017-06-16T08:06:19Z</time>
      </trkpt>
      <trkpt lat="45.92793" lon="4.73759">
        <ele>173</ele>
        <time>2017-06-16T08:06:20Z</time>
      </trkpt>
      <trkpt lat="45.92797" lon="4.73761">
        <ele>173</ele>
        <time>2017-06-16T08:06:21Z</time>
      </trkpt>
      <trkpt lat="45.92802" lon="4.73763">
        <ele>173</ele>
        <time>2017-06-16T08:06:22Z</time>
      </trkpt>
      <trkpt lat="45.92807" lon="4.73766">
        <ele>173</ele>
        <time>2017-06-16T08:06:23Z</time>
      </trkpt>
      <trkpt lat="45.92811" lon="4.73769">
        <ele>173</ele>
        <time>2017-06-16T08:06:24Z</time>
      </trkpt>
      <trkpt lat="45.92816" lon="4.73773">
        <ele>173</ele>
        <time>2017-06-16T08:06:25Z</time>
      </trkpt>
      <trkpt lat="45.92821" lon="4.73776">
        <ele>173</ele>
        <time>2017-06-16T08:06:26Z</time>
      </trkpt>
      <trkpt lat="45.92826" lon="4.7378">
        <ele>173</ele>
        <time>2017-06-16T08:06:27Z</time>
      </trkpt>
      <trkpt lat="45.92831" lon="4.73784">
        <ele>173</ele>
        <time>2017-06-16T08:06:28Z</time>
      </trkpt>
      <trkpt lat="45.92835" lon="4.73789">
        <ele>173</ele>
        <time>2017-06-16T08:06:29Z</time>
      </trkpt>
      <trkpt lat="45.9284" lon="4.73792">
        <ele>173</ele>
        <time>2017-06-16T08:06:30Z</time>
      </trkpt>
      <trkpt lat="45.92844" lon="4.73796">
        <ele>173</ele>
        <time>2017-06-16T08:06:31Z</time>
      </trkpt>
      <trkpt lat="45.92848" lon="4.73799">
        <ele>173</ele>
        <time>2017-06-16T08:06:32Z</time>
      </trkpt>
      <trkpt lat="45.92851" lon="4.73805">
        <ele>173</ele>
        <time>2017-06-16T08:06:33Z</time>
      </trkpt>
      <trkpt lat="45.92853" lon="4.73811">
        <ele>173</ele>
        <time>2017-06-16T08:06:34Z</time>
      </trkpt>
      <trkpt lat="45.92855" lon="4.73817">
        <ele>173</ele>
        <time>2017-06-16T08:06:35Z</time>
      </trkpt>
      <trkpt lat="45.92856" lon="4.73824">
        <ele>173</ele>
        <time>2017-06-16T08:06:36Z</time>
      </trkpt>
      <trkpt lat="45.92858" lon="4.73832">
        <ele>173</ele>
        <time>2017-06-16T08:06:37Z</time>
      </trkpt>
      <trkpt lat="45.9286" lon="4.73839">
        <ele>173</ele>
        <time>2017-06-16T08:06:38Z</time>
      </trkpt>
      <trkpt lat="45.92862" lon="4.73846">
        <ele>173</ele>
        <time>2017-06-16T08:06:39Z</time>
      </trkpt>
      <trkpt lat="45.92864" lon="4.73853">
        <ele>173</ele>
        <time>2017-06-16T08:06:40Z</time>
      </trkpt>
      <trkpt lat="45.92866" lon="4.7386">
        <ele>173</ele>
        <time>2017-06-16T08:06:41Z</time>
      </trkpt>
      <trkpt lat="45.92868" lon="4.73868">
        <ele>173</ele>
        <time>2017-06-16T08:06:42Z</time>
      </trkpt>
      <trkpt lat="45.9287" lon="4.73877">
        <ele>173</ele>
        <time>2017-06-16T08:06:43Z</time>
      </trkpt>
      <trkpt lat="45.92872" lon="4.73884">
        <ele>173</ele>
        <time>2017-06-16T08:06:44Z</time>
      </trkpt>
      <trkpt lat="45.92875" lon="4.7389">
        <ele>173</ele>
        <time>2017-06-16T08:06:45Z</time>
      </trkpt>
      <trkpt lat="45.92876" lon="4.739">
        <ele>173</ele>
        <time>2017-06-16T08:06:46Z</time>
      </trkpt>
      <trkpt lat="45.92875" lon="4.7391">
        <ele>173</ele>
        <time>2017-06-16T08:06:47Z</time>
      </trkpt>
      <trkpt lat="45.92875" lon="4.73918">
        <ele>172</ele>
        <time>2017-06-16T08:06:48Z</time>
      </trkpt>
      <trkpt lat="45.92875" lon="4.73927">
        <ele>172</ele>
        <time>2017-06-16T08:06:49Z</time>
      </trkpt>
      <trkpt lat="45.92876" lon="4.73935">
        <ele>172</ele>
        <time>2017-06-16T08:06:50Z</time>
      </trkpt>
      <trkpt lat="45.92876" lon="4.73942">
        <ele>172</ele>
        <time>2017-06-16T08:06:51Z</time>
      </trkpt>
      <trkpt lat="45.92877" lon="4.73949">
        <ele>172</ele>
        <time>2017-06-16T08:06:52Z</time>
      </trkpt>
      <trkpt lat="45.92877" lon="4.73962">
        <ele>172</ele>
        <time>2017-06-16T08:06:54Z</time>
      </trkpt>
      <trkpt lat="45.92877" lon="4.73969">
        <ele>172</ele>
        <time>2017-06-16T08:06:55Z</time>
      </trkpt>
      <trkpt lat="45.92877" lon="4.73981">
        <ele>172</ele>
        <time>2017-06-16T08:06:57Z</time>
      </trkpt>
      <trkpt lat="45.92876" lon="4.73987">
        <ele>172</ele>
        <time>2017-06-16T08:06:58Z</time>
      </trkpt>
      <trkpt lat="45.92873" lon="4.73999">
        <ele>173</ele>
        <time>2017-06-16T08:07:00Z</time>
      </trkpt>
      <trkpt lat="45.92871" lon="4.74005">
        <ele>172</ele>
        <time>2017-06-16T08:07:01Z</time>
      </trkpt>
      <trkpt lat="45.9287" lon="4.74011">
        <ele>172</ele>
        <time>2017-06-16T08:07:02Z</time>
      </trkpt>
      <trkpt lat="45.92869" lon="4.74018">
        <ele>172</ele>
        <time>2017-06-16T08:07:03Z</time>
      </trkpt>
      <trkpt lat="45.92868" lon="4.74025">
        <ele>172</ele>
        <time>2017-06-16T08:07:04Z</time>
      </trkpt>
      <trkpt lat="45.92866" lon="4.74032">
        <ele>172</ele>
        <time>2017-06-16T08:07:05Z</time>
      </trkpt>
      <trkpt lat="45.92864" lon="4.74039">
        <ele>172</ele>
        <time>2017-06-16T08:07:06Z</time>
      </trkpt>
      <trkpt lat="45.92862" lon="4.74045">
        <ele>172</ele>
        <time>2017-06-16T08:07:07Z</time>
      </trkpt>
      <trkpt lat="45.92859" lon="4.74052">
        <ele>172</ele>
        <time>2017-06-16T08:07:08Z</time>
      </trkpt>
      <trkpt lat="45.92855" lon="4.74058">
        <ele>172</ele>
        <time>2017-06-16T08:07:09Z</time>
      </trkpt>
      <trkpt lat="45.92851" lon="4.74063">
        <ele>172</ele>
        <time>2017-06-16T08:07:10Z</time>
      </trkpt>
      <trkpt lat="45.92847" lon="4.74068">
        <ele>172</ele>
        <time>2017-06-16T08:07:11Z</time>
      </trkpt>
      <trkpt lat="45.92843" lon="4.74074">
        <ele>172</ele>
        <time>2017-06-16T08:07:12Z</time>
      </trkpt>
      <trkpt lat="45.92839" lon="4.74079">
        <ele>171</ele>
        <time>2017-06-16T08:07:13Z</time>
      </trkpt>
      <trkpt lat="45.92836" lon="4.74084">
        <ele>171</ele>
        <time>2017-06-16T08:07:14Z</time>
      </trkpt>
      <trkpt lat="45.92832" lon="4.74088">
        <ele>171</ele>
        <time>2017-06-16T08:07:15Z</time>
      </trkpt>
      <trkpt lat="45.92828" lon="4.74094">
        <ele>171</ele>
        <time>2017-06-16T08:07:16Z</time>
      </trkpt>
      <trkpt lat="45.92825" lon="4.74099">
        <ele>171</ele>
        <time>2017-06-16T08:07:17Z</time>
      </trkpt>
      <trkpt lat="45.9282" lon="4.74104">
        <ele>171</ele>
        <time>2017-06-16T08:07:18Z</time>
      </trkpt>
      <trkpt lat="45.92816" lon="4.74109">
        <ele>172</ele>
        <time>2017-06-16T08:07:19Z</time>
      </trkpt>
      <trkpt lat="45.92811" lon="4.74114">
        <ele>172</ele>
        <time>2017-06-16T08:07:20Z</time>
      </trkpt>
      <trkpt lat="45.92806" lon="4.7412">
        <ele>172</ele>
        <time>2017-06-16T08:07:21Z</time>
      </trkpt>
      <trkpt lat="45.92802" lon="4.74125">
        <ele>172</ele>
        <time>2017-06-16T08:07:22Z</time>
      </trkpt>
      <trkpt lat="45.92797" lon="4.74129">
        <ele>172</ele>
        <time>2017-06-16T08:07:23Z</time>
      </trkpt>
      <trkpt lat="45.92792" lon="4.74134">
        <ele>172</ele>
        <time>2017-06-16T08:07:24Z</time>
      </trkpt>
      <trkpt lat="45.92788" lon="4.74139">
        <ele>172</ele>
        <time>2017-06-16T08:07:25Z</time>
      </trkpt>
      <trkpt lat="45.92783" lon="4.74143">
        <ele>172</ele>
        <time>2017-06-16T08:07:26Z</time>
      </trkpt>
      <trkpt lat="45.92778" lon="4.74147">
        <ele>172</ele>
        <time>2017-06-16T08:07:27Z</time>
      </trkpt>
      <trkpt lat="45.92774" lon="4.74153">
        <ele>172</ele>
        <time>2017-06-16T08:07:28Z</time>
      </trkpt>
      <trkpt lat="45.92769" lon="4.74158">
        <ele>172</ele>
        <time>2017-06-16T08:07:29Z</time>
      </trkpt>
      <trkpt lat="45.92764" lon="4.74163">
        <ele>172</ele>
        <time>2017-06-16T08:07:30Z</time>
      </trkpt>
      <trkpt lat="45.92758" lon="4.74168">
        <ele>172</ele>
        <time>2017-06-16T08:07:31Z</time>
      </trkpt>
      <trkpt lat="45.92753" lon="4.74174">
        <ele>172</ele>
        <time>2017-06-16T08:07:32Z</time>
      </trkpt>
      <trkpt lat="45.92749" lon="4.7418">
        <ele>172</ele>
        <time>2017-06-16T08:07:33Z</time>
      </trkpt>
      <trkpt lat="45.92744" lon="4.74187">
        <ele>172</ele>
        <time>2017-06-16T08:07:34Z</time>
      </trkpt>
      <trkpt lat="45.9274" lon="4.74193">
        <ele>171</ele>
        <time>2017-06-16T08:07:35Z</time>
      </trkpt>
      <trkpt lat="45.92736" lon="4.74199">
        <ele>171</ele>
        <time>2017-06-16T08:07:36Z</time>
      </trkpt>
      <trkpt lat="45.92731" lon="4.74205">
        <ele>171</ele>
        <time>2017-06-16T08:07:37Z</time>
      </trkpt>
      <trkpt lat="45.92727" lon="4.74211">
        <ele>171</ele>
        <time>2017-06-16T08:07:38Z</time>
      </trkpt>
      <trkpt lat="45.92723" lon="4.74217">
        <ele>171</ele>
        <time>2017-06-16T08:07:39Z</time>
      </trkpt>
      <trkpt lat="45.92719" lon="4.74223">
        <ele>171</ele>
        <time>2017-06-16T08:07:40Z</time>
      </trkpt>
      <trkpt lat="45.92714" lon="4.7423">
        <ele>171</ele>
        <time>2017-06-16T08:07:41Z</time>
      </trkpt>
      <trkpt lat="45.9271" lon="4.74237">
        <ele>171</ele>
        <time>2017-06-16T08:07:42Z</time>
      </trkpt>
      <trkpt lat="45.92706" lon="4.74244">
        <ele>171</ele>
        <time>2017-06-16T08:07:43Z</time>
      </trkpt>
      <trkpt lat="45.92702" lon="4.74251">
        <ele>171</ele>
        <time>2017-06-16T08:07:44Z</time>
      </trkpt>
      <trkpt lat="45.92697" lon="4.74258">
        <ele>171</ele>
        <time>2017-06-16T08:07:45Z</time>
      </trkpt>
      <trkpt lat="45.92693" lon="4.74265">
        <ele>171</ele>
        <time>2017-06-16T08:07:46Z</time>
      </trkpt>
      <trkpt lat="45.92688" lon="4.74272">
        <ele>171</ele>
        <time>2017-06-16T08:07:47Z</time>
      </trkpt>
      <trkpt lat="45.92684" lon="4.74279">
        <ele>171</ele>
        <time>2017-06-16T08:07:48Z</time>
      </trkpt>
      <trkpt lat="45.9268" lon="4.74286">
        <ele>171</ele>
        <time>2017-06-16T08:07:49Z</time>
      </trkpt>
      <trkpt lat="45.92677" lon="4.74293">
        <ele>171</ele>
        <time>2017-06-16T08:07:50Z</time>
      </trkpt>
      <trkpt lat="45.92673" lon="4.743">
        <ele>171</ele>
        <time>2017-06-16T08:07:51Z</time>
      </trkpt>
      <trkpt lat="45.92669" lon="4.74306">
        <ele>171</ele>
        <time>2017-06-16T08:07:52Z</time>
      </trkpt>
      <trkpt lat="45.92665" lon="4.74313">
        <ele>171</ele>
        <time>2017-06-16T08:07:53Z</time>
      </trkpt>
      <trkpt lat="45.92662" lon="4.74319">
        <ele>171</ele>
        <time>2017-06-16T08:07:54Z</time>
      </trkpt>
      <trkpt lat="45.92658" lon="4.74325">
        <ele>171</ele>
        <time>2017-06-16T08:07:55Z</time>
      </trkpt>
      <trkpt lat="45.92655" lon="4.74331">
        <ele>171</ele>
        <time>2017-06-16T08:07:56Z</time>
      </trkpt>
      <trkpt lat="45.92651" lon="4.74338">
        <ele>171</ele>
        <time>2017-06-16T08:07:57Z</time>
      </trkpt>
      <trkpt lat="45.92648" lon="4.74345">
        <ele>171</ele>
        <time>2017-06-16T08:07:58Z</time>
      </trkpt>
      <trkpt lat="45.92645" lon="4.74352">
        <ele>171</ele>
        <time>2017-06-16T08:07:59Z</time>
      </trkpt>
      <trkpt lat="45.92641" lon="4.74359">
        <ele>171</ele>
        <time>2017-06-16T08:08:00Z</time>
      </trkpt>
      <trkpt lat="45.92637" lon="4.74366">
        <ele>171</ele>
        <time>2017-06-16T08:08:01Z</time>
      </trkpt>
      <trkpt lat="45.92633" lon="4.74374">
        <ele>171</ele>
        <time>2017-06-16T08:08:02Z</time>
      </trkpt>
      <trkpt lat="45.92628" lon="4.74381">
        <ele>170</ele>
        <time>2017-06-16T08:08:03Z</time>
      </trkpt>
      <trkpt lat="45.92624" lon="4.74387">
        <ele>170</ele>
        <time>2017-06-16T08:08:04Z</time>
      </trkpt>
      <trkpt lat="45.9262" lon="4.74395">
        <ele>170</ele>
        <time>2017-06-16T08:08:05Z</time>
      </trkpt>
      <trkpt lat="45.92615" lon="4.74402">
        <ele>170</ele>
        <time>2017-06-16T08:08:06Z</time>
      </trkpt>
      <trkpt lat="45.92611" lon="4.7441">
        <ele>170</ele>
        <time>2017-06-16T08:08:07Z</time>
      </trkpt>
      <trkpt lat="45.92606" lon="4.74418">
        <ele>170</ele>
        <time>2017-06-16T08:08:08Z</time>
      </trkpt>
      <trkpt lat="45.92602" lon="4.74425">
        <ele>170</ele>
        <time>2017-06-16T08:08:09Z</time>
      </trkpt>
      <trkpt lat="45.92599" lon="4.74432">
        <ele>170</ele>
        <time>2017-06-16T08:08:10Z</time>
      </trkpt>
      <trkpt lat="45.92595" lon="4.74439">
        <ele>170</ele>
        <time>2017-06-16T08:08:11Z</time>
      </trkpt>
      <trkpt lat="45.92591" lon="4.74446">
        <ele>170</ele>
        <time>2017-06-16T08:08:12Z</time>
      </trkpt>
      <trkpt lat="45.92587" lon="4.74453">
        <ele>170</ele>
        <time>2017-06-16T08:08:13Z</time>
      </trkpt>
      <trkpt lat="45.92583" lon="4.7446">
        <ele>170</ele>
        <time>2017-06-16T08:08:14Z</time>
      </trkpt>
      <trkpt lat="45.92579" lon="4.74467">
        <ele>170</ele>
        <time>2017-06-16T08:08:15Z</time>
      </trkpt>
      <trkpt lat="45.92575" lon="4.74474">
        <ele>170</ele>
        <time>2017-06-16T08:08:16Z</time>
      </trkpt>
      <trkpt lat="45.92572" lon="4.74481">
        <ele>170</ele>
        <time>2017-06-16T08:08:17Z</time>
      </trkpt>
      <trkpt lat="45.92568" lon="4.74489">
        <ele>170</ele>
        <time>2017-06-16T08:08:18Z</time>
      </trkpt>
      <trkpt lat="45.92564" lon="4.74497">
        <ele>170</ele>
        <time>2017-06-16T08:08:19Z</time>
      </trkpt>
      <trkpt lat="45.9256" lon="4.74504">
        <ele>170</ele>
        <time>2017-06-16T08:08:20Z</time>
      </trkpt>
      <trkpt lat="45.92556" lon="4.74512">
        <ele>170</ele>
        <time>2017-06-16T08:08:21Z</time>
      </trkpt>
      <trkpt lat="45.92552" lon="4.7452">
        <ele>170</ele>
        <time>2017-06-16T08:08:22Z</time>
      </trkpt>
      <trkpt lat="45.92548" lon="4.74528">
        <ele>170</ele>
        <time>2017-06-16T08:08:23Z</time>
      </trkpt>
      <trkpt lat="45.92543" lon="4.74536">
        <ele>170</ele>
        <time>2017-06-16T08:08:24Z</time>
      </trkpt>
      <trkpt lat="45.92538" lon="4.74544">
        <ele>171</ele>
        <time>2017-06-16T08:08:25Z</time>
      </trkpt>
      <trkpt lat="45.92533" lon="4.74552">
        <ele>171</ele>
        <time>2017-06-16T08:08:26Z</time>
      </trkpt>
      <trkpt lat="45.92528" lon="4.74559">
        <ele>171</ele>
        <time>2017-06-16T08:08:27Z</time>
      </trkpt>
      <trkpt lat="45.92523" lon="4.74565">
        <ele>171</ele>
        <time>2017-06-16T08:08:28Z</time>
      </trkpt>
      <trkpt lat="45.92519" lon="4.74572">
        <ele>171</ele>
        <time>2017-06-16T08:08:29Z</time>
      </trkpt>
      <trkpt lat="45.92514" lon="4.74578">
        <ele>171</ele>
        <time>2017-06-16T08:08:30Z</time>
      </trkpt>
      <trkpt lat="45.92509" lon="4.74584">
        <ele>171</ele>
        <time>2017-06-16T08:08:31Z</time>
      </trkpt>
      <trkpt lat="45.92504" lon="4.74589">
        <ele>171</ele>
        <time>2017-06-16T08:08:32Z</time>
      </trkpt>
      <trkpt lat="45.92499" lon="4.74595">
        <ele>171</ele>
        <time>2017-06-16T08:08:33Z</time>
      </trkpt>
      <trkpt lat="45.92495" lon="4.746">
        <ele>171</ele>
        <time>2017-06-16T08:08:34Z</time>
      </trkpt>
      <trkpt lat="45.9249" lon="4.74606">
        <ele>171</ele>
        <time>2017-06-16T08:08:35Z</time>
      </trkpt>
      <trkpt lat="45.92485" lon="4.74611">
        <ele>171</ele>
        <time>2017-06-16T08:08:36Z</time>
      </trkpt>
      <trkpt lat="45.9248" lon="4.74617">
        <ele>171</ele>
        <time>2017-06-16T08:08:37Z</time>
      </trkpt>
      <trkpt lat="45.92475" lon="4.74624">
        <ele>171</ele>
        <time>2017-06-16T08:08:38Z</time>
      </trkpt>
      <trkpt lat="45.92471" lon="4.74631">
        <ele>171</ele>
        <time>2017-06-16T08:08:39Z</time>
      </trkpt>
      <trkpt lat="45.92467" lon="4.74637">
        <ele>171</ele>
        <time>2017-06-16T08:08:40Z</time>
      </trkpt>
      <trkpt lat="45.92462" lon="4.74644">
        <ele>171</ele>
        <time>2017-06-16T08:08:41Z</time>
      </trkpt>
      <trkpt lat="45.92458" lon="4.74652">
        <ele>171</ele>
        <time>2017-06-16T08:08:42Z</time>
      </trkpt>
      <trkpt lat="45.92453" lon="4.74659">
        <ele>171</ele>
        <time>2017-06-16T08:08:43Z</time>
      </trkpt>
      <trkpt lat="45.92449" lon="4.74666">
        <ele>171</ele>
        <time>2017-06-16T08:08:44Z</time>
      </trkpt>
      <trkpt lat="45.92445" lon="4.74673">
        <ele>171</ele>
        <time>2017-06-16T08:08:45Z</time>
      </trkpt>
      <trkpt lat="45.92441" lon="4.7468">
        <ele>171</ele>
        <time>2017-06-16T08:08:46Z</time>
      </trkpt>
      <trkpt lat="45.92437" lon="4.74686">
        <ele>171</ele>
        <time>2017-06-16T08:08:47Z</time>
      </trkpt>
      <trkpt lat="45.92434" lon="4.74694">
        <ele>171</ele>
        <time>2017-06-16T08:08:48Z</time>
      </trkpt>
      <trkpt lat="45.92431" lon="4.74701">
        <ele>171</ele>
        <time>2017-06-16T08:08:49Z</time>
      </trkpt>
      <trkpt lat="45.92428" lon="4.74709">
        <ele>171</ele>
        <time>2017-06-16T08:08:50Z</time>
      </trkpt>
      <trkpt lat="45.92425" lon="4.74717">
        <ele>171</ele>
        <time>2017-06-16T08:08:51Z</time>
      </trkpt>
      <trkpt lat="45.92423" lon="4.74724">
        <ele>171</ele>
        <time>2017-06-16T08:08:52Z</time>
      </trkpt>
      <trkpt lat="45.9242" lon="4.74732">
        <ele>171</ele>
        <time>2017-06-16T08:08:53Z</time>
      </trkpt>
      <trkpt lat="45.92417" lon="4.74741">
        <ele>172</ele>
        <time>2017-06-16T08:08:54Z</time>
      </trkpt>
      <trkpt lat="45.92415" lon="4.74749">
        <ele>172</ele>
        <time>2017-06-16T08:08:55Z</time>
      </trkpt>
      <trkpt lat="45.92412" lon="4.74758">
        <ele>172</ele>
        <time>2017-06-16T08:08:56Z</time>
      </trkpt>
      <trkpt lat="45.9241" lon="4.74766">
        <ele>172</ele>
        <time>2017-06-16T08:08:57Z</time>
      </trkpt>
      <trkpt lat="45.92408" lon="4.74776">
        <ele>171</ele>
        <time>2017-06-16T08:08:58Z</time>
      </trkpt>
      <trkpt lat="45.92406" lon="4.74785">
        <ele>171</ele>
        <time>2017-06-16T08:08:59Z</time>
      </trkpt>
      <trkpt lat="45.92404" lon="4.74795">
        <ele>171</ele>
        <time>2017-06-16T08:09:00Z</time>
      </trkpt>
      <trkpt lat="45.92402" lon="4.74805">
        <ele>171</ele>
        <time>2017-06-16T08:09:01Z</time>
      </trkpt>
      <trkpt lat="45.924" lon="4.74815">
        <ele>171</ele>
        <time>2017-06-16T08:09:02Z</time>
      </trkpt>
      <trkpt lat="45.92398" lon="4.74825">
        <ele>171</ele>
        <time>2017-06-16T08:09:03Z</time>
      </trkpt>
      <trkpt lat="45.92396" lon="4.74834">
        <ele>171</ele>
        <time>2017-06-16T08:09:04Z</time>
      </trkpt>
      <trkpt lat="45.92393" lon="4.74844">
        <ele>171</ele>
        <time>2017-06-16T08:09:05Z</time>
      </trkpt>
      <trkpt lat="45.92391" lon="4.74854">
        <ele>171</ele>
        <time>2017-06-16T08:09:06Z</time>
      </trkpt>
      <trkpt lat="45.92388" lon="4.74863">
        <ele>171</ele>
        <time>2017-06-16T08:09:07Z</time>
      </trkpt>
      <trkpt lat="45.92385" lon="4.74872">
        <ele>171</ele>
        <time>2017-06-16T08:09:08Z</time>
      </trkpt>
      <trkpt lat="45.92381" lon="4.7488">
        <ele>171</ele>
        <time>2017-06-16T08:09:09Z</time>
      </trkpt>
      <trkpt lat="45.92378" lon="4.74889">
        <ele>171</ele>
        <time>2017-06-16T08:09:10Z</time>
      </trkpt>
      <trkpt lat="45.92375" lon="4.74898">
        <ele>171</ele>
        <time>2017-06-16T08:09:11Z</time>
      </trkpt>
      <trkpt lat="45.92372" lon="4.74907">
        <ele>171</ele>
        <time>2017-06-16T08:09:12Z</time>
      </trkpt>
      <trkpt lat="45.92369" lon="4.74915">
        <ele>171</ele>
        <time>2017-06-16T08:09:13Z</time>
      </trkpt>
      <trkpt lat="45.92365" lon="4.74923">
        <ele>170</ele>
        <time>2017-06-16T08:09:14Z</time>
      </trkpt>
      <trkpt lat="45.92362" lon="4.74931">
        <ele>170</ele>
        <time>2017-06-16T08:09:15Z</time>
      </trkpt>
      <trkpt lat="45.92359" lon="4.74939">
        <ele>170</ele>
        <time>2017-06-16T08:09:16Z</time>
      </trkpt>
      <trkpt lat="45.92355" lon="4.74946">
        <ele>170</ele>
        <time>2017-06-16T08:09:17Z</time>
      </trkpt>
      <trkpt lat="45.92352" lon="4.74953">
        <ele>170</ele>
        <time>2017-06-16T08:09:18Z</time>
      </trkpt>
      <trkpt lat="45.92349" lon="4.7496">
        <ele>170</ele>
        <time>2017-06-16T08:09:19Z</time>
      </trkpt>
      <trkpt lat="45.92347" lon="4.74968">
        <ele>170</ele>
        <time>2017-06-16T08:09:20Z</time>
      </trkpt>
      <trkpt lat="45.92344" lon="4.74976">
        <ele>170</ele>
        <time>2017-06-16T08:09:21Z</time>
      </trkpt>
      <trkpt lat="45.92341" lon="4.74984">
        <ele>170</ele>
        <time>2017-06-16T08:09:22Z</time>
      </trkpt>
      <trkpt lat="45.92338" lon="4.74991">
        <ele>170</ele>
        <time>2017-06-16T08:09:23Z</time>
      </trkpt>
      <trkpt lat="45.92335" lon="4.74998">
        <ele>170</ele>
        <time>2017-06-16T08:09:24Z</time>
      </trkpt>
      <trkpt lat="45.92332" lon="4.75006">
        <ele>170</ele>
        <time>2017-06-16T08:09:25Z</time>
      </trkpt>
      <trkpt lat="45.92329" lon="4.75013">
        <ele>171</ele>
        <time>2017-06-16T08:09:26Z</time>
      </trkpt>
      <trkpt lat="45.92325" lon="4.75021">
        <ele>171</ele>
        <time>2017-06-16T08:09:27Z</time>
      </trkpt>
      <trkpt lat="45.92321" lon="4.75029">
        <ele>171</ele>
        <time>2017-06-16T08:09:28Z</time>
      </trkpt>
      <trkpt lat="45.92317" lon="4.75036">
        <ele>171</ele>
        <time>2017-06-16T08:09:29Z</time>
      </trkpt>
      <trkpt lat="45.92313" lon="4.75043">
        <ele>172</ele>
        <time>2017-06-16T08:09:30Z</time>
      </trkpt>
      <trkpt lat="45.92308" lon="4.7505">
        <ele>172</ele>
        <time>2017-06-16T08:09:31Z</time>
      </trkpt>
      <trkpt lat="45.92304" lon="4.75057">
        <ele>172</ele>
        <time>2017-06-16T08:09:32Z</time>
      </trkpt>
      <trkpt lat="45.92299" lon="4.75064">
        <ele>172</ele>
        <time>2017-06-16T08:09:33Z</time>
      </trkpt>
      <trkpt lat="45.92294" lon="4.7507">
        <ele>172</ele>
        <time>2017-06-16T08:09:34Z</time>
      </trkpt>
      <trkpt lat="45.92289" lon="4.75076">
        <ele>172</ele>
        <time>2017-06-16T08:09:35Z</time>
      </trkpt>
      <trkpt lat="45.92284" lon="4.75081">
        <ele>172</ele>
        <time>2017-06-16T08:09:36Z</time>
      </trkpt>
      <trkpt lat="45.92279" lon="4.75086">
        <ele>173</ele>
        <time>2017-06-16T08:09:37Z</time>
      </trkpt>
      <trkpt lat="45.92274" lon="4.75091">
        <ele>173</ele>
        <time>2017-06-16T08:09:38Z</time>
      </trkpt>
      <trkpt lat="45.9227" lon="4.75096">
        <ele>173</ele>
        <time>2017-06-16T08:09:39Z</time>
      </trkpt>
      <trkpt lat="45.92266" lon="4.75102">
        <ele>173</ele>
        <time>2017-06-16T08:09:40Z</time>
      </trkpt>
      <trkpt lat="45.92261" lon="4.75107">
        <ele>174</ele>
        <time>2017-06-16T08:09:41Z</time>
      </trkpt>
      <trkpt lat="45.92257" lon="4.75112">
        <ele>174</ele>
        <time>2017-06-16T08:09:42Z</time>
      </trkpt>
      <trkpt lat="45.92252" lon="4.75118">
        <ele>174</ele>
        <time>2017-06-16T08:09:43Z</time>
      </trkpt>
      <trkpt lat="45.92248" lon="4.75123">
        <ele>174</ele>
        <time>2017-06-16T08:09:44Z</time>
      </trkpt>
      <trkpt lat="45.92243" lon="4.75129">
        <ele>174</ele>
        <time>2017-06-16T08:09:45Z</time>
      </trkpt>
      <trkpt lat="45.92239" lon="4.75135">
        <ele>174</ele>
        <time>2017-06-16T08:09:46Z</time>
      </trkpt>
      <trkpt lat="45.92235" lon="4.75141">
        <ele>174</ele>
        <time>2017-06-16T08:09:47Z</time>
      </trkpt>
      <trkpt lat="45.92231" lon="4.75147">
        <ele>174</ele>
        <time>2017-06-16T08:09:48Z</time>
      </trkpt>
      <trkpt lat="45.92227" lon="4.75154">
        <ele>174</ele>
        <time>2017-06-16T08:09:49Z</time>
      </trkpt>
      <trkpt lat="45.92224" lon="4.75161">
        <ele>174</ele>
        <time>2017-06-16T08:09:50Z</time>
      </trkpt>
      <trkpt lat="45.92221" lon="4.75168">
        <ele>175</ele>
        <time>2017-06-16T08:09:51Z</time>
      </trkpt>
      <trkpt lat="45.92218" lon="4.75176">
        <ele>175</ele>
        <time>2017-06-16T08:09:52Z</time>
      </trkpt>
      <trkpt lat="45.92216" lon="4.75183">
        <ele>175</ele>
        <time>2017-06-16T08:09:53Z</time>
      </trkpt>
      <trkpt lat="45.92214" lon="4.75191">
        <ele>175</ele>
        <time>2017-06-16T08:09:54Z</time>
      </trkpt>
      <trkpt lat="45.92212" lon="4.75199">
        <ele>175</ele>
        <time>2017-06-16T08:09:55Z</time>
      </trkpt>
      <trkpt lat="45.92211" lon="4.75206">
        <ele>175</ele>
        <time>2017-06-16T08:09:56Z</time>
      </trkpt>
      <trkpt lat="45.9221" lon="4.75214">
        <ele>175</ele>
        <time>2017-06-16T08:09:57Z</time>
      </trkpt>
      <trkpt lat="45.92209" lon="4.75222">
        <ele>175</ele>
        <time>2017-06-16T08:09:58Z</time>
      </trkpt>
      <trkpt lat="45.92209" lon="4.7523">
        <ele>175</ele>
        <time>2017-06-16T08:09:59Z</time>
      </trkpt>
      <trkpt lat="45.92208" lon="4.75238">
        <ele>175</ele>
        <time>2017-06-16T08:10:00Z</time>
      </trkpt>
      <trkpt lat="45.92208" lon="4.75246">
        <ele>175</ele>
        <time>2017-06-16T08:10:01Z</time>
      </trkpt>
      <trkpt lat="45.92207" lon="4.75253">
        <ele>175</ele>
        <time>2017-06-16T08:10:02Z</time>
      </trkpt>
      <trkpt lat="45.92207" lon="4.75261">
        <ele>176</ele>
        <time>2017-06-16T08:10:03Z</time>
      </trkpt>
      <trkpt lat="45.92207" lon="4.75268">
        <ele>176</ele>
        <time>2017-06-16T08:10:04Z</time>
      </trkpt>
      <trkpt lat="45.92206" lon="4.75275">
        <ele>176</ele>
        <time>2017-06-16T08:10:05Z</time>
      </trkpt>
      <trkpt lat="45.92206" lon="4.75281">
        <ele>176</ele>
        <time>2017-06-16T08:10:06Z</time>
      </trkpt>
      <trkpt lat="45.92206" lon="4.75288">
        <ele>176</ele>
        <time>2017-06-16T08:10:07Z</time>
      </trkpt>
      <trkpt lat="45.92206" lon="4.75295">
        <ele>176</ele>
        <time>2017-06-16T08:10:08Z</time>
      </trkpt>
      <trkpt lat="45.92206" lon="4.75302">
        <ele>176</ele>
        <time>2017-06-16T08:10:09Z</time>
      </trkpt>
      <trkpt lat="45.92206" lon="4.7531">
        <ele>176</ele>
        <time>2017-06-16T08:10:10Z</time>
      </trkpt>
      <trkpt lat="45.92205" lon="4.75317">
        <ele>176</ele>
        <time>2017-06-16T08:10:11Z</time>
      </trkpt>
      <trkpt lat="45.92205" lon="4.75325">
        <ele>176</ele>
        <time>2017-06-16T08:10:12Z</time>
      </trkpt>
      <trkpt lat="45.92204" lon="4.75331">
        <ele>176</ele>
        <time>2017-06-16T08:10:13Z</time>
      </trkpt>
      <trkpt lat="45.92202" lon="4.75338">
        <ele>177</ele>
        <time>2017-06-16T08:10:14Z</time>
      </trkpt>
      <trkpt lat="45.92201" lon="4.75345">
        <ele>177</ele>
        <time>2017-06-16T08:10:15Z</time>
      </trkpt>
      <trkpt lat="45.922" lon="4.75352">
        <ele>177</ele>
        <time>2017-06-16T08:10:16Z</time>
      </trkpt>
      <trkpt lat="45.92197" lon="4.75359">
        <ele>177</ele>
        <time>2017-06-16T08:10:17Z</time>
      </trkpt>
      <trkpt lat="45.92194" lon="4.75366">
        <ele>177</ele>
        <time>2017-06-16T08:10:18Z</time>
      </trkpt>
      <trkpt lat="45.92191" lon="4.75374">
        <ele>177</ele>
        <time>2017-06-16T08:10:19Z</time>
      </trkpt>
      <trkpt lat="45.92188" lon="4.75381">
        <ele>177</ele>
        <time>2017-06-16T08:10:20Z</time>
      </trkpt>
      <trkpt lat="45.92185" lon="4.75389">
        <ele>177</ele>
        <time>2017-06-16T08:10:21Z</time>
      </trkpt>
      <trkpt lat="45.92182" lon="4.75396">
        <ele>177</ele>
        <time>2017-06-16T08:10:22Z</time>
      </trkpt>
      <trkpt lat="45.9218" lon="4.75403">
        <ele>177</ele>
        <time>2017-06-16T08:10:23Z</time>
      </trkpt>
      <trkpt lat="45.92177" lon="4.7541">
        <ele>177</ele>
        <time>2017-06-16T08:10:24Z</time>
      </trkpt>
      <trkpt lat="45.92174" lon="4.75418">
        <ele>177</ele>
        <time>2017-06-16T08:10:25Z</time>
      </trkpt>
      <trkpt lat="45.92171" lon="4.75425">
        <ele>177</ele>
        <time>2017-06-16T08:10:26Z</time>
      </trkpt>
      <trkpt lat="45.92169" lon="4.75432">
        <ele>177</ele>
        <time>2017-06-16T08:10:27Z</time>
      </trkpt>
      <trkpt lat="45.92166" lon="4.75439">
        <ele>177</ele>
        <time>2017-06-16T08:10:28Z</time>
      </trkpt>
      <trkpt lat="45.92163" lon="4.75446">
        <ele>177</ele>
        <time>2017-06-16T08:10:29Z</time>
      </trkpt>
      <trkpt lat="45.9216" lon="4.75454">
        <ele>176</ele>
        <time>2017-06-16T08:10:30Z</time>
      </trkpt>
      <trkpt lat="45.92156" lon="4.75462">
        <ele>176</ele>
        <time>2017-06-16T08:10:31Z</time>
      </trkpt>
      <trkpt lat="45.92153" lon="4.7547">
        <ele>176</ele>
        <time>2017-06-16T08:10:32Z</time>
      </trkpt>
      <trkpt lat="45.92151" lon="4.75478">
        <ele>176</ele>
        <time>2017-06-16T08:10:33Z</time>
      </trkpt>
      <trkpt lat="45.92149" lon="4.75485">
        <ele>176</ele>
        <time>2017-06-16T08:10:34Z</time>
      </trkpt>
      <trkpt lat="45.92145" lon="4.75493">
        <ele>176</ele>
        <time>2017-06-16T08:10:35Z</time>
      </trkpt>
      <trkpt lat="45.92141" lon="4.75501">
        <ele>175</ele>
        <time>2017-06-16T08:10:36Z</time>
      </trkpt>
      <trkpt lat="45.92137" lon="4.75509">
        <ele>174</ele>
        <time>2017-06-16T08:10:37Z</time>
      </trkpt>
      <trkpt lat="45.92132" lon="4.75516">
        <ele>174</ele>
        <time>2017-06-16T08:10:38Z</time>
      </trkpt>
      <trkpt lat="45.92128" lon="4.75524">
        <ele>174</ele>
        <time>2017-06-16T08:10:39Z</time>
      </trkpt>
      <trkpt lat="45.92124" lon="4.75532">
        <ele>174</ele>
        <time>2017-06-16T08:10:40Z</time>
      </trkpt>
      <trkpt lat="45.92121" lon="4.75539">
        <ele>174</ele>
        <time>2017-06-16T08:10:41Z</time>
      </trkpt>
      <trkpt lat="45.92117" lon="4.75547">
        <ele>174</ele>
        <time>2017-06-16T08:10:42Z</time>
      </trkpt>
      <trkpt lat="45.92114" lon="4.75554">
        <ele>174</ele>
        <time>2017-06-16T08:10:43Z</time>
      </trkpt>
      <trkpt lat="45.92111" lon="4.75561">
        <ele>174</ele>
        <time>2017-06-16T08:10:44Z</time>
      </trkpt>
      <trkpt lat="45.92108" lon="4.75568">
        <ele>174</ele>
        <time>2017-06-16T08:10:45Z</time>
      </trkpt>
      <trkpt lat="45.92107" lon="4.75577">
        <ele>174</ele>
        <time>2017-06-16T08:10:46Z</time>
      </trkpt>
      <trkpt lat="45.92108" lon="4.75586">
        <ele>174</ele>
        <time>2017-06-16T08:10:47Z</time>
      </trkpt>
      <trkpt lat="45.92111" lon="4.75593">
        <ele>174</ele>
        <time>2017-06-16T08:10:48Z</time>
      </trkpt>
      <trkpt lat="45.92115" lon="4.75599">
        <ele>174</ele>
        <time>2017-06-16T08:10:49Z</time>
      </trkpt>
      <trkpt lat="45.92121" lon="4.75604">
        <ele>174</ele>
        <time>2017-06-16T08:10:50Z</time>
      </trkpt>
      <trkpt lat="45.92125" lon="4.75608">
        <ele>174</ele>
        <time>2017-06-16T08:10:51Z</time>
      </trkpt>
      <trkpt lat="45.9213" lon="4.75612">
        <ele>174</ele>
        <time>2017-06-16T08:10:52Z</time>
      </trkpt>
      <trkpt lat="45.92135" lon="4.75615">
        <ele>174</ele>
        <time>2017-06-16T08:10:53Z</time>
      </trkpt>
      <trkpt lat="45.9214" lon="4.75619">
        <ele>174</ele>
        <time>2017-06-16T08:10:54Z</time>
      </trkpt>
      <trkpt lat="45.92145" lon="4.75623">
        <ele>174</ele>
        <time>2017-06-16T08:10:55Z</time>
      </trkpt>
      <trkpt lat="45.92149" lon="4.75627">
        <ele>174</ele>
        <time>2017-06-16T08:10:56Z</time>
      </trkpt>
      <trkpt lat="45.92154" lon="4.75632">
        <ele>174</ele>
        <time>2017-06-16T08:10:57Z</time>
      </trkpt>
      <trkpt lat="45.92158" lon="4.75636">
        <ele>174</ele>
        <time>2017-06-16T08:10:58Z</time>
      </trkpt>
      <trkpt lat="45.92163" lon="4.7564">
        <ele>174</ele>
        <time>2017-06-16T08:10:59Z</time>
      </trkpt>
      <trkpt lat="45.92168" lon="4.75644">
        <ele>174</ele>
        <time>2017-06-16T08:11:00Z</time>
      </trkpt>
      <trkpt lat="45.92172" lon="4.75649">
        <ele>174</ele>
        <time>2017-06-16T08:11:01Z</time>
      </trkpt>
      <trkpt lat="45.92177" lon="4.75653">
        <ele>174</ele>
        <time>2017-06-16T08:11:02Z</time>
      </trkpt>
      <trkpt lat="45.92181" lon="4.75657">
        <ele>174</ele>
        <time>2017-06-16T08:11:03Z</time>
      </trkpt>
      <trkpt lat="45.92186" lon="4.75662">
        <ele>174</ele>
        <time>2017-06-16T08:11:04Z</time>
      </trkpt>
      <trkpt lat="45.9219" lon="4.75666">
        <ele>174</ele>
        <time>2017-06-16T08:11:05Z</time>
      </trkpt>
      <trkpt lat="45.92194" lon="4.7567">
        <ele>174</ele>
        <time>2017-06-16T08:11:06Z</time>
      </trkpt>
      <trkpt lat="45.92199" lon="4.75676">
        <ele>174</ele>
        <time>2017-06-16T08:11:07Z</time>
      </trkpt>
      <trkpt lat="45.92202" lon="4.75681">
        <ele>174</ele>
        <time>2017-06-16T08:11:08Z</time>
      </trkpt>
      <trkpt lat="45.92207" lon="4.75686">
        <ele>174</ele>
        <time>2017-06-16T08:11:09Z</time>
      </trkpt>
      <trkpt lat="45.92212" lon="4.7569">
        <ele>174</ele>
        <time>2017-06-16T08:11:10Z</time>
      </trkpt>
      <trkpt lat="45.92217" lon="4.75694">
        <ele>174</ele>
        <time>2017-06-16T08:11:11Z</time>
      </trkpt>
      <trkpt lat="45.92221" lon="4.75699">
        <ele>174</ele>
        <time>2017-06-16T08:11:12Z</time>
      </trkpt>
      <trkpt lat="45.92225" lon="4.75704">
        <ele>174</ele>
        <time>2017-06-16T08:11:13Z</time>
      </trkpt>
      <trkpt lat="45.92229" lon="4.75709">
        <ele>174</ele>
        <time>2017-06-16T08:11:14Z</time>
      </trkpt>
      <trkpt lat="45.92233" lon="4.75715">
        <ele>174</ele>
        <time>2017-06-16T08:11:15Z</time>
      </trkpt>
      <trkpt lat="45.92237" lon="4.75721">
        <ele>174</ele>
        <time>2017-06-16T08:11:16Z</time>
      </trkpt>
      <trkpt lat="45.92239" lon="4.75728">
        <ele>174</ele>
        <time>2017-06-16T08:11:17Z</time>
      </trkpt>
      <trkpt lat="45.92242" lon="4.75734">
        <ele>174</ele>
        <time>2017-06-16T08:11:18Z</time>
      </trkpt>
      <trkpt lat="45.92244" lon="4.75741">
        <ele>174</ele>
        <time>2017-06-16T08:11:19Z</time>
      </trkpt>
      <trkpt lat="45.92246" lon="4.75748">
        <ele>174</ele>
        <time>2017-06-16T08:11:20Z</time>
      </trkpt>
      <trkpt lat="45.92247" lon="4.75755">
        <ele>174</ele>
        <time>2017-06-16T08:11:21Z</time>
      </trkpt>
      <trkpt lat="45.92249" lon="4.75763">
        <ele>174</ele>
        <time>2017-06-16T08:11:22Z</time>
      </trkpt>
      <trkpt lat="45.9225" lon="4.75771">
        <ele>174</ele>
        <time>2017-06-16T08:11:23Z</time>
      </trkpt>
      <trkpt lat="45.92251" lon="4.7578">
        <ele>174</ele>
        <time>2017-06-16T08:11:24Z</time>
      </trkpt>
      <trkpt lat="45.92252" lon="4.75788">
        <ele>174</ele>
        <time>2017-06-16T08:11:25Z</time>
      </trkpt>
      <trkpt lat="45.92254" lon="4.75796">
        <ele>174</ele>
        <time>2017-06-16T08:11:26Z</time>
      </trkpt>
      <trkpt lat="45.92255" lon="4.75803">
        <ele>174</ele>
        <time>2017-06-16T08:11:27Z</time>
      </trkpt>
      <trkpt lat="45.92258" lon="4.7581">
        <ele>174</ele>
        <time>2017-06-16T08:11:28Z</time>
      </trkpt>
      <trkpt lat="45.9226" lon="4.75816">
        <ele>174</ele>
        <time>2017-06-16T08:11:29Z</time>
      </trkpt>
      <trkpt lat="45.92264" lon="4.75822">
        <ele>174</ele>
        <time>2017-06-16T08:11:30Z</time>
      </trkpt>
      <trkpt lat="45.92268" lon="4.75827">
        <ele>174</ele>
        <time>2017-06-16T08:11:31Z</time>
      </trkpt>
      <trkpt lat="45.92272" lon="4.75832">
        <ele>174</ele>
        <time>2017-06-16T08:11:32Z</time>
      </trkpt>
      <trkpt lat="45.92277" lon="4.75836">
        <ele>173</ele>
        <time>2017-06-16T08:11:33Z</time>
      </trkpt>
      <trkpt lat="45.92282" lon="4.7584">
        <ele>173</ele>
        <time>2017-06-16T08:11:34Z</time>
      </trkpt>
      <trkpt lat="45.92288" lon="4.75844">
        <ele>173</ele>
        <time>2017-06-16T08:11:35Z</time>
      </trkpt>
      <trkpt lat="45.92293" lon="4.75847">
        <ele>173</ele>
        <time>2017-06-16T08:11:36Z</time>
      </trkpt>
      <trkpt lat="45.92299" lon="4.7585">
        <ele>173</ele>
        <time>2017-06-16T08:11:37Z</time>
      </trkpt>
      <trkpt lat="45.92303" lon="4.75853">
        <ele>173</ele>
        <time>2017-06-16T08:11:38Z</time>
      </trkpt>
      <trkpt lat="45.92309" lon="4.75857">
        <ele>173</ele>
        <time>2017-06-16T08:11:39Z</time>
      </trkpt>
      <trkpt lat="45.92314" lon="4.7586">
        <ele>173</ele>
        <time>2017-06-16T08:11:40Z</time>
      </trkpt>
      <trkpt lat="45.92319" lon="4.75864">
        <ele>173</ele>
        <time>2017-06-16T08:11:41Z</time>
      </trkpt>
      <trkpt lat="45.92324" lon="4.75868">
        <ele>173</ele>
        <time>2017-06-16T08:11:42Z</time>
      </trkpt>
      <trkpt lat="45.92329" lon="4.75872">
        <ele>173</ele>
        <time>2017-06-16T08:11:43Z</time>
      </trkpt>
      <trkpt lat="45.92335" lon="4.75875">
        <ele>173</ele>
        <time>2017-06-16T08:11:44Z</time>
      </trkpt>
      <trkpt lat="45.9234" lon="4.75879">
        <ele>173</ele>
        <time>2017-06-16T08:11:45Z</time>
      </trkpt>
      <trkpt lat="45.92345" lon="4.75882">
        <ele>173</ele>
        <time>2017-06-16T08:11:46Z</time>
      </trkpt>
      <trkpt lat="45.9235" lon="4.75885">
        <ele>173</ele>
        <time>2017-06-16T08:11:47Z</time>
      </trkpt>
      <trkpt lat="45.92355" lon="4.75889">
        <ele>173</ele>
        <time>2017-06-16T08:11:48Z</time>
      </trkpt>
      <trkpt lat="45.92361" lon="4.75892">
        <ele>173</ele>
        <time>2017-06-16T08:11:49Z</time>
      </trkpt>
      <trkpt lat="45.92366" lon="4.75895">
        <ele>173</ele>
        <time>2017-06-16T08:11:50Z</time>
      </trkpt>
      <trkpt lat="45.9237" lon="4.75898">
        <ele>173</ele>
        <time>2017-06-16T08:11:51Z</time>
      </trkpt>
      <trkpt lat="45.92375" lon="4.75901">
        <ele>173</ele>
        <time>2017-06-16T08:11:52Z</time>
      </trkpt>
      <trkpt lat="45.9238" lon="4.75904">
        <ele>173</ele>
        <time>2017-06-16T08:11:53Z</time>
      </trkpt>
      <trkpt lat="45.92385" lon="4.75908">
        <ele>173</ele>
        <time>2017-06-16T08:11:54Z</time>
      </trkpt>
      <trkpt lat="45.9239" lon="4.75911">
        <ele>173</ele>
        <time>2017-06-16T08:11:55Z</time>
      </trkpt>
      <trkpt lat="45.92394" lon="4.75914">
        <ele>173</ele>
        <time>2017-06-16T08:11:56Z</time>
      </trkpt>
      <trkpt lat="45.92399" lon="4.75918">
        <ele>172</ele>
        <time>2017-06-16T08:11:57Z</time>
      </trkpt>
      <trkpt lat="45.92404" lon="4.75921">
        <ele>172</ele>
        <time>2017-06-16T08:11:58Z</time>
      </trkpt>
      <trkpt lat="45.92409" lon="4.75925">
        <ele>172</ele>
        <time>2017-06-16T08:11:59Z</time>
      </trkpt>
      <trkpt lat="45.92414" lon="4.75928">
        <ele>172</ele>
        <time>2017-06-16T08:12:00Z</time>
      </trkpt>
      <trkpt lat="45.92418" lon="4.75931">
        <ele>172</ele>
        <time>2017-06-16T08:12:01Z</time>
      </trkpt>
      <trkpt lat="45.92423" lon="4.75935">
        <ele>172</ele>
        <time>2017-06-16T08:12:02Z</time>
      </trkpt>
      <trkpt lat="45.92428" lon="4.75938">
        <ele>172</ele>
        <time>2017-06-16T08:12:03Z</time>
      </trkpt>
      <trkpt lat="45.92433" lon="4.75941">
        <ele>172</ele>
        <time>2017-06-16T08:12:04Z</time>
      </trkpt>
      <trkpt lat="45.92437" lon="4.75945">
        <ele>172</ele>
        <time>2017-06-16T08:12:05Z</time>
      </trkpt>
      <trkpt lat="45.92442" lon="4.75948">
        <ele>172</ele>
        <time>2017-06-16T08:12:06Z</time>
      </trkpt>
      <trkpt lat="45.92446" lon="4.75952">
        <ele>172</ele>
        <time>2017-06-16T08:12:07Z</time>
      </trkpt>
      <trkpt lat="45.9245" lon="4.75955">
        <ele>172</ele>
        <time>2017-06-16T08:12:08Z</time>
      </trkpt>
      <trkpt lat="45.92455" lon="4.75958">
        <ele>172</ele>
        <time>2017-06-16T08:12:09Z</time>
      </trkpt>
      <trkpt lat="45.92459" lon="4.75962">
        <ele>172</ele>
        <time>2017-06-16T08:12:10Z</time>
      </trkpt>
      <trkpt lat="45.92463" lon="4.75965">
        <ele>172</ele>
        <time>2017-06-16T08:12:11Z</time>
      </trkpt>
      <trkpt lat="45.92468" lon="4.75969">
        <ele>172</ele>
        <time>2017-06-16T08:12:12Z</time>
      </trkpt>
      <trkpt lat="45.92472" lon="4.75972">
        <ele>172</ele>
        <time>2017-06-16T08:12:13Z</time>
      </trkpt>
      <trkpt lat="45.92477" lon="4.75976">
        <ele>172</ele>
        <time>2017-06-16T08:12:14Z</time>
      </trkpt>
      <trkpt lat="45.92481" lon="4.75979">
        <ele>172</ele>
        <time>2017-06-16T08:12:15Z</time>
      </trkpt>
      <trkpt lat="45.92486" lon="4.75983">
        <ele>172</ele>
        <time>2017-06-16T08:12:16Z</time>
      </trkpt>
      <trkpt lat="45.92491" lon="4.75986">
        <ele>172</ele>
        <time>2017-06-16T08:12:17Z</time>
      </trkpt>
      <trkpt lat="45.92495" lon="4.7599">
        <ele>172</ele>
        <time>2017-06-16T08:12:18Z</time>
      </trkpt>
      <trkpt lat="45.92499" lon="4.75993">
        <ele>172</ele>
        <time>2017-06-16T08:12:19Z</time>
      </trkpt>
      <trkpt lat="45.92504" lon="4.75997">
        <ele>172</ele>
        <time>2017-06-16T08:12:20Z</time>
      </trkpt>
      <trkpt lat="45.92508" lon="4.76">
        <ele>172</ele>
        <time>2017-06-16T08:12:21Z</time>
      </trkpt>
      <trkpt lat="45.92513" lon="4.76003">
        <ele>172</ele>
        <time>2017-06-16T08:12:22Z</time>
      </trkpt>
      <trkpt lat="45.92517" lon="4.76006">
        <ele>172</ele>
        <time>2017-06-16T08:12:23Z</time>
      </trkpt>
      <trkpt lat="45.92524" lon="4.76012">
        <ele>172</ele>
        <time>2017-06-16T08:12:25Z</time>
      </trkpt>
      <trkpt lat="45.92528" lon="4.76015">
        <ele>172</ele>
        <time>2017-06-16T08:12:26Z</time>
      </trkpt>
      <trkpt lat="45.92536" lon="4.7602">
        <ele>172</ele>
        <time>2017-06-16T08:12:28Z</time>
      </trkpt>
      <trkpt lat="45.9254" lon="4.76022">
        <ele>172</ele>
        <time>2017-06-16T08:12:29Z</time>
      </trkpt>
      <trkpt lat="45.92544" lon="4.76025">
        <ele>172</ele>
        <time>2017-06-16T08:12:30Z</time>
      </trkpt>
      <trkpt lat="45.92548" lon="4.76028">
        <ele>172</ele>
        <time>2017-06-16T08:12:31Z</time>
      </trkpt>
      <trkpt lat="45.92556" lon="4.76034">
        <ele>172</ele>
        <time>2017-06-16T08:12:33Z</time>
      </trkpt>
      <trkpt lat="45.9256" lon="4.76036">
        <ele>172</ele>
        <time>2017-06-16T08:12:34Z</time>
      </trkpt>
      <trkpt lat="45.92564" lon="4.7604">
        <ele>172</ele>
        <time>2017-06-16T08:12:35Z</time>
      </trkpt>
      <trkpt lat="45.92568" lon="4.76043">
        <ele>171</ele>
        <time>2017-06-16T08:12:36Z</time>
      </trkpt>
      <trkpt lat="45.92573" lon="4.76046">
        <ele>171</ele>
        <time>2017-06-16T08:12:37Z</time>
      </trkpt>
      <trkpt lat="45.92578" lon="4.76049">
        <ele>171</ele>
        <time>2017-06-16T08:12:38Z</time>
      </trkpt>
      <trkpt lat="45.92582" lon="4.76052">
        <ele>171</ele>
        <time>2017-06-16T08:12:39Z</time>
      </trkpt>
      <trkpt lat="45.92586" lon="4.76055">
        <ele>171</ele>
        <time>2017-06-16T08:12:40Z</time>
      </trkpt>
      <trkpt lat="45.92591" lon="4.76059">
        <ele>171</ele>
        <time>2017-06-16T08:12:41Z</time>
      </trkpt>
      <trkpt lat="45.92595" lon="4.76062">
        <ele>171</ele>
        <time>2017-06-16T08:12:42Z</time>
      </trkpt>
      <trkpt lat="45.92599" lon="4.76065">
        <ele>171</ele>
        <time>2017-06-16T08:12:43Z</time>
      </trkpt>
      <trkpt lat="45.92604" lon="4.76068">
        <ele>171</ele>
        <time>2017-06-16T08:12:44Z</time>
      </trkpt>
      <trkpt lat="45.92609" lon="4.76071">
        <ele>171</ele>
        <time>2017-06-16T08:12:45Z</time>
      </trkpt>
      <trkpt lat="45.92614" lon="4.76075">
        <ele>171</ele>
        <time>2017-06-16T08:12:46Z</time>
      </trkpt>
      <trkpt lat="45.92619" lon="4.76078">
        <ele>171</ele>
        <time>2017-06-16T08:12:47Z</time>
      </trkpt>
      <trkpt lat="45.92623" lon="4.76081">
        <ele>171</ele>
        <time>2017-06-16T08:12:48Z</time>
      </trkpt>
      <trkpt lat="45.92628" lon="4.76085">
        <ele>170</ele>
        <time>2017-06-16T08:12:49Z</time>
      </trkpt>
      <trkpt lat="45.92633" lon="4.76088">
        <ele>170</ele>
        <time>2017-06-16T08:12:50Z</time>
      </trkpt>
      <trkpt lat="45.92639" lon="4.76092">
        <ele>170</ele>
        <time>2017-06-16T08:12:51Z</time>
      </trkpt>
      <trkpt lat="45.92644" lon="4.76096">
        <ele>170</ele>
        <time>2017-06-16T08:12:52Z</time>
      </trkpt>
      <trkpt lat="45.92649" lon="4.761">
        <ele>170</ele>
        <time>2017-06-16T08:12:53Z</time>
      </trkpt>
      <trkpt lat="45.92655" lon="4.76103">
        <ele>170</ele>
        <time>2017-06-16T08:12:54Z</time>
      </trkpt>
      <trkpt lat="45.92661" lon="4.76107">
        <ele>170</ele>
        <time>2017-06-16T08:12:55Z</time>
      </trkpt>
      <trkpt lat="45.92667" lon="4.76111">
        <ele>169</ele>
        <time>2017-06-16T08:12:56Z</time>
      </trkpt>
      <trkpt lat="45.92674" lon="4.76115">
        <ele>169</ele>
        <time>2017-06-16T08:12:57Z</time>
      </trkpt>
      <trkpt lat="45.9268" lon="4.76119">
        <ele>169</ele>
        <time>2017-06-16T08:12:58Z</time>
      </trkpt>
      <trkpt lat="45.92686" lon="4.76123">
        <ele>169</ele>
        <time>2017-06-16T08:12:59Z</time>
      </trkpt>
      <trkpt lat="45.92693" lon="4.76128">
        <ele>169</ele>
        <time>2017-06-16T08:13:00Z</time>
      </trkpt>
      <trkpt lat="45.92699" lon="4.76132">
        <ele>169</ele>
        <time>2017-06-16T08:13:01Z</time>
      </trkpt>
      <trkpt lat="45.92706" lon="4.76137">
        <ele>169</ele>
        <time>2017-06-16T08:13:02Z</time>
      </trkpt>
      <trkpt lat="45.92712" lon="4.76141">
        <ele>168</ele>
        <time>2017-06-16T08:13:03Z</time>
      </trkpt>
      <trkpt lat="45.92718" lon="4.76145">
        <ele>168</ele>
        <time>2017-06-16T08:13:04Z</time>
      </trkpt>
      <trkpt lat="45.92725" lon="4.7615">
        <ele>168</ele>
        <time>2017-06-16T08:13:05Z</time>
      </trkpt>
      <trkpt lat="45.92731" lon="4.76154">
        <ele>168</ele>
        <time>2017-06-16T08:13:06Z</time>
      </trkpt>
      <trkpt lat="45.92737" lon="4.76158">
        <ele>168</ele>
        <time>2017-06-16T08:13:07Z</time>
      </trkpt>
      <trkpt lat="45.92743" lon="4.76163">
        <ele>167</ele>
        <time>2017-06-16T08:13:08Z</time>
      </trkpt>
      <trkpt lat="45.92748" lon="4.76167">
        <ele>167</ele>
        <time>2017-06-16T08:13:09Z</time>
      </trkpt>
      <trkpt lat="45.92753" lon="4.76171">
        <ele>167</ele>
        <time>2017-06-16T08:13:10Z</time>
      </trkpt>
      <trkpt lat="45.92759" lon="4.76175">
        <ele>167</ele>
        <time>2017-06-16T08:13:11Z</time>
      </trkpt>
      <trkpt lat="45.92764" lon="4.76179">
        <ele>167</ele>
        <time>2017-06-16T08:13:12Z</time>
      </trkpt>
      <trkpt lat="45.92769" lon="4.76184">
        <ele>167</ele>
        <time>2017-06-16T08:13:13Z</time>
      </trkpt>
      <trkpt lat="45.92773" lon="4.76189">
        <ele>168</ele>
        <time>2017-06-16T08:13:14Z</time>
      </trkpt>
      <trkpt lat="45.92778" lon="4.76193">
        <ele>168</ele>
        <time>2017-06-16T08:13:15Z</time>
      </trkpt>
      <trkpt lat="45.92783" lon="4.76198">
        <ele>168</ele>
        <time>2017-06-16T08:13:16Z</time>
      </trkpt>
      <trkpt lat="45.92788" lon="4.76202">
        <ele>168</ele>
        <time>2017-06-16T08:13:17Z</time>
      </trkpt>
      <trkpt lat="45.92793" lon="4.76207">
        <ele>168</ele>
        <time>2017-06-16T08:13:18Z</time>
      </trkpt>
      <trkpt lat="45.92798" lon="4.76212">
        <ele>168</ele>
        <time>2017-06-16T08:13:19Z</time>
      </trkpt>
      <trkpt lat="45.92803" lon="4.76218">
        <ele>168</ele>
        <time>2017-06-16T08:13:20Z</time>
      </trkpt>
      <trkpt lat="45.92809" lon="4.76223">
        <ele>168</ele>
        <time>2017-06-16T08:13:21Z</time>
      </trkpt>
      <trkpt lat="45.92814" lon="4.76228">
        <ele>168</ele>
        <time>2017-06-16T08:13:22Z</time>
      </trkpt>
      <trkpt lat="45.92819" lon="4.76234">
        <ele>168</ele>
        <time>2017-06-16T08:13:23Z</time>
      </trkpt>
      <trkpt lat="45.92824" lon="4.76239">
        <ele>168</ele>
        <time>2017-06-16T08:13:24Z</time>
      </trkpt>
      <trkpt lat="45.92829" lon="4.76243">
        <ele>169</ele>
        <time>2017-06-16T08:13:25Z</time>
      </trkpt>
      <trkpt lat="45.92833" lon="4.76248">
        <ele>169</ele>
        <time>2017-06-16T08:13:26Z</time>
      </trkpt>
      <trkpt lat="45.92837" lon="4.76252">
        <ele>169</ele>
        <time>2017-06-16T08:13:27Z</time>
      </trkpt>
      <trkpt lat="45.92842" lon="4.76256">
        <ele>169</ele>
        <time>2017-06-16T08:13:28Z</time>
      </trkpt>
      <trkpt lat="45.92846" lon="4.7626">
        <ele>169</ele>
        <time>2017-06-16T08:13:29Z</time>
      </trkpt>
      <trkpt lat="45.9285" lon="4.76265">
        <ele>169</ele>
        <time>2017-06-16T08:13:30Z</time>
      </trkpt>
      <trkpt lat="45.92854" lon="4.76269">
        <ele>169</ele>
        <time>2017-06-16T08:13:31Z</time>
      </trkpt>
      <trkpt lat="45.92858" lon="4.76273">
        <ele>169</ele>
        <time>2017-06-16T08:13:32Z</time>
      </trkpt>
      <trkpt lat="45.92862" lon="4.76278">
        <ele>169</ele>
        <time>2017-06-16T08:13:33Z</time>
      </trkpt>
      <trkpt lat="45.92867" lon="4.76282">
        <ele>169</ele>
        <time>2017-06-16T08:13:34Z</time>
      </trkpt>
      <trkpt lat="45.92871" lon="4.76286">
        <ele>169</ele>
        <time>2017-06-16T08:13:35Z</time>
      </trkpt>
      <trkpt lat="45.92875" lon="4.7629">
        <ele>169</ele>
        <time>2017-06-16T08:13:36Z</time>
      </trkpt>
      <trkpt lat="45.9288" lon="4.76294">
        <ele>169</ele>
        <time>2017-06-16T08:13:37Z</time>
      </trkpt>
      <trkpt lat="45.92884" lon="4.76299">
        <ele>169</ele>
        <time>2017-06-16T08:13:38Z</time>
      </trkpt>
      <trkpt lat="45.92888" lon="4.76304">
        <ele>169</ele>
        <time>2017-06-16T08:13:39Z</time>
      </trkpt>
      <trkpt lat="45.92892" lon="4.76308">
        <ele>169</ele>
        <time>2017-06-16T08:13:40Z</time>
      </trkpt>
      <trkpt lat="45.92896" lon="4.76312">
        <ele>169</ele>
        <time>2017-06-16T08:13:41Z</time>
      </trkpt>
      <trkpt lat="45.929" lon="4.76316">
        <ele>169</ele>
        <time>2017-06-16T08:13:42Z</time>
      </trkpt>
      <trkpt lat="45.92905" lon="4.7632">
        <ele>169</ele>
        <time>2017-06-16T08:13:43Z</time>
      </trkpt>
      <trkpt lat="45.92909" lon="4.76324">
        <ele>169</ele>
        <time>2017-06-16T08:13:44Z</time>
      </trkpt>
      <trkpt lat="45.92914" lon="4.7633">
        <ele>169</ele>
        <time>2017-06-16T08:13:45Z</time>
      </trkpt>
      <trkpt lat="45.92918" lon="4.76335">
        <ele>169</ele>
        <time>2017-06-16T08:13:46Z</time>
      </trkpt>
      <trkpt lat="45.92924" lon="4.7634">
        <ele>169</ele>
        <time>2017-06-16T08:13:47Z</time>
      </trkpt>
      <trkpt lat="45.92929" lon="4.76345">
        <ele>169</ele>
        <time>2017-06-16T08:13:48Z</time>
      </trkpt>
      <trkpt lat="45.92934" lon="4.7635">
        <ele>169</ele>
        <time>2017-06-16T08:13:49Z</time>
      </trkpt>
      <trkpt lat="45.92938" lon="4.76355">
        <ele>169</ele>
        <time>2017-06-16T08:13:50Z</time>
      </trkpt>
      <trkpt lat="45.92943" lon="4.7636">
        <ele>169</ele>
        <time>2017-06-16T08:13:51Z</time>
      </trkpt>
      <trkpt lat="45.92948" lon="4.76365">
        <ele>169</ele>
        <time>2017-06-16T08:13:52Z</time>
      </trkpt>
      <trkpt lat="45.92952" lon="4.7637">
        <ele>169</ele>
        <time>2017-06-16T08:13:53Z</time>
      </trkpt>
      <trkpt lat="45.92957" lon="4.76374">
        <ele>169</ele>
        <time>2017-06-16T08:13:54Z</time>
      </trkpt>
      <trkpt lat="45.92962" lon="4.76378">
        <ele>169</ele>
        <time>2017-06-16T08:13:55Z</time>
      </trkpt>
      <trkpt lat="45.92966" lon="4.76382">
        <ele>169</ele>
        <time>2017-06-16T08:13:56Z</time>
      </trkpt>
      <trkpt lat="45.92971" lon="4.76387">
        <ele>169</ele>
        <time>2017-06-16T08:13:57Z</time>
      </trkpt>
      <trkpt lat="45.92976" lon="4.76391">
        <ele>169</ele>
        <time>2017-06-16T08:13:58Z</time>
      </trkpt>
      <trkpt lat="45.9298" lon="4.76396">
        <ele>169</ele>
        <time>2017-06-16T08:13:59Z</time>
      </trkpt>
      <trkpt lat="45.92985" lon="4.764">
        <ele>169</ele>
        <time>2017-06-16T08:14:00Z</time>
      </trkpt>
      <trkpt lat="45.92989" lon="4.76404">
        <ele>169</ele>
        <time>2017-06-16T08:14:01Z</time>
      </trkpt>
      <trkpt lat="45.92993" lon="4.76408">
        <ele>169</ele>
        <time>2017-06-16T08:14:02Z</time>
      </trkpt>
      <trkpt lat="45.92997" lon="4.76413">
        <ele>169</ele>
        <time>2017-06-16T08:14:03Z</time>
      </trkpt>
      <trkpt lat="45.93002" lon="4.76417">
        <ele>169</ele>
        <time>2017-06-16T08:14:04Z</time>
      </trkpt>
      <trkpt lat="45.93006" lon="4.76421">
        <ele>169</ele>
        <time>2017-06-16T08:14:05Z</time>
      </trkpt>
      <trkpt lat="45.9301" lon="4.76425">
        <ele>169</ele>
        <time>2017-06-16T08:14:06Z</time>
      </trkpt>
      <trkpt lat="45.93014" lon="4.76429">
        <ele>169</ele>
        <time>2017-06-16T08:14:07Z</time>
      </trkpt>
      <trkpt lat="45.93018" lon="4.76433">
        <ele>169</ele>
        <time>2017-06-16T08:14:08Z</time>
      </trkpt>
      <trkpt lat="45.93023" lon="4.76438">
        <ele>169</ele>
        <time>2017-06-16T08:14:09Z</time>
      </trkpt>
      <trkpt lat="45.93027" lon="4.76442">
        <ele>169</ele>
        <time>2017-06-16T08:14:10Z</time>
      </trkpt>
      <trkpt lat="45.93031" lon="4.76447">
        <ele>169</ele>
        <time>2017-06-16T08:14:11Z</time>
      </trkpt>
      <trkpt lat="45.93035" lon="4.76451">
        <ele>169</ele>
        <time>2017-06-16T08:14:12Z</time>
      </trkpt>
      <trkpt lat="45.9304" lon="4.76456">
        <ele>169</ele>
        <time>2017-06-16T08:14:13Z</time>
      </trkpt>
      <trkpt lat="45.93044" lon="4.7646">
        <ele>169</ele>
        <time>2017-06-16T08:14:14Z</time>
      </trkpt>
      <trkpt lat="45.93049" lon="4.76464">
        <ele>169</ele>
        <time>2017-06-16T08:14:15Z</time>
      </trkpt>
      <trkpt lat="45.93052" lon="4.76469">
        <ele>169</ele>
        <time>2017-06-16T08:14:16Z</time>
      </trkpt>
      <trkpt lat="45.93057" lon="4.76473">
        <ele>169</ele>
        <time>2017-06-16T08:14:17Z</time>
      </trkpt>
      <trkpt lat="45.93061" lon="4.76478">
        <ele>169</ele>
        <time>2017-06-16T08:14:18Z</time>
      </trkpt>
      <trkpt lat="45.93064" lon="4.76483">
        <ele>169</ele>
        <time>2017-06-16T08:14:19Z</time>
      </trkpt>
      <trkpt lat="45.93069" lon="4.76487">
        <ele>169</ele>
        <time>2017-06-16T08:14:20Z</time>
      </trkpt>
      <trkpt lat="45.93073" lon="4.76491">
        <ele>170</ele>
        <time>2017-06-16T08:14:21Z</time>
      </trkpt>
      <trkpt lat="45.93078" lon="4.76496">
        <ele>170</ele>
        <time>2017-06-16T08:14:22Z</time>
      </trkpt>
      <trkpt lat="45.93083" lon="4.76501">
        <ele>170</ele>
        <time>2017-06-16T08:14:23Z</time>
      </trkpt>
      <trkpt lat="45.93088" lon="4.76506">
        <ele>170</ele>
        <time>2017-06-16T08:14:24Z</time>
      </trkpt>
      <trkpt lat="45.93093" lon="4.76511">
        <ele>170</ele>
        <time>2017-06-16T08:14:25Z</time>
      </trkpt>
      <trkpt lat="45.93098" lon="4.76516">
        <ele>170</ele>
        <time>2017-06-16T08:14:26Z</time>
      </trkpt>
      <trkpt lat="45.93103" lon="4.76521">
        <ele>170</ele>
        <time>2017-06-16T08:14:27Z</time>
      </trkpt>
      <trkpt lat="45.93108" lon="4.76526">
        <ele>170</ele>
        <time>2017-06-16T08:14:28Z</time>
      </trkpt>
      <trkpt lat="45.93112" lon="4.7653">
        <ele>170</ele>
        <time>2017-06-16T08:14:29Z</time>
      </trkpt>
      <trkpt lat="45.93117" lon="4.76534">
        <ele>170</ele>
        <time>2017-06-16T08:14:30Z</time>
      </trkpt>
      <trkpt lat="45.93121" lon="4.76538">
        <ele>170</ele>
        <time>2017-06-16T08:14:31Z</time>
      </trkpt>
      <trkpt lat="45.93126" lon="4.76542">
        <ele>170</ele>
        <time>2017-06-16T08:14:32Z</time>
      </trkpt>
      <trkpt lat="45.93133" lon="4.76549">
        <ele>170</ele>
        <time>2017-06-16T08:14:34Z</time>
      </trkpt>
      <trkpt lat="45.93138" lon="4.76552">
        <ele>170</ele>
        <time>2017-06-16T08:14:35Z</time>
      </trkpt>
      <trkpt lat="45.93143" lon="4.76556">
        <ele>170</ele>
        <time>2017-06-16T08:14:36Z</time>
      </trkpt>
      <trkpt lat="45.93147" lon="4.7656">
        <ele>170</ele>
        <time>2017-06-16T08:14:37Z</time>
      </trkpt>
      <trkpt lat="45.93151" lon="4.76564">
        <ele>170</ele>
        <time>2017-06-16T08:14:38Z</time>
      </trkpt>
      <trkpt lat="45.93156" lon="4.76568">
        <ele>170</ele>
        <time>2017-06-16T08:14:39Z</time>
      </trkpt>
      <trkpt lat="45.9316" lon="4.76573">
        <ele>170</ele>
        <time>2017-06-16T08:14:40Z</time>
      </trkpt>
      <trkpt lat="45.93164" lon="4.76577">
        <ele>171</ele>
        <time>2017-06-16T08:14:41Z</time>
      </trkpt>
      <trkpt lat="45.93167" lon="4.76581">
        <ele>171</ele>
        <time>2017-06-16T08:14:42Z</time>
      </trkpt>
      <trkpt lat="45.93172" lon="4.76586">
        <ele>171</ele>
        <time>2017-06-16T08:14:43Z</time>
      </trkpt>
      <trkpt lat="45.93176" lon="4.7659">
        <ele>171</ele>
        <time>2017-06-16T08:14:44Z</time>
      </trkpt>
      <trkpt lat="45.9318" lon="4.76595">
        <ele>171</ele>
        <time>2017-06-16T08:14:45Z</time>
      </trkpt>
      <trkpt lat="45.93185" lon="4.766">
        <ele>171</ele>
        <time>2017-06-16T08:14:46Z</time>
      </trkpt>
      <trkpt lat="45.93191" lon="4.76604">
        <ele>171</ele>
        <time>2017-06-16T08:14:47Z</time>
      </trkpt>
      <trkpt lat="45.93196" lon="4.76608">
        <ele>170</ele>
        <time>2017-06-16T08:14:48Z</time>
      </trkpt>
      <trkpt lat="45.932" lon="4.76613">
        <ele>170</ele>
        <time>2017-06-16T08:14:49Z</time>
      </trkpt>
      <trkpt lat="45.93205" lon="4.76618">
        <ele>170</ele>
        <time>2017-06-16T08:14:50Z</time>
      </trkpt>
      <trkpt lat="45.93209" lon="4.76622">
        <ele>170</ele>
        <time>2017-06-16T08:14:51Z</time>
      </trkpt>
      <trkpt lat="45.93214" lon="4.76626">
        <ele>170</ele>
        <time>2017-06-16T08:14:52Z</time>
      </trkpt>
      <trkpt lat="45.93219" lon="4.76631">
        <ele>171</ele>
        <time>2017-06-16T08:14:53Z</time>
      </trkpt>
      <trkpt lat="45.93223" lon="4.76635">
        <ele>171</ele>
        <time>2017-06-16T08:14:54Z</time>
      </trkpt>
      <trkpt lat="45.93227" lon="4.7664">
        <ele>171</ele>
        <time>2017-06-16T08:14:55Z</time>
      </trkpt>
      <trkpt lat="45.93231" lon="4.76644">
        <ele>171</ele>
        <time>2017-06-16T08:14:56Z</time>
      </trkpt>
      <trkpt lat="45.93234" lon="4.76648">
        <ele>171</ele>
        <time>2017-06-16T08:14:57Z</time>
      </trkpt>
      <trkpt lat="45.93239" lon="4.76653">
        <ele>171</ele>
        <time>2017-06-16T08:14:58Z</time>
      </trkpt>
      <trkpt lat="45.93243" lon="4.76657">
        <ele>171</ele>
        <time>2017-06-16T08:14:59Z</time>
      </trkpt>
      <trkpt lat="45.93248" lon="4.76661">
        <ele>172</ele>
        <time>2017-06-16T08:15:00Z</time>
      </trkpt>
      <trkpt lat="45.93252" lon="4.76665">
        <ele>172</ele>
        <time>2017-06-16T08:15:01Z</time>
      </trkpt>
      <trkpt lat="45.93256" lon="4.76669">
        <ele>172</ele>
        <time>2017-06-16T08:15:02Z</time>
      </trkpt>
      <trkpt lat="45.93261" lon="4.76673">
        <ele>172</ele>
        <time>2017-06-16T08:15:03Z</time>
      </trkpt>
      <trkpt lat="45.93265" lon="4.76677">
        <ele>172</ele>
        <time>2017-06-16T08:15:04Z</time>
      </trkpt>
      <trkpt lat="45.93269" lon="4.76681">
        <ele>172</ele>
        <time>2017-06-16T08:15:05Z</time>
      </trkpt>
      <trkpt lat="45.93273" lon="4.76685">
        <ele>172</ele>
        <time>2017-06-16T08:15:06Z</time>
      </trkpt>
      <trkpt lat="45.93278" lon="4.76689">
        <ele>172</ele>
        <time>2017-06-16T08:15:07Z</time>
      </trkpt>
      <trkpt lat="45.93282" lon="4.76694">
        <ele>172</ele>
        <time>2017-06-16T08:15:08Z</time>
      </trkpt>
      <trkpt lat="45.93287" lon="4.76699">
        <ele>172</ele>
        <time>2017-06-16T08:15:09Z</time>
      </trkpt>
      <trkpt lat="45.93291" lon="4.76704">
        <ele>172</ele>
        <time>2017-06-16T08:15:10Z</time>
      </trkpt>
      <trkpt lat="45.93295" lon="4.76709">
        <ele>172</ele>
        <time>2017-06-16T08:15:11Z</time>
      </trkpt>
      <trkpt lat="45.93299" lon="4.76713">
        <ele>172</ele>
        <time>2017-06-16T08:15:12Z</time>
      </trkpt>
      <trkpt lat="45.93304" lon="4.76718">
        <ele>172</ele>
        <time>2017-06-16T08:15:13Z</time>
      </trkpt>
      <trkpt lat="45.93308" lon="4.76722">
        <ele>172</ele>
        <time>2017-06-16T08:15:14Z</time>
      </trkpt>
      <trkpt lat="45.93313" lon="4.76726">
        <ele>172</ele>
        <time>2017-06-16T08:15:15Z</time>
      </trkpt>
      <trkpt lat="45.93317" lon="4.7673">
        <ele>172</ele>
        <time>2017-06-16T08:15:16Z</time>
      </trkpt>
      <trkpt lat="45.93321" lon="4.76734">
        <ele>172</ele>
        <time>2017-06-16T08:15:17Z</time>
      </trkpt>
      <trkpt lat="45.93326" lon="4.76739">
        <ele>172</ele>
        <time>2017-06-16T08:15:18Z</time>
      </trkpt>
      <trkpt lat="45.93331" lon="4.76744">
        <ele>173</ele>
        <time>2017-06-16T08:15:19Z</time>
      </trkpt>
      <trkpt lat="45.93338" lon="4.76751">
        <ele>173</ele>
        <time>2017-06-16T08:15:21Z</time>
      </trkpt>
      <trkpt lat="45.93342" lon="4.76755">
        <ele>173</ele>
        <time>2017-06-16T08:15:22Z</time>
      </trkpt>
      <trkpt lat="45.93346" lon="4.76759">
        <ele>172</ele>
        <time>2017-06-16T08:15:23Z</time>
      </trkpt>
      <trkpt lat="45.93351" lon="4.76764">
        <ele>172</ele>
        <time>2017-06-16T08:15:24Z</time>
      </trkpt>
      <trkpt lat="45.93356" lon="4.76768">
        <ele>172</ele>
        <time>2017-06-16T08:15:25Z</time>
      </trkpt>
      <trkpt lat="45.9336" lon="4.76773">
        <ele>172</ele>
        <time>2017-06-16T08:15:26Z</time>
      </trkpt>
      <trkpt lat="45.93365" lon="4.76778">
        <ele>172</ele>
        <time>2017-06-16T08:15:27Z</time>
      </trkpt>
      <trkpt lat="45.93369" lon="4.76782">
        <ele>172</ele>
        <time>2017-06-16T08:15:28Z</time>
      </trkpt>
      <trkpt lat="45.93374" lon="4.76786">
        <ele>172</ele>
        <time>2017-06-16T08:15:29Z</time>
      </trkpt>
      <trkpt lat="45.93379" lon="4.76791">
        <ele>172</ele>
        <time>2017-06-16T08:15:30Z</time>
      </trkpt>
      <trkpt lat="45.93383" lon="4.76796">
        <ele>172</ele>
        <time>2017-06-16T08:15:31Z</time>
      </trkpt>
      <trkpt lat="45.93388" lon="4.76802">
        <ele>172</ele>
        <time>2017-06-16T08:15:32Z</time>
      </trkpt>
      <trkpt lat="45.93392" lon="4.76807">
        <ele>172</ele>
        <time>2017-06-16T08:15:33Z</time>
      </trkpt>
      <trkpt lat="45.93397" lon="4.76813">
        <ele>172</ele>
        <time>2017-06-16T08:15:34Z</time>
      </trkpt>
      <trkpt lat="45.93401" lon="4.76818">
        <ele>172</ele>
        <time>2017-06-16T08:15:35Z</time>
      </trkpt>
      <trkpt lat="45.93404" lon="4.76824">
        <ele>172</ele>
        <time>2017-06-16T08:15:36Z</time>
      </trkpt>
      <trkpt lat="45.93408" lon="4.7683">
        <ele>172</ele>
        <time>2017-06-16T08:15:37Z</time>
      </trkpt>
      <trkpt lat="45.93411" lon="4.76835">
        <ele>172</ele>
        <time>2017-06-16T08:15:38Z</time>
      </trkpt>
      <trkpt lat="45.93414" lon="4.76841">
        <ele>172</ele>
        <time>2017-06-16T08:15:39Z</time>
      </trkpt>
      <trkpt lat="45.93418" lon="4.76847">
        <ele>171</ele>
        <time>2017-06-16T08:15:40Z</time>
      </trkpt>
      <trkpt lat="45.93421" lon="4.76853">
        <ele>171</ele>
        <time>2017-06-16T08:15:41Z</time>
      </trkpt>
      <trkpt lat="45.93424" lon="4.7686">
        <ele>171</ele>
        <time>2017-06-16T08:15:42Z</time>
      </trkpt>
      <trkpt lat="45.93427" lon="4.76866">
        <ele>171</ele>
        <time>2017-06-16T08:15:43Z</time>
      </trkpt>
      <trkpt lat="45.9343" lon="4.76873">
        <ele>171</ele>
        <time>2017-06-16T08:15:44Z</time>
      </trkpt>
      <trkpt lat="45.93433" lon="4.7688">
        <ele>171</ele>
        <time>2017-06-16T08:15:45Z</time>
      </trkpt>
      <trkpt lat="45.93435" lon="4.76887">
        <ele>171</ele>
        <time>2017-06-16T08:15:46Z</time>
      </trkpt>
      <trkpt lat="45.93437" lon="4.76893">
        <ele>171</ele>
        <time>2017-06-16T08:15:47Z</time>
      </trkpt>
      <trkpt lat="45.93438" lon="4.769">
        <ele>170</ele>
        <time>2017-06-16T08:15:48Z</time>
      </trkpt>
      <trkpt lat="45.9344" lon="4.76907">
        <ele>170</ele>
        <time>2017-06-16T08:15:49Z</time>
      </trkpt>
      <trkpt lat="45.93442" lon="4.76913">
        <ele>170</ele>
        <time>2017-06-16T08:15:50Z</time>
      </trkpt>
      <trkpt lat="45.93443" lon="4.7692">
        <ele>170</ele>
        <time>2017-06-16T08:15:51Z</time>
      </trkpt>
      <trkpt lat="45.93445" lon="4.76927">
        <ele>170</ele>
        <time>2017-06-16T08:15:52Z</time>
      </trkpt>
      <trkpt lat="45.93446" lon="4.76935">
        <ele>170</ele>
        <time>2017-06-16T08:15:53Z</time>
      </trkpt>
      <trkpt lat="45.93448" lon="4.76943">
        <ele>170</ele>
        <time>2017-06-16T08:15:54Z</time>
      </trkpt>
      <trkpt lat="45.93449" lon="4.76952">
        <ele>170</ele>
        <time>2017-06-16T08:15:55Z</time>
      </trkpt>
      <trkpt lat="45.9345" lon="4.7696">
        <ele>170</ele>
        <time>2017-06-16T08:15:56Z</time>
      </trkpt>
      <trkpt lat="45.93451" lon="4.76968">
        <ele>170</ele>
        <time>2017-06-16T08:15:57Z</time>
      </trkpt>
      <trkpt lat="45.93452" lon="4.76977">
        <ele>170</ele>
        <time>2017-06-16T08:15:58Z</time>
      </trkpt>
      <trkpt lat="45.93453" lon="4.76985">
        <ele>170</ele>
        <time>2017-06-16T08:15:59Z</time>
      </trkpt>
      <trkpt lat="45.93454" lon="4.76993">
        <ele>170</ele>
        <time>2017-06-16T08:16:00Z</time>
      </trkpt>
      <trkpt lat="45.93455" lon="4.77">
        <ele>170</ele>
        <time>2017-06-16T08:16:01Z</time>
      </trkpt>
      <trkpt lat="45.93456" lon="4.77008">
        <ele>170</ele>
        <time>2017-06-16T08:16:02Z</time>
      </trkpt>
      <trkpt lat="45.93458" lon="4.77016">
        <ele>170</ele>
        <time>2017-06-16T08:16:03Z</time>
      </trkpt>
      <trkpt lat="45.93459" lon="4.77024">
        <ele>170</ele>
        <time>2017-06-16T08:16:04Z</time>
      </trkpt>
      <trkpt lat="45.93461" lon="4.77032">
        <ele>170</ele>
        <time>2017-06-16T08:16:05Z</time>
      </trkpt>
      <trkpt lat="45.93462" lon="4.7704">
        <ele>170</ele>
        <time>2017-06-16T08:16:06Z</time>
      </trkpt>
      <trkpt lat="45.93464" lon="4.77047">
        <ele>170</ele>
        <time>2017-06-16T08:16:07Z</time>
      </trkpt>
      <trkpt lat="45.93465" lon="4.77055">
        <ele>170</ele>
        <time>2017-06-16T08:16:08Z</time>
      </trkpt>
      <trkpt lat="45.93466" lon="4.77062">
        <ele>170</ele>
        <time>2017-06-16T08:16:09Z</time>
      </trkpt>
      <trkpt lat="45.93468" lon="4.77069">
        <ele>170</ele>
        <time>2017-06-16T08:16:10Z</time>
      </trkpt>
      <trkpt lat="45.93469" lon="4.77076">
        <ele>170</ele>
        <time>2017-06-16T08:16:11Z</time>
      </trkpt>
      <trkpt lat="45.9347" lon="4.77083">
        <ele>170</ele>
        <time>2017-06-16T08:16:12Z</time>
      </trkpt>
      <trkpt lat="45.93471" lon="4.7709">
        <ele>169</ele>
        <time>2017-06-16T08:16:13Z</time>
      </trkpt>
      <trkpt lat="45.93472" lon="4.77097">
        <ele>169</ele>
        <time>2017-06-16T08:16:14Z</time>
      </trkpt>
      <trkpt lat="45.93474" lon="4.77104">
        <ele>169</ele>
        <time>2017-06-16T08:16:15Z</time>
      </trkpt>
      <trkpt lat="45.93475" lon="4.77111">
        <ele>169</ele>
        <time>2017-06-16T08:16:16Z</time>
      </trkpt>
      <trkpt lat="45.93476" lon="4.77118">
        <ele>169</ele>
        <time>2017-06-16T08:16:17Z</time>
      </trkpt>
      <trkpt lat="45.93478" lon="4.77126">
        <ele>169</ele>
        <time>2017-06-16T08:16:18Z</time>
      </trkpt>
      <trkpt lat="45.93479" lon="4.77132">
        <ele>169</ele>
        <time>2017-06-16T08:16:19Z</time>
      </trkpt>
      <trkpt lat="45.9348" lon="4.77139">
        <ele>169</ele>
        <time>2017-06-16T08:16:20Z</time>
      </trkpt>
      <trkpt lat="45.93482" lon="4.77147">
        <ele>169</ele>
        <time>2017-06-16T08:16:21Z</time>
      </trkpt>
      <trkpt lat="45.93483" lon="4.77154">
        <ele>169</ele>
        <time>2017-06-16T08:16:22Z</time>
      </trkpt>
      <trkpt lat="45.93484" lon="4.77162">
        <ele>169</ele>
        <time>2017-06-16T08:16:23Z</time>
      </trkpt>
      <trkpt lat="45.93486" lon="4.77169">
        <ele>169</ele>
        <time>2017-06-16T08:16:24Z</time>
      </trkpt>
      <trkpt lat="45.93487" lon="4.77176">
        <ele>169</ele>
        <time>2017-06-16T08:16:25Z</time>
      </trkpt>
      <trkpt lat="45.93488" lon="4.77183">
        <ele>169</ele>
        <time>2017-06-16T08:16:26Z</time>
      </trkpt>
      <trkpt lat="45.9349" lon="4.7719">
        <ele>169</ele>
        <time>2017-06-16T08:16:27Z</time>
      </trkpt>
      <trkpt lat="45.93492" lon="4.77196">
        <ele>169</ele>
        <time>2017-06-16T08:16:28Z</time>
      </trkpt>
      <trkpt lat="45.93493" lon="4.77203">
        <ele>169</ele>
        <time>2017-06-16T08:16:29Z</time>
      </trkpt>
      <trkpt lat="45.93495" lon="4.77209">
        <ele>169</ele>
        <time>2017-06-16T08:16:30Z</time>
      </trkpt>
      <trkpt lat="45.93496" lon="4.77216">
        <ele>169</ele>
        <time>2017-06-16T08:16:31Z</time>
      </trkpt>
      <trkpt lat="45.93498" lon="4.77223">
        <ele>169</ele>
        <time>2017-06-16T08:16:32Z</time>
      </trkpt>
      <trkpt lat="45.935" lon="4.7723">
        <ele>170</ele>
        <time>2017-06-16T08:16:33Z</time>
      </trkpt>
      <trkpt lat="45.93501" lon="4.77238">
        <ele>169</ele>
        <time>2017-06-16T08:16:34Z</time>
      </trkpt>
      <trkpt lat="45.93503" lon="4.77245">
        <ele>170</ele>
        <time>2017-06-16T08:16:35Z</time>
      </trkpt>
      <trkpt lat="45.93504" lon="4.77253">
        <ele>170</ele>
        <time>2017-06-16T08:16:36Z</time>
      </trkpt>
      <trkpt lat="45.93506" lon="4.7726">
        <ele>170</ele>
        <time>2017-06-16T08:16:37Z</time>
      </trkpt>
      <trkpt lat="45.93508" lon="4.77268">
        <ele>170</ele>
        <time>2017-06-16T08:16:38Z</time>
      </trkpt>
      <trkpt lat="45.93509" lon="4.77275">
        <ele>170</ele>
        <time>2017-06-16T08:16:39Z</time>
      </trkpt>
      <trkpt lat="45.9351" lon="4.77282">
        <ele>170</ele>
        <time>2017-06-16T08:16:40Z</time>
      </trkpt>
      <trkpt lat="45.93512" lon="4.77289">
        <ele>170</ele>
        <time>2017-06-16T08:16:41Z</time>
      </trkpt>
      <trkpt lat="45.93513" lon="4.77295">
        <ele>170</ele>
        <time>2017-06-16T08:16:42Z</time>
      </trkpt>
      <trkpt lat="45.93515" lon="4.77301">
        <ele>170</ele>
        <time>2017-06-16T08:16:43Z</time>
      </trkpt>
      <trkpt lat="45.93516" lon="4.77308">
        <ele>170</ele>
        <time>2017-06-16T08:16:44Z</time>
      </trkpt>
      <trkpt lat="45.93518" lon="4.77314">
        <ele>170</ele>
        <time>2017-06-16T08:16:45Z</time>
      </trkpt>
      <trkpt lat="45.93519" lon="4.77321">
        <ele>170</ele>
        <time>2017-06-16T08:16:46Z</time>
      </trkpt>
      <trkpt lat="45.93521" lon="4.77328">
        <ele>170</ele>
        <time>2017-06-16T08:16:47Z</time>
      </trkpt>
      <trkpt lat="45.93522" lon="4.77335">
        <ele>170</ele>
        <time>2017-06-16T08:16:48Z</time>
      </trkpt>
      <trkpt lat="45.93524" lon="4.77342">
        <ele>170</ele>
        <time>2017-06-16T08:16:49Z</time>
      </trkpt>
      <trkpt lat="45.93525" lon="4.77349">
        <ele>170</ele>
        <time>2017-06-16T08:16:50Z</time>
      </trkpt>
      <trkpt lat="45.93527" lon="4.77357">
        <ele>170</ele>
        <time>2017-06-16T08:16:51Z</time>
      </trkpt>
      <trkpt lat="45.93529" lon="4.77364">
        <ele>170</ele>
        <time>2017-06-16T08:16:52Z</time>
      </trkpt>
      <trkpt lat="45.9353" lon="4.7737">
        <ele>170</ele>
        <time>2017-06-16T08:16:53Z</time>
      </trkpt>
      <trkpt lat="45.93532" lon="4.77377">
        <ele>170</ele>
        <time>2017-06-16T08:16:54Z</time>
      </trkpt>
      <trkpt lat="45.93534" lon="4.77383">
        <ele>170</ele>
        <time>2017-06-16T08:16:55Z</time>
      </trkpt>
      <trkpt lat="45.93535" lon="4.77389">
        <ele>170</ele>
        <time>2017-06-16T08:16:56Z</time>
      </trkpt>
      <trkpt lat="45.93536" lon="4.77396">
        <ele>170</ele>
        <time>2017-06-16T08:16:57Z</time>
      </trkpt>
      <trkpt lat="45.93538" lon="4.77403">
        <ele>170</ele>
        <time>2017-06-16T08:16:58Z</time>
      </trkpt>
      <trkpt lat="45.93539" lon="4.7741">
        <ele>170</ele>
        <time>2017-06-16T08:16:59Z</time>
      </trkpt>
      <trkpt lat="45.93541" lon="4.77417">
        <ele>170</ele>
        <time>2017-06-16T08:17:00Z</time>
      </trkpt>
      <trkpt lat="45.93543" lon="4.77425">
        <ele>170</ele>
        <time>2017-06-16T08:17:01Z</time>
      </trkpt>
      <trkpt lat="45.93545" lon="4.77432">
        <ele>169</ele>
        <time>2017-06-16T08:17:02Z</time>
      </trkpt>
      <trkpt lat="45.93546" lon="4.77439">
        <ele>169</ele>
        <time>2017-06-16T08:17:03Z</time>
      </trkpt>
      <trkpt lat="45.93548" lon="4.77446">
        <ele>169</ele>
        <time>2017-06-16T08:17:04Z</time>
      </trkpt>
      <trkpt lat="45.93549" lon="4.77452">
        <ele>169</ele>
        <time>2017-06-16T08:17:05Z</time>
      </trkpt>
      <trkpt lat="45.9355" lon="4.77459">
        <ele>169</ele>
        <time>2017-06-16T08:17:06Z</time>
      </trkpt>
      <trkpt lat="45.93551" lon="4.77466">
        <ele>169</ele>
        <time>2017-06-16T08:17:07Z</time>
      </trkpt>
      <trkpt lat="45.93552" lon="4.77473">
        <ele>169</ele>
        <time>2017-06-16T08:17:08Z</time>
      </trkpt>
      <trkpt lat="45.93554" lon="4.7748">
        <ele>169</ele>
        <time>2017-06-16T08:17:09Z</time>
      </trkpt>
      <trkpt lat="45.93555" lon="4.77487">
        <ele>169</ele>
        <time>2017-06-16T08:17:10Z</time>
      </trkpt>
      <trkpt lat="45.93557" lon="4.77495">
        <ele>169</ele>
        <time>2017-06-16T08:17:11Z</time>
      </trkpt>
      <trkpt lat="45.93559" lon="4.77502">
        <ele>169</ele>
        <time>2017-06-16T08:17:12Z</time>
      </trkpt>
      <trkpt lat="45.93561" lon="4.77509">
        <ele>169</ele>
        <time>2017-06-16T08:17:13Z</time>
      </trkpt>
      <trkpt lat="45.93563" lon="4.77515">
        <ele>169</ele>
        <time>2017-06-16T08:17:14Z</time>
      </trkpt>
      <trkpt lat="45.93564" lon="4.77522">
        <ele>169</ele>
        <time>2017-06-16T08:17:15Z</time>
      </trkpt>
      <trkpt lat="45.93566" lon="4.77528">
        <ele>169</ele>
        <time>2017-06-16T08:17:16Z</time>
      </trkpt>
      <trkpt lat="45.93568" lon="4.77535">
        <ele>169</ele>
        <time>2017-06-16T08:17:17Z</time>
      </trkpt>
      <trkpt lat="45.93569" lon="4.77542">
        <ele>169</ele>
        <time>2017-06-16T08:17:18Z</time>
      </trkpt>
      <trkpt lat="45.93571" lon="4.77549">
        <ele>169</ele>
        <time>2017-06-16T08:17:19Z</time>
      </trkpt>
      <trkpt lat="45.93573" lon="4.77557">
        <ele>169</ele>
        <time>2017-06-16T08:17:20Z</time>
      </trkpt>
      <trkpt lat="45.93576" lon="4.77566">
        <ele>169</ele>
        <time>2017-06-16T08:17:21Z</time>
      </trkpt>
      <trkpt lat="45.93579" lon="4.77574">
        <ele>170</ele>
        <time>2017-06-16T08:17:22Z</time>
      </trkpt>
      <trkpt lat="45.93581" lon="4.77582">
        <ele>170</ele>
        <time>2017-06-16T08:17:23Z</time>
      </trkpt>
      <trkpt lat="45.93583" lon="4.7759">
        <ele>170</ele>
        <time>2017-06-16T08:17:24Z</time>
      </trkpt>
      <trkpt lat="45.93585" lon="4.77597">
        <ele>170</ele>
        <time>2017-06-16T08:17:25Z</time>
      </trkpt>
      <trkpt lat="45.93588" lon="4.77604">
        <ele>170</ele>
        <time>2017-06-16T08:17:26Z</time>
      </trkpt>
      <trkpt lat="45.9359" lon="4.7761">
        <ele>170</ele>
        <time>2017-06-16T08:17:27Z</time>
      </trkpt>
      <trkpt lat="45.93592" lon="4.77617">
        <ele>170</ele>
        <time>2017-06-16T08:17:28Z</time>
      </trkpt>
      <trkpt lat="45.93594" lon="4.77623">
        <ele>170</ele>
        <time>2017-06-16T08:17:29Z</time>
      </trkpt>
      <trkpt lat="45.93596" lon="4.77629">
        <ele>169</ele>
        <time>2017-06-16T08:17:30Z</time>
      </trkpt>
      <trkpt lat="45.93599" lon="4.77636">
        <ele>169</ele>
        <time>2017-06-16T08:17:31Z</time>
      </trkpt>
      <trkpt lat="45.93601" lon="4.77642">
        <ele>169</ele>
        <time>2017-06-16T08:17:32Z</time>
      </trkpt>
      <trkpt lat="45.93604" lon="4.77648">
        <ele>169</ele>
        <time>2017-06-16T08:17:33Z</time>
      </trkpt>
      <trkpt lat="45.93607" lon="4.77654">
        <ele>169</ele>
        <time>2017-06-16T08:17:34Z</time>
      </trkpt>
      <trkpt lat="45.9361" lon="4.7766">
        <ele>169</ele>
        <time>2017-06-16T08:17:35Z</time>
      </trkpt>
      <trkpt lat="45.93612" lon="4.77666">
        <ele>169</ele>
        <time>2017-06-16T08:17:36Z</time>
      </trkpt>
      <trkpt lat="45.93615" lon="4.77672">
        <ele>169</ele>
        <time>2017-06-16T08:17:37Z</time>
      </trkpt>
      <trkpt lat="45.93618" lon="4.77679">
        <ele>169</ele>
        <time>2017-06-16T08:17:38Z</time>
      </trkpt>
      <trkpt lat="45.93621" lon="4.77685">
        <ele>169</ele>
        <time>2017-06-16T08:17:39Z</time>
      </trkpt>
      <trkpt lat="45.93624" lon="4.77692">
        <ele>169</ele>
        <time>2017-06-16T08:17:40Z</time>
      </trkpt>
      <trkpt lat="45.93627" lon="4.77698">
        <ele>169</ele>
        <time>2017-06-16T08:17:41Z</time>
      </trkpt>
      <trkpt lat="45.93631" lon="4.77704">
        <ele>170</ele>
        <time>2017-06-16T08:17:42Z</time>
      </trkpt>
      <trkpt lat="45.93634" lon="4.7771">
        <ele>170</ele>
        <time>2017-06-16T08:17:43Z</time>
      </trkpt>
      <trkpt lat="45.93637" lon="4.77716">
        <ele>170</ele>
        <time>2017-06-16T08:17:44Z</time>
      </trkpt>
      <trkpt lat="45.9364" lon="4.77722">
        <ele>170</ele>
        <time>2017-06-16T08:17:45Z</time>
      </trkpt>
      <trkpt lat="45.93642" lon="4.77728">
        <ele>170</ele>
        <time>2017-06-16T08:17:46Z</time>
      </trkpt>
      <trkpt lat="45.93645" lon="4.77734">
        <ele>170</ele>
        <time>2017-06-16T08:17:47Z</time>
      </trkpt>
      <trkpt lat="45.93649" lon="4.7774">
        <ele>170</ele>
        <time>2017-06-16T08:17:48Z</time>
      </trkpt>
      <trkpt lat="45.93655" lon="4.77748">
        <ele>170</ele>
        <time>2017-06-16T08:17:50Z</time>
      </trkpt>
      <trkpt lat="45.93658" lon="4.77753">
        <ele>171</ele>
        <time>2017-06-16T08:17:51Z</time>
      </trkpt>
      <trkpt lat="45.93661" lon="4.77758">
        <ele>171</ele>
        <time>2017-06-16T08:17:52Z</time>
      </trkpt>
      <trkpt lat="45.93664" lon="4.77763">
        <ele>170</ele>
        <time>2017-06-16T08:17:53Z</time>
      </trkpt>
      <trkpt lat="45.93668" lon="4.77768">
        <ele>170</ele>
        <time>2017-06-16T08:17:54Z</time>
      </trkpt>
      <trkpt lat="45.93671" lon="4.77772">
        <ele>170</ele>
        <time>2017-06-16T08:17:55Z</time>
      </trkpt>
      <trkpt lat="45.93674" lon="4.77777">
        <ele>170</ele>
        <time>2017-06-16T08:17:56Z</time>
      </trkpt>
      <trkpt lat="45.93677" lon="4.77782">
        <ele>170</ele>
        <time>2017-06-16T08:17:57Z</time>
      </trkpt>
      <trkpt lat="45.93681" lon="4.77787">
        <ele>170</ele>
        <time>2017-06-16T08:17:58Z</time>
      </trkpt>
      <trkpt lat="45.93685" lon="4.77792">
        <ele>170</ele>
        <time>2017-06-16T08:17:59Z</time>
      </trkpt>
      <trkpt lat="45.93689" lon="4.77797">
        <ele>169</ele>
        <time>2017-06-16T08:18:00Z</time>
      </trkpt>
      <trkpt lat="45.93692" lon="4.77801">
        <ele>169</ele>
        <time>2017-06-16T08:18:01Z</time>
      </trkpt>
      <trkpt lat="45.93696" lon="4.77806">
        <ele>169</ele>
        <time>2017-06-16T08:18:02Z</time>
      </trkpt>
      <trkpt lat="45.93699" lon="4.77811">
        <ele>169</ele>
        <time>2017-06-16T08:18:03Z</time>
      </trkpt>
      <trkpt lat="45.93702" lon="4.77816">
        <ele>169</ele>
        <time>2017-06-16T08:18:04Z</time>
      </trkpt>
      <trkpt lat="45.93706" lon="4.77821">
        <ele>169</ele>
        <time>2017-06-16T08:18:05Z</time>
      </trkpt>
      <trkpt lat="45.93712" lon="4.77829">
        <ele>169</ele>
        <time>2017-06-16T08:18:07Z</time>
      </trkpt>
      <trkpt lat="45.93715" lon="4.77833">
        <ele>169</ele>
        <time>2017-06-16T08:18:08Z</time>
      </trkpt>
      <trkpt lat="45.93721" lon="4.7784">
        <ele>167</ele>
        <time>2017-06-16T08:18:10Z</time>
      </trkpt>
      <trkpt lat="45.93724" lon="4.77843">
        <ele>167</ele>
        <time>2017-06-16T08:18:11Z</time>
      </trkpt>
      <trkpt lat="45.93729" lon="4.7785">
        <ele>167</ele>
        <time>2017-06-16T08:18:13Z</time>
      </trkpt>
      <trkpt lat="45.93731" lon="4.77854">
        <ele>167</ele>
        <time>2017-06-16T08:18:14Z</time>
      </trkpt>
      <trkpt lat="45.93736" lon="4.77861">
        <ele>167</ele>
        <time>2017-06-16T08:18:16Z</time>
      </trkpt>
      <trkpt lat="45.93739" lon="4.77865">
        <ele>167</ele>
        <time>2017-06-16T08:18:17Z</time>
      </trkpt>
      <trkpt lat="45.93744" lon="4.77872">
        <ele>167</ele>
        <time>2017-06-16T08:18:19Z</time>
      </trkpt>
      <trkpt lat="45.93747" lon="4.77876">
        <ele>167</ele>
        <time>2017-06-16T08:18:20Z</time>
      </trkpt>
      <trkpt lat="45.93753" lon="4.77883">
        <ele>166</ele>
        <time>2017-06-16T08:18:22Z</time>
      </trkpt>
      <trkpt lat="45.93755" lon="4.77887">
        <ele>166</ele>
        <time>2017-06-16T08:18:23Z</time>
      </trkpt>
      <trkpt lat="45.93761" lon="4.77893">
        <ele>166</ele>
        <time>2017-06-16T08:18:25Z</time>
      </trkpt>
      <trkpt lat="45.93764" lon="4.77897">
        <ele>166</ele>
        <time>2017-06-16T08:18:26Z</time>
      </trkpt>
      <trkpt lat="45.9377" lon="4.77904">
        <ele>166</ele>
        <time>2017-06-16T08:18:28Z</time>
      </trkpt>
      <trkpt lat="45.93773" lon="4.77908">
        <ele>166</ele>
        <time>2017-06-16T08:18:29Z</time>
      </trkpt>
      <trkpt lat="45.93779" lon="4.77915">
        <ele>166</ele>
        <time>2017-06-16T08:18:31Z</time>
      </trkpt>
      <trkpt lat="45.93782" lon="4.77919">
        <ele>168</ele>
        <time>2017-06-16T08:18:32Z</time>
      </trkpt>
      <trkpt lat="45.93788" lon="4.77926">
        <ele>168</ele>
        <time>2017-06-16T08:18:34Z</time>
      </trkpt>
      <trkpt lat="45.93791" lon="4.7793">
        <ele>168</ele>
        <time>2017-06-16T08:18:35Z</time>
      </trkpt>
      <trkpt lat="45.93796" lon="4.77939">
        <ele>169</ele>
        <time>2017-06-16T08:18:37Z</time>
      </trkpt>
      <trkpt lat="45.93799" lon="4.77943">
        <ele>169</ele>
        <time>2017-06-16T08:18:38Z</time>
      </trkpt>
      <trkpt lat="45.93806" lon="4.7795">
        <ele>169</ele>
        <time>2017-06-16T08:18:40Z</time>
      </trkpt>
      <trkpt lat="45.93809" lon="4.77954">
        <ele>170</ele>
        <time>2017-06-16T08:18:41Z</time>
      </trkpt>
      <trkpt lat="45.93815" lon="4.77963">
        <ele>170</ele>
        <time>2017-06-16T08:18:43Z</time>
      </trkpt>
      <trkpt lat="45.93819" lon="4.77967">
        <ele>171</ele>
        <time>2017-06-16T08:18:44Z</time>
      </trkpt>
      <trkpt lat="45.93823" lon="4.77972">
        <ele>172</ele>
        <time>2017-06-16T08:18:45Z</time>
      </trkpt>
      <trkpt lat="45.93826" lon="4.77977">
        <ele>173</ele>
        <time>2017-06-16T08:18:46Z</time>
      </trkpt>
      <trkpt lat="45.9383" lon="4.77982">
        <ele>174</ele>
        <time>2017-06-16T08:18:47Z</time>
      </trkpt>
      <trkpt lat="45.93833" lon="4.77987">
        <ele>175</ele>
        <time>2017-06-16T08:18:48Z</time>
      </trkpt>
      <trkpt lat="45.93836" lon="4.77993">
        <ele>179</ele>
        <time>2017-06-16T08:18:49Z</time>
      </trkpt>
      <trkpt lat="45.93839" lon="4.77999">
        <ele>179</ele>
        <time>2017-06-16T08:18:50Z</time>
      </trkpt>
      <trkpt lat="45.9384" lon="4.78006">
        <ele>180</ele>
        <time>2017-06-16T08:18:51Z</time>
      </trkpt>
      <trkpt lat="45.93841" lon="4.78014">
        <ele>181</ele>
        <time>2017-06-16T08:18:52Z</time>
      </trkpt>
      <trkpt lat="45.93843" lon="4.78022">
        <ele>182</ele>
        <time>2017-06-16T08:18:53Z</time>
      </trkpt>
      <trkpt lat="45.93844" lon="4.78029">
        <ele>182</ele>
        <time>2017-06-16T08:18:54Z</time>
      </trkpt>
      <trkpt lat="45.93845" lon="4.78035">
        <ele>182</ele>
        <time>2017-06-16T08:18:55Z</time>
      </trkpt>
      <trkpt lat="45.93847" lon="4.78041">
        <ele>182</ele>
        <time>2017-06-16T08:18:56Z</time>
      </trkpt>
      <trkpt lat="45.93847" lon="4.78053">
        <ele>182</ele>
        <time>2017-06-16T08:18:58Z</time>
      </trkpt>
      <trkpt lat="45.93846" lon="4.78058">
        <ele>182</ele>
        <time>2017-06-16T08:18:59Z</time>
      </trkpt>
      <trkpt lat="45.93844" lon="4.7807">
        <ele>182</ele>
        <time>2017-06-16T08:19:01Z</time>
      </trkpt>
      <trkpt lat="45.93842" lon="4.78075">
        <ele>181</ele>
        <time>2017-06-16T08:19:02Z</time>
      </trkpt>
      <trkpt lat="45.93839" lon="4.78087">
        <ele>181</ele>
        <time>2017-06-16T08:19:04Z</time>
      </trkpt>
      <trkpt lat="45.93837" lon="4.78093">
        <ele>182</ele>
        <time>2017-06-16T08:19:05Z</time>
      </trkpt>
      <trkpt lat="45.93834" lon="4.78104">
        <ele>183</ele>
        <time>2017-06-16T08:19:07Z</time>
      </trkpt>
      <trkpt lat="45.93833" lon="4.7811">
        <ele>179</ele>
        <time>2017-06-16T08:19:08Z</time>
      </trkpt>
      <trkpt lat="45.9383" lon="4.78122">
        <ele>180</ele>
        <time>2017-06-16T08:19:10Z</time>
      </trkpt>
      <trkpt lat="45.93829" lon="4.78128">
        <ele>180</ele>
        <time>2017-06-16T08:19:11Z</time>
      </trkpt>
      <trkpt lat="45.93827" lon="4.78135">
        <ele>180</ele>
        <time>2017-06-16T08:19:12Z</time>
      </trkpt>
      <trkpt lat="45.93825" lon="4.78141">
        <ele>180</ele>
        <time>2017-06-16T08:19:13Z</time>
      </trkpt>
      <trkpt lat="45.93824" lon="4.78148">
        <ele>180</ele>
        <time>2017-06-16T08:19:14Z</time>
      </trkpt>
      <trkpt lat="45.93822" lon="4.78154">
        <ele>180</ele>
        <time>2017-06-16T08:19:15Z</time>
      </trkpt>
      <trkpt lat="45.93819" lon="4.78166">
        <ele>181</ele>
        <time>2017-06-16T08:19:17Z</time>
      </trkpt>
      <trkpt lat="45.93818" lon="4.78171">
        <ele>182</ele>
        <time>2017-06-16T08:19:18Z</time>
      </trkpt>
      <trkpt lat="45.93816" lon="4.78182">
        <ele>182</ele>
        <time>2017-06-16T08:19:20Z</time>
      </trkpt>
      <trkpt lat="45.93815" lon="4.78188">
        <ele>182</ele>
        <time>2017-06-16T08:19:21Z</time>
      </trkpt>
      <trkpt lat="45.93814" lon="4.78199">
        <ele>182</ele>
        <time>2017-06-16T08:19:23Z</time>
      </trkpt>
      <trkpt lat="45.93812" lon="4.78205">
        <ele>182</ele>
        <time>2017-06-16T08:19:24Z</time>
      </trkpt>
      <trkpt lat="45.93811" lon="4.7821">
        <ele>182</ele>
        <time>2017-06-16T08:19:25Z</time>
      </trkpt>
      <trkpt lat="45.93808" lon="4.78216">
        <ele>182</ele>
        <time>2017-06-16T08:19:26Z</time>
      </trkpt>
      <trkpt lat="45.93802" lon="4.78225">
        <ele>182</ele>
        <time>2017-06-16T08:19:28Z</time>
      </trkpt>
      <trkpt lat="45.93799" lon="4.7823">
        <ele>182</ele>
        <time>2017-06-16T08:19:29Z</time>
      </trkpt>
      <trkpt lat="45.93796" lon="4.78235">
        <ele>182</ele>
        <time>2017-06-16T08:19:30Z</time>
      </trkpt>
      <trkpt lat="45.93793" lon="4.7824">
        <ele>182</ele>
        <time>2017-06-16T08:19:31Z</time>
      </trkpt>
      <trkpt lat="45.93791" lon="4.78246">
        <ele>182</ele>
        <time>2017-06-16T08:19:32Z</time>
      </trkpt>
      <trkpt lat="45.9379" lon="4.78252">
        <ele>183</ele>
        <time>2017-06-16T08:19:33Z</time>
      </trkpt>
      <trkpt lat="45.93788" lon="4.78265">
        <ele>183</ele>
        <time>2017-06-16T08:19:35Z</time>
      </trkpt>
      <trkpt lat="45.93787" lon="4.78271">
        <ele>183</ele>
        <time>2017-06-16T08:19:36Z</time>
      </trkpt>
      <trkpt lat="45.93784" lon="4.78283">
        <ele>183</ele>
        <time>2017-06-16T08:19:38Z</time>
      </trkpt>
      <trkpt lat="45.93782" lon="4.78288">
        <ele>183</ele>
        <time>2017-06-16T08:19:39Z</time>
      </trkpt>
      <trkpt lat="45.9378" lon="4.78295">
        <ele>183</ele>
        <time>2017-06-16T08:19:40Z</time>
      </trkpt>
      <trkpt lat="45.93777" lon="4.78301">
        <ele>183</ele>
        <time>2017-06-16T08:19:41Z</time>
      </trkpt>
      <trkpt lat="45.93775" lon="4.78308">
        <ele>183</ele>
        <time>2017-06-16T08:19:42Z</time>
      </trkpt>
      <trkpt lat="45.93773" lon="4.78315">
        <ele>183</ele>
        <time>2017-06-16T08:19:43Z</time>
      </trkpt>
      <trkpt lat="45.93772" lon="4.78322">
        <ele>183</ele>
        <time>2017-06-16T08:19:44Z</time>
      </trkpt>
      <trkpt lat="45.9377" lon="4.78329">
        <ele>183</ele>
        <time>2017-06-16T08:19:45Z</time>
      </trkpt>
      <trkpt lat="45.93768" lon="4.78336">
        <ele>183</ele>
        <time>2017-06-16T08:19:46Z</time>
      </trkpt>
      <trkpt lat="45.93767" lon="4.78343">
        <ele>183</ele>
        <time>2017-06-16T08:19:47Z</time>
      </trkpt>
      <trkpt lat="45.93765" lon="4.7835">
        <ele>183</ele>
        <time>2017-06-16T08:19:48Z</time>
      </trkpt>
      <trkpt lat="45.93763" lon="4.78356">
        <ele>183</ele>
        <time>2017-06-16T08:19:49Z</time>
      </trkpt>
      <trkpt lat="45.93761" lon="4.78363">
        <ele>183</ele>
        <time>2017-06-16T08:19:50Z</time>
      </trkpt>
      <trkpt lat="45.9376" lon="4.78369">
        <ele>183</ele>
        <time>2017-06-16T08:19:51Z</time>
      </trkpt>
      <trkpt lat="45.93758" lon="4.78376">
        <ele>183</ele>
        <time>2017-06-16T08:19:52Z</time>
      </trkpt>
      <trkpt lat="45.93757" lon="4.78382">
        <ele>183</ele>
        <time>2017-06-16T08:19:53Z</time>
      </trkpt>
      <trkpt lat="45.93755" lon="4.78388">
        <ele>183</ele>
        <time>2017-06-16T08:19:54Z</time>
      </trkpt>
      <trkpt lat="45.93753" lon="4.78395">
        <ele>183</ele>
        <time>2017-06-16T08:19:55Z</time>
      </trkpt>
      <trkpt lat="45.93751" lon="4.78402">
        <ele>182</ele>
        <time>2017-06-16T08:19:56Z</time>
      </trkpt>
      <trkpt lat="45.93749" lon="4.7841">
        <ele>181</ele>
        <time>2017-06-16T08:19:57Z</time>
      </trkpt>
      <trkpt lat="45.93747" lon="4.78418">
        <ele>181</ele>
        <time>2017-06-16T08:19:58Z</time>
      </trkpt>
      <trkpt lat="45.93745" lon="4.78425">
        <ele>180</ele>
        <time>2017-06-16T08:19:59Z</time>
      </trkpt>
      <trkpt lat="45.93743" lon="4.78432">
        <ele>180</ele>
        <time>2017-06-16T08:20:00Z</time>
      </trkpt>
      <trkpt lat="45.93741" lon="4.78439">
        <ele>180</ele>
        <time>2017-06-16T08:20:01Z</time>
      </trkpt>
      <trkpt lat="45.93739" lon="4.78447">
        <ele>180</ele>
        <time>2017-06-16T08:20:02Z</time>
      </trkpt>
      <trkpt lat="45.93738" lon="4.78455">
        <ele>180</ele>
        <time>2017-06-16T08:20:03Z</time>
      </trkpt>
      <trkpt lat="45.93736" lon="4.78463">
        <ele>180</ele>
        <time>2017-06-16T08:20:04Z</time>
      </trkpt>
      <trkpt lat="45.93734" lon="4.7847">
        <ele>180</ele>
        <time>2017-06-16T08:20:05Z</time>
      </trkpt>
      <trkpt lat="45.93732" lon="4.78478">
        <ele>180</ele>
        <time>2017-06-16T08:20:06Z</time>
      </trkpt>
      <trkpt lat="45.9373" lon="4.78487">
        <ele>180</ele>
        <time>2017-06-16T08:20:07Z</time>
      </trkpt>
      <trkpt lat="45.93728" lon="4.78495">
        <ele>180</ele>
        <time>2017-06-16T08:20:08Z</time>
      </trkpt>
      <trkpt lat="45.93725" lon="4.78503">
        <ele>179</ele>
        <time>2017-06-16T08:20:09Z</time>
      </trkpt>
      <trkpt lat="45.93723" lon="4.78511">
        <ele>179</ele>
        <time>2017-06-16T08:20:10Z</time>
      </trkpt>
      <trkpt lat="45.93721" lon="4.78519">
        <ele>178</ele>
        <time>2017-06-16T08:20:11Z</time>
      </trkpt>
      <trkpt lat="45.93719" lon="4.78528">
        <ele>178</ele>
        <time>2017-06-16T08:20:12Z</time>
      </trkpt>
      <trkpt lat="45.93717" lon="4.78536">
        <ele>178</ele>
        <time>2017-06-16T08:20:13Z</time>
      </trkpt>
      <trkpt lat="45.93715" lon="4.78545">
        <ele>178</ele>
        <time>2017-06-16T08:20:14Z</time>
      </trkpt>
      <trkpt lat="45.93712" lon="4.78553">
        <ele>178</ele>
        <time>2017-06-16T08:20:15Z</time>
      </trkpt>
      <trkpt lat="45.9371" lon="4.78562">
        <ele>178</ele>
        <time>2017-06-16T08:20:16Z</time>
      </trkpt>
      <trkpt lat="45.93708" lon="4.78572">
        <ele>177</ele>
        <time>2017-06-16T08:20:17Z</time>
      </trkpt>
      <trkpt lat="45.93707" lon="4.78581">
        <ele>177</ele>
        <time>2017-06-16T08:20:18Z</time>
      </trkpt>
      <trkpt lat="45.93705" lon="4.78589">
        <ele>176</ele>
        <time>2017-06-16T08:20:19Z</time>
      </trkpt>
      <trkpt lat="45.93703" lon="4.78597">
        <ele>176</ele>
        <time>2017-06-16T08:20:20Z</time>
      </trkpt>
      <trkpt lat="45.93701" lon="4.78604">
        <ele>176</ele>
        <time>2017-06-16T08:20:21Z</time>
      </trkpt>
      <trkpt lat="45.93699" lon="4.7861">
        <ele>176</ele>
        <time>2017-06-16T08:20:22Z</time>
      </trkpt>
      <trkpt lat="45.93697" lon="4.78617">
        <ele>176</ele>
        <time>2017-06-16T08:20:23Z</time>
      </trkpt>
      <trkpt lat="45.93697" lon="4.78624">
        <ele>176</ele>
        <time>2017-06-16T08:20:24Z</time>
      </trkpt>
      <trkpt lat="45.93697" lon="4.7863">
        <ele>176</ele>
        <time>2017-06-16T08:20:25Z</time>
      </trkpt>
      <trkpt lat="45.93703" lon="4.78637">
        <ele>176</ele>
        <time>2017-06-16T08:20:27Z</time>
      </trkpt>
      <trkpt lat="45.9371" lon="4.78639">
        <ele>176</ele>
        <time>2017-06-16T08:20:28Z</time>
      </trkpt>
      <trkpt lat="45.93717" lon="4.78637">
        <ele>176</ele>
        <time>2017-06-16T08:20:29Z</time>
      </trkpt>
      <trkpt lat="45.9372" lon="4.78636">
        <ele>177</ele>
        <time>2017-06-16T08:20:30Z</time>
      </trkpt>
      <trkpt lat="45.93728" lon="4.78633">
        <ele>177</ele>
        <time>2017-06-16T08:20:32Z</time>
      </trkpt>
      <trkpt lat="45.93732" lon="4.78633">
        <ele>177</ele>
        <time>2017-06-16T08:20:33Z</time>
      </trkpt>
      <trkpt lat="45.93741" lon="4.78632">
        <ele>177</ele>
        <time>2017-06-16T08:20:35Z</time>
      </trkpt>
      <trkpt lat="45.93744" lon="4.78632">
        <ele>177</ele>
        <time>2017-06-16T08:20:36Z</time>
      </trkpt>
      <trkpt lat="45.93752" lon="4.78631">
        <ele>180</ele>
        <time>2017-06-16T08:20:38Z</time>
      </trkpt>
      <trkpt lat="45.93756" lon="4.7863">
        <ele>181</ele>
        <time>2017-06-16T08:20:39Z</time>
      </trkpt>
      <trkpt lat="45.93763" lon="4.78629">
        <ele>181</ele>
        <time>2017-06-16T08:20:41Z</time>
      </trkpt>
      <trkpt lat="45.93767" lon="4.78628">
        <ele>181</ele>
        <time>2017-06-16T08:20:42Z</time>
      </trkpt>
      <trkpt lat="45.93774" lon="4.78626">
        <ele>181</ele>
        <time>2017-06-16T08:20:44Z</time>
      </trkpt>
      <trkpt lat="45.93777" lon="4.78626">
        <ele>181</ele>
        <time>2017-06-16T08:20:45Z</time>
      </trkpt>
      <trkpt lat="45.93784" lon="4.78625">
        <ele>181</ele>
        <time>2017-06-16T08:20:47Z</time>
      </trkpt>
      <trkpt lat="45.93788" lon="4.78624">
        <ele>182</ele>
        <time>2017-06-16T08:20:48Z</time>
      </trkpt>
      <trkpt lat="45.93795" lon="4.78621">
        <ele>182</ele>
        <time>2017-06-16T08:20:50Z</time>
      </trkpt>
      <trkpt lat="45.93798" lon="4.7862">
        <ele>182</ele>
        <time>2017-06-16T08:20:51Z</time>
      </trkpt>
      <trkpt lat="45.93805" lon="4.78619">
        <ele>182</ele>
        <time>2017-06-16T08:20:53Z</time>
      </trkpt>
      <trkpt lat="45.93809" lon="4.78618">
        <ele>183</ele>
        <time>2017-06-16T08:20:54Z</time>
      </trkpt>
      <trkpt lat="45.93816" lon="4.78616">
        <ele>183</ele>
        <time>2017-06-16T08:20:56Z</time>
      </trkpt>
      <trkpt lat="45.93819" lon="4.78615">
        <ele>183</ele>
        <time>2017-06-16T08:20:57Z</time>
      </trkpt>
      <trkpt lat="45.93826" lon="4.78613">
        <ele>183</ele>
        <time>2017-06-16T08:20:59Z</time>
      </trkpt>
      <trkpt lat="45.9383" lon="4.78611">
        <ele>184</ele>
        <time>2017-06-16T08:21:00Z</time>
      </trkpt>
      <trkpt lat="45.93836" lon="4.78608">
        <ele>187</ele>
        <time>2017-06-16T08:21:02Z</time>
      </trkpt>
      <trkpt lat="45.93839" lon="4.78607">
        <ele>187</ele>
        <time>2017-06-16T08:21:03Z</time>
      </trkpt>
      <trkpt lat="45.93848" lon="4.78604">
        <ele>188</ele>
        <time>2017-06-16T08:21:06Z</time>
      </trkpt>
      <trkpt lat="45.93851" lon="4.78605">
        <ele>188</ele>
        <time>2017-06-16T08:21:07Z</time>
      </trkpt>
      <trkpt lat="45.93857" lon="4.78606">
        <ele>188</ele>
        <time>2017-06-16T08:21:09Z</time>
      </trkpt>
      <trkpt lat="45.9386" lon="4.78607">
        <ele>188</ele>
        <time>2017-06-16T08:21:10Z</time>
      </trkpt>
      <trkpt lat="45.93866" lon="4.78607">
        <ele>188</ele>
        <time>2017-06-16T08:21:12Z</time>
      </trkpt>
      <trkpt lat="45.93869" lon="4.78607">
        <ele>188</ele>
        <time>2017-06-16T08:21:13Z</time>
      </trkpt>
      <trkpt lat="45.93876" lon="4.78606">
        <ele>189</ele>
        <time>2017-06-16T08:21:15Z</time>
      </trkpt>
      <trkpt lat="45.93879" lon="4.78605">
        <ele>189</ele>
        <time>2017-06-16T08:21:16Z</time>
      </trkpt>
      <trkpt lat="45.93885" lon="4.78602">
        <ele>189</ele>
        <time>2017-06-16T08:21:18Z</time>
      </trkpt>
      <trkpt lat="45.93888" lon="4.786">
        <ele>189</ele>
        <time>2017-06-16T08:21:19Z</time>
      </trkpt>
      <trkpt lat="45.93894" lon="4.78601">
        <ele>190</ele>
        <time>2017-06-16T08:21:21Z</time>
      </trkpt>
      <trkpt lat="45.93897" lon="4.786">
        <ele>190</ele>
        <time>2017-06-16T08:21:22Z</time>
      </trkpt>
      <trkpt lat="45.93904" lon="4.78597">
        <ele>191</ele>
        <time>2017-06-16T08:21:24Z</time>
      </trkpt>
      <trkpt lat="45.93907" lon="4.78595">
        <ele>191</ele>
        <time>2017-06-16T08:21:25Z</time>
      </trkpt>
      <trkpt lat="45.93912" lon="4.78589">
        <ele>192</ele>
        <time>2017-06-16T08:21:27Z</time>
      </trkpt>
      <trkpt lat="45.93915" lon="4.78586">
        <ele>192</ele>
        <time>2017-06-16T08:21:28Z</time>
      </trkpt>
      <trkpt lat="45.93919" lon="4.78584">
        <ele>193</ele>
        <time>2017-06-16T08:21:29Z</time>
      </trkpt>
      <trkpt lat="45.93924" lon="4.78582">
        <ele>194</ele>
        <time>2017-06-16T08:21:30Z</time>
      </trkpt>
      <trkpt lat="45.93931" lon="4.78588">
        <ele>195</ele>
        <time>2017-06-16T08:21:35Z</time>
      </trkpt>
      <trkpt lat="45.93932" lon="4.78592">
        <ele>195</ele>
        <time>2017-06-16T08:21:36Z</time>
      </trkpt>
      <trkpt lat="45.93934" lon="4.78603">
        <ele>195</ele>
        <time>2017-06-16T08:21:39Z</time>
      </trkpt>
      <trkpt lat="45.93934" lon="4.78608">
        <ele>195</ele>
        <time>2017-06-16T08:21:40Z</time>
      </trkpt>
      <trkpt lat="45.93934" lon="4.78616">
        <ele>195</ele>
        <time>2017-06-16T08:21:42Z</time>
      </trkpt>
      <trkpt lat="45.93935" lon="4.78621">
        <ele>195</ele>
        <time>2017-06-16T08:21:43Z</time>
      </trkpt>
      <trkpt lat="45.93936" lon="4.7863">
        <ele>195</ele>
        <time>2017-06-16T08:21:45Z</time>
      </trkpt>
      <trkpt lat="45.93935" lon="4.78635">
        <ele>195</ele>
        <time>2017-06-16T08:21:46Z</time>
      </trkpt>
      <trkpt lat="45.93933" lon="4.78646">
        <ele>194</ele>
        <time>2017-06-16T08:21:48Z</time>
      </trkpt>
      <trkpt lat="45.93933" lon="4.78651">
        <ele>194</ele>
        <time>2017-06-16T08:21:49Z</time>
      </trkpt>
      <trkpt lat="45.93933" lon="4.78662">
        <ele>193</ele>
        <time>2017-06-16T08:21:51Z</time>
      </trkpt>
      <trkpt lat="45.93934" lon="4.78666">
        <ele>193</ele>
        <time>2017-06-16T08:21:52Z</time>
      </trkpt>
      <trkpt lat="45.93935" lon="4.78677">
        <ele>193</ele>
        <time>2017-06-16T08:21:54Z</time>
      </trkpt>
      <trkpt lat="45.93935" lon="4.78682">
        <ele>193</ele>
        <time>2017-06-16T08:21:55Z</time>
      </trkpt>
      <trkpt lat="45.93936" lon="4.78691">
        <ele>194</ele>
        <time>2017-06-16T08:21:57Z</time>
      </trkpt>
      <trkpt lat="45.93936" lon="4.78697">
        <ele>194</ele>
        <time>2017-06-16T08:21:58Z</time>
      </trkpt>
      <trkpt lat="45.93935" lon="4.78709">
        <ele>194</ele>
        <time>2017-06-16T08:22:00Z</time>
      </trkpt>
      <trkpt lat="45.93936" lon="4.78719">
        <ele>194</ele>
        <time>2017-06-16T08:22:01Z</time>
      </trkpt>
      <trkpt lat="45.93937" lon="4.78726">
        <ele>194</ele>
        <time>2017-06-16T08:22:02Z</time>
      </trkpt>
      <trkpt lat="45.93938" lon="4.78733">
        <ele>194</ele>
        <time>2017-06-16T08:22:03Z</time>
      </trkpt>
      <trkpt lat="45.93938" lon="4.78745">
        <ele>193</ele>
        <time>2017-06-16T08:22:05Z</time>
      </trkpt>
      <trkpt lat="45.93938" lon="4.78751">
        <ele>193</ele>
        <time>2017-06-16T08:22:06Z</time>
      </trkpt>
      <trkpt lat="45.93938" lon="4.78763">
        <ele>193</ele>
        <time>2017-06-16T08:22:08Z</time>
      </trkpt>
      <trkpt lat="45.93938" lon="4.7877">
        <ele>194</ele>
        <time>2017-06-16T08:22:09Z</time>
      </trkpt>
      <trkpt lat="45.93938" lon="4.78782">
        <ele>194</ele>
        <time>2017-06-16T08:22:11Z</time>
      </trkpt>
      <trkpt lat="45.93936" lon="4.78788">
        <ele>194</ele>
        <time>2017-06-16T08:22:12Z</time>
      </trkpt>
      <trkpt lat="45.93936" lon="4.78801">
        <ele>194</ele>
        <time>2017-06-16T08:22:14Z</time>
      </trkpt>
      <trkpt lat="45.93936" lon="4.78808">
        <ele>194</ele>
        <time>2017-06-16T08:22:15Z</time>
      </trkpt>
      <trkpt lat="45.93935" lon="4.78815">
        <ele>194</ele>
        <time>2017-06-16T08:22:16Z</time>
      </trkpt>
      <trkpt lat="45.93935" lon="4.78822">
        <ele>193</ele>
        <time>2017-06-16T08:22:17Z</time>
      </trkpt>
      <trkpt lat="45.93935" lon="4.78834">
        <ele>193</ele>
        <time>2017-06-16T08:22:19Z</time>
      </trkpt>
      <trkpt lat="45.93935" lon="4.7884">
        <ele>193</ele>
        <time>2017-06-16T08:22:20Z</time>
      </trkpt>
      <trkpt lat="45.93936" lon="4.78852">
        <ele>193</ele>
        <time>2017-06-16T08:22:22Z</time>
      </trkpt>
      <trkpt lat="45.93936" lon="4.78859">
        <ele>193</ele>
        <time>2017-06-16T08:22:23Z</time>
      </trkpt>
      <trkpt lat="45.93936" lon="4.78865">
        <ele>194</ele>
        <time>2017-06-16T08:22:24Z</time>
      </trkpt>
      <trkpt lat="45.93936" lon="4.78872">
        <ele>194</ele>
        <time>2017-06-16T08:22:25Z</time>
      </trkpt>
      <trkpt lat="45.93937" lon="4.78879">
        <ele>193</ele>
        <time>2017-06-16T08:22:26Z</time>
      </trkpt>
      <trkpt lat="45.93937" lon="4.78885">
        <ele>193</ele>
        <time>2017-06-16T08:22:27Z</time>
      </trkpt>
      <trkpt lat="45.93937" lon="4.78898">
        <ele>193</ele>
        <time>2017-06-16T08:22:29Z</time>
      </trkpt>
      <trkpt lat="45.93937" lon="4.78904">
        <ele>193</ele>
        <time>2017-06-16T08:22:30Z</time>
      </trkpt>
      <trkpt lat="45.93939" lon="4.78915">
        <ele>193</ele>
        <time>2017-06-16T08:22:32Z</time>
      </trkpt>
      <trkpt lat="45.9394" lon="4.7892">
        <ele>193</ele>
        <time>2017-06-16T08:22:33Z</time>
      </trkpt>
      <trkpt lat="45.93939" lon="4.7893">
        <ele>193</ele>
        <time>2017-06-16T08:22:35Z</time>
      </trkpt>
      <trkpt lat="45.93937" lon="4.78936">
        <ele>193</ele>
        <time>2017-06-16T08:22:36Z</time>
      </trkpt>
      <trkpt lat="45.93937" lon="4.78947">
        <ele>193</ele>
        <time>2017-06-16T08:22:38Z</time>
      </trkpt>
      <trkpt lat="45.93937" lon="4.78953">
        <ele>194</ele>
        <time>2017-06-16T08:22:39Z</time>
      </trkpt>
      <trkpt lat="45.93938" lon="4.78965">
        <ele>194</ele>
        <time>2017-06-16T08:22:41Z</time>
      </trkpt>
      <trkpt lat="45.93938" lon="4.78971">
        <ele>194</ele>
        <time>2017-06-16T08:22:42Z</time>
      </trkpt>
      <trkpt lat="45.93938" lon="4.78977">
        <ele>194</ele>
        <time>2017-06-16T08:22:43Z</time>
      </trkpt>
      <trkpt lat="45.93939" lon="4.78984">
        <ele>193</ele>
        <time>2017-06-16T08:22:44Z</time>
      </trkpt>
      <trkpt lat="45.93941" lon="4.78996">
        <ele>193</ele>
        <time>2017-06-16T08:22:46Z</time>
      </trkpt>
      <trkpt lat="45.93941" lon="4.79001">
        <ele>194</ele>
        <time>2017-06-16T08:22:47Z</time>
      </trkpt>
      <trkpt lat="45.93943" lon="4.79012">
        <ele>195</ele>
        <time>2017-06-16T08:22:49Z</time>
      </trkpt>
      <trkpt lat="45.93943" lon="4.79017">
        <ele>195</ele>
        <time>2017-06-16T08:22:50Z</time>
      </trkpt>
      <trkpt lat="45.93943" lon="4.79028">
        <ele>195</ele>
        <time>2017-06-16T08:22:52Z</time>
      </trkpt>
      <trkpt lat="45.93943" lon="4.79034">
        <ele>195</ele>
        <time>2017-06-16T08:22:53Z</time>
      </trkpt>
      <trkpt lat="45.93944" lon="4.79046">
        <ele>195</ele>
        <time>2017-06-16T08:22:55Z</time>
      </trkpt>
      <trkpt lat="45.93944" lon="4.79052">
        <ele>195</ele>
        <time>2017-06-16T08:22:56Z</time>
      </trkpt>
      <trkpt lat="45.93944" lon="4.79063">
        <ele>195</ele>
        <time>2017-06-16T08:22:58Z</time>
      </trkpt>
      <trkpt lat="45.93944" lon="4.79067">
        <ele>195</ele>
        <time>2017-06-16T08:22:59Z</time>
      </trkpt>
      <trkpt lat="45.93944" lon="4.79078">
        <ele>195</ele>
        <time>2017-06-16T08:23:01Z</time>
      </trkpt>
      <trkpt lat="45.93943" lon="4.79083">
        <ele>195</ele>
        <time>2017-06-16T08:23:02Z</time>
      </trkpt>
      <trkpt lat="45.93944" lon="4.7909">
        <ele>196</ele>
        <time>2017-06-16T08:23:03Z</time>
      </trkpt>
      <trkpt lat="45.93944" lon="4.79096">
        <ele>196</ele>
        <time>2017-06-16T08:23:04Z</time>
      </trkpt>
      <trkpt lat="45.93944" lon="4.79108">
        <ele>196</ele>
        <time>2017-06-16T08:23:06Z</time>
      </trkpt>
      <trkpt lat="45.93944" lon="4.79114">
        <ele>196</ele>
        <time>2017-06-16T08:23:07Z</time>
      </trkpt>
      <trkpt lat="45.93941" lon="4.79122">
        <ele>196</ele>
        <time>2017-06-16T08:23:08Z</time>
      </trkpt>
      <trkpt lat="45.9394" lon="4.79127">
        <ele>196</ele>
        <time>2017-06-16T08:23:09Z</time>
      </trkpt>
      <trkpt lat="45.9394" lon="4.79134">
        <ele>196</ele>
        <time>2017-06-16T08:23:10Z</time>
      </trkpt>
      <trkpt lat="45.9394" lon="4.79141">
        <ele>196</ele>
        <time>2017-06-16T08:23:11Z</time>
      </trkpt>
      <trkpt lat="45.93941" lon="4.79152">
        <ele>196</ele>
        <time>2017-06-16T08:23:13Z</time>
      </trkpt>
      <trkpt lat="45.93941" lon="4.79158">
        <ele>196</ele>
        <time>2017-06-16T08:23:14Z</time>
      </trkpt>
      <trkpt lat="45.93942" lon="4.7917">
        <ele>196</ele>
        <time>2017-06-16T08:23:16Z</time>
      </trkpt>
      <trkpt lat="45.93943" lon="4.79176">
        <ele>196</ele>
        <time>2017-06-16T08:23:17Z</time>
      </trkpt>
      <trkpt lat="45.93943" lon="4.79187">
        <ele>196</ele>
        <time>2017-06-16T08:23:19Z</time>
      </trkpt>
      <trkpt lat="45.93943" lon="4.79193">
        <ele>196</ele>
        <time>2017-06-16T08:23:20Z</time>
      </trkpt>
      <trkpt lat="45.93943" lon="4.79203">
        <ele>197</ele>
        <time>2017-06-16T08:23:22Z</time>
      </trkpt>
      <trkpt lat="45.93943" lon="4.7921">
        <ele>196</ele>
        <time>2017-06-16T08:23:23Z</time>
      </trkpt>
      <trkpt lat="45.93943" lon="4.79222">
        <ele>196</ele>
        <time>2017-06-16T08:23:25Z</time>
      </trkpt>
      <trkpt lat="45.93944" lon="4.79228">
        <ele>196</ele>
        <time>2017-06-16T08:23:26Z</time>
      </trkpt>
      <trkpt lat="45.93945" lon="4.7924">
        <ele>196</ele>
        <time>2017-06-16T08:23:28Z</time>
      </trkpt>
      <trkpt lat="45.93945" lon="4.79245">
        <ele>196</ele>
        <time>2017-06-16T08:23:29Z</time>
      </trkpt>
      <trkpt lat="45.93946" lon="4.79258">
        <ele>197</ele>
        <time>2017-06-16T08:23:31Z</time>
      </trkpt>
      <trkpt lat="45.93946" lon="4.79263">
        <ele>197</ele>
        <time>2017-06-16T08:23:32Z</time>
      </trkpt>
      <trkpt lat="45.93949" lon="4.79273">
        <ele>198</ele>
        <time>2017-06-16T08:23:34Z</time>
      </trkpt>
      <trkpt lat="45.9395" lon="4.79277">
        <ele>198</ele>
        <time>2017-06-16T08:23:35Z</time>
      </trkpt>
      <trkpt lat="45.93952" lon="4.79289">
        <ele>198</ele>
        <time>2017-06-16T08:23:37Z</time>
      </trkpt>
      <trkpt lat="45.93952" lon="4.79295">
        <ele>198</ele>
        <time>2017-06-16T08:23:38Z</time>
      </trkpt>
      <trkpt lat="45.93953" lon="4.79305">
        <ele>199</ele>
        <time>2017-06-16T08:23:40Z</time>
      </trkpt>
      <trkpt lat="45.93953" lon="4.7931">
        <ele>199</ele>
        <time>2017-06-16T08:23:41Z</time>
      </trkpt>
      <trkpt lat="45.93952" lon="4.79322">
        <ele>198</ele>
        <time>2017-06-16T08:23:43Z</time>
      </trkpt>
      <trkpt lat="45.93952" lon="4.79327">
        <ele>199</ele>
        <time>2017-06-16T08:23:44Z</time>
      </trkpt>
      <trkpt lat="45.93953" lon="4.79338">
        <ele>200</ele>
        <time>2017-06-16T08:23:46Z</time>
      </trkpt>
      <trkpt lat="45.93953" lon="4.79344">
        <ele>200</ele>
        <time>2017-06-16T08:23:47Z</time>
      </trkpt>
      <trkpt lat="45.93953" lon="4.79354">
        <ele>201</ele>
        <time>2017-06-16T08:23:49Z</time>
      </trkpt>
      <trkpt lat="45.93954" lon="4.7936">
        <ele>201</ele>
        <time>2017-06-16T08:23:50Z</time>
      </trkpt>
      <trkpt lat="45.93954" lon="4.79371">
        <ele>201</ele>
        <time>2017-06-16T08:23:52Z</time>
      </trkpt>
      <trkpt lat="45.93954" lon="4.79377">
        <ele>201</ele>
        <time>2017-06-16T08:23:53Z</time>
      </trkpt>
      <trkpt lat="45.93954" lon="4.79387">
        <ele>201</ele>
        <time>2017-06-16T08:23:55Z</time>
      </trkpt>
      <trkpt lat="45.93953" lon="4.79392">
        <ele>201</ele>
        <time>2017-06-16T08:23:56Z</time>
      </trkpt>
      <trkpt lat="45.93953" lon="4.79402">
        <ele>201</ele>
        <time>2017-06-16T08:23:58Z</time>
      </trkpt>
      <trkpt lat="45.93953" lon="4.79406">
        <ele>201</ele>
        <time>2017-06-16T08:23:59Z</time>
      </trkpt>
      <trkpt lat="45.93951" lon="4.79415">
        <ele>201</ele>
        <time>2017-06-16T08:24:01Z</time>
      </trkpt>
      <trkpt lat="45.9395" lon="4.7942">
        <ele>202</ele>
        <time>2017-06-16T08:24:02Z</time>
      </trkpt>
      <trkpt lat="45.93949" lon="4.79432">
        <ele>202</ele>
        <time>2017-06-16T08:24:05Z</time>
      </trkpt>
      <trkpt lat="45.93948" lon="4.79437">
        <ele>202</ele>
        <time>2017-06-16T08:24:06Z</time>
      </trkpt>
      <trkpt lat="45.93946" lon="4.79446">
        <ele>202</ele>
        <time>2017-06-16T08:24:08Z</time>
      </trkpt>
      <trkpt lat="45.93945" lon="4.7945">
        <ele>202</ele>
        <time>2017-06-16T08:24:09Z</time>
      </trkpt>
      <trkpt lat="45.93944" lon="4.79459">
        <ele>202</ele>
        <time>2017-06-16T08:24:11Z</time>
      </trkpt>
      <trkpt lat="45.93944" lon="4.79466">
        <ele>202</ele>
        <time>2017-06-16T08:24:12Z</time>
      </trkpt>
      <trkpt lat="45.93944" lon="4.79477">
        <ele>202</ele>
        <time>2017-06-16T08:24:14Z</time>
      </trkpt>
      <trkpt lat="45.93944" lon="4.79482">
        <ele>202</ele>
        <time>2017-06-16T08:24:15Z</time>
      </trkpt>
      <trkpt lat="45.93945" lon="4.79492">
        <ele>202</ele>
        <time>2017-06-16T08:24:17Z</time>
      </trkpt>
      <trkpt lat="45.93946" lon="4.79497">
        <ele>202</ele>
        <time>2017-06-16T08:24:18Z</time>
      </trkpt>
      <trkpt lat="45.93947" lon="4.79507">
        <ele>203</ele>
        <time>2017-06-16T08:24:20Z</time>
      </trkpt>
      <trkpt lat="45.93947" lon="4.79511">
        <ele>203</ele>
        <time>2017-06-16T08:24:21Z</time>
      </trkpt>
      <trkpt lat="45.93948" lon="4.79521">
        <ele>204</ele>
        <time>2017-06-16T08:24:23Z</time>
      </trkpt>
      <trkpt lat="45.93948" lon="4.79526">
        <ele>204</ele>
        <time>2017-06-16T08:24:24Z</time>
      </trkpt>
      <trkpt lat="45.93949" lon="4.79536">
        <ele>204</ele>
        <time>2017-06-16T08:24:26Z</time>
      </trkpt>
      <trkpt lat="45.93949" lon="4.79541">
        <ele>204</ele>
        <time>2017-06-16T08:24:27Z</time>
      </trkpt>
      <trkpt lat="45.9395" lon="4.79551">
        <ele>205</ele>
        <time>2017-06-16T08:24:29Z</time>
      </trkpt>
      <trkpt lat="45.9395" lon="4.79555">
        <ele>205</ele>
        <time>2017-06-16T08:24:30Z</time>
      </trkpt>
      <trkpt lat="45.93951" lon="4.79564">
        <ele>205</ele>
        <time>2017-06-16T08:24:32Z</time>
      </trkpt>
      <trkpt lat="45.93952" lon="4.79568">
        <ele>205</ele>
        <time>2017-06-16T08:24:33Z</time>
      </trkpt>
      <trkpt lat="45.93953" lon="4.79577">
        <ele>205</ele>
        <time>2017-06-16T08:24:35Z</time>
      </trkpt>
      <trkpt lat="45.93953" lon="4.79583">
        <ele>205</ele>
        <time>2017-06-16T08:24:36Z</time>
      </trkpt>
      <trkpt lat="45.93954" lon="4.79593">
        <ele>206</ele>
        <time>2017-06-16T08:24:38Z</time>
      </trkpt>
      <trkpt lat="45.93955" lon="4.79597">
        <ele>206</ele>
        <time>2017-06-16T08:24:39Z</time>
      </trkpt>
      <trkpt lat="45.93957" lon="4.79607">
        <ele>207</ele>
        <time>2017-06-16T08:24:41Z</time>
      </trkpt>
      <trkpt lat="45.93958" lon="4.79611">
        <ele>207</ele>
        <time>2017-06-16T08:24:42Z</time>
      </trkpt>
      <trkpt lat="45.93958" lon="4.79621">
        <ele>207</ele>
        <time>2017-06-16T08:24:44Z</time>
      </trkpt>
      <trkpt lat="45.93957" lon="4.79626">
        <ele>207</ele>
        <time>2017-06-16T08:24:45Z</time>
      </trkpt>
      <trkpt lat="45.93958" lon="4.79635">
        <ele>207</ele>
        <time>2017-06-16T08:24:47Z</time>
      </trkpt>
      <trkpt lat="45.93959" lon="4.7964">
        <ele>207</ele>
        <time>2017-06-16T08:24:48Z</time>
      </trkpt>
      <trkpt lat="45.9396" lon="4.79648">
        <ele>207</ele>
        <time>2017-06-16T08:24:50Z</time>
      </trkpt>
      <trkpt lat="45.93961" lon="4.79652">
        <ele>207</ele>
        <time>2017-06-16T08:24:51Z</time>
      </trkpt>
      <trkpt lat="45.93961" lon="4.79661">
        <ele>207</ele>
        <time>2017-06-16T08:24:53Z</time>
      </trkpt>
      <trkpt lat="45.93961" lon="4.79666">
        <ele>207</ele>
        <time>2017-06-16T08:24:54Z</time>
      </trkpt>
      <trkpt lat="45.93961" lon="4.79676">
        <ele>207</ele>
        <time>2017-06-16T08:24:56Z</time>
      </trkpt>
      <trkpt lat="45.93962" lon="4.79681">
        <ele>207</ele>
        <time>2017-06-16T08:24:57Z</time>
      </trkpt>
      <trkpt lat="45.93963" lon="4.79691">
        <ele>207</ele>
        <time>2017-06-16T08:24:59Z</time>
      </trkpt>
      <trkpt lat="45.93964" lon="4.79696">
        <ele>207</ele>
        <time>2017-06-16T08:25:00Z</time>
      </trkpt>
      <trkpt lat="45.93965" lon="4.79704">
        <ele>207</ele>
        <time>2017-06-16T08:25:02Z</time>
      </trkpt>
      <trkpt lat="45.93965" lon="4.79709">
        <ele>207</ele>
        <time>2017-06-16T08:25:03Z</time>
      </trkpt>
      <trkpt lat="45.93965" lon="4.79719">
        <ele>206</ele>
        <time>2017-06-16T08:25:05Z</time>
      </trkpt>
      <trkpt lat="45.93966" lon="4.79724">
        <ele>206</ele>
        <time>2017-06-16T08:25:06Z</time>
      </trkpt>
      <trkpt lat="45.93967" lon="4.79735">
        <ele>206</ele>
        <time>2017-06-16T08:25:08Z</time>
      </trkpt>
      <trkpt lat="45.93968" lon="4.79741">
        <ele>206</ele>
        <time>2017-06-16T08:25:09Z</time>
      </trkpt>
      <trkpt lat="45.93972" lon="4.7975">
        <ele>206</ele>
        <time>2017-06-16T08:25:11Z</time>
      </trkpt>
      <trkpt lat="45.93973" lon="4.79756">
        <ele>206</ele>
        <time>2017-06-16T08:25:12Z</time>
      </trkpt>
      <trkpt lat="45.93971" lon="4.79763">
        <ele>206</ele>
        <time>2017-06-16T08:25:13Z</time>
      </trkpt>
      <trkpt lat="45.9397" lon="4.7977">
        <ele>206</ele>
        <time>2017-06-16T08:25:14Z</time>
      </trkpt>
      <trkpt lat="45.9397" lon="4.79783">
        <ele>206</ele>
        <time>2017-06-16T08:25:16Z</time>
      </trkpt>
      <trkpt lat="45.93969" lon="4.7979">
        <ele>206</ele>
        <time>2017-06-16T08:25:17Z</time>
      </trkpt>
      <trkpt lat="45.93968" lon="4.79802">
        <ele>206</ele>
        <time>2017-06-16T08:25:19Z</time>
      </trkpt>
      <trkpt lat="45.93967" lon="4.79808">
        <ele>206</ele>
        <time>2017-06-16T08:25:20Z</time>
      </trkpt>
      <trkpt lat="45.93965" lon="4.7982">
        <ele>206</ele>
        <time>2017-06-16T08:25:22Z</time>
      </trkpt>
      <trkpt lat="45.93964" lon="4.79826">
        <ele>206</ele>
        <time>2017-06-16T08:25:23Z</time>
      </trkpt>
      <trkpt lat="45.93962" lon="4.79838">
        <ele>206</ele>
        <time>2017-06-16T08:25:25Z</time>
      </trkpt>
      <trkpt lat="45.93961" lon="4.79844">
        <ele>206</ele>
        <time>2017-06-16T08:25:26Z</time>
      </trkpt>
      <trkpt lat="45.9396" lon="4.79857">
        <ele>206</ele>
        <time>2017-06-16T08:25:28Z</time>
      </trkpt>
      <trkpt lat="45.93959" lon="4.79863">
        <ele>206</ele>
        <time>2017-06-16T08:25:29Z</time>
      </trkpt>
      <trkpt lat="45.93956" lon="4.79875">
        <ele>206</ele>
        <time>2017-06-16T08:25:31Z</time>
      </trkpt>
      <trkpt lat="45.93955" lon="4.79881">
        <ele>206</ele>
        <time>2017-06-16T08:25:32Z</time>
      </trkpt>
      <trkpt lat="45.93952" lon="4.79893">
        <ele>205</ele>
        <time>2017-06-16T08:25:34Z</time>
      </trkpt>
      <trkpt lat="45.93951" lon="4.79898">
        <ele>205</ele>
        <time>2017-06-16T08:25:35Z</time>
      </trkpt>
      <trkpt lat="45.9395" lon="4.79905">
        <ele>205</ele>
        <time>2017-06-16T08:25:36Z</time>
      </trkpt>
      <trkpt lat="45.93949" lon="4.79912">
        <ele>205</ele>
        <time>2017-06-16T08:25:37Z</time>
      </trkpt>
      <trkpt lat="45.93947" lon="4.7992">
        <ele>205</ele>
        <time>2017-06-16T08:25:38Z</time>
      </trkpt>
      <trkpt lat="45.93946" lon="4.79927">
        <ele>205</ele>
        <time>2017-06-16T08:25:39Z</time>
      </trkpt>
      <trkpt lat="45.93945" lon="4.79934">
        <ele>205</ele>
        <time>2017-06-16T08:25:40Z</time>
      </trkpt>
      <trkpt lat="45.93944" lon="4.79941">
        <ele>205</ele>
        <time>2017-06-16T08:25:41Z</time>
      </trkpt>
      <trkpt lat="45.93944" lon="4.79948">
        <ele>205</ele>
        <time>2017-06-16T08:25:42Z</time>
      </trkpt>
      <trkpt lat="45.93943" lon="4.79954">
        <ele>205</ele>
        <time>2017-06-16T08:25:43Z</time>
      </trkpt>
      <trkpt lat="45.9394" lon="4.79966">
        <ele>205</ele>
        <time>2017-06-16T08:25:45Z</time>
      </trkpt>
      <trkpt lat="45.9394" lon="4.79971">
        <ele>205</ele>
        <time>2017-06-16T08:25:46Z</time>
      </trkpt>
      <trkpt lat="45.93937" lon="4.79983">
        <ele>204</ele>
        <time>2017-06-16T08:25:48Z</time>
      </trkpt>
      <trkpt lat="45.93935" lon="4.79989">
        <ele>204</ele>
        <time>2017-06-16T08:25:49Z</time>
      </trkpt>
      <trkpt lat="45.93934" lon="4.79999">
        <ele>203</ele>
        <time>2017-06-16T08:25:51Z</time>
      </trkpt>
      <trkpt lat="45.93933" lon="4.80005">
        <ele>205</ele>
        <time>2017-06-16T08:25:52Z</time>
      </trkpt>
      <trkpt lat="45.93932" lon="4.80016">
        <ele>205</ele>
        <time>2017-06-16T08:25:54Z</time>
      </trkpt>
      <trkpt lat="45.93931" lon="4.80022">
        <ele>206</ele>
        <time>2017-06-16T08:25:55Z</time>
      </trkpt>
      <trkpt lat="45.9393" lon="4.80034">
        <ele>206</ele>
        <time>2017-06-16T08:25:57Z</time>
      </trkpt>
      <trkpt lat="45.9393" lon="4.8004">
        <ele>207</ele>
        <time>2017-06-16T08:25:58Z</time>
      </trkpt>
      <trkpt lat="45.9393" lon="4.80051">
        <ele>207</ele>
        <time>2017-06-16T08:26:00Z</time>
      </trkpt>
      <trkpt lat="45.9393" lon="4.80056">
        <ele>207</ele>
        <time>2017-06-16T08:26:01Z</time>
      </trkpt>
      <trkpt lat="45.9393" lon="4.80068">
        <ele>207</ele>
        <time>2017-06-16T08:26:03Z</time>
      </trkpt>
      <trkpt lat="45.93931" lon="4.80074">
        <ele>207</ele>
        <time>2017-06-16T08:26:04Z</time>
      </trkpt>
      <trkpt lat="45.93931" lon="4.80081">
        <ele>207</ele>
        <time>2017-06-16T08:26:05Z</time>
      </trkpt>
      <trkpt lat="45.93931" lon="4.80087">
        <ele>207</ele>
        <time>2017-06-16T08:26:06Z</time>
      </trkpt>
      <trkpt lat="45.93932" lon="4.80094">
        <ele>207</ele>
        <time>2017-06-16T08:26:07Z</time>
      </trkpt>
      <trkpt lat="45.93933" lon="4.80101">
        <ele>208</ele>
        <time>2017-06-16T08:26:08Z</time>
      </trkpt>
      <trkpt lat="45.93935" lon="4.80107">
        <ele>208</ele>
        <time>2017-06-16T08:26:09Z</time>
      </trkpt>
      <trkpt lat="45.93935" lon="4.80113">
        <ele>208</ele>
        <time>2017-06-16T08:26:10Z</time>
      </trkpt>
      <trkpt lat="45.93936" lon="4.80125">
        <ele>208</ele>
        <time>2017-06-16T08:26:12Z</time>
      </trkpt>
      <trkpt lat="45.93937" lon="4.80131">
        <ele>208</ele>
        <time>2017-06-16T08:26:13Z</time>
      </trkpt>
      <trkpt lat="45.93937" lon="4.80142">
        <ele>208</ele>
        <time>2017-06-16T08:26:15Z</time>
      </trkpt>
      <trkpt lat="45.93938" lon="4.80147">
        <ele>208</ele>
        <time>2017-06-16T08:26:16Z</time>
      </trkpt>
      <trkpt lat="45.93939" lon="4.80158">
        <ele>208</ele>
        <time>2017-06-16T08:26:18Z</time>
      </trkpt>
      <trkpt lat="45.9394" lon="4.80164">
        <ele>207</ele>
        <time>2017-06-16T08:26:19Z</time>
      </trkpt>
      <trkpt lat="45.93943" lon="4.80176">
        <ele>205</ele>
        <time>2017-06-16T08:26:21Z</time>
      </trkpt>
      <trkpt lat="45.93944" lon="4.80182">
        <ele>205</ele>
        <time>2017-06-16T08:26:22Z</time>
      </trkpt>
      <trkpt lat="45.93946" lon="4.80194">
        <ele>205</ele>
        <time>2017-06-16T08:26:24Z</time>
      </trkpt>
      <trkpt lat="45.93947" lon="4.802">
        <ele>205</ele>
        <time>2017-06-16T08:26:25Z</time>
      </trkpt>
      <trkpt lat="45.9395" lon="4.8021">
        <ele>205</ele>
        <time>2017-06-16T08:26:27Z</time>
      </trkpt>
      <trkpt lat="45.93951" lon="4.80216">
        <ele>205</ele>
        <time>2017-06-16T08:26:28Z</time>
      </trkpt>
      <trkpt lat="45.93954" lon="4.80228">
        <ele>204</ele>
        <time>2017-06-16T08:26:30Z</time>
      </trkpt>
      <trkpt lat="45.93956" lon="4.80234">
        <ele>204</ele>
        <time>2017-06-16T08:26:31Z</time>
      </trkpt>
      <trkpt lat="45.93959" lon="4.80245">
        <ele>204</ele>
        <time>2017-06-16T08:26:33Z</time>
      </trkpt>
      <trkpt lat="45.93961" lon="4.8025">
        <ele>202</ele>
        <time>2017-06-16T08:26:34Z</time>
      </trkpt>
      <trkpt lat="45.93964" lon="4.80261">
        <ele>202</ele>
        <time>2017-06-16T08:26:36Z</time>
      </trkpt>
      <trkpt lat="45.93966" lon="4.80267">
        <ele>202</ele>
        <time>2017-06-16T08:26:37Z</time>
      </trkpt>
      <trkpt lat="45.93969" lon="4.80278">
        <ele>202</ele>
        <time>2017-06-16T08:26:39Z</time>
      </trkpt>
      <trkpt lat="45.9397" lon="4.80286">
        <ele>202</ele>
        <time>2017-06-16T08:26:40Z</time>
      </trkpt>
      <trkpt lat="45.93974" lon="4.80295">
        <ele>203</ele>
        <time>2017-06-16T08:26:42Z</time>
      </trkpt>
      <trkpt lat="45.93975" lon="4.803">
        <ele>203</ele>
        <time>2017-06-16T08:26:43Z</time>
      </trkpt>
      <trkpt lat="45.93978" lon="4.80311">
        <ele>203</ele>
        <time>2017-06-16T08:26:46Z</time>
      </trkpt>
      <trkpt lat="45.9398" lon="4.80315">
        <ele>203</ele>
        <time>2017-06-16T08:26:47Z</time>
      </trkpt>
      <trkpt lat="45.93983" lon="4.80326">
        <ele>204</ele>
        <time>2017-06-16T08:26:50Z</time>
      </trkpt>
      <trkpt lat="45.93984" lon="4.8033">
        <ele>204</ele>
        <time>2017-06-16T08:26:51Z</time>
      </trkpt>
      <trkpt lat="45.93987" lon="4.80342">
        <ele>206</ele>
        <time>2017-06-16T08:26:54Z</time>
      </trkpt>
      <trkpt lat="45.93988" lon="4.80346">
        <ele>206</ele>
        <time>2017-06-16T08:26:55Z</time>
      </trkpt>
      <trkpt lat="45.93991" lon="4.80357">
        <ele>206</ele>
        <time>2017-06-16T08:26:58Z</time>
      </trkpt>
      <trkpt lat="45.93993" lon="4.8036">
        <ele>207</ele>
        <time>2017-06-16T08:26:59Z</time>
      </trkpt>
      <trkpt lat="45.93996" lon="4.80371">
        <ele>207</ele>
        <time>2017-06-16T08:27:02Z</time>
      </trkpt>
      <trkpt lat="45.93997" lon="4.80375">
        <ele>208</ele>
        <time>2017-06-16T08:27:03Z</time>
      </trkpt>
      <trkpt lat="45.93999" lon="4.80385">
        <ele>209</ele>
        <time>2017-06-16T08:27:06Z</time>
      </trkpt>
      <trkpt lat="45.94" lon="4.80389">
        <ele>209</ele>
        <time>2017-06-16T08:27:07Z</time>
      </trkpt>
      <trkpt lat="45.94002" lon="4.80398">
        <ele>217</ele>
        <time>2017-06-16T08:27:10Z</time>
      </trkpt>
      <trkpt lat="45.94002" lon="4.80402">
        <ele>217</ele>
        <time>2017-06-16T08:27:11Z</time>
      </trkpt>
      <trkpt lat="45.94005" lon="4.80412">
        <ele>217</ele>
        <time>2017-06-16T08:27:14Z</time>
      </trkpt>
      <trkpt lat="45.94006" lon="4.80415">
        <ele>217</ele>
        <time>2017-06-16T08:27:15Z</time>
      </trkpt>
      <trkpt lat="45.94009" lon="4.80424">
        <ele>219</ele>
        <time>2017-06-16T08:27:18Z</time>
      </trkpt>
      <trkpt lat="45.9401" lon="4.80427">
        <ele>220</ele>
        <time>2017-06-16T08:27:19Z</time>
      </trkpt>
      <trkpt lat="45.94011" lon="4.80439">
        <ele>221</ele>
        <time>2017-06-16T08:27:23Z</time>
      </trkpt>
      <trkpt lat="45.94011" lon="4.80442">
        <ele>222</ele>
        <time>2017-06-16T08:27:24Z</time>
      </trkpt>
      <trkpt lat="45.94011" lon="4.80454">
        <ele>222</ele>
        <time>2017-06-16T08:27:28Z</time>
      </trkpt>
      <trkpt lat="45.94011" lon="4.80457">
        <ele>223</ele>
        <time>2017-06-16T08:27:29Z</time>
      </trkpt>
      <trkpt lat="45.94011" lon="4.8047">
        <ele>223</ele>
        <time>2017-06-16T08:27:33Z</time>
      </trkpt>
      <trkpt lat="45.94011" lon="4.80473">
        <ele>222</ele>
        <time>2017-06-16T08:27:34Z</time>
      </trkpt>
      <trkpt lat="45.94011" lon="4.80483">
        <ele>222</ele>
        <time>2017-06-16T08:27:37Z</time>
      </trkpt>
      <trkpt lat="45.94011" lon="4.80486">
        <ele>222</ele>
        <time>2017-06-16T08:27:38Z</time>
      </trkpt>
      <trkpt lat="45.94011" lon="4.80498">
        <ele>221</ele>
        <time>2017-06-16T08:27:43Z</time>
      </trkpt>
      <trkpt lat="45.94011" lon="4.805">
        <ele>221</ele>
        <time>2017-06-16T08:27:44Z</time>
      </trkpt>
      <trkpt lat="45.94012" lon="4.80512">
        <ele>222</ele>
        <time>2017-06-16T08:27:49Z</time>
      </trkpt>
      <trkpt lat="45.94012" lon="4.80515">
        <ele>223</ele>
        <time>2017-06-16T08:27:50Z</time>
      </trkpt>
      <trkpt lat="45.9401" lon="4.80525">
        <ele>223</ele>
        <time>2017-06-16T08:27:53Z</time>
      </trkpt>
      <trkpt lat="45.9401" lon="4.80529">
        <ele>224</ele>
        <time>2017-06-16T08:27:54Z</time>
      </trkpt>
      <trkpt lat="45.9401" lon="4.80539">
        <ele>224</ele>
        <time>2017-06-16T08:27:58Z</time>
      </trkpt>
      <trkpt lat="45.9401" lon="4.80543">
        <ele>224</ele>
        <time>2017-06-16T08:27:59Z</time>
      </trkpt>
      <trkpt lat="45.94008" lon="4.80555">
        <ele>223</ele>
        <time>2017-06-16T08:28:02Z</time>
      </trkpt>
      <trkpt lat="45.94007" lon="4.80559">
        <ele>223</ele>
        <time>2017-06-16T08:28:03Z</time>
      </trkpt>
      <trkpt lat="45.94007" lon="4.80571">
        <ele>221</ele>
        <time>2017-06-16T08:28:06Z</time>
      </trkpt>
      <trkpt lat="45.94006" lon="4.80575">
        <ele>220</ele>
        <time>2017-06-16T08:28:07Z</time>
      </trkpt>
      <trkpt lat="45.94007" lon="4.80587">
        <ele>220</ele>
        <time>2017-06-16T08:28:10Z</time>
      </trkpt>
      <trkpt lat="45.94008" lon="4.80591">
        <ele>220</ele>
        <time>2017-06-16T08:28:11Z</time>
      </trkpt>
      <trkpt lat="45.94009" lon="4.80603">
        <ele>222</ele>
        <time>2017-06-16T08:28:14Z</time>
      </trkpt>
      <trkpt lat="45.94009" lon="4.80607">
        <ele>223</ele>
        <time>2017-06-16T08:28:15Z</time>
      </trkpt>
      <trkpt lat="45.94009" lon="4.80618">
        <ele>223</ele>
        <time>2017-06-16T08:28:18Z</time>
      </trkpt>
      <trkpt lat="45.94009" lon="4.80621">
        <ele>223</ele>
        <time>2017-06-16T08:28:19Z</time>
      </trkpt>
      <trkpt lat="45.94011" lon="4.80632">
        <ele>223</ele>
        <time>2017-06-16T08:28:23Z</time>
      </trkpt>
      <trkpt lat="45.94011" lon="4.80634">
        <ele>223</ele>
        <time>2017-06-16T08:28:24Z</time>
      </trkpt>
      <trkpt lat="45.94015" lon="4.80645">
        <ele>223</ele>
        <time>2017-06-16T08:28:28Z</time>
      </trkpt>
      <trkpt lat="45.94015" lon="4.80647">
        <ele>223</ele>
        <time>2017-06-16T08:28:29Z</time>
      </trkpt>
      <trkpt lat="45.94016" lon="4.80657">
        <ele>222</ele>
        <time>2017-06-16T08:28:33Z</time>
      </trkpt>
      <trkpt lat="45.94016" lon="4.8066">
        <ele>222</ele>
        <time>2017-06-16T08:28:34Z</time>
      </trkpt>
      <trkpt lat="45.94018" lon="4.80672">
        <ele>222</ele>
        <time>2017-06-16T08:28:38Z</time>
      </trkpt>
      <trkpt lat="45.94018" lon="4.80676">
        <ele>222</ele>
        <time>2017-06-16T08:28:39Z</time>
      </trkpt>
      <trkpt lat="45.9402" lon="4.80686">
        <ele>223</ele>
        <time>2017-06-16T08:28:42Z</time>
      </trkpt>
      <trkpt lat="45.9402" lon="4.80691">
        <ele>224</ele>
        <time>2017-06-16T08:28:43Z</time>
      </trkpt>
      <trkpt lat="45.94023" lon="4.80703">
        <ele>225</ele>
        <time>2017-06-16T08:28:46Z</time>
      </trkpt>
      <trkpt lat="45.94023" lon="4.80706">
        <ele>225</ele>
        <time>2017-06-16T08:28:47Z</time>
      </trkpt>
      <trkpt lat="45.94025" lon="4.80716">
        <ele>225</ele>
        <time>2017-06-16T08:28:51Z</time>
      </trkpt>
      <trkpt lat="45.94025" lon="4.80719">
        <ele>225</ele>
        <time>2017-06-16T08:28:52Z</time>
      </trkpt>
      <trkpt lat="45.94028" lon="4.80728">
        <ele>225</ele>
        <time>2017-06-16T08:28:55Z</time>
      </trkpt>
      <trkpt lat="45.94028" lon="4.80732">
        <ele>225</ele>
        <time>2017-06-16T08:28:56Z</time>
      </trkpt>
      <trkpt lat="45.9403" lon="4.80742">
        <ele>225</ele>
        <time>2017-06-16T08:28:59Z</time>
      </trkpt>
      <trkpt lat="45.9403" lon="4.80745">
        <ele>225</ele>
        <time>2017-06-16T08:29:00Z</time>
      </trkpt>
      <trkpt lat="45.94031" lon="4.80757">
        <ele>226</ele>
        <time>2017-06-16T08:29:03Z</time>
      </trkpt>
      <trkpt lat="45.94032" lon="4.80761">
        <ele>226</ele>
        <time>2017-06-16T08:29:04Z</time>
      </trkpt>
      <trkpt lat="45.94033" lon="4.80772">
        <ele>227</ele>
        <time>2017-06-16T08:29:07Z</time>
      </trkpt>
      <trkpt lat="45.94034" lon="4.80776">
        <ele>227</ele>
        <time>2017-06-16T08:29:08Z</time>
      </trkpt>
      <trkpt lat="45.94036" lon="4.80786">
        <ele>227</ele>
        <time>2017-06-16T08:29:11Z</time>
      </trkpt>
      <trkpt lat="45.94036" lon="4.80789">
        <ele>227</ele>
        <time>2017-06-16T08:29:12Z</time>
      </trkpt>
      <trkpt lat="45.94037" lon="4.80801">
        <ele>227</ele>
        <time>2017-06-16T08:29:15Z</time>
      </trkpt>
      <trkpt lat="45.94037" lon="4.80805">
        <ele>227</ele>
        <time>2017-06-16T08:29:16Z</time>
      </trkpt>
      <trkpt lat="45.94039" lon="4.80816">
        <ele>228</ele>
        <time>2017-06-16T08:29:19Z</time>
      </trkpt>
      <trkpt lat="45.9404" lon="4.8082">
        <ele>228</ele>
        <time>2017-06-16T08:29:20Z</time>
      </trkpt>
      <trkpt lat="45.94043" lon="4.80831">
        <ele>228</ele>
        <time>2017-06-16T08:29:23Z</time>
      </trkpt>
      <trkpt lat="45.94043" lon="4.80834">
        <ele>229</ele>
        <time>2017-06-16T08:29:24Z</time>
      </trkpt>
      <trkpt lat="45.94045" lon="4.80846">
        <ele>229</ele>
        <time>2017-06-16T08:29:28Z</time>
      </trkpt>
      <trkpt lat="45.94045" lon="4.80848">
        <ele>229</ele>
        <time>2017-06-16T08:29:29Z</time>
      </trkpt>
      <trkpt lat="45.94046" lon="4.80859">
        <ele>229</ele>
        <time>2017-06-16T08:29:33Z</time>
      </trkpt>
      <trkpt lat="45.94047" lon="4.80862">
        <ele>229</ele>
        <time>2017-06-16T08:29:34Z</time>
      </trkpt>
      <trkpt lat="45.94047" lon="4.80872">
        <ele>229</ele>
        <time>2017-06-16T08:29:37Z</time>
      </trkpt>
      <trkpt lat="45.94048" lon="4.80876">
        <ele>229</ele>
        <time>2017-06-16T08:29:38Z</time>
      </trkpt>
      <trkpt lat="45.94049" lon="4.80886">
        <ele>230</ele>
        <time>2017-06-16T08:29:41Z</time>
      </trkpt>
      <trkpt lat="45.9405" lon="4.80889">
        <ele>230</ele>
        <time>2017-06-16T08:29:42Z</time>
      </trkpt>
      <trkpt lat="45.94051" lon="4.80899">
        <ele>230</ele>
        <time>2017-06-16T08:29:45Z</time>
      </trkpt>
      <trkpt lat="45.94053" lon="4.80903">
        <ele>230</ele>
        <time>2017-06-16T08:29:46Z</time>
      </trkpt>
      <trkpt lat="45.94055" lon="4.80915">
        <ele>231</ele>
        <time>2017-06-16T08:29:50Z</time>
      </trkpt>
      <trkpt lat="45.94055" lon="4.80918">
        <ele>232</ele>
        <time>2017-06-16T08:29:51Z</time>
      </trkpt>
      <trkpt lat="45.94058" lon="4.80927">
        <ele>232</ele>
        <time>2017-06-16T08:29:54Z</time>
      </trkpt>
      <trkpt lat="45.94058" lon="4.8093">
        <ele>232</ele>
        <time>2017-06-16T08:29:55Z</time>
      </trkpt>
      <trkpt lat="45.9406" lon="4.80942">
        <ele>232</ele>
        <time>2017-06-16T08:29:59Z</time>
      </trkpt>
      <trkpt lat="45.9406" lon="4.80945">
        <ele>232</ele>
        <time>2017-06-16T08:30:00Z</time>
      </trkpt>
      <trkpt lat="45.94061" lon="4.80957">
        <ele>232</ele>
        <time>2017-06-16T08:30:04Z</time>
      </trkpt>
      <trkpt lat="45.94061" lon="4.8096">
        <ele>232</ele>
        <time>2017-06-16T08:30:05Z</time>
      </trkpt>
      <trkpt lat="45.94063" lon="4.80972">
        <ele>232</ele>
        <time>2017-06-16T08:30:09Z</time>
      </trkpt>
      <trkpt lat="45.94063" lon="4.80975">
        <ele>233</ele>
        <time>2017-06-16T08:30:10Z</time>
      </trkpt>
      <trkpt lat="45.94065" lon="4.80985">
        <ele>233</ele>
        <time>2017-06-16T08:30:13Z</time>
      </trkpt>
      <trkpt lat="45.94065" lon="4.80988">
        <ele>234</ele>
        <time>2017-06-16T08:30:14Z</time>
      </trkpt>
      <trkpt lat="45.94067" lon="4.80998">
        <ele>235</ele>
        <time>2017-06-16T08:30:17Z</time>
      </trkpt>
      <trkpt lat="45.94068" lon="4.81001">
        <ele>235</ele>
        <time>2017-06-16T08:30:18Z</time>
      </trkpt>
      <trkpt lat="45.94069" lon="4.81013">
        <ele>235</ele>
        <time>2017-06-16T08:30:22Z</time>
      </trkpt>
      <trkpt lat="45.9407" lon="4.81016">
        <ele>235</ele>
        <time>2017-06-16T08:30:23Z</time>
      </trkpt>
      <trkpt lat="45.94073" lon="4.81026">
        <ele>234</ele>
        <time>2017-06-16T08:30:26Z</time>
      </trkpt>
      <trkpt lat="45.94074" lon="4.8103">
        <ele>234</ele>
        <time>2017-06-16T08:30:27Z</time>
      </trkpt>
      <trkpt lat="45.94078" lon="4.8104">
        <ele>233</ele>
        <time>2017-06-16T08:30:30Z</time>
      </trkpt>
      <trkpt lat="45.94079" lon="4.81043">
        <ele>233</ele>
        <time>2017-06-16T08:30:31Z</time>
      </trkpt>
      <trkpt lat="45.94082" lon="4.81054">
        <ele>234</ele>
        <time>2017-06-16T08:30:34Z</time>
      </trkpt>
      <trkpt lat="45.94084" lon="4.81057">
        <ele>243</ele>
        <time>2017-06-16T08:30:35Z</time>
      </trkpt>
      <trkpt lat="45.94088" lon="4.81068">
        <ele>241</ele>
        <time>2017-06-16T08:30:38Z</time>
      </trkpt>
      <trkpt lat="45.94089" lon="4.81071">
        <ele>241</ele>
        <time>2017-06-16T08:30:39Z</time>
      </trkpt>
      <trkpt lat="45.94093" lon="4.81082">
        <ele>240</ele>
        <time>2017-06-16T08:30:43Z</time>
      </trkpt>
      <trkpt lat="45.94095" lon="4.81084">
        <ele>239</ele>
        <time>2017-06-16T08:30:44Z</time>
      </trkpt>
      <trkpt lat="45.94099" lon="4.81091">
        <ele>240</ele>
        <time>2017-06-16T08:30:47Z</time>
      </trkpt>
      <trkpt lat="45.94101" lon="4.81094">
        <ele>241</ele>
        <time>2017-06-16T08:30:48Z</time>
      </trkpt>
      <trkpt lat="45.94106" lon="4.81101">
        <ele>242</ele>
        <time>2017-06-16T08:30:51Z</time>
      </trkpt>
      <trkpt lat="45.94107" lon="4.81103">
        <ele>242</ele>
        <time>2017-06-16T08:30:52Z</time>
      </trkpt>
      <trkpt lat="45.94113" lon="4.81112">
        <ele>242</ele>
        <time>2017-06-16T08:30:56Z</time>
      </trkpt>
      <trkpt lat="45.94115" lon="4.81114">
        <ele>243</ele>
        <time>2017-06-16T08:30:57Z</time>
      </trkpt>
      <trkpt lat="45.94118" lon="4.81124">
        <ele>243</ele>
        <time>2017-06-16T08:31:01Z</time>
      </trkpt>
      <trkpt lat="45.94119" lon="4.81126">
        <ele>243</ele>
        <time>2017-06-16T08:31:02Z</time>
      </trkpt>
      <trkpt lat="45.94124" lon="4.81135">
        <ele>243</ele>
        <time>2017-06-16T08:31:06Z</time>
      </trkpt>
      <trkpt lat="45.94125" lon="4.81138">
        <ele>243</ele>
        <time>2017-06-16T08:31:07Z</time>
      </trkpt>
      <trkpt lat="45.94129" lon="4.81148">
        <ele>243</ele>
        <time>2017-06-16T08:31:11Z</time>
      </trkpt>
      <trkpt lat="45.9413" lon="4.81152">
        <ele>243</ele>
        <time>2017-06-16T08:31:12Z</time>
      </trkpt>
      <trkpt lat="45.94134" lon="4.8116">
        <ele>244</ele>
        <time>2017-06-16T08:31:15Z</time>
      </trkpt>
      <trkpt lat="45.94135" lon="4.81162">
        <ele>244</ele>
        <time>2017-06-16T08:31:16Z</time>
      </trkpt>
      <trkpt lat="45.94139" lon="4.81174">
        <ele>244</ele>
        <time>2017-06-16T08:31:19Z</time>
      </trkpt>
      <trkpt lat="45.94137" lon="4.81181">
        <ele>243</ele>
        <time>2017-06-16T08:31:20Z</time>
      </trkpt>
      <trkpt lat="45.94141" lon="4.81189">
        <ele>244</ele>
        <time>2017-06-16T08:31:22Z</time>
      </trkpt>
      <trkpt lat="45.94143" lon="4.81192">
        <ele>244</ele>
        <time>2017-06-16T08:31:23Z</time>
      </trkpt>
      <trkpt lat="45.94147" lon="4.812">
        <ele>244</ele>
        <time>2017-06-16T08:31:26Z</time>
      </trkpt>
      <trkpt lat="45.94148" lon="4.81203">
        <ele>244</ele>
        <time>2017-06-16T08:31:27Z</time>
      </trkpt>
      <trkpt lat="45.9415" lon="4.81213">
        <ele>244</ele>
        <time>2017-06-16T08:31:30Z</time>
      </trkpt>
      <trkpt lat="45.94151" lon="4.81216">
        <ele>245</ele>
        <time>2017-06-16T08:31:31Z</time>
      </trkpt>
      <trkpt lat="45.94154" lon="4.81228">
        <ele>245</ele>
        <time>2017-06-16T08:31:35Z</time>
      </trkpt>
      <trkpt lat="45.94154" lon="4.81231">
        <ele>246</ele>
        <time>2017-06-16T08:31:36Z</time>
      </trkpt>
      <trkpt lat="45.94156" lon="4.81241">
        <ele>247</ele>
        <time>2017-06-16T08:31:40Z</time>
      </trkpt>
      <trkpt lat="45.94156" lon="4.81244">
        <ele>247</ele>
        <time>2017-06-16T08:31:41Z</time>
      </trkpt>
      <trkpt lat="45.94158" lon="4.81256">
        <ele>248</ele>
        <time>2017-06-16T08:31:46Z</time>
      </trkpt>
      <trkpt lat="45.94159" lon="4.81258">
        <ele>248</ele>
        <time>2017-06-16T08:31:47Z</time>
      </trkpt>
      <trkpt lat="45.94158" lon="4.81268">
        <ele>247</ele>
        <time>2017-06-16T08:31:51Z</time>
      </trkpt>
      <trkpt lat="45.94158" lon="4.81272">
        <ele>247</ele>
        <time>2017-06-16T08:31:52Z</time>
      </trkpt>
      <trkpt lat="45.94161" lon="4.81284">
        <ele>247</ele>
        <time>2017-06-16T08:31:55Z</time>
      </trkpt>
      <trkpt lat="45.94161" lon="4.81287">
        <ele>247</ele>
        <time>2017-06-16T08:31:56Z</time>
      </trkpt>
      <trkpt lat="45.94161" lon="4.81297">
        <ele>247</ele>
        <time>2017-06-16T08:31:59Z</time>
      </trkpt>
      <trkpt lat="45.94161" lon="4.81301">
        <ele>247</ele>
        <time>2017-06-16T08:32:00Z</time>
      </trkpt>
      <trkpt lat="45.94161" lon="4.81313">
        <ele>248</ele>
        <time>2017-06-16T08:32:04Z</time>
      </trkpt>
      <trkpt lat="45.94161" lon="4.81316">
        <ele>249</ele>
        <time>2017-06-16T08:32:05Z</time>
      </trkpt>
      <trkpt lat="45.94161" lon="4.81327">
        <ele>250</ele>
        <time>2017-06-16T08:32:10Z</time>
      </trkpt>
      <trkpt lat="45.94161" lon="4.8133">
        <ele>250</ele>
        <time>2017-06-16T08:32:11Z</time>
      </trkpt>
      <trkpt lat="45.9416" lon="4.8134">
        <ele>251</ele>
        <time>2017-06-16T08:32:15Z</time>
      </trkpt>
      <trkpt lat="45.94159" lon="4.81344">
        <ele>251</ele>
        <time>2017-06-16T08:32:16Z</time>
      </trkpt>
      <trkpt lat="45.94158" lon="4.81356">
        <ele>250</ele>
        <time>2017-06-16T08:32:20Z</time>
      </trkpt>
      <trkpt lat="45.94157" lon="4.8136">
        <ele>250</ele>
        <time>2017-06-16T08:32:21Z</time>
      </trkpt>
      <trkpt lat="45.94156" lon="4.81371">
        <ele>250</ele>
        <time>2017-06-16T08:32:25Z</time>
      </trkpt>
      <trkpt lat="45.94156" lon="4.81374">
        <ele>251</ele>
        <time>2017-06-16T08:32:26Z</time>
      </trkpt>
      <trkpt lat="45.94154" lon="4.81385">
        <ele>251</ele>
        <time>2017-06-16T08:32:30Z</time>
      </trkpt>
      <trkpt lat="45.94153" lon="4.81388">
        <ele>251</ele>
        <time>2017-06-16T08:32:31Z</time>
      </trkpt>
      <trkpt lat="45.94152" lon="4.81398">
        <ele>252</ele>
        <time>2017-06-16T08:32:34Z</time>
      </trkpt>
      <trkpt lat="45.94152" lon="4.81401">
        <ele>252</ele>
        <time>2017-06-16T08:32:35Z</time>
      </trkpt>
      <trkpt lat="45.9415" lon="4.81411">
        <ele>252</ele>
        <time>2017-06-16T08:32:38Z</time>
      </trkpt>
      <trkpt lat="45.9415" lon="4.81414">
        <ele>253</ele>
        <time>2017-06-16T08:32:39Z</time>
      </trkpt>
      <trkpt lat="45.94149" lon="4.81427">
        <ele>256</ele>
        <time>2017-06-16T08:32:43Z</time>
      </trkpt>
      <trkpt lat="45.94149" lon="4.81429">
        <ele>256</ele>
        <time>2017-06-16T08:32:44Z</time>
      </trkpt>
      <trkpt lat="45.94147" lon="4.81442">
        <ele>256</ele>
        <time>2017-06-16T08:32:48Z</time>
      </trkpt>
      <trkpt lat="45.94147" lon="4.81445">
        <ele>256</ele>
        <time>2017-06-16T08:32:49Z</time>
      </trkpt>
      <trkpt lat="45.94147" lon="4.81458">
        <ele>257</ele>
        <time>2017-06-16T08:32:52Z</time>
      </trkpt>
      <trkpt lat="45.94148" lon="4.81462">
        <ele>257</ele>
        <time>2017-06-16T08:32:53Z</time>
      </trkpt>
      <trkpt lat="45.94148" lon="4.81475">
        <ele>258</ele>
        <time>2017-06-16T08:32:57Z</time>
      </trkpt>
      <trkpt lat="45.94148" lon="4.81478">
        <ele>258</ele>
        <time>2017-06-16T08:32:58Z</time>
      </trkpt>
      <trkpt lat="45.94146" lon="4.81491">
        <ele>259</ele>
        <time>2017-06-16T08:33:02Z</time>
      </trkpt>
      <trkpt lat="45.94146" lon="4.81494">
        <ele>259</ele>
        <time>2017-06-16T08:33:03Z</time>
      </trkpt>
      <trkpt lat="45.94146" lon="4.81504">
        <ele>263</ele>
        <time>2017-06-16T08:33:07Z</time>
      </trkpt>
      <trkpt lat="45.94145" lon="4.81507">
        <ele>263</ele>
        <time>2017-06-16T08:33:08Z</time>
      </trkpt>
      <trkpt lat="45.94145" lon="4.81517">
        <ele>263</ele>
        <time>2017-06-16T08:33:11Z</time>
      </trkpt>
      <trkpt lat="45.94144" lon="4.81521">
        <ele>263</ele>
        <time>2017-06-16T08:33:12Z</time>
      </trkpt>
      <trkpt lat="45.94142" lon="4.81533">
        <ele>263</ele>
        <time>2017-06-16T08:33:16Z</time>
      </trkpt>
      <trkpt lat="45.94142" lon="4.81535">
        <ele>264</ele>
        <time>2017-06-16T08:33:17Z</time>
      </trkpt>
      <trkpt lat="45.94143" lon="4.81545">
        <ele>264</ele>
        <time>2017-06-16T08:33:21Z</time>
      </trkpt>
      <trkpt lat="45.94143" lon="4.81549">
        <ele>264</ele>
        <time>2017-06-16T08:33:22Z</time>
      </trkpt>
      <trkpt lat="45.94145" lon="4.8156">
        <ele>265</ele>
        <time>2017-06-16T08:33:25Z</time>
      </trkpt>
      <trkpt lat="45.94147" lon="4.81563">
        <ele>265</ele>
        <time>2017-06-16T08:33:26Z</time>
      </trkpt>
      <trkpt lat="45.9415" lon="4.81573">
        <ele>265</ele>
        <time>2017-06-16T08:33:29Z</time>
      </trkpt>
      <trkpt lat="45.94151" lon="4.81577">
        <ele>265</ele>
        <time>2017-06-16T08:33:30Z</time>
      </trkpt>
      <trkpt lat="45.94154" lon="4.81587">
        <ele>267</ele>
        <time>2017-06-16T08:33:33Z</time>
      </trkpt>
      <trkpt lat="45.94154" lon="4.81594">
        <ele>267</ele>
        <time>2017-06-16T08:33:34Z</time>
      </trkpt>
      <trkpt lat="45.94154" lon="4.81603">
        <ele>267</ele>
        <time>2017-06-16T08:33:36Z</time>
      </trkpt>
      <trkpt lat="45.94155" lon="4.81607">
        <ele>267</ele>
        <time>2017-06-16T08:33:37Z</time>
      </trkpt>
      <trkpt lat="45.94157" lon="4.81618">
        <ele>268</ele>
        <time>2017-06-16T08:33:40Z</time>
      </trkpt>
      <trkpt lat="45.94158" lon="4.81621">
        <ele>268</ele>
        <time>2017-06-16T08:33:41Z</time>
      </trkpt>
      <trkpt lat="45.9416" lon="4.81632">
        <ele>268</ele>
        <time>2017-06-16T08:33:44Z</time>
      </trkpt>
      <trkpt lat="45.94161" lon="4.81636">
        <ele>268</ele>
        <time>2017-06-16T08:33:45Z</time>
      </trkpt>
      <trkpt lat="45.94163" lon="4.81647">
        <ele>268</ele>
        <time>2017-06-16T08:33:48Z</time>
      </trkpt>
      <trkpt lat="45.94164" lon="4.8165">
        <ele>268</ele>
        <time>2017-06-16T08:33:49Z</time>
      </trkpt>
      <trkpt lat="45.94167" lon="4.81659">
        <ele>268</ele>
        <time>2017-06-16T08:33:52Z</time>
      </trkpt>
      <trkpt lat="45.94168" lon="4.81664">
        <ele>269</ele>
        <time>2017-06-16T08:33:53Z</time>
      </trkpt>
      <trkpt lat="45.94171" lon="4.81675">
        <ele>268</ele>
        <time>2017-06-16T08:33:55Z</time>
      </trkpt>
      <trkpt lat="45.94172" lon="4.8168">
        <ele>268</ele>
        <time>2017-06-16T08:33:56Z</time>
      </trkpt>
      <trkpt lat="45.94173" lon="4.81691">
        <ele>267</ele>
        <time>2017-06-16T08:33:59Z</time>
      </trkpt>
      <trkpt lat="45.94174" lon="4.81694">
        <ele>267</ele>
        <time>2017-06-16T08:34:00Z</time>
      </trkpt>
      <trkpt lat="45.94177" lon="4.81705">
        <ele>267</ele>
        <time>2017-06-16T08:34:04Z</time>
      </trkpt>
      <trkpt lat="45.94177" lon="4.81708">
        <ele>267</ele>
        <time>2017-06-16T08:34:05Z</time>
      </trkpt>
      <trkpt lat="45.94178" lon="4.81717">
        <ele>267</ele>
        <time>2017-06-16T08:34:09Z</time>
      </trkpt>
      <trkpt lat="45.94178" lon="4.81721">
        <ele>267</ele>
        <time>2017-06-16T08:34:10Z</time>
      </trkpt>
      <trkpt lat="45.94179" lon="4.81733">
        <ele>267</ele>
        <time>2017-06-16T08:34:13Z</time>
      </trkpt>
      <trkpt lat="45.94181" lon="4.81736">
        <ele>267</ele>
        <time>2017-06-16T08:34:14Z</time>
      </trkpt>
      <trkpt lat="45.94185" lon="4.81745">
        <ele>267</ele>
        <time>2017-06-16T08:34:17Z</time>
      </trkpt>
      <trkpt lat="45.94187" lon="4.81748">
        <ele>267</ele>
        <time>2017-06-16T08:34:18Z</time>
      </trkpt>
      <trkpt lat="45.9419" lon="4.81756">
        <ele>266</ele>
        <time>2017-06-16T08:34:20Z</time>
      </trkpt>
      <trkpt lat="45.94191" lon="4.8176">
        <ele>266</ele>
        <time>2017-06-16T08:34:21Z</time>
      </trkpt>
      <trkpt lat="45.94193" lon="4.81769">
        <ele>266</ele>
        <time>2017-06-16T08:34:23Z</time>
      </trkpt>
      <trkpt lat="45.94193" lon="4.81773">
        <ele>266</ele>
        <time>2017-06-16T08:34:24Z</time>
      </trkpt>
      <trkpt lat="45.94194" lon="4.81785">
        <ele>266</ele>
        <time>2017-06-16T08:34:27Z</time>
      </trkpt>
      <trkpt lat="45.94194" lon="4.8179">
        <ele>266</ele>
        <time>2017-06-16T08:34:28Z</time>
      </trkpt>
      <trkpt lat="45.94194" lon="4.81802">
        <ele>266</ele>
        <time>2017-06-16T08:34:31Z</time>
      </trkpt>
      <trkpt lat="45.94194" lon="4.81806">
        <ele>266</ele>
        <time>2017-06-16T08:34:32Z</time>
      </trkpt>
      <trkpt lat="45.94195" lon="4.81814">
        <ele>266</ele>
        <time>2017-06-16T08:34:34Z</time>
      </trkpt>
      <trkpt lat="45.94196" lon="4.81819">
        <ele>266</ele>
        <time>2017-06-16T08:34:35Z</time>
      </trkpt>
      <trkpt lat="45.94198" lon="4.81827">
        <ele>266</ele>
        <time>2017-06-16T08:34:37Z</time>
      </trkpt>
      <trkpt lat="45.94198" lon="4.81832">
        <ele>266</ele>
        <time>2017-06-16T08:34:38Z</time>
      </trkpt>
      <trkpt lat="45.942" lon="4.81843">
        <ele>266</ele>
        <time>2017-06-16T08:34:41Z</time>
      </trkpt>
      <trkpt lat="45.94201" lon="4.81847">
        <ele>266</ele>
        <time>2017-06-16T08:34:42Z</time>
      </trkpt>
      <trkpt lat="45.94203" lon="4.81855">
        <ele>266</ele>
        <time>2017-06-16T08:34:44Z</time>
      </trkpt>
      <trkpt lat="45.94204" lon="4.8186">
        <ele>266</ele>
        <time>2017-06-16T08:34:45Z</time>
      </trkpt>
      <trkpt lat="45.94206" lon="4.81869">
        <ele>265</ele>
        <time>2017-06-16T08:34:47Z</time>
      </trkpt>
      <trkpt lat="45.94207" lon="4.81874">
        <ele>265</ele>
        <time>2017-06-16T08:34:48Z</time>
      </trkpt>
      <trkpt lat="45.94209" lon="4.81883">
        <ele>265</ele>
        <time>2017-06-16T08:34:50Z</time>
      </trkpt>
      <trkpt lat="45.94209" lon="4.81888">
        <ele>265</ele>
        <time>2017-06-16T08:34:51Z</time>
      </trkpt>
      <trkpt lat="45.94211" lon="4.81897">
        <ele>265</ele>
        <time>2017-06-16T08:34:53Z</time>
      </trkpt>
      <trkpt lat="45.94212" lon="4.81901">
        <ele>265</ele>
        <time>2017-06-16T08:34:54Z</time>
      </trkpt>
      <trkpt lat="45.94214" lon="4.8191">
        <ele>265</ele>
        <time>2017-06-16T08:34:56Z</time>
      </trkpt>
      <trkpt lat="45.94215" lon="4.81916">
        <ele>265</ele>
        <time>2017-06-16T08:34:57Z</time>
      </trkpt>
      <trkpt lat="45.94218" lon="4.81926">
        <ele>264</ele>
        <time>2017-06-16T08:34:59Z</time>
      </trkpt>
      <trkpt lat="45.94219" lon="4.81932">
        <ele>264</ele>
        <time>2017-06-16T08:35:00Z</time>
      </trkpt>
      <trkpt lat="45.94221" lon="4.81943">
        <ele>264</ele>
        <time>2017-06-16T08:35:02Z</time>
      </trkpt>
      <trkpt lat="45.94223" lon="4.81949">
        <ele>264</ele>
        <time>2017-06-16T08:35:03Z</time>
      </trkpt>
      <trkpt lat="45.94225" lon="4.81961">
        <ele>264</ele>
        <time>2017-06-16T08:35:05Z</time>
      </trkpt>
      <trkpt lat="45.94226" lon="4.81967">
        <ele>264</ele>
        <time>2017-06-16T08:35:06Z</time>
      </trkpt>
      <trkpt lat="45.94228" lon="4.81978">
        <ele>264</ele>
        <time>2017-06-16T08:35:08Z</time>
      </trkpt>
      <trkpt lat="45.94229" lon="4.81984">
        <ele>264</ele>
        <time>2017-06-16T08:35:09Z</time>
      </trkpt>
      <trkpt lat="45.94231" lon="4.81995">
        <ele>263</ele>
        <time>2017-06-16T08:35:11Z</time>
      </trkpt>
      <trkpt lat="45.94233" lon="4.82">
        <ele>263</ele>
        <time>2017-06-16T08:35:12Z</time>
      </trkpt>
      <trkpt lat="45.94235" lon="4.82011">
        <ele>263</ele>
        <time>2017-06-16T08:35:14Z</time>
      </trkpt>
      <trkpt lat="45.94236" lon="4.82016">
        <ele>263</ele>
        <time>2017-06-16T08:35:15Z</time>
      </trkpt>
      <trkpt lat="45.94237" lon="4.82025">
        <ele>263</ele>
        <time>2017-06-16T08:35:17Z</time>
      </trkpt>
      <trkpt lat="45.94237" lon="4.82029">
        <ele>263</ele>
        <time>2017-06-16T08:35:18Z</time>
      </trkpt>
      <trkpt lat="45.94238" lon="4.82037">
        <ele>263</ele>
        <time>2017-06-16T08:35:20Z</time>
      </trkpt>
      <trkpt lat="45.94238" lon="4.82042">
        <ele>263</ele>
        <time>2017-06-16T08:35:21Z</time>
      </trkpt>
      <trkpt lat="45.94241" lon="4.82053">
        <ele>263</ele>
        <time>2017-06-16T08:35:23Z</time>
      </trkpt>
      <trkpt lat="45.94242" lon="4.82058">
        <ele>263</ele>
        <time>2017-06-16T08:35:24Z</time>
      </trkpt>
      <trkpt lat="45.94244" lon="4.82068">
        <ele>263</ele>
        <time>2017-06-16T08:35:26Z</time>
      </trkpt>
      <trkpt lat="45.94245" lon="4.82073">
        <ele>263</ele>
        <time>2017-06-16T08:35:27Z</time>
      </trkpt>
      <trkpt lat="45.94247" lon="4.82084">
        <ele>262</ele>
        <time>2017-06-16T08:35:29Z</time>
      </trkpt>
      <trkpt lat="45.94248" lon="4.8209">
        <ele>263</ele>
        <time>2017-06-16T08:35:30Z</time>
      </trkpt>
      <trkpt lat="45.94249" lon="4.82096">
        <ele>263</ele>
        <time>2017-06-16T08:35:31Z</time>
      </trkpt>
      <trkpt lat="45.9425" lon="4.82102">
        <ele>263</ele>
        <time>2017-06-16T08:35:32Z</time>
      </trkpt>
      <trkpt lat="45.94251" lon="4.82109">
        <ele>263</ele>
        <time>2017-06-16T08:35:33Z</time>
      </trkpt>
      <trkpt lat="45.94252" lon="4.82117">
        <ele>263</ele>
        <time>2017-06-16T08:35:34Z</time>
      </trkpt>
      <trkpt lat="45.94254" lon="4.82125">
        <ele>263</ele>
        <time>2017-06-16T08:35:35Z</time>
      </trkpt>
      <trkpt lat="45.94255" lon="4.82131">
        <ele>263</ele>
        <time>2017-06-16T08:35:36Z</time>
      </trkpt>
      <trkpt lat="45.94257" lon="4.82138">
        <ele>263</ele>
        <time>2017-06-16T08:35:37Z</time>
      </trkpt>
      <trkpt lat="45.94258" lon="4.82144">
        <ele>263</ele>
        <time>2017-06-16T08:35:38Z</time>
      </trkpt>
      <trkpt lat="45.94259" lon="4.82151">
        <ele>263</ele>
        <time>2017-06-16T08:35:39Z</time>
      </trkpt>
      <trkpt lat="45.94261" lon="4.82157">
        <ele>263</ele>
        <time>2017-06-16T08:35:40Z</time>
      </trkpt>
      <trkpt lat="45.94263" lon="4.82168">
        <ele>263</ele>
        <time>2017-06-16T08:35:42Z</time>
      </trkpt>
      <trkpt lat="45.94265" lon="4.82173">
        <ele>263</ele>
        <time>2017-06-16T08:35:43Z</time>
      </trkpt>
      <trkpt lat="45.94266" lon="4.82184">
        <ele>264</ele>
        <time>2017-06-16T08:35:45Z</time>
      </trkpt>
      <trkpt lat="45.94267" lon="4.82189">
        <ele>264</ele>
        <time>2017-06-16T08:35:46Z</time>
      </trkpt>
      <trkpt lat="45.9427" lon="4.82199">
        <ele>264</ele>
        <time>2017-06-16T08:35:48Z</time>
      </trkpt>
      <trkpt lat="45.9427" lon="4.82205">
        <ele>264</ele>
        <time>2017-06-16T08:35:49Z</time>
      </trkpt>
      <trkpt lat="45.94271" lon="4.82217">
        <ele>264</ele>
        <time>2017-06-16T08:35:51Z</time>
      </trkpt>
      <trkpt lat="45.94272" lon="4.82223">
        <ele>264</ele>
        <time>2017-06-16T08:35:52Z</time>
      </trkpt>
      <trkpt lat="45.94273" lon="4.82234">
        <ele>264</ele>
        <time>2017-06-16T08:35:54Z</time>
      </trkpt>
      <trkpt lat="45.94273" lon="4.82239">
        <ele>264</ele>
        <time>2017-06-16T08:35:55Z</time>
      </trkpt>
      <trkpt lat="45.94273" lon="4.82251">
        <ele>265</ele>
        <time>2017-06-16T08:35:57Z</time>
      </trkpt>
      <trkpt lat="45.94274" lon="4.82259">
        <ele>265</ele>
        <time>2017-06-16T08:35:58Z</time>
      </trkpt>
      <trkpt lat="45.94275" lon="4.82266">
        <ele>265</ele>
        <time>2017-06-16T08:35:59Z</time>
      </trkpt>
      <trkpt lat="45.94275" lon="4.82273">
        <ele>265</ele>
        <time>2017-06-16T08:36:00Z</time>
      </trkpt>
      <trkpt lat="45.94275" lon="4.8228">
        <ele>265</ele>
        <time>2017-06-16T08:36:01Z</time>
      </trkpt>
      <trkpt lat="45.94276" lon="4.82287">
        <ele>265</ele>
        <time>2017-06-16T08:36:02Z</time>
      </trkpt>
      <trkpt lat="45.94277" lon="4.82294">
        <ele>265</ele>
        <time>2017-06-16T08:36:03Z</time>
      </trkpt>
      <trkpt lat="45.94277" lon="4.82301">
        <ele>265</ele>
        <time>2017-06-16T08:36:04Z</time>
      </trkpt>
      <trkpt lat="45.94277" lon="4.82313">
        <ele>265</ele>
        <time>2017-06-16T08:36:06Z</time>
      </trkpt>
      <trkpt lat="45.94278" lon="4.82319">
        <ele>265</ele>
        <time>2017-06-16T08:36:07Z</time>
      </trkpt>
      <trkpt lat="45.94279" lon="4.8233">
        <ele>265</ele>
        <time>2017-06-16T08:36:09Z</time>
      </trkpt>
      <trkpt lat="45.94279" lon="4.82336">
        <ele>264</ele>
        <time>2017-06-16T08:36:10Z</time>
      </trkpt>
      <trkpt lat="45.94279" lon="4.82348">
        <ele>264</ele>
        <time>2017-06-16T08:36:12Z</time>
      </trkpt>
      <trkpt lat="45.9428" lon="4.82354">
        <ele>264</ele>
        <time>2017-06-16T08:36:13Z</time>
      </trkpt>
      <trkpt lat="45.9428" lon="4.82367">
        <ele>264</ele>
        <time>2017-06-16T08:36:15Z</time>
      </trkpt>
      <trkpt lat="45.94281" lon="4.82373">
        <ele>264</ele>
        <time>2017-06-16T08:36:16Z</time>
      </trkpt>
      <trkpt lat="45.94282" lon="4.82379">
        <ele>264</ele>
        <time>2017-06-16T08:36:17Z</time>
      </trkpt>
      <trkpt lat="45.94282" lon="4.82385">
        <ele>264</ele>
        <time>2017-06-16T08:36:18Z</time>
      </trkpt>
      <trkpt lat="45.94283" lon="4.82392">
        <ele>264</ele>
        <time>2017-06-16T08:36:19Z</time>
      </trkpt>
      <trkpt lat="45.94283" lon="4.82399">
        <ele>264</ele>
        <time>2017-06-16T08:36:20Z</time>
      </trkpt>
      <trkpt lat="45.94284" lon="4.82405">
        <ele>264</ele>
        <time>2017-06-16T08:36:21Z</time>
      </trkpt>
      <trkpt lat="45.94284" lon="4.82412">
        <ele>264</ele>
        <time>2017-06-16T08:36:22Z</time>
      </trkpt>
      <trkpt lat="45.94285" lon="4.82423">
        <ele>264</ele>
        <time>2017-06-16T08:36:24Z</time>
      </trkpt>
      <trkpt lat="45.94285" lon="4.82428">
        <ele>264</ele>
        <time>2017-06-16T08:36:25Z</time>
      </trkpt>
      <trkpt lat="45.94286" lon="4.82439">
        <ele>264</ele>
        <time>2017-06-16T08:36:27Z</time>
      </trkpt>
      <trkpt lat="45.94286" lon="4.82445">
        <ele>264</ele>
        <time>2017-06-16T08:36:28Z</time>
      </trkpt>
      <trkpt lat="45.94287" lon="4.82456">
        <ele>264</ele>
        <time>2017-06-16T08:36:30Z</time>
      </trkpt>
      <trkpt lat="45.94287" lon="4.82462">
        <ele>264</ele>
        <time>2017-06-16T08:36:31Z</time>
      </trkpt>
      <trkpt lat="45.94288" lon="4.82469">
        <ele>264</ele>
        <time>2017-06-16T08:36:32Z</time>
      </trkpt>
      <trkpt lat="45.94288" lon="4.82476">
        <ele>264</ele>
        <time>2017-06-16T08:36:33Z</time>
      </trkpt>
      <trkpt lat="45.94288" lon="4.82483">
        <ele>264</ele>
        <time>2017-06-16T08:36:34Z</time>
      </trkpt>
      <trkpt lat="45.94289" lon="4.82489">
        <ele>264</ele>
        <time>2017-06-16T08:36:35Z</time>
      </trkpt>
      <trkpt lat="45.94289" lon="4.82496">
        <ele>264</ele>
        <time>2017-06-16T08:36:36Z</time>
      </trkpt>
      <trkpt lat="45.94289" lon="4.82503">
        <ele>264</ele>
        <time>2017-06-16T08:36:37Z</time>
      </trkpt>
      <trkpt lat="45.94289" lon="4.82515">
        <ele>264</ele>
        <time>2017-06-16T08:36:39Z</time>
      </trkpt>
      <trkpt lat="45.94289" lon="4.82522">
        <ele>264</ele>
        <time>2017-06-16T08:36:40Z</time>
      </trkpt>
      <trkpt lat="45.94289" lon="4.82534">
        <ele>264</ele>
        <time>2017-06-16T08:36:42Z</time>
      </trkpt>
      <trkpt lat="45.94289" lon="4.82541">
        <ele>264</ele>
        <time>2017-06-16T08:36:43Z</time>
      </trkpt>
      <trkpt lat="45.94289" lon="4.82547">
        <ele>264</ele>
        <time>2017-06-16T08:36:44Z</time>
      </trkpt>
      <trkpt lat="45.94289" lon="4.82554">
        <ele>264</ele>
        <time>2017-06-16T08:36:45Z</time>
      </trkpt>
      <trkpt lat="45.94289" lon="4.82562">
        <ele>264</ele>
        <time>2017-06-16T08:36:46Z</time>
      </trkpt>
      <trkpt lat="45.94289" lon="4.82569">
        <ele>265</ele>
        <time>2017-06-16T08:36:47Z</time>
      </trkpt>
      <trkpt lat="45.94289" lon="4.82576">
        <ele>265</ele>
        <time>2017-06-16T08:36:48Z</time>
      </trkpt>
      <trkpt lat="45.94289" lon="4.82583">
        <ele>265</ele>
        <time>2017-06-16T08:36:49Z</time>
      </trkpt>
      <trkpt lat="45.94289" lon="4.82591">
        <ele>265</ele>
        <time>2017-06-16T08:36:50Z</time>
      </trkpt>
      <trkpt lat="45.94289" lon="4.82598">
        <ele>265</ele>
        <time>2017-06-16T08:36:51Z</time>
      </trkpt>
      <trkpt lat="45.94289" lon="4.82604">
        <ele>265</ele>
        <time>2017-06-16T08:36:52Z</time>
      </trkpt>
      <trkpt lat="45.94289" lon="4.82611">
        <ele>265</ele>
        <time>2017-06-16T08:36:53Z</time>
      </trkpt>
      <trkpt lat="45.94289" lon="4.82618">
        <ele>265</ele>
        <time>2017-06-16T08:36:54Z</time>
      </trkpt>
      <trkpt lat="45.94289" lon="4.82624">
        <ele>265</ele>
        <time>2017-06-16T08:36:55Z</time>
      </trkpt>
      <trkpt lat="45.94289" lon="4.82631">
        <ele>265</ele>
        <time>2017-06-16T08:36:56Z</time>
      </trkpt>
      <trkpt lat="45.94289" lon="4.82637">
        <ele>265</ele>
        <time>2017-06-16T08:36:57Z</time>
      </trkpt>
      <trkpt lat="45.94288" lon="4.82644">
        <ele>265</ele>
        <time>2017-06-16T08:36:58Z</time>
      </trkpt>
      <trkpt lat="45.94288" lon="4.8265">
        <ele>265</ele>
        <time>2017-06-16T08:36:59Z</time>
      </trkpt>
      <trkpt lat="45.94288" lon="4.82657">
        <ele>265</ele>
        <time>2017-06-16T08:37:00Z</time>
      </trkpt>
      <trkpt lat="45.94288" lon="4.82664">
        <ele>265</ele>
        <time>2017-06-16T08:37:01Z</time>
      </trkpt>
      <trkpt lat="45.94288" lon="4.82671">
        <ele>265</ele>
        <time>2017-06-16T08:37:02Z</time>
      </trkpt>
      <trkpt lat="45.94288" lon="4.82678">
        <ele>265</ele>
        <time>2017-06-16T08:37:03Z</time>
      </trkpt>
      <trkpt lat="45.94288" lon="4.82684">
        <ele>265</ele>
        <time>2017-06-16T08:37:04Z</time>
      </trkpt>
      <trkpt lat="45.94288" lon="4.82691">
        <ele>265</ele>
        <time>2017-06-16T08:37:05Z</time>
      </trkpt>
      <trkpt lat="45.94288" lon="4.82698">
        <ele>265</ele>
        <time>2017-06-16T08:37:06Z</time>
      </trkpt>
      <trkpt lat="45.94288" lon="4.82705">
        <ele>265</ele>
        <time>2017-06-16T08:37:07Z</time>
      </trkpt>
      <trkpt lat="45.94288" lon="4.82712">
        <ele>265</ele>
        <time>2017-06-16T08:37:08Z</time>
      </trkpt>
      <trkpt lat="45.94288" lon="4.82719">
        <ele>265</ele>
        <time>2017-06-16T08:37:09Z</time>
      </trkpt>
      <trkpt lat="45.94288" lon="4.82726">
        <ele>265</ele>
        <time>2017-06-16T08:37:10Z</time>
      </trkpt>
      <trkpt lat="45.94288" lon="4.82733">
        <ele>265</ele>
        <time>2017-06-16T08:37:11Z</time>
      </trkpt>
      <trkpt lat="45.94287" lon="4.82745">
        <ele>265</ele>
        <time>2017-06-16T08:37:13Z</time>
      </trkpt>
      <trkpt lat="45.94287" lon="4.8275">
        <ele>265</ele>
        <time>2017-06-16T08:37:14Z</time>
      </trkpt>
      <trkpt lat="45.94288" lon="4.82763">
        <ele>265</ele>
        <time>2017-06-16T08:37:16Z</time>
      </trkpt>
      <trkpt lat="45.94288" lon="4.8277">
        <ele>265</ele>
        <time>2017-06-16T08:37:17Z</time>
      </trkpt>
      <trkpt lat="45.94288" lon="4.82777">
        <ele>265</ele>
        <time>2017-06-16T08:37:18Z</time>
      </trkpt>
      <trkpt lat="45.94288" lon="4.82785">
        <ele>265</ele>
        <time>2017-06-16T08:37:19Z</time>
      </trkpt>
      <trkpt lat="45.94288" lon="4.82792">
        <ele>265</ele>
        <time>2017-06-16T08:37:20Z</time>
      </trkpt>
      <trkpt lat="45.94287" lon="4.82798">
        <ele>265</ele>
        <time>2017-06-16T08:37:21Z</time>
      </trkpt>
      <trkpt lat="45.94287" lon="4.82811">
        <ele>265</ele>
        <time>2017-06-16T08:37:23Z</time>
      </trkpt>
      <trkpt lat="45.94287" lon="4.82817">
        <ele>265</ele>
        <time>2017-06-16T08:37:24Z</time>
      </trkpt>
      <trkpt lat="45.94287" lon="4.82829">
        <ele>265</ele>
        <time>2017-06-16T08:37:26Z</time>
      </trkpt>
      <trkpt lat="45.94287" lon="4.82835">
        <ele>265</ele>
        <time>2017-06-16T08:37:27Z</time>
      </trkpt>
      <trkpt lat="45.94286" lon="4.82848">
        <ele>265</ele>
        <time>2017-06-16T08:37:29Z</time>
      </trkpt>
      <trkpt lat="45.94286" lon="4.82854">
        <ele>265</ele>
        <time>2017-06-16T08:37:30Z</time>
      </trkpt>
      <trkpt lat="45.94286" lon="4.82861">
        <ele>265</ele>
        <time>2017-06-16T08:37:31Z</time>
      </trkpt>
      <trkpt lat="45.94286" lon="4.82868">
        <ele>265</ele>
        <time>2017-06-16T08:37:32Z</time>
      </trkpt>
      <trkpt lat="45.94285" lon="4.82874">
        <ele>265</ele>
        <time>2017-06-16T08:37:33Z</time>
      </trkpt>
      <trkpt lat="45.94285" lon="4.82881">
        <ele>265</ele>
        <time>2017-06-16T08:37:34Z</time>
      </trkpt>
      <trkpt lat="45.94285" lon="4.82887">
        <ele>265</ele>
        <time>2017-06-16T08:37:35Z</time>
      </trkpt>
      <trkpt lat="45.94285" lon="4.82894">
        <ele>265</ele>
        <time>2017-06-16T08:37:36Z</time>
      </trkpt>
      <trkpt lat="45.94285" lon="4.82901">
        <ele>265</ele>
        <time>2017-06-16T08:37:37Z</time>
      </trkpt>
      <trkpt lat="45.94285" lon="4.82907">
        <ele>265</ele>
        <time>2017-06-16T08:37:38Z</time>
      </trkpt>
      <trkpt lat="45.94284" lon="4.82913">
        <ele>265</ele>
        <time>2017-06-16T08:37:39Z</time>
      </trkpt>
      <trkpt lat="45.94283" lon="4.8292">
        <ele>265</ele>
        <time>2017-06-16T08:37:40Z</time>
      </trkpt>
      <trkpt lat="45.94282" lon="4.82927">
        <ele>265</ele>
        <time>2017-06-16T08:37:41Z</time>
      </trkpt>
      <trkpt lat="45.94281" lon="4.82934">
        <ele>265</ele>
        <time>2017-06-16T08:37:42Z</time>
      </trkpt>
      <trkpt lat="45.9428" lon="4.82946">
        <ele>265</ele>
        <time>2017-06-16T08:37:44Z</time>
      </trkpt>
      <trkpt lat="45.9428" lon="4.82952">
        <ele>265</ele>
        <time>2017-06-16T08:37:45Z</time>
      </trkpt>
      <trkpt lat="45.9428" lon="4.82962">
        <ele>265</ele>
        <time>2017-06-16T08:37:47Z</time>
      </trkpt>
      <trkpt lat="45.94281" lon="4.82967">
        <ele>265</ele>
        <time>2017-06-16T08:37:48Z</time>
      </trkpt>
      <trkpt lat="45.94283" lon="4.82977">
        <ele>265</ele>
        <time>2017-06-16T08:37:50Z</time>
      </trkpt>
      <trkpt lat="45.94284" lon="4.82982">
        <ele>265</ele>
        <time>2017-06-16T08:37:51Z</time>
      </trkpt>
      <trkpt lat="45.94286" lon="4.82992">
        <ele>265</ele>
        <time>2017-06-16T08:37:53Z</time>
      </trkpt>
      <trkpt lat="45.94288" lon="4.82997">
        <ele>265</ele>
        <time>2017-06-16T08:37:54Z</time>
      </trkpt>
      <trkpt lat="45.9429" lon="4.83007">
        <ele>266</ele>
        <time>2017-06-16T08:37:56Z</time>
      </trkpt>
      <trkpt lat="45.94291" lon="4.83013">
        <ele>266</ele>
        <time>2017-06-16T08:37:57Z</time>
      </trkpt>
      <trkpt lat="45.94294" lon="4.83025">
        <ele>266</ele>
        <time>2017-06-16T08:37:59Z</time>
      </trkpt>
      <trkpt lat="45.94295" lon="4.83031">
        <ele>266</ele>
        <time>2017-06-16T08:38:00Z</time>
      </trkpt>
      <trkpt lat="45.94297" lon="4.83042">
        <ele>266</ele>
        <time>2017-06-16T08:38:02Z</time>
      </trkpt>
      <trkpt lat="45.94298" lon="4.83048">
        <ele>266</ele>
        <time>2017-06-16T08:38:03Z</time>
      </trkpt>
      <trkpt lat="45.94301" lon="4.83059">
        <ele>266</ele>
        <time>2017-06-16T08:38:05Z</time>
      </trkpt>
      <trkpt lat="45.94302" lon="4.83065">
        <ele>266</ele>
        <time>2017-06-16T08:38:06Z</time>
      </trkpt>
      <trkpt lat="45.94305" lon="4.83077">
        <ele>266</ele>
        <time>2017-06-16T08:38:08Z</time>
      </trkpt>
      <trkpt lat="45.94307" lon="4.83083">
        <ele>266</ele>
        <time>2017-06-16T08:38:09Z</time>
      </trkpt>
      <trkpt lat="45.9431" lon="4.83093">
        <ele>266</ele>
        <time>2017-06-16T08:38:11Z</time>
      </trkpt>
      <trkpt lat="45.94312" lon="4.83099">
        <ele>266</ele>
        <time>2017-06-16T08:38:12Z</time>
      </trkpt>
      <trkpt lat="45.94315" lon="4.83109">
        <ele>266</ele>
        <time>2017-06-16T08:38:14Z</time>
      </trkpt>
      <trkpt lat="45.94317" lon="4.83115">
        <ele>266</ele>
        <time>2017-06-16T08:38:15Z</time>
      </trkpt>
      <trkpt lat="45.94319" lon="4.83121">
        <ele>266</ele>
        <time>2017-06-16T08:38:16Z</time>
      </trkpt>
      <trkpt lat="45.94321" lon="4.83127">
        <ele>266</ele>
        <time>2017-06-16T08:38:17Z</time>
      </trkpt>
      <trkpt lat="45.94323" lon="4.83133">
        <ele>266</ele>
        <time>2017-06-16T08:38:18Z</time>
      </trkpt>
      <trkpt lat="45.94325" lon="4.83139">
        <ele>266</ele>
        <time>2017-06-16T08:38:19Z</time>
      </trkpt>
      <trkpt lat="45.94329" lon="4.8315">
        <ele>266</ele>
        <time>2017-06-16T08:38:21Z</time>
      </trkpt>
      <trkpt lat="45.94331" lon="4.83156">
        <ele>266</ele>
        <time>2017-06-16T08:38:22Z</time>
      </trkpt>
      <trkpt lat="45.94334" lon="4.83166">
        <ele>266</ele>
        <time>2017-06-16T08:38:24Z</time>
      </trkpt>
      <trkpt lat="45.94336" lon="4.83171">
        <ele>266</ele>
        <time>2017-06-16T08:38:25Z</time>
      </trkpt>
      <trkpt lat="45.94339" lon="4.83181">
        <ele>266</ele>
        <time>2017-06-16T08:38:27Z</time>
      </trkpt>
      <trkpt lat="45.94341" lon="4.83186">
        <ele>266</ele>
        <time>2017-06-16T08:38:28Z</time>
      </trkpt>
      <trkpt lat="45.94345" lon="4.83195">
        <ele>266</ele>
        <time>2017-06-16T08:38:30Z</time>
      </trkpt>
      <trkpt lat="45.94347" lon="4.83199">
        <ele>266</ele>
        <time>2017-06-16T08:38:31Z</time>
      </trkpt>
      <trkpt lat="45.9435" lon="4.8321">
        <ele>266</ele>
        <time>2017-06-16T08:38:33Z</time>
      </trkpt>
      <trkpt lat="45.94352" lon="4.83216">
        <ele>266</ele>
        <time>2017-06-16T08:38:34Z</time>
      </trkpt>
      <trkpt lat="45.94356" lon="4.83227">
        <ele>266</ele>
        <time>2017-06-16T08:38:36Z</time>
      </trkpt>
      <trkpt lat="45.94358" lon="4.83233">
        <ele>265</ele>
        <time>2017-06-16T08:38:37Z</time>
      </trkpt>
      <trkpt lat="45.9436" lon="4.83239">
        <ele>265</ele>
        <time>2017-06-16T08:38:38Z</time>
      </trkpt>
      <trkpt lat="45.94362" lon="4.83245">
        <ele>265</ele>
        <time>2017-06-16T08:38:39Z</time>
      </trkpt>
      <trkpt lat="45.94365" lon="4.83252">
        <ele>265</ele>
        <time>2017-06-16T08:38:40Z</time>
      </trkpt>
      <trkpt lat="45.94367" lon="4.83258">
        <ele>265</ele>
        <time>2017-06-16T08:38:41Z</time>
      </trkpt>
      <trkpt lat="45.94369" lon="4.83264">
        <ele>264</ele>
        <time>2017-06-16T08:38:42Z</time>
      </trkpt>
      <trkpt lat="45.94371" lon="4.8327">
        <ele>264</ele>
        <time>2017-06-16T08:38:43Z</time>
      </trkpt>
      <trkpt lat="45.94374" lon="4.83277">
        <ele>264</ele>
        <time>2017-06-16T08:38:44Z</time>
      </trkpt>
      <trkpt lat="45.94376" lon="4.83283">
        <ele>264</ele>
        <time>2017-06-16T08:38:45Z</time>
      </trkpt>
      <trkpt lat="45.94378" lon="4.8329">
        <ele>264</ele>
        <time>2017-06-16T08:38:46Z</time>
      </trkpt>
      <trkpt lat="45.9438" lon="4.83296">
        <ele>264</ele>
        <time>2017-06-16T08:38:47Z</time>
      </trkpt>
      <trkpt lat="45.94382" lon="4.83301">
        <ele>264</ele>
        <time>2017-06-16T08:38:48Z</time>
      </trkpt>
      <trkpt lat="45.94384" lon="4.83307">
        <ele>264</ele>
        <time>2017-06-16T08:38:49Z</time>
      </trkpt>
      <trkpt lat="45.94386" lon="4.83313">
        <ele>264</ele>
        <time>2017-06-16T08:38:50Z</time>
      </trkpt>
      <trkpt lat="45.94388" lon="4.83319">
        <ele>264</ele>
        <time>2017-06-16T08:38:51Z</time>
      </trkpt>
      <trkpt lat="45.9439" lon="4.83325">
        <ele>264</ele>
        <time>2017-06-16T08:38:52Z</time>
      </trkpt>
      <trkpt lat="45.94392" lon="4.83331">
        <ele>264</ele>
        <time>2017-06-16T08:38:53Z</time>
      </trkpt>
      <trkpt lat="45.94397" lon="4.83341">
        <ele>263</ele>
        <time>2017-06-16T08:38:55Z</time>
      </trkpt>
      <trkpt lat="45.94399" lon="4.83347">
        <ele>263</ele>
        <time>2017-06-16T08:38:56Z</time>
      </trkpt>
      <trkpt lat="45.94401" lon="4.83353">
        <ele>263</ele>
        <time>2017-06-16T08:38:57Z</time>
      </trkpt>
      <trkpt lat="45.94403" lon="4.83359">
        <ele>264</ele>
        <time>2017-06-16T08:38:58Z</time>
      </trkpt>
      <trkpt lat="45.94406" lon="4.83365">
        <ele>264</ele>
        <time>2017-06-16T08:38:59Z</time>
      </trkpt>
      <trkpt lat="45.94409" lon="4.83371">
        <ele>264</ele>
        <time>2017-06-16T08:39:00Z</time>
      </trkpt>
      <trkpt lat="45.94412" lon="4.83377">
        <ele>264</ele>
        <time>2017-06-16T08:39:01Z</time>
      </trkpt>
      <trkpt lat="45.94414" lon="4.83384">
        <ele>264</ele>
        <time>2017-06-16T08:39:02Z</time>
      </trkpt>
      <trkpt lat="45.94417" lon="4.8339">
        <ele>264</ele>
        <time>2017-06-16T08:39:03Z</time>
      </trkpt>
      <trkpt lat="45.9442" lon="4.83396">
        <ele>264</ele>
        <time>2017-06-16T08:39:04Z</time>
      </trkpt>
      <trkpt lat="45.94423" lon="4.83402">
        <ele>264</ele>
        <time>2017-06-16T08:39:05Z</time>
      </trkpt>
      <trkpt lat="45.94426" lon="4.83408">
        <ele>264</ele>
        <time>2017-06-16T08:39:06Z</time>
      </trkpt>
      <trkpt lat="45.94429" lon="4.83413">
        <ele>264</ele>
        <time>2017-06-16T08:39:07Z</time>
      </trkpt>
      <trkpt lat="45.94432" lon="4.83418">
        <ele>264</ele>
        <time>2017-06-16T08:39:08Z</time>
      </trkpt>
      <trkpt lat="45.94435" lon="4.83423">
        <ele>264</ele>
        <time>2017-06-16T08:39:09Z</time>
      </trkpt>
      <trkpt lat="45.94437" lon="4.83428">
        <ele>264</ele>
        <time>2017-06-16T08:39:10Z</time>
      </trkpt>
      <trkpt lat="45.94442" lon="4.83438">
        <ele>263</ele>
        <time>2017-06-16T08:39:12Z</time>
      </trkpt>
      <trkpt lat="45.94445" lon="4.83444">
        <ele>263</ele>
        <time>2017-06-16T08:39:13Z</time>
      </trkpt>
      <trkpt lat="45.94448" lon="4.8345">
        <ele>263</ele>
        <time>2017-06-16T08:39:14Z</time>
      </trkpt>
      <trkpt lat="45.94451" lon="4.83456">
        <ele>263</ele>
        <time>2017-06-16T08:39:15Z</time>
      </trkpt>
      <trkpt lat="45.94455" lon="4.83462">
        <ele>263</ele>
        <time>2017-06-16T08:39:16Z</time>
      </trkpt>
      <trkpt lat="45.94459" lon="4.83469">
        <ele>263</ele>
        <time>2017-06-16T08:39:17Z</time>
      </trkpt>
      <trkpt lat="45.94462" lon="4.83475">
        <ele>263</ele>
        <time>2017-06-16T08:39:18Z</time>
      </trkpt>
      <trkpt lat="45.94466" lon="4.83481">
        <ele>263</ele>
        <time>2017-06-16T08:39:19Z</time>
      </trkpt>
      <trkpt lat="45.9447" lon="4.83487">
        <ele>263</ele>
        <time>2017-06-16T08:39:20Z</time>
      </trkpt>
      <trkpt lat="45.94473" lon="4.83493">
        <ele>263</ele>
        <time>2017-06-16T08:39:21Z</time>
      </trkpt>
      <trkpt lat="45.94477" lon="4.835">
        <ele>263</ele>
        <time>2017-06-16T08:39:22Z</time>
      </trkpt>
      <trkpt lat="45.9448" lon="4.83505">
        <ele>262</ele>
        <time>2017-06-16T08:39:23Z</time>
      </trkpt>
      <trkpt lat="45.94484" lon="4.83511">
        <ele>262</ele>
        <time>2017-06-16T08:39:24Z</time>
      </trkpt>
      <trkpt lat="45.94487" lon="4.83516">
        <ele>262</ele>
        <time>2017-06-16T08:39:25Z</time>
      </trkpt>
      <trkpt lat="45.9449" lon="4.83521">
        <ele>262</ele>
        <time>2017-06-16T08:39:26Z</time>
      </trkpt>
      <trkpt lat="45.94493" lon="4.83527">
        <ele>262</ele>
        <time>2017-06-16T08:39:27Z</time>
      </trkpt>
      <trkpt lat="45.94496" lon="4.83532">
        <ele>262</ele>
        <time>2017-06-16T08:39:28Z</time>
      </trkpt>
      <trkpt lat="45.94499" lon="4.83537">
        <ele>262</ele>
        <time>2017-06-16T08:39:29Z</time>
      </trkpt>
      <trkpt lat="45.94502" lon="4.83543">
        <ele>262</ele>
        <time>2017-06-16T08:39:30Z</time>
      </trkpt>
      <trkpt lat="45.94505" lon="4.83548">
        <ele>261</ele>
        <time>2017-06-16T08:39:31Z</time>
      </trkpt>
      <trkpt lat="45.94509" lon="4.83554">
        <ele>261</ele>
        <time>2017-06-16T08:39:32Z</time>
      </trkpt>
      <trkpt lat="45.94512" lon="4.8356">
        <ele>261</ele>
        <time>2017-06-16T08:39:33Z</time>
      </trkpt>
      <trkpt lat="45.94514" lon="4.83567">
        <ele>261</ele>
        <time>2017-06-16T08:39:34Z</time>
      </trkpt>
      <trkpt lat="45.94517" lon="4.83573">
        <ele>261</ele>
        <time>2017-06-16T08:39:35Z</time>
      </trkpt>
      <trkpt lat="45.94519" lon="4.8358">
        <ele>261</ele>
        <time>2017-06-16T08:39:36Z</time>
      </trkpt>
      <trkpt lat="45.94522" lon="4.83586">
        <ele>261</ele>
        <time>2017-06-16T08:39:37Z</time>
      </trkpt>
      <trkpt lat="45.94524" lon="4.83592">
        <ele>261</ele>
        <time>2017-06-16T08:39:38Z</time>
      </trkpt>
      <trkpt lat="45.94526" lon="4.83598">
        <ele>261</ele>
        <time>2017-06-16T08:39:39Z</time>
      </trkpt>
      <trkpt lat="45.94528" lon="4.83609">
        <ele>261</ele>
        <time>2017-06-16T08:39:41Z</time>
      </trkpt>
      <trkpt lat="45.94529" lon="4.83615">
        <ele>261</ele>
        <time>2017-06-16T08:39:42Z</time>
      </trkpt>
      <trkpt lat="45.94532" lon="4.83626">
        <ele>261</ele>
        <time>2017-06-16T08:39:44Z</time>
      </trkpt>
      <trkpt lat="45.94533" lon="4.83633">
        <ele>261</ele>
        <time>2017-06-16T08:39:45Z</time>
      </trkpt>
      <trkpt lat="45.94533" lon="4.83639">
        <ele>261</ele>
        <time>2017-06-16T08:39:46Z</time>
      </trkpt>
      <trkpt lat="45.94534" lon="4.83646">
        <ele>261</ele>
        <time>2017-06-16T08:39:47Z</time>
      </trkpt>
      <trkpt lat="45.94535" lon="4.83653">
        <ele>261</ele>
        <time>2017-06-16T08:39:48Z</time>
      </trkpt>
      <trkpt lat="45.94536" lon="4.8366">
        <ele>261</ele>
        <time>2017-06-16T08:39:49Z</time>
      </trkpt>
      <trkpt lat="45.94536" lon="4.83667">
        <ele>262</ele>
        <time>2017-06-16T08:39:50Z</time>
      </trkpt>
      <trkpt lat="45.94537" lon="4.83674">
        <ele>262</ele>
        <time>2017-06-16T08:39:51Z</time>
      </trkpt>
      <trkpt lat="45.94538" lon="4.83681">
        <ele>262</ele>
        <time>2017-06-16T08:39:52Z</time>
      </trkpt>
      <trkpt lat="45.94539" lon="4.83687">
        <ele>262</ele>
        <time>2017-06-16T08:39:53Z</time>
      </trkpt>
      <trkpt lat="45.9454" lon="4.83694">
        <ele>262</ele>
        <time>2017-06-16T08:39:54Z</time>
      </trkpt>
      <trkpt lat="45.94541" lon="4.837">
        <ele>262</ele>
        <time>2017-06-16T08:39:55Z</time>
      </trkpt>
      <trkpt lat="45.94542" lon="4.83706">
        <ele>262</ele>
        <time>2017-06-16T08:39:56Z</time>
      </trkpt>
      <trkpt lat="45.94543" lon="4.83713">
        <ele>262</ele>
        <time>2017-06-16T08:39:57Z</time>
      </trkpt>
      <trkpt lat="45.94544" lon="4.8372">
        <ele>262</ele>
        <time>2017-06-16T08:39:58Z</time>
      </trkpt>
      <trkpt lat="45.94545" lon="4.83726">
        <ele>262</ele>
        <time>2017-06-16T08:39:59Z</time>
      </trkpt>
      <trkpt lat="45.94547" lon="4.83738">
        <ele>262</ele>
        <time>2017-06-16T08:40:01Z</time>
      </trkpt>
      <trkpt lat="45.94548" lon="4.83744">
        <ele>262</ele>
        <time>2017-06-16T08:40:02Z</time>
      </trkpt>
      <trkpt lat="45.9455" lon="4.83756">
        <ele>263</ele>
        <time>2017-06-16T08:40:04Z</time>
      </trkpt>
      <trkpt lat="45.94551" lon="4.83762">
        <ele>263</ele>
        <time>2017-06-16T08:40:05Z</time>
      </trkpt>
      <trkpt lat="45.94552" lon="4.83769">
        <ele>264</ele>
        <time>2017-06-16T08:40:06Z</time>
      </trkpt>
      <trkpt lat="45.94553" lon="4.83775">
        <ele>264</ele>
        <time>2017-06-16T08:40:07Z</time>
      </trkpt>
      <trkpt lat="45.94554" lon="4.83782">
        <ele>264</ele>
        <time>2017-06-16T08:40:08Z</time>
      </trkpt>
      <trkpt lat="45.94555" lon="4.83789">
        <ele>264</ele>
        <time>2017-06-16T08:40:09Z</time>
      </trkpt>
      <trkpt lat="45.94556" lon="4.83796">
        <ele>264</ele>
        <time>2017-06-16T08:40:10Z</time>
      </trkpt>
      <trkpt lat="45.94557" lon="4.83803">
        <ele>264</ele>
        <time>2017-06-16T08:40:11Z</time>
      </trkpt>
      <trkpt lat="45.94558" lon="4.83809">
        <ele>264</ele>
        <time>2017-06-16T08:40:12Z</time>
      </trkpt>
      <trkpt lat="45.94559" lon="4.83816">
        <ele>264</ele>
        <time>2017-06-16T08:40:13Z</time>
      </trkpt>
      <trkpt lat="45.9456" lon="4.83822">
        <ele>264</ele>
        <time>2017-06-16T08:40:14Z</time>
      </trkpt>
      <trkpt lat="45.94561" lon="4.83828">
        <ele>265</ele>
        <time>2017-06-16T08:40:15Z</time>
      </trkpt>
      <trkpt lat="45.94562" lon="4.83835">
        <ele>266</ele>
        <time>2017-06-16T08:40:16Z</time>
      </trkpt>
      <trkpt lat="45.94563" lon="4.83843">
        <ele>266</ele>
        <time>2017-06-16T08:40:17Z</time>
      </trkpt>
      <trkpt lat="45.94564" lon="4.8385">
        <ele>266</ele>
        <time>2017-06-16T08:40:18Z</time>
      </trkpt>
      <trkpt lat="45.94565" lon="4.83857">
        <ele>267</ele>
        <time>2017-06-16T08:40:19Z</time>
      </trkpt>
      <trkpt lat="45.94566" lon="4.83864">
        <ele>267</ele>
        <time>2017-06-16T08:40:20Z</time>
      </trkpt>
      <trkpt lat="45.94567" lon="4.83871">
        <ele>267</ele>
        <time>2017-06-16T08:40:21Z</time>
      </trkpt>
      <trkpt lat="45.94568" lon="4.83878">
        <ele>267</ele>
        <time>2017-06-16T08:40:22Z</time>
      </trkpt>
      <trkpt lat="45.94569" lon="4.83885">
        <ele>267</ele>
        <time>2017-06-16T08:40:23Z</time>
      </trkpt>
      <trkpt lat="45.9457" lon="4.83892">
        <ele>267</ele>
        <time>2017-06-16T08:40:24Z</time>
      </trkpt>
      <trkpt lat="45.94571" lon="4.83899">
        <ele>268</ele>
        <time>2017-06-16T08:40:25Z</time>
      </trkpt>
      <trkpt lat="45.94573" lon="4.83907">
        <ele>268</ele>
        <time>2017-06-16T08:40:26Z</time>
      </trkpt>
      <trkpt lat="45.94574" lon="4.83914">
        <ele>268</ele>
        <time>2017-06-16T08:40:27Z</time>
      </trkpt>
      <trkpt lat="45.94575" lon="4.83921">
        <ele>268</ele>
        <time>2017-06-16T08:40:28Z</time>
      </trkpt>
      <trkpt lat="45.94576" lon="4.83928">
        <ele>268</ele>
        <time>2017-06-16T08:40:29Z</time>
      </trkpt>
      <trkpt lat="45.94577" lon="4.83936">
        <ele>269</ele>
        <time>2017-06-16T08:40:30Z</time>
      </trkpt>
      <trkpt lat="45.94578" lon="4.83943">
        <ele>269</ele>
        <time>2017-06-16T08:40:31Z</time>
      </trkpt>
      <trkpt lat="45.9458" lon="4.83949">
        <ele>269</ele>
        <time>2017-06-16T08:40:32Z</time>
      </trkpt>
      <trkpt lat="45.94581" lon="4.83957">
        <ele>269</ele>
        <time>2017-06-16T08:40:33Z</time>
      </trkpt>
      <trkpt lat="45.94582" lon="4.83964">
        <ele>269</ele>
        <time>2017-06-16T08:40:34Z</time>
      </trkpt>
      <trkpt lat="45.94583" lon="4.83971">
        <ele>269</ele>
        <time>2017-06-16T08:40:35Z</time>
      </trkpt>
      <trkpt lat="45.94584" lon="4.83977">
        <ele>268</ele>
        <time>2017-06-16T08:40:36Z</time>
      </trkpt>
      <trkpt lat="45.94585" lon="4.83984">
        <ele>269</ele>
        <time>2017-06-16T08:40:37Z</time>
      </trkpt>
      <trkpt lat="45.94587" lon="4.83995">
        <ele>269</ele>
        <time>2017-06-16T08:40:39Z</time>
      </trkpt>
      <trkpt lat="45.94588" lon="4.84">
        <ele>269</ele>
        <time>2017-06-16T08:40:40Z</time>
      </trkpt>
      <trkpt lat="45.9459" lon="4.84011">
        <ele>269</ele>
        <time>2017-06-16T08:40:42Z</time>
      </trkpt>
      <trkpt lat="45.9459" lon="4.84017">
        <ele>269</ele>
        <time>2017-06-16T08:40:43Z</time>
      </trkpt>
      <trkpt lat="45.94592" lon="4.84028">
        <ele>269</ele>
        <time>2017-06-16T08:40:45Z</time>
      </trkpt>
      <trkpt lat="45.94593" lon="4.84033">
        <ele>269</ele>
        <time>2017-06-16T08:40:46Z</time>
      </trkpt>
      <trkpt lat="45.94595" lon="4.84044">
        <ele>269</ele>
        <time>2017-06-16T08:40:48Z</time>
      </trkpt>
      <trkpt lat="45.94596" lon="4.8405">
        <ele>269</ele>
        <time>2017-06-16T08:40:49Z</time>
      </trkpt>
      <trkpt lat="45.94598" lon="4.8406">
        <ele>269</ele>
        <time>2017-06-16T08:40:51Z</time>
      </trkpt>
      <trkpt lat="45.94598" lon="4.84065">
        <ele>269</ele>
        <time>2017-06-16T08:40:52Z</time>
      </trkpt>
      <trkpt lat="45.946" lon="4.84075">
        <ele>269</ele>
        <time>2017-06-16T08:40:54Z</time>
      </trkpt>
      <trkpt lat="45.946" lon="4.8408">
        <ele>269</ele>
        <time>2017-06-16T08:40:55Z</time>
      </trkpt>
      <trkpt lat="45.94602" lon="4.8409">
        <ele>269</ele>
        <time>2017-06-16T08:40:57Z</time>
      </trkpt>
      <trkpt lat="45.94603" lon="4.84096">
        <ele>269</ele>
        <time>2017-06-16T08:40:58Z</time>
      </trkpt>
      <trkpt lat="45.94604" lon="4.84107">
        <ele>269</ele>
        <time>2017-06-16T08:41:00Z</time>
      </trkpt>
      <trkpt lat="45.94605" lon="4.84113">
        <ele>269</ele>
        <time>2017-06-16T08:41:01Z</time>
      </trkpt>
      <trkpt lat="45.94607" lon="4.84123">
        <ele>269</ele>
        <time>2017-06-16T08:41:03Z</time>
      </trkpt>
      <trkpt lat="45.94608" lon="4.84129">
        <ele>269</ele>
        <time>2017-06-16T08:41:04Z</time>
      </trkpt>
      <trkpt lat="45.9461" lon="4.84141">
        <ele>269</ele>
        <time>2017-06-16T08:41:06Z</time>
      </trkpt>
      <trkpt lat="45.9461" lon="4.84146">
        <ele>269</ele>
        <time>2017-06-16T08:41:07Z</time>
      </trkpt>
      <trkpt lat="45.94612" lon="4.84158">
        <ele>269</ele>
        <time>2017-06-16T08:41:09Z</time>
      </trkpt>
      <trkpt lat="45.94613" lon="4.84164">
        <ele>269</ele>
        <time>2017-06-16T08:41:10Z</time>
      </trkpt>
      <trkpt lat="45.94615" lon="4.84175">
        <ele>269</ele>
        <time>2017-06-16T08:41:12Z</time>
      </trkpt>
      <trkpt lat="45.94616" lon="4.84181">
        <ele>269</ele>
        <time>2017-06-16T08:41:13Z</time>
      </trkpt>
      <trkpt lat="45.94617" lon="4.84192">
        <ele>269</ele>
        <time>2017-06-16T08:41:15Z</time>
      </trkpt>
      <trkpt lat="45.94618" lon="4.84197">
        <ele>269</ele>
        <time>2017-06-16T08:41:16Z</time>
      </trkpt>
      <trkpt lat="45.94619" lon="4.84208">
        <ele>269</ele>
        <time>2017-06-16T08:41:18Z</time>
      </trkpt>
      <trkpt lat="45.9462" lon="4.84214">
        <ele>269</ele>
        <time>2017-06-16T08:41:19Z</time>
      </trkpt>
      <trkpt lat="45.94622" lon="4.84225">
        <ele>269</ele>
        <time>2017-06-16T08:41:21Z</time>
      </trkpt>
      <trkpt lat="45.94623" lon="4.84231">
        <ele>269</ele>
        <time>2017-06-16T08:41:22Z</time>
      </trkpt>
      <trkpt lat="45.94624" lon="4.84243">
        <ele>269</ele>
        <time>2017-06-16T08:41:24Z</time>
      </trkpt>
      <trkpt lat="45.94625" lon="4.84249">
        <ele>269</ele>
        <time>2017-06-16T08:41:25Z</time>
      </trkpt>
      <trkpt lat="45.94627" lon="4.84261">
        <ele>269</ele>
        <time>2017-06-16T08:41:27Z</time>
      </trkpt>
      <trkpt lat="45.94628" lon="4.84266">
        <ele>269</ele>
        <time>2017-06-16T08:41:28Z</time>
      </trkpt>
      <trkpt lat="45.94629" lon="4.84276">
        <ele>269</ele>
        <time>2017-06-16T08:41:30Z</time>
      </trkpt>
      <trkpt lat="45.9463" lon="4.84282">
        <ele>269</ele>
        <time>2017-06-16T08:41:31Z</time>
      </trkpt>
      <trkpt lat="45.94631" lon="4.84292">
        <ele>269</ele>
        <time>2017-06-16T08:41:33Z</time>
      </trkpt>
      <trkpt lat="45.94632" lon="4.84297">
        <ele>269</ele>
        <time>2017-06-16T08:41:34Z</time>
      </trkpt>
      <trkpt lat="45.94633" lon="4.84308">
        <ele>269</ele>
        <time>2017-06-16T08:41:36Z</time>
      </trkpt>
      <trkpt lat="45.94634" lon="4.84313">
        <ele>269</ele>
        <time>2017-06-16T08:41:37Z</time>
      </trkpt>
      <trkpt lat="45.94635" lon="4.84324">
        <ele>269</ele>
        <time>2017-06-16T08:41:39Z</time>
      </trkpt>
      <trkpt lat="45.94636" lon="4.84329">
        <ele>269</ele>
        <time>2017-06-16T08:41:40Z</time>
      </trkpt>
      <trkpt lat="45.94637" lon="4.8434">
        <ele>268</ele>
        <time>2017-06-16T08:41:42Z</time>
      </trkpt>
      <trkpt lat="45.94638" lon="4.84346">
        <ele>268</ele>
        <time>2017-06-16T08:41:43Z</time>
      </trkpt>
      <trkpt lat="45.9464" lon="4.84357">
        <ele>268</ele>
        <time>2017-06-16T08:41:45Z</time>
      </trkpt>
      <trkpt lat="45.94641" lon="4.84362">
        <ele>268</ele>
        <time>2017-06-16T08:41:46Z</time>
      </trkpt>
      <trkpt lat="45.94642" lon="4.84374">
        <ele>268</ele>
        <time>2017-06-16T08:41:48Z</time>
      </trkpt>
      <trkpt lat="45.94643" lon="4.84379">
        <ele>268</ele>
        <time>2017-06-16T08:41:49Z</time>
      </trkpt>
      <trkpt lat="45.94645" lon="4.84391">
        <ele>268</ele>
        <time>2017-06-16T08:41:51Z</time>
      </trkpt>
      <trkpt lat="45.94645" lon="4.84397">
        <ele>268</ele>
        <time>2017-06-16T08:41:52Z</time>
      </trkpt>
      <trkpt lat="45.94646" lon="4.84408">
        <ele>268</ele>
        <time>2017-06-16T08:41:54Z</time>
      </trkpt>
      <trkpt lat="45.94647" lon="4.84413">
        <ele>268</ele>
        <time>2017-06-16T08:41:55Z</time>
      </trkpt>
      <trkpt lat="45.94648" lon="4.84424">
        <ele>268</ele>
        <time>2017-06-16T08:41:57Z</time>
      </trkpt>
      <trkpt lat="45.94649" lon="4.8443">
        <ele>268</ele>
        <time>2017-06-16T08:41:58Z</time>
      </trkpt>
      <trkpt lat="45.9465" lon="4.84441">
        <ele>268</ele>
        <time>2017-06-16T08:42:00Z</time>
      </trkpt>
      <trkpt lat="45.94651" lon="4.84447">
        <ele>268</ele>
        <time>2017-06-16T08:42:01Z</time>
      </trkpt>
      <trkpt lat="45.94652" lon="4.84458">
        <ele>268</ele>
        <time>2017-06-16T08:42:03Z</time>
      </trkpt>
      <trkpt lat="45.94653" lon="4.84464">
        <ele>268</ele>
        <time>2017-06-16T08:42:04Z</time>
      </trkpt>
      <trkpt lat="45.94653" lon="4.84471">
        <ele>268</ele>
        <time>2017-06-16T08:42:05Z</time>
      </trkpt>
      <trkpt lat="45.94654" lon="4.84477">
        <ele>268</ele>
        <time>2017-06-16T08:42:06Z</time>
      </trkpt>
      <trkpt lat="45.94655" lon="4.84483">
        <ele>268</ele>
        <time>2017-06-16T08:42:07Z</time>
      </trkpt>
      <trkpt lat="45.94655" lon="4.8449">
        <ele>268</ele>
        <time>2017-06-16T08:42:08Z</time>
      </trkpt>
      <trkpt lat="45.94656" lon="4.84502">
        <ele>268</ele>
        <time>2017-06-16T08:42:10Z</time>
      </trkpt>
      <trkpt lat="45.94656" lon="4.84507">
        <ele>268</ele>
        <time>2017-06-16T08:42:11Z</time>
      </trkpt>
      <trkpt lat="45.94657" lon="4.84518">
        <ele>268</ele>
        <time>2017-06-16T08:42:13Z</time>
      </trkpt>
      <trkpt lat="45.94657" lon="4.84524">
        <ele>268</ele>
        <time>2017-06-16T08:42:14Z</time>
      </trkpt>
      <trkpt lat="45.94658" lon="4.84537">
        <ele>268</ele>
        <time>2017-06-16T08:42:16Z</time>
      </trkpt>
      <trkpt lat="45.94659" lon="4.84543">
        <ele>268</ele>
        <time>2017-06-16T08:42:17Z</time>
      </trkpt>
      <trkpt lat="45.9466" lon="4.8455">
        <ele>268</ele>
        <time>2017-06-16T08:42:18Z</time>
      </trkpt>
      <trkpt lat="45.9466" lon="4.84556">
        <ele>268</ele>
        <time>2017-06-16T08:42:19Z</time>
      </trkpt>
      <trkpt lat="45.94661" lon="4.84569">
        <ele>268</ele>
        <time>2017-06-16T08:42:21Z</time>
      </trkpt>
      <trkpt lat="45.94662" lon="4.84574">
        <ele>268</ele>
        <time>2017-06-16T08:42:22Z</time>
      </trkpt>
      <trkpt lat="45.94662" lon="4.84586">
        <ele>268</ele>
        <time>2017-06-16T08:42:24Z</time>
      </trkpt>
      <trkpt lat="45.94662" lon="4.84592">
        <ele>268</ele>
        <time>2017-06-16T08:42:25Z</time>
      </trkpt>
      <trkpt lat="45.94663" lon="4.84605">
        <ele>268</ele>
        <time>2017-06-16T08:42:27Z</time>
      </trkpt>
      <trkpt lat="45.94664" lon="4.84611">
        <ele>268</ele>
        <time>2017-06-16T08:42:28Z</time>
      </trkpt>
      <trkpt lat="45.94664" lon="4.84622">
        <ele>268</ele>
        <time>2017-06-16T08:42:30Z</time>
      </trkpt>
      <trkpt lat="45.94665" lon="4.84628">
        <ele>268</ele>
        <time>2017-06-16T08:42:31Z</time>
      </trkpt>
      <trkpt lat="45.94665" lon="4.8464">
        <ele>268</ele>
        <time>2017-06-16T08:42:33Z</time>
      </trkpt>
      <trkpt lat="45.94666" lon="4.84646">
        <ele>268</ele>
        <time>2017-06-16T08:42:34Z</time>
      </trkpt>
      <trkpt lat="45.94666" lon="4.84659">
        <ele>269</ele>
        <time>2017-06-16T08:42:36Z</time>
      </trkpt>
      <trkpt lat="45.94666" lon="4.84665">
        <ele>269</ele>
        <time>2017-06-16T08:42:37Z</time>
      </trkpt>
      <trkpt lat="45.94666" lon="4.84676">
        <ele>269</ele>
        <time>2017-06-16T08:42:39Z</time>
      </trkpt>
      <trkpt lat="45.94667" lon="4.84682">
        <ele>269</ele>
        <time>2017-06-16T08:42:40Z</time>
      </trkpt>
      <trkpt lat="45.94668" lon="4.84693">
        <ele>269</ele>
        <time>2017-06-16T08:42:42Z</time>
      </trkpt>
      <trkpt lat="45.94668" lon="4.84698">
        <ele>269</ele>
        <time>2017-06-16T08:42:43Z</time>
      </trkpt>
      <trkpt lat="45.9467" lon="4.8471">
        <ele>269</ele>
        <time>2017-06-16T08:42:45Z</time>
      </trkpt>
      <trkpt lat="45.9467" lon="4.84716">
        <ele>269</ele>
        <time>2017-06-16T08:42:46Z</time>
      </trkpt>
      <trkpt lat="45.9467" lon="4.84722">
        <ele>269</ele>
        <time>2017-06-16T08:42:47Z</time>
      </trkpt>
      <trkpt lat="45.9467" lon="4.84729">
        <ele>269</ele>
        <time>2017-06-16T08:42:48Z</time>
      </trkpt>
      <trkpt lat="45.9467" lon="4.84735">
        <ele>269</ele>
        <time>2017-06-16T08:42:49Z</time>
      </trkpt>
      <trkpt lat="45.9467" lon="4.84742">
        <ele>269</ele>
        <time>2017-06-16T08:42:50Z</time>
      </trkpt>
      <trkpt lat="45.94671" lon="4.84749">
        <ele>269</ele>
        <time>2017-06-16T08:42:51Z</time>
      </trkpt>
      <trkpt lat="45.94671" lon="4.84756">
        <ele>269</ele>
        <time>2017-06-16T08:42:52Z</time>
      </trkpt>
      <trkpt lat="45.94671" lon="4.84763">
        <ele>269</ele>
        <time>2017-06-16T08:42:53Z</time>
      </trkpt>
      <trkpt lat="45.94672" lon="4.8477">
        <ele>269</ele>
        <time>2017-06-16T08:42:54Z</time>
      </trkpt>
      <trkpt lat="45.94672" lon="4.84777">
        <ele>269</ele>
        <time>2017-06-16T08:42:55Z</time>
      </trkpt>
      <trkpt lat="45.94673" lon="4.84784">
        <ele>269</ele>
        <time>2017-06-16T08:42:56Z</time>
      </trkpt>
      <trkpt lat="45.94673" lon="4.8479">
        <ele>269</ele>
        <time>2017-06-16T08:42:57Z</time>
      </trkpt>
      <trkpt lat="45.94674" lon="4.84797">
        <ele>268</ele>
        <time>2017-06-16T08:42:58Z</time>
      </trkpt>
      <trkpt lat="45.94675" lon="4.84808">
        <ele>268</ele>
        <time>2017-06-16T08:43:00Z</time>
      </trkpt>
      <trkpt lat="45.94675" lon="4.84814">
        <ele>268</ele>
        <time>2017-06-16T08:43:01Z</time>
      </trkpt>
      <trkpt lat="45.94676" lon="4.84827">
        <ele>268</ele>
        <time>2017-06-16T08:43:03Z</time>
      </trkpt>
      <trkpt lat="45.94677" lon="4.84833">
        <ele>268</ele>
        <time>2017-06-16T08:43:04Z</time>
      </trkpt>
      <trkpt lat="45.94677" lon="4.8484">
        <ele>268</ele>
        <time>2017-06-16T08:43:05Z</time>
      </trkpt>
      <trkpt lat="45.94678" lon="4.84847">
        <ele>268</ele>
        <time>2017-06-16T08:43:06Z</time>
      </trkpt>
      <trkpt lat="45.94679" lon="4.84854">
        <ele>268</ele>
        <time>2017-06-16T08:43:07Z</time>
      </trkpt>
      <trkpt lat="45.9468" lon="4.84861">
        <ele>268</ele>
        <time>2017-06-16T08:43:08Z</time>
      </trkpt>
      <trkpt lat="45.9468" lon="4.84868">
        <ele>268</ele>
        <time>2017-06-16T08:43:09Z</time>
      </trkpt>
      <trkpt lat="45.94681" lon="4.84875">
        <ele>268</ele>
        <time>2017-06-16T08:43:10Z</time>
      </trkpt>
      <trkpt lat="45.94681" lon="4.84882">
        <ele>268</ele>
        <time>2017-06-16T08:43:11Z</time>
      </trkpt>
      <trkpt lat="45.94682" lon="4.84889">
        <ele>268</ele>
        <time>2017-06-16T08:43:12Z</time>
      </trkpt>
      <trkpt lat="45.94683" lon="4.84901">
        <ele>269</ele>
        <time>2017-06-16T08:43:14Z</time>
      </trkpt>
      <trkpt lat="45.94683" lon="4.84907">
        <ele>269</ele>
        <time>2017-06-16T08:43:15Z</time>
      </trkpt>
      <trkpt lat="45.94684" lon="4.84919">
        <ele>269</ele>
        <time>2017-06-16T08:43:17Z</time>
      </trkpt>
      <trkpt lat="45.94684" lon="4.84924">
        <ele>269</ele>
        <time>2017-06-16T08:43:18Z</time>
      </trkpt>
      <trkpt lat="45.94685" lon="4.84936">
        <ele>269</ele>
        <time>2017-06-16T08:43:20Z</time>
      </trkpt>
      <trkpt lat="45.94686" lon="4.84941">
        <ele>269</ele>
        <time>2017-06-16T08:43:21Z</time>
      </trkpt>
      <trkpt lat="45.94687" lon="4.84954">
        <ele>269</ele>
        <time>2017-06-16T08:43:23Z</time>
      </trkpt>
      <trkpt lat="45.94688" lon="4.8496">
        <ele>269</ele>
        <time>2017-06-16T08:43:24Z</time>
      </trkpt>
      <trkpt lat="45.94689" lon="4.84967">
        <ele>269</ele>
        <time>2017-06-16T08:43:25Z</time>
      </trkpt>
      <trkpt lat="45.94689" lon="4.84973">
        <ele>269</ele>
        <time>2017-06-16T08:43:26Z</time>
      </trkpt>
      <trkpt lat="45.94691" lon="4.84986">
        <ele>269</ele>
        <time>2017-06-16T08:43:28Z</time>
      </trkpt>
      <trkpt lat="45.94691" lon="4.84991">
        <ele>269</ele>
        <time>2017-06-16T08:43:29Z</time>
      </trkpt>
      <trkpt lat="45.94692" lon="4.85003">
        <ele>269</ele>
        <time>2017-06-16T08:43:31Z</time>
      </trkpt>
      <trkpt lat="45.94693" lon="4.85009">
        <ele>269</ele>
        <time>2017-06-16T08:43:32Z</time>
      </trkpt>
      <trkpt lat="45.94694" lon="4.85015">
        <ele>269</ele>
        <time>2017-06-16T08:43:33Z</time>
      </trkpt>
      <trkpt lat="45.94695" lon="4.85021">
        <ele>269</ele>
        <time>2017-06-16T08:43:34Z</time>
      </trkpt>
      <trkpt lat="45.94696" lon="4.85029">
        <ele>269</ele>
        <time>2017-06-16T08:43:35Z</time>
      </trkpt>
      <trkpt lat="45.94696" lon="4.85037">
        <ele>269</ele>
        <time>2017-06-16T08:43:36Z</time>
      </trkpt>
      <trkpt lat="45.94697" lon="4.85045">
        <ele>269</ele>
        <time>2017-06-16T08:43:37Z</time>
      </trkpt>
      <trkpt lat="45.94698" lon="4.85053">
        <ele>269</ele>
        <time>2017-06-16T08:43:38Z</time>
      </trkpt>
      <trkpt lat="45.94699" lon="4.8506">
        <ele>269</ele>
        <time>2017-06-16T08:43:39Z</time>
      </trkpt>
      <trkpt lat="45.94699" lon="4.85067">
        <ele>269</ele>
        <time>2017-06-16T08:43:40Z</time>
      </trkpt>
      <trkpt lat="45.947" lon="4.85074">
        <ele>269</ele>
        <time>2017-06-16T08:43:41Z</time>
      </trkpt>
      <trkpt lat="45.94701" lon="4.85081">
        <ele>269</ele>
        <time>2017-06-16T08:43:42Z</time>
      </trkpt>
      <trkpt lat="45.94704" lon="4.85093">
        <ele>269</ele>
        <time>2017-06-16T08:43:44Z</time>
      </trkpt>
      <trkpt lat="45.94704" lon="4.851">
        <ele>269</ele>
        <time>2017-06-16T08:43:45Z</time>
      </trkpt>
      <trkpt lat="45.94705" lon="4.85106">
        <ele>269</ele>
        <time>2017-06-16T08:43:46Z</time>
      </trkpt>
      <trkpt lat="45.94705" lon="4.85113">
        <ele>269</ele>
        <time>2017-06-16T08:43:47Z</time>
      </trkpt>
      <trkpt lat="45.94706" lon="4.8512">
        <ele>269</ele>
        <time>2017-06-16T08:43:48Z</time>
      </trkpt>
      <trkpt lat="45.94707" lon="4.85128">
        <ele>269</ele>
        <time>2017-06-16T08:43:49Z</time>
      </trkpt>
      <trkpt lat="45.94707" lon="4.85135">
        <ele>269</ele>
        <time>2017-06-16T08:43:50Z</time>
      </trkpt>
      <trkpt lat="45.94708" lon="4.85142">
        <ele>269</ele>
        <time>2017-06-16T08:43:51Z</time>
      </trkpt>
      <trkpt lat="45.94709" lon="4.8515">
        <ele>269</ele>
        <time>2017-06-16T08:43:52Z</time>
      </trkpt>
      <trkpt lat="45.9471" lon="4.85156">
        <ele>269</ele>
        <time>2017-06-16T08:43:53Z</time>
      </trkpt>
      <trkpt lat="45.9471" lon="4.85163">
        <ele>269</ele>
        <time>2017-06-16T08:43:54Z</time>
      </trkpt>
      <trkpt lat="45.94711" lon="4.85169">
        <ele>269</ele>
        <time>2017-06-16T08:43:55Z</time>
      </trkpt>
      <trkpt lat="45.94712" lon="4.85176">
        <ele>269</ele>
        <time>2017-06-16T08:43:56Z</time>
      </trkpt>
      <trkpt lat="45.94713" lon="4.85182">
        <ele>269</ele>
        <time>2017-06-16T08:43:57Z</time>
      </trkpt>
      <trkpt lat="45.94714" lon="4.85194">
        <ele>269</ele>
        <time>2017-06-16T08:43:59Z</time>
      </trkpt>
      <trkpt lat="45.94715" lon="4.85199">
        <ele>269</ele>
        <time>2017-06-16T08:44:00Z</time>
      </trkpt>
      <trkpt lat="45.94716" lon="4.8521">
        <ele>269</ele>
        <time>2017-06-16T08:44:02Z</time>
      </trkpt>
      <trkpt lat="45.94716" lon="4.85216">
        <ele>269</ele>
        <time>2017-06-16T08:44:03Z</time>
      </trkpt>
      <trkpt lat="45.94718" lon="4.85228">
        <ele>269</ele>
        <time>2017-06-16T08:44:05Z</time>
      </trkpt>
      <trkpt lat="45.94718" lon="4.85234">
        <ele>269</ele>
        <time>2017-06-16T08:44:06Z</time>
      </trkpt>
      <trkpt lat="45.94719" lon="4.85245">
        <ele>269</ele>
        <time>2017-06-16T08:44:08Z</time>
      </trkpt>
      <trkpt lat="45.9472" lon="4.85251">
        <ele>269</ele>
        <time>2017-06-16T08:44:09Z</time>
      </trkpt>
      <trkpt lat="45.94722" lon="4.85263">
        <ele>269</ele>
        <time>2017-06-16T08:44:11Z</time>
      </trkpt>
      <trkpt lat="45.94722" lon="4.8527">
        <ele>269</ele>
        <time>2017-06-16T08:44:12Z</time>
      </trkpt>
      <trkpt lat="45.94723" lon="4.85276">
        <ele>269</ele>
        <time>2017-06-16T08:44:13Z</time>
      </trkpt>
      <trkpt lat="45.94723" lon="4.85283">
        <ele>269</ele>
        <time>2017-06-16T08:44:14Z</time>
      </trkpt>
      <trkpt lat="45.94724" lon="4.85295">
        <ele>270</ele>
        <time>2017-06-16T08:44:16Z</time>
      </trkpt>
      <trkpt lat="45.94725" lon="4.85301">
        <ele>270</ele>
        <time>2017-06-16T08:44:17Z</time>
      </trkpt>
      <trkpt lat="45.94726" lon="4.85312">
        <ele>270</ele>
        <time>2017-06-16T08:44:19Z</time>
      </trkpt>
      <trkpt lat="45.94727" lon="4.85319">
        <ele>270</ele>
        <time>2017-06-16T08:44:20Z</time>
      </trkpt>
      <trkpt lat="45.94727" lon="4.85325">
        <ele>270</ele>
        <time>2017-06-16T08:44:21Z</time>
      </trkpt>
      <trkpt lat="45.94728" lon="4.85332">
        <ele>270</ele>
        <time>2017-06-16T08:44:22Z</time>
      </trkpt>
      <trkpt lat="45.94728" lon="4.85338">
        <ele>271</ele>
        <time>2017-06-16T08:44:23Z</time>
      </trkpt>
      <trkpt lat="45.94729" lon="4.85345">
        <ele>271</ele>
        <time>2017-06-16T08:44:24Z</time>
      </trkpt>
      <trkpt lat="45.9473" lon="4.85357">
        <ele>271</ele>
        <time>2017-06-16T08:44:26Z</time>
      </trkpt>
      <trkpt lat="45.94731" lon="4.85363">
        <ele>271</ele>
        <time>2017-06-16T08:44:27Z</time>
      </trkpt>
      <trkpt lat="45.94732" lon="4.85374">
        <ele>271</ele>
        <time>2017-06-16T08:44:29Z</time>
      </trkpt>
      <trkpt lat="45.94733" lon="4.8538">
        <ele>271</ele>
        <time>2017-06-16T08:44:30Z</time>
      </trkpt>
      <trkpt lat="45.94734" lon="4.85391">
        <ele>272</ele>
        <time>2017-06-16T08:44:32Z</time>
      </trkpt>
      <trkpt lat="45.94735" lon="4.85397">
        <ele>272</ele>
        <time>2017-06-16T08:44:33Z</time>
      </trkpt>
      <trkpt lat="45.94736" lon="4.8541">
        <ele>272</ele>
        <time>2017-06-16T08:44:35Z</time>
      </trkpt>
      <trkpt lat="45.94737" lon="4.85416">
        <ele>272</ele>
        <time>2017-06-16T08:44:36Z</time>
      </trkpt>
      <trkpt lat="45.94738" lon="4.85428">
        <ele>273</ele>
        <time>2017-06-16T08:44:38Z</time>
      </trkpt>
      <trkpt lat="45.94739" lon="4.85433">
        <ele>273</ele>
        <time>2017-06-16T08:44:39Z</time>
      </trkpt>
      <trkpt lat="45.9474" lon="4.85445">
        <ele>274</ele>
        <time>2017-06-16T08:44:41Z</time>
      </trkpt>
      <trkpt lat="45.94741" lon="4.85451">
        <ele>274</ele>
        <time>2017-06-16T08:44:42Z</time>
      </trkpt>
      <trkpt lat="45.94741" lon="4.85463">
        <ele>274</ele>
        <time>2017-06-16T08:44:44Z</time>
      </trkpt>
      <trkpt lat="45.94742" lon="4.85468">
        <ele>274</ele>
        <time>2017-06-16T08:44:45Z</time>
      </trkpt>
      <trkpt lat="45.94744" lon="4.85481">
        <ele>275</ele>
        <time>2017-06-16T08:44:47Z</time>
      </trkpt>
      <trkpt lat="45.94745" lon="4.85487">
        <ele>275</ele>
        <time>2017-06-16T08:44:48Z</time>
      </trkpt>
      <trkpt lat="45.94747" lon="4.85499">
        <ele>276</ele>
        <time>2017-06-16T08:44:50Z</time>
      </trkpt>
      <trkpt lat="45.94747" lon="4.85505">
        <ele>276</ele>
        <time>2017-06-16T08:44:51Z</time>
      </trkpt>
      <trkpt lat="45.94749" lon="4.85518">
        <ele>276</ele>
        <time>2017-06-16T08:44:53Z</time>
      </trkpt>
      <trkpt lat="45.9475" lon="4.85523">
        <ele>276</ele>
        <time>2017-06-16T08:44:54Z</time>
      </trkpt>
      <trkpt lat="45.94751" lon="4.85535">
        <ele>278</ele>
        <time>2017-06-16T08:44:56Z</time>
      </trkpt>
      <trkpt lat="45.94752" lon="4.8554">
        <ele>278</ele>
        <time>2017-06-16T08:44:57Z</time>
      </trkpt>
      <trkpt lat="45.94754" lon="4.85551">
        <ele>278</ele>
        <time>2017-06-16T08:44:59Z</time>
      </trkpt>
      <trkpt lat="45.94756" lon="4.85557">
        <ele>278</ele>
        <time>2017-06-16T08:45:00Z</time>
      </trkpt>
      <trkpt lat="45.94758" lon="4.85569">
        <ele>279</ele>
        <time>2017-06-16T08:45:02Z</time>
      </trkpt>
      <trkpt lat="45.94759" lon="4.85575">
        <ele>279</ele>
        <time>2017-06-16T08:45:03Z</time>
      </trkpt>
      <trkpt lat="45.94761" lon="4.85581">
        <ele>279</ele>
        <time>2017-06-16T08:45:04Z</time>
      </trkpt>
      <trkpt lat="45.94762" lon="4.85588">
        <ele>280</ele>
        <time>2017-06-16T08:45:05Z</time>
      </trkpt>
      <trkpt lat="45.94763" lon="4.85594">
        <ele>280</ele>
        <time>2017-06-16T08:45:06Z</time>
      </trkpt>
      <trkpt lat="45.94765" lon="4.856">
        <ele>280</ele>
        <time>2017-06-16T08:45:07Z</time>
      </trkpt>
      <trkpt lat="45.94766" lon="4.85606">
        <ele>280</ele>
        <time>2017-06-16T08:45:08Z</time>
      </trkpt>
      <trkpt lat="45.94767" lon="4.85613">
        <ele>280</ele>
        <time>2017-06-16T08:45:09Z</time>
      </trkpt>
      <trkpt lat="45.94769" lon="4.85619">
        <ele>280</ele>
        <time>2017-06-16T08:45:10Z</time>
      </trkpt>
      <trkpt lat="45.9477" lon="4.85625">
        <ele>280</ele>
        <time>2017-06-16T08:45:11Z</time>
      </trkpt>
      <trkpt lat="45.94773" lon="4.85637">
        <ele>281</ele>
        <time>2017-06-16T08:45:13Z</time>
      </trkpt>
      <trkpt lat="45.94774" lon="4.85642">
        <ele>281</ele>
        <time>2017-06-16T08:45:14Z</time>
      </trkpt>
      <trkpt lat="45.94777" lon="4.85653">
        <ele>281</ele>
        <time>2017-06-16T08:45:16Z</time>
      </trkpt>
      <trkpt lat="45.94779" lon="4.85659">
        <ele>281</ele>
        <time>2017-06-16T08:45:17Z</time>
      </trkpt>
      <trkpt lat="45.94781" lon="4.85671">
        <ele>280</ele>
        <time>2017-06-16T08:45:19Z</time>
      </trkpt>
      <trkpt lat="45.94783" lon="4.85677">
        <ele>280</ele>
        <time>2017-06-16T08:45:20Z</time>
      </trkpt>
      <trkpt lat="45.94785" lon="4.85688">
        <ele>280</ele>
        <time>2017-06-16T08:45:22Z</time>
      </trkpt>
      <trkpt lat="45.94786" lon="4.85693">
        <ele>280</ele>
        <time>2017-06-16T08:45:23Z</time>
      </trkpt>
      <trkpt lat="45.94788" lon="4.85703">
        <ele>280</ele>
        <time>2017-06-16T08:45:25Z</time>
      </trkpt>
      <trkpt lat="45.9479" lon="4.85708">
        <ele>280</ele>
        <time>2017-06-16T08:45:26Z</time>
      </trkpt>
      <trkpt lat="45.94793" lon="4.85718">
        <ele>280</ele>
        <time>2017-06-16T08:45:28Z</time>
      </trkpt>
      <trkpt lat="45.94795" lon="4.85724">
        <ele>280</ele>
        <time>2017-06-16T08:45:29Z</time>
      </trkpt>
      <trkpt lat="45.94797" lon="4.85734">
        <ele>280</ele>
        <time>2017-06-16T08:45:31Z</time>
      </trkpt>
      <trkpt lat="45.94799" lon="4.8574">
        <ele>280</ele>
        <time>2017-06-16T08:45:32Z</time>
      </trkpt>
      <trkpt lat="45.94802" lon="4.85752">
        <ele>278</ele>
        <time>2017-06-16T08:45:34Z</time>
      </trkpt>
      <trkpt lat="45.94803" lon="4.85758">
        <ele>278</ele>
        <time>2017-06-16T08:45:35Z</time>
      </trkpt>
      <trkpt lat="45.94805" lon="4.85765">
        <ele>278</ele>
        <time>2017-06-16T08:45:36Z</time>
      </trkpt>
      <trkpt lat="45.94807" lon="4.85771">
        <ele>278</ele>
        <time>2017-06-16T08:45:37Z</time>
      </trkpt>
      <trkpt lat="45.94809" lon="4.85777">
        <ele>278</ele>
        <time>2017-06-16T08:45:38Z</time>
      </trkpt>
      <trkpt lat="45.9481" lon="4.85783">
        <ele>278</ele>
        <time>2017-06-16T08:45:39Z</time>
      </trkpt>
      <trkpt lat="45.94812" lon="4.8579">
        <ele>278</ele>
        <time>2017-06-16T08:45:40Z</time>
      </trkpt>
      <trkpt lat="45.94814" lon="4.85796">
        <ele>278</ele>
        <time>2017-06-16T08:45:41Z</time>
      </trkpt>
      <trkpt lat="45.94816" lon="4.85803">
        <ele>278</ele>
        <time>2017-06-16T08:45:42Z</time>
      </trkpt>
      <trkpt lat="45.94817" lon="4.85809">
        <ele>278</ele>
        <time>2017-06-16T08:45:43Z</time>
      </trkpt>
      <trkpt lat="45.94819" lon="4.85815">
        <ele>278</ele>
        <time>2017-06-16T08:45:44Z</time>
      </trkpt>
      <trkpt lat="45.9482" lon="4.85821">
        <ele>278</ele>
        <time>2017-06-16T08:45:45Z</time>
      </trkpt>
      <trkpt lat="45.94822" lon="4.85827">
        <ele>277</ele>
        <time>2017-06-16T08:45:46Z</time>
      </trkpt>
      <trkpt lat="45.94823" lon="4.85834">
        <ele>277</ele>
        <time>2017-06-16T08:45:47Z</time>
      </trkpt>
      <trkpt lat="45.94827" lon="4.85845">
        <ele>277</ele>
        <time>2017-06-16T08:45:49Z</time>
      </trkpt>
      <trkpt lat="45.94828" lon="4.85851">
        <ele>277</ele>
        <time>2017-06-16T08:45:50Z</time>
      </trkpt>
      <trkpt lat="45.94831" lon="4.85863">
        <ele>277</ele>
        <time>2017-06-16T08:45:52Z</time>
      </trkpt>
      <trkpt lat="45.94833" lon="4.85869">
        <ele>277</ele>
        <time>2017-06-16T08:45:53Z</time>
      </trkpt>
      <trkpt lat="45.94835" lon="4.85876">
        <ele>276</ele>
        <time>2017-06-16T08:45:54Z</time>
      </trkpt>
      <trkpt lat="45.94837" lon="4.85882">
        <ele>276</ele>
        <time>2017-06-16T08:45:55Z</time>
      </trkpt>
      <trkpt lat="45.94839" lon="4.85889">
        <ele>276</ele>
        <time>2017-06-16T08:45:56Z</time>
      </trkpt>
      <trkpt lat="45.94841" lon="4.85896">
        <ele>276</ele>
        <time>2017-06-16T08:45:57Z</time>
      </trkpt>
      <trkpt lat="45.94843" lon="4.85903">
        <ele>276</ele>
        <time>2017-06-16T08:45:58Z</time>
      </trkpt>
      <trkpt lat="45.94844" lon="4.8591">
        <ele>275</ele>
        <time>2017-06-16T08:45:59Z</time>
      </trkpt>
      <trkpt lat="45.94846" lon="4.85916">
        <ele>275</ele>
        <time>2017-06-16T08:46:00Z</time>
      </trkpt>
      <trkpt lat="45.94847" lon="4.85923">
        <ele>275</ele>
        <time>2017-06-16T08:46:01Z</time>
      </trkpt>
      <trkpt lat="45.94849" lon="4.8593">
        <ele>275</ele>
        <time>2017-06-16T08:46:02Z</time>
      </trkpt>
      <trkpt lat="45.94851" lon="4.85937">
        <ele>275</ele>
        <time>2017-06-16T08:46:03Z</time>
      </trkpt>
      <trkpt lat="45.94853" lon="4.85943">
        <ele>275</ele>
        <time>2017-06-16T08:46:04Z</time>
      </trkpt>
      <trkpt lat="45.94855" lon="4.8595">
        <ele>275</ele>
        <time>2017-06-16T08:46:05Z</time>
      </trkpt>
      <trkpt lat="45.94857" lon="4.85957">
        <ele>275</ele>
        <time>2017-06-16T08:46:06Z</time>
      </trkpt>
      <trkpt lat="45.94858" lon="4.85963">
        <ele>275</ele>
        <time>2017-06-16T08:46:07Z</time>
      </trkpt>
      <trkpt lat="45.9486" lon="4.85969">
        <ele>275</ele>
        <time>2017-06-16T08:46:08Z</time>
      </trkpt>
      <trkpt lat="45.94861" lon="4.85976">
        <ele>275</ele>
        <time>2017-06-16T08:46:09Z</time>
      </trkpt>
      <trkpt lat="45.94863" lon="4.85982">
        <ele>275</ele>
        <time>2017-06-16T08:46:10Z</time>
      </trkpt>
      <trkpt lat="45.94865" lon="4.85988">
        <ele>275</ele>
        <time>2017-06-16T08:46:11Z</time>
      </trkpt>
      <trkpt lat="45.94867" lon="4.85994">
        <ele>275</ele>
        <time>2017-06-16T08:46:12Z</time>
      </trkpt>
      <trkpt lat="45.94868" lon="4.86001">
        <ele>275</ele>
        <time>2017-06-16T08:46:13Z</time>
      </trkpt>
      <trkpt lat="45.9487" lon="4.86007">
        <ele>274</ele>
        <time>2017-06-16T08:46:14Z</time>
      </trkpt>
      <trkpt lat="45.94872" lon="4.86014">
        <ele>274</ele>
        <time>2017-06-16T08:46:15Z</time>
      </trkpt>
      <trkpt lat="45.94873" lon="4.86022">
        <ele>274</ele>
        <time>2017-06-16T08:46:16Z</time>
      </trkpt>
      <trkpt lat="45.94875" lon="4.86029">
        <ele>274</ele>
        <time>2017-06-16T08:46:17Z</time>
      </trkpt>
      <trkpt lat="45.94878" lon="4.86036">
        <ele>274</ele>
        <time>2017-06-16T08:46:18Z</time>
      </trkpt>
      <trkpt lat="45.9488" lon="4.86044">
        <ele>274</ele>
        <time>2017-06-16T08:46:19Z</time>
      </trkpt>
      <trkpt lat="45.94882" lon="4.86052">
        <ele>274</ele>
        <time>2017-06-16T08:46:20Z</time>
      </trkpt>
      <trkpt lat="45.94884" lon="4.8606">
        <ele>274</ele>
        <time>2017-06-16T08:46:21Z</time>
      </trkpt>
      <trkpt lat="45.94886" lon="4.86067">
        <ele>274</ele>
        <time>2017-06-16T08:46:22Z</time>
      </trkpt>
      <trkpt lat="45.94887" lon="4.86074">
        <ele>274</ele>
        <time>2017-06-16T08:46:23Z</time>
      </trkpt>
      <trkpt lat="45.94889" lon="4.86081">
        <ele>274</ele>
        <time>2017-06-16T08:46:24Z</time>
      </trkpt>
      <trkpt lat="45.94891" lon="4.86088">
        <ele>274</ele>
        <time>2017-06-16T08:46:25Z</time>
      </trkpt>
      <trkpt lat="45.94893" lon="4.86095">
        <ele>274</ele>
        <time>2017-06-16T08:46:26Z</time>
      </trkpt>
      <trkpt lat="45.94895" lon="4.86101">
        <ele>274</ele>
        <time>2017-06-16T08:46:27Z</time>
      </trkpt>
      <trkpt lat="45.94897" lon="4.86108">
        <ele>274</ele>
        <time>2017-06-16T08:46:28Z</time>
      </trkpt>
      <trkpt lat="45.949" lon="4.86114">
        <ele>274</ele>
        <time>2017-06-16T08:46:29Z</time>
      </trkpt>
      <trkpt lat="45.94902" lon="4.8612">
        <ele>274</ele>
        <time>2017-06-16T08:46:30Z</time>
      </trkpt>
      <trkpt lat="45.94905" lon="4.86126">
        <ele>274</ele>
        <time>2017-06-16T08:46:31Z</time>
      </trkpt>
      <trkpt lat="45.94908" lon="4.86132">
        <ele>274</ele>
        <time>2017-06-16T08:46:32Z</time>
      </trkpt>
      <trkpt lat="45.94912" lon="4.86138">
        <ele>274</ele>
        <time>2017-06-16T08:46:33Z</time>
      </trkpt>
      <trkpt lat="45.94915" lon="4.86143">
        <ele>274</ele>
        <time>2017-06-16T08:46:34Z</time>
      </trkpt>
      <trkpt lat="45.94919" lon="4.86148">
        <ele>273</ele>
        <time>2017-06-16T08:46:35Z</time>
      </trkpt>
      <trkpt lat="45.94922" lon="4.86153">
        <ele>273</ele>
        <time>2017-06-16T08:46:36Z</time>
      </trkpt>
      <trkpt lat="45.94925" lon="4.86158">
        <ele>273</ele>
        <time>2017-06-16T08:46:37Z</time>
      </trkpt>
      <trkpt lat="45.94929" lon="4.86163">
        <ele>273</ele>
        <time>2017-06-16T08:46:38Z</time>
      </trkpt>
      <trkpt lat="45.94932" lon="4.86168">
        <ele>273</ele>
        <time>2017-06-16T08:46:39Z</time>
      </trkpt>
      <trkpt lat="45.94936" lon="4.86173">
        <ele>273</ele>
        <time>2017-06-16T08:46:40Z</time>
      </trkpt>
      <trkpt lat="45.9494" lon="4.86178">
        <ele>273</ele>
        <time>2017-06-16T08:46:41Z</time>
      </trkpt>
      <trkpt lat="45.94944" lon="4.86183">
        <ele>273</ele>
        <time>2017-06-16T08:46:42Z</time>
      </trkpt>
      <trkpt lat="45.94949" lon="4.86188">
        <ele>273</ele>
        <time>2017-06-16T08:46:43Z</time>
      </trkpt>
      <trkpt lat="45.94953" lon="4.86193">
        <ele>273</ele>
        <time>2017-06-16T08:46:44Z</time>
      </trkpt>
      <trkpt lat="45.94957" lon="4.86199">
        <ele>273</ele>
        <time>2017-06-16T08:46:45Z</time>
      </trkpt>
      <trkpt lat="45.94961" lon="4.86203">
        <ele>272</ele>
        <time>2017-06-16T08:46:46Z</time>
      </trkpt>
      <trkpt lat="45.94965" lon="4.86208">
        <ele>272</ele>
        <time>2017-06-16T08:46:47Z</time>
      </trkpt>
      <trkpt lat="45.94969" lon="4.86213">
        <ele>272</ele>
        <time>2017-06-16T08:46:48Z</time>
      </trkpt>
      <trkpt lat="45.94972" lon="4.86217">
        <ele>272</ele>
        <time>2017-06-16T08:46:49Z</time>
      </trkpt>
      <trkpt lat="45.94976" lon="4.86222">
        <ele>272</ele>
        <time>2017-06-16T08:46:50Z</time>
      </trkpt>
      <trkpt lat="45.9498" lon="4.86226">
        <ele>272</ele>
        <time>2017-06-16T08:46:51Z</time>
      </trkpt>
      <trkpt lat="45.94983" lon="4.8623">
        <ele>272</ele>
        <time>2017-06-16T08:46:52Z</time>
      </trkpt>
      <trkpt lat="45.94987" lon="4.86234">
        <ele>272</ele>
        <time>2017-06-16T08:46:53Z</time>
      </trkpt>
      <trkpt lat="45.94991" lon="4.86238">
        <ele>272</ele>
        <time>2017-06-16T08:46:54Z</time>
      </trkpt>
      <trkpt lat="45.94995" lon="4.86242">
        <ele>272</ele>
        <time>2017-06-16T08:46:55Z</time>
      </trkpt>
      <trkpt lat="45.94999" lon="4.86247">
        <ele>272</ele>
        <time>2017-06-16T08:46:56Z</time>
      </trkpt>
      <trkpt lat="45.95003" lon="4.86252">
        <ele>272</ele>
        <time>2017-06-16T08:46:57Z</time>
      </trkpt>
      <trkpt lat="45.95007" lon="4.86257">
        <ele>272</ele>
        <time>2017-06-16T08:46:58Z</time>
      </trkpt>
      <trkpt lat="45.95011" lon="4.86263">
        <ele>272</ele>
        <time>2017-06-16T08:46:59Z</time>
      </trkpt>
      <trkpt lat="45.95016" lon="4.86268">
        <ele>271</ele>
        <time>2017-06-16T08:47:00Z</time>
      </trkpt>
      <trkpt lat="45.9502" lon="4.86274">
        <ele>271</ele>
        <time>2017-06-16T08:47:01Z</time>
      </trkpt>
      <trkpt lat="45.95024" lon="4.86279">
        <ele>271</ele>
        <time>2017-06-16T08:47:02Z</time>
      </trkpt>
      <trkpt lat="45.95029" lon="4.86284">
        <ele>271</ele>
        <time>2017-06-16T08:47:03Z</time>
      </trkpt>
      <trkpt lat="45.95033" lon="4.86289">
        <ele>271</ele>
        <time>2017-06-16T08:47:04Z</time>
      </trkpt>
      <trkpt lat="45.95038" lon="4.86294">
        <ele>271</ele>
        <time>2017-06-16T08:47:05Z</time>
      </trkpt>
      <trkpt lat="45.95042" lon="4.86299">
        <ele>271</ele>
        <time>2017-06-16T08:47:06Z</time>
      </trkpt>
      <trkpt lat="45.95046" lon="4.86305">
        <ele>271</ele>
        <time>2017-06-16T08:47:07Z</time>
      </trkpt>
      <trkpt lat="45.9505" lon="4.86311">
        <ele>271</ele>
        <time>2017-06-16T08:47:08Z</time>
      </trkpt>
      <trkpt lat="45.95054" lon="4.86316">
        <ele>271</ele>
        <time>2017-06-16T08:47:09Z</time>
      </trkpt>
      <trkpt lat="45.95058" lon="4.86321">
        <ele>270</ele>
        <time>2017-06-16T08:47:10Z</time>
      </trkpt>
      <trkpt lat="45.95062" lon="4.86326">
        <ele>270</ele>
        <time>2017-06-16T08:47:11Z</time>
      </trkpt>
      <trkpt lat="45.95066" lon="4.86331">
        <ele>270</ele>
        <time>2017-06-16T08:47:12Z</time>
      </trkpt>
      <trkpt lat="45.9507" lon="4.86336">
        <ele>270</ele>
        <time>2017-06-16T08:47:13Z</time>
      </trkpt>
      <trkpt lat="45.95074" lon="4.86341">
        <ele>270</ele>
        <time>2017-06-16T08:47:14Z</time>
      </trkpt>
      <trkpt lat="45.95078" lon="4.86346">
        <ele>270</ele>
        <time>2017-06-16T08:47:15Z</time>
      </trkpt>
      <trkpt lat="45.95082" lon="4.86352">
        <ele>270</ele>
        <time>2017-06-16T08:47:16Z</time>
      </trkpt>
      <trkpt lat="45.95086" lon="4.86357">
        <ele>269</ele>
        <time>2017-06-16T08:47:17Z</time>
      </trkpt>
      <trkpt lat="45.9509" lon="4.86362">
        <ele>269</ele>
        <time>2017-06-16T08:47:18Z</time>
      </trkpt>
      <trkpt lat="45.95094" lon="4.86367">
        <ele>269</ele>
        <time>2017-06-16T08:47:19Z</time>
      </trkpt>
      <trkpt lat="45.95098" lon="4.86371">
        <ele>269</ele>
        <time>2017-06-16T08:47:20Z</time>
      </trkpt>
      <trkpt lat="45.95102" lon="4.86376">
        <ele>269</ele>
        <time>2017-06-16T08:47:21Z</time>
      </trkpt>
      <trkpt lat="45.95106" lon="4.86381">
        <ele>269</ele>
        <time>2017-06-16T08:47:22Z</time>
      </trkpt>
      <trkpt lat="45.9511" lon="4.86386">
        <ele>269</ele>
        <time>2017-06-16T08:47:23Z</time>
      </trkpt>
      <trkpt lat="45.95113" lon="4.8639">
        <ele>269</ele>
        <time>2017-06-16T08:47:24Z</time>
      </trkpt>
      <trkpt lat="45.95117" lon="4.86395">
        <ele>269</ele>
        <time>2017-06-16T08:47:25Z</time>
      </trkpt>
      <trkpt lat="45.95121" lon="4.864">
        <ele>269</ele>
        <time>2017-06-16T08:47:26Z</time>
      </trkpt>
      <trkpt lat="45.95124" lon="4.86404">
        <ele>269</ele>
        <time>2017-06-16T08:47:27Z</time>
      </trkpt>
      <trkpt lat="45.95128" lon="4.86408">
        <ele>268</ele>
        <time>2017-06-16T08:47:28Z</time>
      </trkpt>
      <trkpt lat="45.95132" lon="4.86413">
        <ele>268</ele>
        <time>2017-06-16T08:47:29Z</time>
      </trkpt>
      <trkpt lat="45.95136" lon="4.86417">
        <ele>269</ele>
        <time>2017-06-16T08:47:30Z</time>
      </trkpt>
      <trkpt lat="45.9514" lon="4.86422">
        <ele>269</ele>
        <time>2017-06-16T08:47:31Z</time>
      </trkpt>
      <trkpt lat="45.95144" lon="4.86426">
        <ele>268</ele>
        <time>2017-06-16T08:47:32Z</time>
      </trkpt>
      <trkpt lat="45.95148" lon="4.86431">
        <ele>268</ele>
        <time>2017-06-16T08:47:33Z</time>
      </trkpt>
      <trkpt lat="45.95151" lon="4.86435">
        <ele>268</ele>
        <time>2017-06-16T08:47:34Z</time>
      </trkpt>
      <trkpt lat="45.95155" lon="4.8644">
        <ele>268</ele>
        <time>2017-06-16T08:47:35Z</time>
      </trkpt>
      <trkpt lat="45.95159" lon="4.86445">
        <ele>269</ele>
        <time>2017-06-16T08:47:36Z</time>
      </trkpt>
      <trkpt lat="45.95163" lon="4.8645">
        <ele>269</ele>
        <time>2017-06-16T08:47:37Z</time>
      </trkpt>
      <trkpt lat="45.95167" lon="4.86455">
        <ele>268</ele>
        <time>2017-06-16T08:47:38Z</time>
      </trkpt>
      <trkpt lat="45.95172" lon="4.8646">
        <ele>268</ele>
        <time>2017-06-16T08:47:39Z</time>
      </trkpt>
      <trkpt lat="45.95176" lon="4.86466">
        <ele>268</ele>
        <time>2017-06-16T08:47:40Z</time>
      </trkpt>
      <trkpt lat="45.9518" lon="4.86472">
        <ele>268</ele>
        <time>2017-06-16T08:47:41Z</time>
      </trkpt>
      <trkpt lat="45.95185" lon="4.86477">
        <ele>268</ele>
        <time>2017-06-16T08:47:42Z</time>
      </trkpt>
      <trkpt lat="45.9519" lon="4.86483">
        <ele>268</ele>
        <time>2017-06-16T08:47:43Z</time>
      </trkpt>
      <trkpt lat="45.95195" lon="4.86488">
        <ele>268</ele>
        <time>2017-06-16T08:47:44Z</time>
      </trkpt>
      <trkpt lat="45.95201" lon="4.86494">
        <ele>268</ele>
        <time>2017-06-16T08:47:45Z</time>
      </trkpt>
      <trkpt lat="45.95206" lon="4.86499">
        <ele>268</ele>
        <time>2017-06-16T08:47:46Z</time>
      </trkpt>
      <trkpt lat="45.95211" lon="4.86505">
        <ele>268</ele>
        <time>2017-06-16T08:47:47Z</time>
      </trkpt>
      <trkpt lat="45.95216" lon="4.86511">
        <ele>268</ele>
        <time>2017-06-16T08:47:48Z</time>
      </trkpt>
      <trkpt lat="45.95221" lon="4.86517">
        <ele>268</ele>
        <time>2017-06-16T08:47:49Z</time>
      </trkpt>
      <trkpt lat="45.95227" lon="4.86523">
        <ele>268</ele>
        <time>2017-06-16T08:47:50Z</time>
      </trkpt>
      <trkpt lat="45.95232" lon="4.86529">
        <ele>268</ele>
        <time>2017-06-16T08:47:51Z</time>
      </trkpt>
      <trkpt lat="45.95236" lon="4.86535">
        <ele>268</ele>
        <time>2017-06-16T08:47:52Z</time>
      </trkpt>
      <trkpt lat="45.95241" lon="4.8654">
        <ele>268</ele>
        <time>2017-06-16T08:47:53Z</time>
      </trkpt>
      <trkpt lat="45.95245" lon="4.86546">
        <ele>268</ele>
        <time>2017-06-16T08:47:54Z</time>
      </trkpt>
      <trkpt lat="45.95249" lon="4.86551">
        <ele>268</ele>
        <time>2017-06-16T08:47:55Z</time>
      </trkpt>
      <trkpt lat="45.95255" lon="4.8656">
        <ele>267</ele>
        <time>2017-06-16T08:47:57Z</time>
      </trkpt>
      <trkpt lat="45.95257" lon="4.86565">
        <ele>267</ele>
        <time>2017-06-16T08:47:58Z</time>
      </trkpt>
      <trkpt lat="45.95256" lon="4.86575">
        <ele>268</ele>
        <time>2017-06-16T08:48:00Z</time>
      </trkpt>
      <trkpt lat="45.95253" lon="4.86579">
        <ele>268</ele>
        <time>2017-06-16T08:48:01Z</time>
      </trkpt>
      <trkpt lat="45.95245" lon="4.86583">
        <ele>268</ele>
        <time>2017-06-16T08:48:03Z</time>
      </trkpt>
      <trkpt lat="45.95241" lon="4.86583">
        <ele>268</ele>
        <time>2017-06-16T08:48:04Z</time>
      </trkpt>
      <trkpt lat="45.95233" lon="4.86581">
        <ele>268</ele>
        <time>2017-06-16T08:48:06Z</time>
      </trkpt>
      <trkpt lat="45.95229" lon="4.86581">
        <ele>268</ele>
        <time>2017-06-16T08:48:07Z</time>
      </trkpt>
      <trkpt lat="45.95222" lon="4.8658">
        <ele>268</ele>
        <time>2017-06-16T08:48:09Z</time>
      </trkpt>
      <trkpt lat="45.95218" lon="4.8658">
        <ele>268</ele>
        <time>2017-06-16T08:48:10Z</time>
      </trkpt>
      <trkpt lat="45.9521" lon="4.86581">
        <ele>268</ele>
        <time>2017-06-16T08:48:12Z</time>
      </trkpt>
      <trkpt lat="45.95206" lon="4.86581">
        <ele>268</ele>
        <time>2017-06-16T08:48:13Z</time>
      </trkpt>
      <trkpt lat="45.95198" lon="4.8658">
        <ele>268</ele>
        <time>2017-06-16T08:48:15Z</time>
      </trkpt>
      <trkpt lat="45.95193" lon="4.86579">
        <ele>269</ele>
        <time>2017-06-16T08:48:16Z</time>
      </trkpt>
      <trkpt lat="45.95188" lon="4.86579">
        <ele>269</ele>
        <time>2017-06-16T08:48:17Z</time>
      </trkpt>
      <trkpt lat="45.95184" lon="4.86579">
        <ele>269</ele>
        <time>2017-06-16T08:48:18Z</time>
      </trkpt>
      <trkpt lat="45.95179" lon="4.86579">
        <ele>269</ele>
        <time>2017-06-16T08:48:19Z</time>
      </trkpt>
      <trkpt lat="45.95174" lon="4.8658">
        <ele>269</ele>
        <time>2017-06-16T08:48:20Z</time>
      </trkpt>
      <trkpt lat="45.95169" lon="4.86581">
        <ele>269</ele>
        <time>2017-06-16T08:48:21Z</time>
      </trkpt>
      <trkpt lat="45.95165" lon="4.86582">
        <ele>269</ele>
        <time>2017-06-16T08:48:22Z</time>
      </trkpt>
      <trkpt lat="45.95157" lon="4.86583">
        <ele>269</ele>
        <time>2017-06-16T08:48:24Z</time>
      </trkpt>
      <trkpt lat="45.95152" lon="4.86584">
        <ele>270</ele>
        <time>2017-06-16T08:48:25Z</time>
      </trkpt>
      <trkpt lat="45.95144" lon="4.86586">
        <ele>270</ele>
        <time>2017-06-16T08:48:27Z</time>
      </trkpt>
      <trkpt lat="45.9514" lon="4.86587">
        <ele>270</ele>
        <time>2017-06-16T08:48:28Z</time>
      </trkpt>
      <trkpt lat="45.95132" lon="4.86588">
        <ele>270</ele>
        <time>2017-06-16T08:48:30Z</time>
      </trkpt>
      <trkpt lat="45.95128" lon="4.86588">
        <ele>270</ele>
        <time>2017-06-16T08:48:31Z</time>
      </trkpt>
      <trkpt lat="45.95123" lon="4.86588">
        <ele>270</ele>
        <time>2017-06-16T08:48:32Z</time>
      </trkpt>
      <trkpt lat="45.95119" lon="4.86588">
        <ele>270</ele>
        <time>2017-06-16T08:48:33Z</time>
      </trkpt>
      <trkpt lat="45.9511" lon="4.86588">
        <ele>271</ele>
        <time>2017-06-16T08:48:35Z</time>
      </trkpt>
      <trkpt lat="45.95105" lon="4.86589">
        <ele>271</ele>
        <time>2017-06-16T08:48:36Z</time>
      </trkpt>
      <trkpt lat="45.951" lon="4.86591">
        <ele>271</ele>
        <time>2017-06-16T08:48:37Z</time>
      </trkpt>
      <trkpt lat="45.95095" lon="4.86592">
        <ele>271</ele>
        <time>2017-06-16T08:48:38Z</time>
      </trkpt>
      <trkpt lat="45.95087" lon="4.86593">
        <ele>271</ele>
        <time>2017-06-16T08:48:40Z</time>
      </trkpt>
      <trkpt lat="45.95083" lon="4.86594">
        <ele>271</ele>
        <time>2017-06-16T08:48:41Z</time>
      </trkpt>
      <trkpt lat="45.95074" lon="4.86596">
        <ele>272</ele>
        <time>2017-06-16T08:48:43Z</time>
      </trkpt>
      <trkpt lat="45.9507" lon="4.86597">
        <ele>272</ele>
        <time>2017-06-16T08:48:44Z</time>
      </trkpt>
      <trkpt lat="45.95061" lon="4.866">
        <ele>272</ele>
        <time>2017-06-16T08:48:46Z</time>
      </trkpt>
      <trkpt lat="45.95057" lon="4.86601">
        <ele>272</ele>
        <time>2017-06-16T08:48:47Z</time>
      </trkpt>
      <trkpt lat="45.95049" lon="4.86603">
        <ele>272</ele>
        <time>2017-06-16T08:48:49Z</time>
      </trkpt>
      <trkpt lat="45.95045" lon="4.86605">
        <ele>272</ele>
        <time>2017-06-16T08:48:50Z</time>
      </trkpt>
      <trkpt lat="45.95037" lon="4.86607">
        <ele>273</ele>
        <time>2017-06-16T08:48:52Z</time>
      </trkpt>
      <trkpt lat="45.95033" lon="4.86608">
        <ele>273</ele>
        <time>2017-06-16T08:48:53Z</time>
      </trkpt>
      <trkpt lat="45.95025" lon="4.86611">
        <ele>273</ele>
        <time>2017-06-16T08:48:55Z</time>
      </trkpt>
      <trkpt lat="45.95021" lon="4.86612">
        <ele>273</ele>
        <time>2017-06-16T08:48:56Z</time>
      </trkpt>
      <trkpt lat="45.95013" lon="4.86614">
        <ele>273</ele>
        <time>2017-06-16T08:48:58Z</time>
      </trkpt>
      <trkpt lat="45.95009" lon="4.86615">
        <ele>273</ele>
        <time>2017-06-16T08:48:59Z</time>
      </trkpt>
      <trkpt lat="45.95002" lon="4.86616">
        <ele>273</ele>
        <time>2017-06-16T08:49:01Z</time>
      </trkpt>
      <trkpt lat="45.94999" lon="4.86616">
        <ele>275</ele>
        <time>2017-06-16T08:49:02Z</time>
      </trkpt>
      <trkpt lat="45.94991" lon="4.86616">
        <ele>275</ele>
        <time>2017-06-16T08:49:04Z</time>
      </trkpt>
      <trkpt lat="45.94988" lon="4.86617">
        <ele>275</ele>
        <time>2017-06-16T08:49:05Z</time>
      </trkpt>
      <trkpt lat="45.9498" lon="4.86618">
        <ele>275</ele>
        <time>2017-06-16T08:49:07Z</time>
      </trkpt>
      <trkpt lat="45.94976" lon="4.86619">
        <ele>275</ele>
        <time>2017-06-16T08:49:08Z</time>
      </trkpt>
      <trkpt lat="45.94969" lon="4.86622">
        <ele>275</ele>
        <time>2017-06-16T08:49:10Z</time>
      </trkpt>
      <trkpt lat="45.94966" lon="4.86624">
        <ele>275</ele>
        <time>2017-06-16T08:49:11Z</time>
      </trkpt>
      <trkpt lat="45.94959" lon="4.8663">
        <ele>275</ele>
        <time>2017-06-16T08:49:13Z</time>
      </trkpt>
      <trkpt lat="45.94955" lon="4.86633">
        <ele>276</ele>
        <time>2017-06-16T08:49:14Z</time>
      </trkpt>
      <trkpt lat="45.9495" lon="4.86642">
        <ele>276</ele>
        <time>2017-06-16T08:49:16Z</time>
      </trkpt>
      <trkpt lat="45.94948" lon="4.86647">
        <ele>276</ele>
        <time>2017-06-16T08:49:17Z</time>
      </trkpt>
      <trkpt lat="45.94945" lon="4.86658">
        <ele>276</ele>
        <time>2017-06-16T08:49:19Z</time>
      </trkpt>
      <trkpt lat="45.94944" lon="4.86663">
        <ele>276</ele>
        <time>2017-06-16T08:49:20Z</time>
      </trkpt>
      <trkpt lat="45.94943" lon="4.86673">
        <ele>276</ele>
        <time>2017-06-16T08:49:22Z</time>
      </trkpt>
      <trkpt lat="45.94943" lon="4.86678">
        <ele>276</ele>
        <time>2017-06-16T08:49:23Z</time>
      </trkpt>
      <trkpt lat="45.94943" lon="4.8669">
        <ele>276</ele>
        <time>2017-06-16T08:49:25Z</time>
      </trkpt>
      <trkpt lat="45.94944" lon="4.86696">
        <ele>276</ele>
        <time>2017-06-16T08:49:26Z</time>
      </trkpt>
      <trkpt lat="45.94946" lon="4.86708">
        <ele>275</ele>
        <time>2017-06-16T08:49:28Z</time>
      </trkpt>
      <trkpt lat="45.94947" lon="4.86714">
        <ele>275</ele>
        <time>2017-06-16T08:49:29Z</time>
      </trkpt>
      <trkpt lat="45.9495" lon="4.86725">
        <ele>275</ele>
        <time>2017-06-16T08:49:31Z</time>
      </trkpt>
      <trkpt lat="45.94952" lon="4.86729">
        <ele>275</ele>
        <time>2017-06-16T08:49:32Z</time>
      </trkpt>
      <trkpt lat="45.94956" lon="4.86739">
        <ele>275</ele>
        <time>2017-06-16T08:49:34Z</time>
      </trkpt>
      <trkpt lat="45.94958" lon="4.86744">
        <ele>275</ele>
        <time>2017-06-16T08:49:35Z</time>
      </trkpt>
      <trkpt lat="45.94962" lon="4.86753">
        <ele>275</ele>
        <time>2017-06-16T08:49:37Z</time>
      </trkpt>
      <trkpt lat="45.94964" lon="4.86757">
        <ele>275</ele>
        <time>2017-06-16T08:49:38Z</time>
      </trkpt>
      <trkpt lat="45.94969" lon="4.86766">
        <ele>275</ele>
        <time>2017-06-16T08:49:40Z</time>
      </trkpt>
      <trkpt lat="45.94971" lon="4.86771">
        <ele>275</ele>
        <time>2017-06-16T08:49:41Z</time>
      </trkpt>
      <trkpt lat="45.94976" lon="4.8678">
        <ele>275</ele>
        <time>2017-06-16T08:49:43Z</time>
      </trkpt>
      <trkpt lat="45.94979" lon="4.86785">
        <ele>275</ele>
        <time>2017-06-16T08:49:44Z</time>
      </trkpt>
      <trkpt lat="45.94984" lon="4.86794">
        <ele>276</ele>
        <time>2017-06-16T08:49:46Z</time>
      </trkpt>
      <trkpt lat="45.94986" lon="4.86799">
        <ele>276</ele>
        <time>2017-06-16T08:49:47Z</time>
      </trkpt>
      <trkpt lat="45.94989" lon="4.86804">
        <ele>276</ele>
        <time>2017-06-16T08:49:48Z</time>
      </trkpt>
      <trkpt lat="45.94992" lon="4.8681">
        <ele>276</ele>
        <time>2017-06-16T08:49:49Z</time>
      </trkpt>
      <trkpt lat="45.94995" lon="4.86815">
        <ele>276</ele>
        <time>2017-06-16T08:49:50Z</time>
      </trkpt>
      <trkpt lat="45.94997" lon="4.86821">
        <ele>276</ele>
        <time>2017-06-16T08:49:51Z</time>
      </trkpt>
      <trkpt lat="45.95" lon="4.86826">
        <ele>276</ele>
        <time>2017-06-16T08:49:52Z</time>
      </trkpt>
      <trkpt lat="45.95002" lon="4.86832">
        <ele>276</ele>
        <time>2017-06-16T08:49:53Z</time>
      </trkpt>
      <trkpt lat="45.95005" lon="4.86838">
        <ele>276</ele>
        <time>2017-06-16T08:49:54Z</time>
      </trkpt>
      <trkpt lat="45.95007" lon="4.86844">
        <ele>276</ele>
        <time>2017-06-16T08:49:55Z</time>
      </trkpt>
      <trkpt lat="45.9501" lon="4.86855">
        <ele>275</ele>
        <time>2017-06-16T08:49:57Z</time>
      </trkpt>
      <trkpt lat="45.95012" lon="4.86861">
        <ele>275</ele>
        <time>2017-06-16T08:49:58Z</time>
      </trkpt>
      <trkpt lat="45.95016" lon="4.86873">
        <ele>275</ele>
        <time>2017-06-16T08:50:00Z</time>
      </trkpt>
      <trkpt lat="45.95018" lon="4.86879">
        <ele>275</ele>
        <time>2017-06-16T08:50:01Z</time>
      </trkpt>
      <trkpt lat="45.9502" lon="4.86886">
        <ele>275</ele>
        <time>2017-06-16T08:50:02Z</time>
      </trkpt>
      <trkpt lat="45.95022" lon="4.86892">
        <ele>275</ele>
        <time>2017-06-16T08:50:03Z</time>
      </trkpt>
      <trkpt lat="45.95024" lon="4.86898">
        <ele>275</ele>
        <time>2017-06-16T08:50:04Z</time>
      </trkpt>
      <trkpt lat="45.95026" lon="4.86904">
        <ele>275</ele>
        <time>2017-06-16T08:50:05Z</time>
      </trkpt>
      <trkpt lat="45.95028" lon="4.8691">
        <ele>275</ele>
        <time>2017-06-16T08:50:06Z</time>
      </trkpt>
      <trkpt lat="45.9503" lon="4.86916">
        <ele>275</ele>
        <time>2017-06-16T08:50:07Z</time>
      </trkpt>
      <trkpt lat="45.95032" lon="4.86923">
        <ele>276</ele>
        <time>2017-06-16T08:50:08Z</time>
      </trkpt>
      <trkpt lat="45.95034" lon="4.86929">
        <ele>276</ele>
        <time>2017-06-16T08:50:09Z</time>
      </trkpt>
      <trkpt lat="45.95037" lon="4.86936">
        <ele>276</ele>
        <time>2017-06-16T08:50:10Z</time>
      </trkpt>
      <trkpt lat="45.95038" lon="4.86942">
        <ele>276</ele>
        <time>2017-06-16T08:50:11Z</time>
      </trkpt>
      <trkpt lat="45.95042" lon="4.86952">
        <ele>276</ele>
        <time>2017-06-16T08:50:13Z</time>
      </trkpt>
      <trkpt lat="45.95043" lon="4.86957">
        <ele>276</ele>
        <time>2017-06-16T08:50:14Z</time>
      </trkpt>
      <trkpt lat="45.95046" lon="4.86967">
        <ele>276</ele>
        <time>2017-06-16T08:50:16Z</time>
      </trkpt>
      <trkpt lat="45.95048" lon="4.86972">
        <ele>276</ele>
        <time>2017-06-16T08:50:17Z</time>
      </trkpt>
      <trkpt lat="45.95051" lon="4.86983">
        <ele>276</ele>
        <time>2017-06-16T08:50:19Z</time>
      </trkpt>
      <trkpt lat="45.95053" lon="4.86989">
        <ele>276</ele>
        <time>2017-06-16T08:50:20Z</time>
      </trkpt>
      <trkpt lat="45.95057" lon="4.86999">
        <ele>276</ele>
        <time>2017-06-16T08:50:22Z</time>
      </trkpt>
      <trkpt lat="45.95059" lon="4.87003">
        <ele>277</ele>
        <time>2017-06-16T08:50:23Z</time>
      </trkpt>
      <trkpt lat="45.95064" lon="4.87011">
        <ele>277</ele>
        <time>2017-06-16T08:50:25Z</time>
      </trkpt>
      <trkpt lat="45.95065" lon="4.87016">
        <ele>277</ele>
        <time>2017-06-16T08:50:26Z</time>
      </trkpt>
      <trkpt lat="45.9507" lon="4.87026">
        <ele>277</ele>
        <time>2017-06-16T08:50:28Z</time>
      </trkpt>
      <trkpt lat="45.95072" lon="4.8703">
        <ele>277</ele>
        <time>2017-06-16T08:50:29Z</time>
      </trkpt>
      <trkpt lat="45.95077" lon="4.87039">
        <ele>277</ele>
        <time>2017-06-16T08:50:31Z</time>
      </trkpt>
      <trkpt lat="45.9508" lon="4.87043">
        <ele>277</ele>
        <time>2017-06-16T08:50:32Z</time>
      </trkpt>
      <trkpt lat="45.95085" lon="4.87052">
        <ele>277</ele>
        <time>2017-06-16T08:50:34Z</time>
      </trkpt>
      <trkpt lat="45.95086" lon="4.87056">
        <ele>277</ele>
        <time>2017-06-16T08:50:35Z</time>
      </trkpt>
      <trkpt lat="45.9509" lon="4.87065">
        <ele>277</ele>
        <time>2017-06-16T08:50:37Z</time>
      </trkpt>
      <trkpt lat="45.95092" lon="4.8707">
        <ele>277</ele>
        <time>2017-06-16T08:50:38Z</time>
      </trkpt>
      <trkpt lat="45.95096" lon="4.8708">
        <ele>277</ele>
        <time>2017-06-16T08:50:40Z</time>
      </trkpt>
      <trkpt lat="45.95098" lon="4.87085">
        <ele>277</ele>
        <time>2017-06-16T08:50:41Z</time>
      </trkpt>
      <trkpt lat="45.95102" lon="4.87096">
        <ele>277</ele>
        <time>2017-06-16T08:50:43Z</time>
      </trkpt>
      <trkpt lat="45.95105" lon="4.87102">
        <ele>277</ele>
        <time>2017-06-16T08:50:44Z</time>
      </trkpt>
      <trkpt lat="45.95106" lon="4.87109">
        <ele>277</ele>
        <time>2017-06-16T08:50:45Z</time>
      </trkpt>
      <trkpt lat="45.95108" lon="4.87116">
        <ele>277</ele>
        <time>2017-06-16T08:50:46Z</time>
      </trkpt>
      <trkpt lat="45.95108" lon="4.87122">
        <ele>277</ele>
        <time>2017-06-16T08:50:47Z</time>
      </trkpt>
      <trkpt lat="45.9511" lon="4.87129">
        <ele>277</ele>
        <time>2017-06-16T08:50:48Z</time>
      </trkpt>
      <trkpt lat="45.95112" lon="4.87141">
        <ele>277</ele>
        <time>2017-06-16T08:50:50Z</time>
      </trkpt>
      <trkpt lat="45.95113" lon="4.87147">
        <ele>277</ele>
        <time>2017-06-16T08:50:51Z</time>
      </trkpt>
      <trkpt lat="45.95115" lon="4.87154">
        <ele>277</ele>
        <time>2017-06-16T08:50:52Z</time>
      </trkpt>
      <trkpt lat="45.95117" lon="4.8716">
        <ele>277</ele>
        <time>2017-06-16T08:50:53Z</time>
      </trkpt>
      <trkpt lat="45.95118" lon="4.87167">
        <ele>277</ele>
        <time>2017-06-16T08:50:54Z</time>
      </trkpt>
      <trkpt lat="45.9512" lon="4.87175">
        <ele>277</ele>
        <time>2017-06-16T08:50:55Z</time>
      </trkpt>
      <trkpt lat="45.95121" lon="4.87182">
        <ele>276</ele>
        <time>2017-06-16T08:50:56Z</time>
      </trkpt>
      <trkpt lat="45.95122" lon="4.87189">
        <ele>276</ele>
        <time>2017-06-16T08:50:57Z</time>
      </trkpt>
      <trkpt lat="45.95125" lon="4.87196">
        <ele>276</ele>
        <time>2017-06-16T08:50:58Z</time>
      </trkpt>
      <trkpt lat="45.95126" lon="4.87204">
        <ele>276</ele>
        <time>2017-06-16T08:50:59Z</time>
      </trkpt>
      <trkpt lat="45.95128" lon="4.87212">
        <ele>276</ele>
        <time>2017-06-16T08:51:00Z</time>
      </trkpt>
      <trkpt lat="45.95131" lon="4.8722">
        <ele>276</ele>
        <time>2017-06-16T08:51:01Z</time>
      </trkpt>
      <trkpt lat="45.95133" lon="4.87229">
        <ele>276</ele>
        <time>2017-06-16T08:51:02Z</time>
      </trkpt>
      <trkpt lat="45.95135" lon="4.87239">
        <ele>276</ele>
        <time>2017-06-16T08:51:03Z</time>
      </trkpt>
      <trkpt lat="45.95138" lon="4.87249">
        <ele>275</ele>
        <time>2017-06-16T08:51:04Z</time>
      </trkpt>
      <trkpt lat="45.9514" lon="4.87258">
        <ele>274</ele>
        <time>2017-06-16T08:51:05Z</time>
      </trkpt>
      <trkpt lat="45.95142" lon="4.87268">
        <ele>274</ele>
        <time>2017-06-16T08:51:06Z</time>
      </trkpt>
      <trkpt lat="45.95144" lon="4.87278">
        <ele>274</ele>
        <time>2017-06-16T08:51:07Z</time>
      </trkpt>
      <trkpt lat="45.95146" lon="4.87288">
        <ele>274</ele>
        <time>2017-06-16T08:51:08Z</time>
      </trkpt>
      <trkpt lat="45.95149" lon="4.87298">
        <ele>274</ele>
        <time>2017-06-16T08:51:09Z</time>
      </trkpt>
      <trkpt lat="45.95151" lon="4.87308">
        <ele>274</ele>
        <time>2017-06-16T08:51:10Z</time>
      </trkpt>
      <trkpt lat="45.95153" lon="4.87318">
        <ele>273</ele>
        <time>2017-06-16T08:51:11Z</time>
      </trkpt>
      <trkpt lat="45.95155" lon="4.87329">
        <ele>272</ele>
        <time>2017-06-16T08:51:12Z</time>
      </trkpt>
      <trkpt lat="45.95158" lon="4.87339">
        <ele>272</ele>
        <time>2017-06-16T08:51:13Z</time>
      </trkpt>
      <trkpt lat="45.9516" lon="4.87349">
        <ele>272</ele>
        <time>2017-06-16T08:51:14Z</time>
      </trkpt>
      <trkpt lat="45.95161" lon="4.87359">
        <ele>272</ele>
        <time>2017-06-16T08:51:15Z</time>
      </trkpt>
      <trkpt lat="45.95163" lon="4.87368">
        <ele>272</ele>
        <time>2017-06-16T08:51:16Z</time>
      </trkpt>
      <trkpt lat="45.95165" lon="4.87376">
        <ele>272</ele>
        <time>2017-06-16T08:51:17Z</time>
      </trkpt>
      <trkpt lat="45.95167" lon="4.87385">
        <ele>271</ele>
        <time>2017-06-16T08:51:18Z</time>
      </trkpt>
      <trkpt lat="45.95169" lon="4.87393">
        <ele>271</ele>
        <time>2017-06-16T08:51:19Z</time>
      </trkpt>
      <trkpt lat="45.9517" lon="4.87401">
        <ele>271</ele>
        <time>2017-06-16T08:51:20Z</time>
      </trkpt>
      <trkpt lat="45.95171" lon="4.87407">
        <ele>271</ele>
        <time>2017-06-16T08:51:21Z</time>
      </trkpt>
      <trkpt lat="45.95173" lon="4.87414">
        <ele>271</ele>
        <time>2017-06-16T08:51:22Z</time>
      </trkpt>
      <trkpt lat="45.95174" lon="4.87421">
        <ele>271</ele>
        <time>2017-06-16T08:51:23Z</time>
      </trkpt>
      <trkpt lat="45.95176" lon="4.87429">
        <ele>271</ele>
        <time>2017-06-16T08:51:24Z</time>
      </trkpt>
      <trkpt lat="45.95177" lon="4.87436">
        <ele>271</ele>
        <time>2017-06-16T08:51:25Z</time>
      </trkpt>
      <trkpt lat="45.95179" lon="4.87443">
        <ele>272</ele>
        <time>2017-06-16T08:51:26Z</time>
      </trkpt>
      <trkpt lat="45.95181" lon="4.8745">
        <ele>272</ele>
        <time>2017-06-16T08:51:27Z</time>
      </trkpt>
      <trkpt lat="45.95183" lon="4.87458">
        <ele>272</ele>
        <time>2017-06-16T08:51:28Z</time>
      </trkpt>
      <trkpt lat="45.95185" lon="4.87465">
        <ele>272</ele>
        <time>2017-06-16T08:51:29Z</time>
      </trkpt>
      <trkpt lat="45.95189" lon="4.87477">
        <ele>272</ele>
        <time>2017-06-16T08:51:31Z</time>
      </trkpt>
      <trkpt lat="45.9519" lon="4.87482">
        <ele>272</ele>
        <time>2017-06-16T08:51:32Z</time>
      </trkpt>
      <trkpt lat="45.95193" lon="4.87492">
        <ele>272</ele>
        <time>2017-06-16T08:51:34Z</time>
      </trkpt>
      <trkpt lat="45.95194" lon="4.87498">
        <ele>272</ele>
        <time>2017-06-16T08:51:35Z</time>
      </trkpt>
      <trkpt lat="45.95196" lon="4.87509">
        <ele>273</ele>
        <time>2017-06-16T08:51:37Z</time>
      </trkpt>
      <trkpt lat="45.95197" lon="4.87515">
        <ele>273</ele>
        <time>2017-06-16T08:51:38Z</time>
      </trkpt>
      <trkpt lat="45.952" lon="4.87527">
        <ele>274</ele>
        <time>2017-06-16T08:51:40Z</time>
      </trkpt>
      <trkpt lat="45.952" lon="4.87534">
        <ele>274</ele>
        <time>2017-06-16T08:51:41Z</time>
      </trkpt>
      <trkpt lat="45.95201" lon="4.8754">
        <ele>274</ele>
        <time>2017-06-16T08:51:42Z</time>
      </trkpt>
      <trkpt lat="45.95202" lon="4.87546">
        <ele>274</ele>
        <time>2017-06-16T08:51:43Z</time>
      </trkpt>
      <trkpt lat="45.95204" lon="4.87559">
        <ele>274</ele>
        <time>2017-06-16T08:51:45Z</time>
      </trkpt>
      <trkpt lat="45.95204" lon="4.87565">
        <ele>274</ele>
        <time>2017-06-16T08:51:46Z</time>
      </trkpt>
      <trkpt lat="45.95204" lon="4.87577">
        <ele>274</ele>
        <time>2017-06-16T08:51:48Z</time>
      </trkpt>
      <trkpt lat="45.95204" lon="4.87584">
        <ele>276</ele>
        <time>2017-06-16T08:51:49Z</time>
      </trkpt>
      <trkpt lat="45.95205" lon="4.8759">
        <ele>276</ele>
        <time>2017-06-16T08:51:50Z</time>
      </trkpt>
      <trkpt lat="45.95205" lon="4.87597">
        <ele>276</ele>
        <time>2017-06-16T08:51:51Z</time>
      </trkpt>
      <trkpt lat="45.95205" lon="4.87604">
        <ele>276</ele>
        <time>2017-06-16T08:51:52Z</time>
      </trkpt>
      <trkpt lat="45.95206" lon="4.87611">
        <ele>276</ele>
        <time>2017-06-16T08:51:53Z</time>
      </trkpt>
      <trkpt lat="45.95207" lon="4.87618">
        <ele>276</ele>
        <time>2017-06-16T08:51:54Z</time>
      </trkpt>
      <trkpt lat="45.95208" lon="4.87625">
        <ele>276</ele>
        <time>2017-06-16T08:51:55Z</time>
      </trkpt>
      <trkpt lat="45.95209" lon="4.87632">
        <ele>276</ele>
        <time>2017-06-16T08:51:56Z</time>
      </trkpt>
      <trkpt lat="45.9521" lon="4.87639">
        <ele>276</ele>
        <time>2017-06-16T08:51:57Z</time>
      </trkpt>
      <trkpt lat="45.95211" lon="4.87646">
        <ele>276</ele>
        <time>2017-06-16T08:51:58Z</time>
      </trkpt>
      <trkpt lat="45.95213" lon="4.87654">
        <ele>277</ele>
        <time>2017-06-16T08:51:59Z</time>
      </trkpt>
      <trkpt lat="45.95214" lon="4.87661">
        <ele>277</ele>
        <time>2017-06-16T08:52:00Z</time>
      </trkpt>
      <trkpt lat="45.95215" lon="4.87669">
        <ele>279</ele>
        <time>2017-06-16T08:52:01Z</time>
      </trkpt>
      <trkpt lat="45.95216" lon="4.87676">
        <ele>279</ele>
        <time>2017-06-16T08:52:02Z</time>
      </trkpt>
      <trkpt lat="45.95218" lon="4.87683">
        <ele>279</ele>
        <time>2017-06-16T08:52:03Z</time>
      </trkpt>
      <trkpt lat="45.95219" lon="4.8769">
        <ele>279</ele>
        <time>2017-06-16T08:52:04Z</time>
      </trkpt>
      <trkpt lat="45.9522" lon="4.87696">
        <ele>279</ele>
        <time>2017-06-16T08:52:05Z</time>
      </trkpt>
      <trkpt lat="45.95221" lon="4.87702">
        <ele>279</ele>
        <time>2017-06-16T08:52:06Z</time>
      </trkpt>
      <trkpt lat="45.95222" lon="4.87709">
        <ele>279</ele>
        <time>2017-06-16T08:52:07Z</time>
      </trkpt>
      <trkpt lat="45.95224" lon="4.8772">
        <ele>280</ele>
        <time>2017-06-16T08:52:09Z</time>
      </trkpt>
      <trkpt lat="45.95224" lon="4.87725">
        <ele>280</ele>
        <time>2017-06-16T08:52:10Z</time>
      </trkpt>
      <trkpt lat="45.95226" lon="4.87735">
        <ele>280</ele>
        <time>2017-06-16T08:52:12Z</time>
      </trkpt>
      <trkpt lat="45.95227" lon="4.8774">
        <ele>280</ele>
        <time>2017-06-16T08:52:13Z</time>
      </trkpt>
      <trkpt lat="45.95229" lon="4.87751">
        <ele>282</ele>
        <time>2017-06-16T08:52:15Z</time>
      </trkpt>
      <trkpt lat="45.9523" lon="4.87757">
        <ele>282</ele>
        <time>2017-06-16T08:52:16Z</time>
      </trkpt>
      <trkpt lat="45.95233" lon="4.87767">
        <ele>282</ele>
        <time>2017-06-16T08:52:18Z</time>
      </trkpt>
      <trkpt lat="45.95235" lon="4.87772">
        <ele>282</ele>
        <time>2017-06-16T08:52:19Z</time>
      </trkpt>
      <trkpt lat="45.95237" lon="4.87783">
        <ele>282</ele>
        <time>2017-06-16T08:52:21Z</time>
      </trkpt>
      <trkpt lat="45.95238" lon="4.87789">
        <ele>282</ele>
        <time>2017-06-16T08:52:22Z</time>
      </trkpt>
      <trkpt lat="45.9524" lon="4.878">
        <ele>282</ele>
        <time>2017-06-16T08:52:24Z</time>
      </trkpt>
      <trkpt lat="45.95241" lon="4.87805">
        <ele>282</ele>
        <time>2017-06-16T08:52:25Z</time>
      </trkpt>
      <trkpt lat="45.95242" lon="4.87815">
        <ele>282</ele>
        <time>2017-06-16T08:52:27Z</time>
      </trkpt>
      <trkpt lat="45.95243" lon="4.8782">
        <ele>282</ele>
        <time>2017-06-16T08:52:28Z</time>
      </trkpt>
      <trkpt lat="45.95244" lon="4.87831">
        <ele>282</ele>
        <time>2017-06-16T08:52:30Z</time>
      </trkpt>
      <trkpt lat="45.95244" lon="4.87836">
        <ele>283</ele>
        <time>2017-06-16T08:52:31Z</time>
      </trkpt>
      <trkpt lat="45.95245" lon="4.87846">
        <ele>283</ele>
        <time>2017-06-16T08:52:33Z</time>
      </trkpt>
      <trkpt lat="45.95247" lon="4.87851">
        <ele>283</ele>
        <time>2017-06-16T08:52:34Z</time>
      </trkpt>
      <trkpt lat="45.95249" lon="4.87861">
        <ele>283</ele>
        <time>2017-06-16T08:52:36Z</time>
      </trkpt>
      <trkpt lat="45.9525" lon="4.87867">
        <ele>281</ele>
        <time>2017-06-16T08:52:37Z</time>
      </trkpt>
      <trkpt lat="45.95252" lon="4.87877">
        <ele>281</ele>
        <time>2017-06-16T08:52:39Z</time>
      </trkpt>
      <trkpt lat="45.95254" lon="4.87882">
        <ele>281</ele>
        <time>2017-06-16T08:52:40Z</time>
      </trkpt>
      <trkpt lat="45.95256" lon="4.87894">
        <ele>281</ele>
        <time>2017-06-16T08:52:42Z</time>
      </trkpt>
      <trkpt lat="45.95257" lon="4.879">
        <ele>281</ele>
        <time>2017-06-16T08:52:43Z</time>
      </trkpt>
      <trkpt lat="45.95258" lon="4.87913">
        <ele>282</ele>
        <time>2017-06-16T08:52:45Z</time>
      </trkpt>
      <trkpt lat="45.95257" lon="4.87919">
        <ele>282</ele>
        <time>2017-06-16T08:52:46Z</time>
      </trkpt>
      <trkpt lat="45.95257" lon="4.87929">
        <ele>281</ele>
        <time>2017-06-16T08:52:48Z</time>
      </trkpt>
      <trkpt lat="45.95256" lon="4.87934">
        <ele>281</ele>
        <time>2017-06-16T08:52:49Z</time>
      </trkpt>
      <trkpt lat="45.95254" lon="4.87944">
        <ele>280</ele>
        <time>2017-06-16T08:52:51Z</time>
      </trkpt>
      <trkpt lat="45.95253" lon="4.87949">
        <ele>280</ele>
        <time>2017-06-16T08:52:52Z</time>
      </trkpt>
      <trkpt lat="45.9525" lon="4.87958">
        <ele>282</ele>
        <time>2017-06-16T08:52:54Z</time>
      </trkpt>
      <trkpt lat="45.95248" lon="4.87962">
        <ele>282</ele>
        <time>2017-06-16T08:52:55Z</time>
      </trkpt>
      <trkpt lat="45.95243" lon="4.8797">
        <ele>282</ele>
        <time>2017-06-16T08:52:57Z</time>
      </trkpt>
      <trkpt lat="45.9524" lon="4.87973">
        <ele>282</ele>
        <time>2017-06-16T08:52:58Z</time>
      </trkpt>
      <trkpt lat="45.95235" lon="4.87982">
        <ele>282</ele>
        <time>2017-06-16T08:53:00Z</time>
      </trkpt>
      <trkpt lat="45.95232" lon="4.87987">
        <ele>281</ele>
        <time>2017-06-16T08:53:01Z</time>
      </trkpt>
      <trkpt lat="45.95226" lon="4.87996">
        <ele>281</ele>
        <time>2017-06-16T08:53:03Z</time>
      </trkpt>
      <trkpt lat="45.95223" lon="4.88001">
        <ele>281</ele>
        <time>2017-06-16T08:53:04Z</time>
      </trkpt>
      <trkpt lat="45.9522" lon="4.88006">
        <ele>281</ele>
        <time>2017-06-16T08:53:05Z</time>
      </trkpt>
      <trkpt lat="45.95216" lon="4.88011">
        <ele>281</ele>
        <time>2017-06-16T08:53:06Z</time>
      </trkpt>
      <trkpt lat="45.95213" lon="4.88016">
        <ele>281</ele>
        <time>2017-06-16T08:53:07Z</time>
      </trkpt>
      <trkpt lat="45.9521" lon="4.88021">
        <ele>281</ele>
        <time>2017-06-16T08:53:08Z</time>
      </trkpt>
      <trkpt lat="45.95204" lon="4.88031">
        <ele>281</ele>
        <time>2017-06-16T08:53:10Z</time>
      </trkpt>
      <trkpt lat="45.95202" lon="4.88036">
        <ele>281</ele>
        <time>2017-06-16T08:53:11Z</time>
      </trkpt>
      <trkpt lat="45.95197" lon="4.88045">
        <ele>281</ele>
        <time>2017-06-16T08:53:13Z</time>
      </trkpt>
      <trkpt lat="45.95194" lon="4.88051">
        <ele>281</ele>
        <time>2017-06-16T08:53:14Z</time>
      </trkpt>
      <trkpt lat="45.95191" lon="4.88063">
        <ele>281</ele>
        <time>2017-06-16T08:53:16Z</time>
      </trkpt>
      <trkpt lat="45.95189" lon="4.88069">
        <ele>281</ele>
        <time>2017-06-16T08:53:17Z</time>
      </trkpt>
      <trkpt lat="45.95187" lon="4.88075">
        <ele>281</ele>
        <time>2017-06-16T08:53:18Z</time>
      </trkpt>
      <trkpt lat="45.95186" lon="4.88081">
        <ele>281</ele>
        <time>2017-06-16T08:53:19Z</time>
      </trkpt>
      <trkpt lat="45.95184" lon="4.88087">
        <ele>282</ele>
        <time>2017-06-16T08:53:20Z</time>
      </trkpt>
      <trkpt lat="45.95183" lon="4.88093">
        <ele>282</ele>
        <time>2017-06-16T08:53:21Z</time>
      </trkpt>
      <trkpt lat="45.9518" lon="4.88105">
        <ele>282</ele>
        <time>2017-06-16T08:53:23Z</time>
      </trkpt>
      <trkpt lat="45.95179" lon="4.8811">
        <ele>282</ele>
        <time>2017-06-16T08:53:24Z</time>
      </trkpt>
      <trkpt lat="45.95176" lon="4.88122">
        <ele>282</ele>
        <time>2017-06-16T08:53:26Z</time>
      </trkpt>
      <trkpt lat="45.95175" lon="4.88127">
        <ele>282</ele>
        <time>2017-06-16T08:53:27Z</time>
      </trkpt>
      <trkpt lat="45.95173" lon="4.88138">
        <ele>283</ele>
        <time>2017-06-16T08:53:29Z</time>
      </trkpt>
      <trkpt lat="45.95172" lon="4.88143">
        <ele>283</ele>
        <time>2017-06-16T08:53:30Z</time>
      </trkpt>
      <trkpt lat="45.9517" lon="4.88154">
        <ele>284</ele>
        <time>2017-06-16T08:53:32Z</time>
      </trkpt>
      <trkpt lat="45.95169" lon="4.8816">
        <ele>284</ele>
        <time>2017-06-16T08:53:33Z</time>
      </trkpt>
      <trkpt lat="45.95169" lon="4.8817">
        <ele>285</ele>
        <time>2017-06-16T08:53:35Z</time>
      </trkpt>
      <trkpt lat="45.95169" lon="4.88173">
        <ele>285</ele>
        <time>2017-06-16T08:53:36Z</time>
      </trkpt>
      <trkpt lat="45.95176" lon="4.88178">
        <ele>285</ele>
        <time>2017-06-16T08:53:38Z</time>
      </trkpt>
      <trkpt lat="45.9518" lon="4.88178">
        <ele>285</ele>
        <time>2017-06-16T08:53:39Z</time>
      </trkpt>
      <trkpt lat="45.95187" lon="4.88176">
        <ele>285</ele>
        <time>2017-06-16T08:53:41Z</time>
      </trkpt>
      <trkpt lat="45.95192" lon="4.88176">
        <ele>285</ele>
        <time>2017-06-16T08:53:42Z</time>
      </trkpt>
      <trkpt lat="45.95196" lon="4.88176">
        <ele>285</ele>
        <time>2017-06-16T08:53:43Z</time>
      </trkpt>
      <trkpt lat="45.95201" lon="4.88177">
        <ele>285</ele>
        <time>2017-06-16T08:53:44Z</time>
      </trkpt>
      <trkpt lat="45.95206" lon="4.88176">
        <ele>285</ele>
        <time>2017-06-16T08:53:45Z</time>
      </trkpt>
      <trkpt lat="45.95211" lon="4.88176">
        <ele>284</ele>
        <time>2017-06-16T08:53:46Z</time>
      </trkpt>
      <trkpt lat="45.95216" lon="4.88176">
        <ele>284</ele>
        <time>2017-06-16T08:53:47Z</time>
      </trkpt>
      <trkpt lat="45.95222" lon="4.88176">
        <ele>284</ele>
        <time>2017-06-16T08:53:48Z</time>
      </trkpt>
      <trkpt lat="45.95228" lon="4.88176">
        <ele>284</ele>
        <time>2017-06-16T08:53:49Z</time>
      </trkpt>
      <trkpt lat="45.95234" lon="4.88175">
        <ele>283</ele>
        <time>2017-06-16T08:53:50Z</time>
      </trkpt>
      <trkpt lat="45.9524" lon="4.88175">
        <ele>283</ele>
        <time>2017-06-16T08:53:51Z</time>
      </trkpt>
      <trkpt lat="45.95246" lon="4.88176">
        <ele>282</ele>
        <time>2017-06-16T08:53:52Z</time>
      </trkpt>
      <trkpt lat="45.95253" lon="4.88176">
        <ele>281</ele>
        <time>2017-06-16T08:53:53Z</time>
      </trkpt>
      <trkpt lat="45.95259" lon="4.88177">
        <ele>281</ele>
        <time>2017-06-16T08:53:54Z</time>
      </trkpt>
      <trkpt lat="45.95266" lon="4.88178">
        <ele>281</ele>
        <time>2017-06-16T08:53:55Z</time>
      </trkpt>
      <trkpt lat="45.95273" lon="4.88179">
        <ele>281</ele>
        <time>2017-06-16T08:53:56Z</time>
      </trkpt>
      <trkpt lat="45.9528" lon="4.88179">
        <ele>281</ele>
        <time>2017-06-16T08:53:57Z</time>
      </trkpt>
      <trkpt lat="45.95287" lon="4.88179">
        <ele>281</ele>
        <time>2017-06-16T08:53:58Z</time>
      </trkpt>
      <trkpt lat="45.95295" lon="4.8818">
        <ele>281</ele>
        <time>2017-06-16T08:53:59Z</time>
      </trkpt>
      <trkpt lat="45.95302" lon="4.8818">
        <ele>281</ele>
        <time>2017-06-16T08:54:00Z</time>
      </trkpt>
      <trkpt lat="45.9531" lon="4.88181">
        <ele>280</ele>
        <time>2017-06-16T08:54:01Z</time>
      </trkpt>
      <trkpt lat="45.95317" lon="4.88182">
        <ele>280</ele>
        <time>2017-06-16T08:54:02Z</time>
      </trkpt>
      <trkpt lat="45.95326" lon="4.88183">
        <ele>280</ele>
        <time>2017-06-16T08:54:03Z</time>
      </trkpt>
      <trkpt lat="45.95333" lon="4.88183">
        <ele>280</ele>
        <time>2017-06-16T08:54:04Z</time>
      </trkpt>
      <trkpt lat="45.95341" lon="4.88181">
        <ele>278</ele>
        <time>2017-06-16T08:54:05Z</time>
      </trkpt>
      <trkpt lat="45.95348" lon="4.88181">
        <ele>278</ele>
        <time>2017-06-16T08:54:06Z</time>
      </trkpt>
      <trkpt lat="45.95356" lon="4.8818">
        <ele>278</ele>
        <time>2017-06-16T08:54:07Z</time>
      </trkpt>
      <trkpt lat="45.95363" lon="4.88178">
        <ele>278</ele>
        <time>2017-06-16T08:54:08Z</time>
      </trkpt>
      <trkpt lat="45.9537" lon="4.88175">
        <ele>278</ele>
        <time>2017-06-16T08:54:09Z</time>
      </trkpt>
      <trkpt lat="45.95378" lon="4.88172">
        <ele>278</ele>
        <time>2017-06-16T08:54:10Z</time>
      </trkpt>
      <trkpt lat="45.95385" lon="4.8817">
        <ele>278</ele>
        <time>2017-06-16T08:54:11Z</time>
      </trkpt>
      <trkpt lat="45.95391" lon="4.88167">
        <ele>278</ele>
        <time>2017-06-16T08:54:12Z</time>
      </trkpt>
      <trkpt lat="45.95397" lon="4.88165">
        <ele>276</ele>
        <time>2017-06-16T08:54:13Z</time>
      </trkpt>
      <trkpt lat="45.95404" lon="4.88162">
        <ele>276</ele>
        <time>2017-06-16T08:54:14Z</time>
      </trkpt>
      <trkpt lat="45.95409" lon="4.88159">
        <ele>276</ele>
        <time>2017-06-16T08:54:15Z</time>
      </trkpt>
      <trkpt lat="45.95415" lon="4.88157">
        <ele>276</ele>
        <time>2017-06-16T08:54:16Z</time>
      </trkpt>
      <trkpt lat="45.9542" lon="4.88154">
        <ele>276</ele>
        <time>2017-06-16T08:54:17Z</time>
      </trkpt>
      <trkpt lat="45.95425" lon="4.88152">
        <ele>276</ele>
        <time>2017-06-16T08:54:18Z</time>
      </trkpt>
      <trkpt lat="45.95429" lon="4.8815">
        <ele>276</ele>
        <time>2017-06-16T08:54:19Z</time>
      </trkpt>
      <trkpt lat="45.95434" lon="4.88148">
        <ele>276</ele>
        <time>2017-06-16T08:54:20Z</time>
      </trkpt>
      <trkpt lat="45.95442" lon="4.88146">
        <ele>276</ele>
        <time>2017-06-16T08:54:22Z</time>
      </trkpt>
      <trkpt lat="45.95446" lon="4.88144">
        <ele>276</ele>
        <time>2017-06-16T08:54:23Z</time>
      </trkpt>
      <trkpt lat="45.95451" lon="4.88142">
        <ele>276</ele>
        <time>2017-06-16T08:54:24Z</time>
      </trkpt>
      <trkpt lat="45.95455" lon="4.8814">
        <ele>276</ele>
        <time>2017-06-16T08:54:25Z</time>
      </trkpt>
      <trkpt lat="45.9546" lon="4.88139">
        <ele>276</ele>
        <time>2017-06-16T08:54:26Z</time>
      </trkpt>
      <trkpt lat="45.95465" lon="4.88136">
        <ele>276</ele>
        <time>2017-06-16T08:54:27Z</time>
      </trkpt>
      <trkpt lat="45.9547" lon="4.88134">
        <ele>276</ele>
        <time>2017-06-16T08:54:28Z</time>
      </trkpt>
      <trkpt lat="45.95475" lon="4.88131">
        <ele>276</ele>
        <time>2017-06-16T08:54:29Z</time>
      </trkpt>
      <trkpt lat="45.95479" lon="4.88129">
        <ele>276</ele>
        <time>2017-06-16T08:54:30Z</time>
      </trkpt>
      <trkpt lat="45.95484" lon="4.88127">
        <ele>276</ele>
        <time>2017-06-16T08:54:31Z</time>
      </trkpt>
      <trkpt lat="45.95489" lon="4.88126">
        <ele>276</ele>
        <time>2017-06-16T08:54:32Z</time>
      </trkpt>
      <trkpt lat="45.95493" lon="4.88124">
        <ele>276</ele>
        <time>2017-06-16T08:54:33Z</time>
      </trkpt>
      <trkpt lat="45.95498" lon="4.88121">
        <ele>276</ele>
        <time>2017-06-16T08:54:34Z</time>
      </trkpt>
      <trkpt lat="45.95503" lon="4.88118">
        <ele>276</ele>
        <time>2017-06-16T08:54:35Z</time>
      </trkpt>
      <trkpt lat="45.95507" lon="4.88116">
        <ele>276</ele>
        <time>2017-06-16T08:54:36Z</time>
      </trkpt>
      <trkpt lat="45.95511" lon="4.88114">
        <ele>276</ele>
        <time>2017-06-16T08:54:37Z</time>
      </trkpt>
      <trkpt lat="45.95516" lon="4.88111">
        <ele>276</ele>
        <time>2017-06-16T08:54:38Z</time>
      </trkpt>
      <trkpt lat="45.95521" lon="4.88109">
        <ele>277</ele>
        <time>2017-06-16T08:54:39Z</time>
      </trkpt>
      <trkpt lat="45.95525" lon="4.88107">
        <ele>277</ele>
        <time>2017-06-16T08:54:40Z</time>
      </trkpt>
      <trkpt lat="45.95529" lon="4.88105">
        <ele>277</ele>
        <time>2017-06-16T08:54:41Z</time>
      </trkpt>
      <trkpt lat="45.95534" lon="4.88103">
        <ele>277</ele>
        <time>2017-06-16T08:54:42Z</time>
      </trkpt>
      <trkpt lat="45.95538" lon="4.88101">
        <ele>277</ele>
        <time>2017-06-16T08:54:43Z</time>
      </trkpt>
      <trkpt lat="45.95543" lon="4.88098">
        <ele>277</ele>
        <time>2017-06-16T08:54:44Z</time>
      </trkpt>
      <trkpt lat="45.95547" lon="4.88096">
        <ele>277</ele>
        <time>2017-06-16T08:54:45Z</time>
      </trkpt>
      <trkpt lat="45.95551" lon="4.88094">
        <ele>277</ele>
        <time>2017-06-16T08:54:46Z</time>
      </trkpt>
      <trkpt lat="45.95556" lon="4.88092">
        <ele>277</ele>
        <time>2017-06-16T08:54:47Z</time>
      </trkpt>
      <trkpt lat="45.95564" lon="4.88088">
        <ele>277</ele>
        <time>2017-06-16T08:54:49Z</time>
      </trkpt>
      <trkpt lat="45.95568" lon="4.88085">
        <ele>277</ele>
        <time>2017-06-16T08:54:50Z</time>
      </trkpt>
      <trkpt lat="45.95572" lon="4.88082">
        <ele>277</ele>
        <time>2017-06-16T08:54:51Z</time>
      </trkpt>
      <trkpt lat="45.95576" lon="4.88079">
        <ele>277</ele>
        <time>2017-06-16T08:54:52Z</time>
      </trkpt>
      <trkpt lat="45.95581" lon="4.88076">
        <ele>277</ele>
        <time>2017-06-16T08:54:53Z</time>
      </trkpt>
      <trkpt lat="45.95585" lon="4.88073">
        <ele>277</ele>
        <time>2017-06-16T08:54:54Z</time>
      </trkpt>
      <trkpt lat="45.95589" lon="4.88069">
        <ele>278</ele>
        <time>2017-06-16T08:54:55Z</time>
      </trkpt>
      <trkpt lat="45.95592" lon="4.88065">
        <ele>278</ele>
        <time>2017-06-16T08:54:56Z</time>
      </trkpt>
      <trkpt lat="45.95596" lon="4.88062">
        <ele>278</ele>
        <time>2017-06-16T08:54:57Z</time>
      </trkpt>
      <trkpt lat="45.956" lon="4.88059">
        <ele>278</ele>
        <time>2017-06-16T08:54:58Z</time>
      </trkpt>
      <trkpt lat="45.95604" lon="4.88056">
        <ele>278</ele>
        <time>2017-06-16T08:54:59Z</time>
      </trkpt>
      <trkpt lat="45.95608" lon="4.88052">
        <ele>278</ele>
        <time>2017-06-16T08:55:00Z</time>
      </trkpt>
      <trkpt lat="45.95615" lon="4.88045">
        <ele>278</ele>
        <time>2017-06-16T08:55:02Z</time>
      </trkpt>
      <trkpt lat="45.95618" lon="4.88042">
        <ele>278</ele>
        <time>2017-06-16T08:55:03Z</time>
      </trkpt>
      <trkpt lat="45.95625" lon="4.88035">
        <ele>279</ele>
        <time>2017-06-16T08:55:05Z</time>
      </trkpt>
      <trkpt lat="45.95629" lon="4.88033">
        <ele>279</ele>
        <time>2017-06-16T08:55:06Z</time>
      </trkpt>
      <trkpt lat="45.95636" lon="4.88026">
        <ele>279</ele>
        <time>2017-06-16T08:55:08Z</time>
      </trkpt>
      <trkpt lat="45.9564" lon="4.88023">
        <ele>279</ele>
        <time>2017-06-16T08:55:09Z</time>
      </trkpt>
      <trkpt lat="45.95646" lon="4.88016">
        <ele>279</ele>
        <time>2017-06-16T08:55:11Z</time>
      </trkpt>
      <trkpt lat="45.95649" lon="4.88013">
        <ele>279</ele>
        <time>2017-06-16T08:55:12Z</time>
      </trkpt>
      <trkpt lat="45.95656" lon="4.88005">
        <ele>280</ele>
        <time>2017-06-16T08:55:14Z</time>
      </trkpt>
      <trkpt lat="45.95659" lon="4.88002">
        <ele>280</ele>
        <time>2017-06-16T08:55:15Z</time>
      </trkpt>
      <trkpt lat="45.95667" lon="4.87996">
        <ele>281</ele>
        <time>2017-06-16T08:55:17Z</time>
      </trkpt>
      <trkpt lat="45.95671" lon="4.87993">
        <ele>281</ele>
        <time>2017-06-16T08:55:18Z</time>
      </trkpt>
      <trkpt lat="45.95675" lon="4.87989">
        <ele>282</ele>
        <time>2017-06-16T08:55:19Z</time>
      </trkpt>
      <trkpt lat="45.95679" lon="4.87985">
        <ele>282</ele>
        <time>2017-06-16T08:55:20Z</time>
      </trkpt>
      <trkpt lat="45.95683" lon="4.87981">
        <ele>282</ele>
        <time>2017-06-16T08:55:21Z</time>
      </trkpt>
      <trkpt lat="45.95687" lon="4.87977">
        <ele>282</ele>
        <time>2017-06-16T08:55:22Z</time>
      </trkpt>
      <trkpt lat="45.95695" lon="4.8797">
        <ele>282</ele>
        <time>2017-06-16T08:55:24Z</time>
      </trkpt>
      <trkpt lat="45.95698" lon="4.87967">
        <ele>282</ele>
        <time>2017-06-16T08:55:25Z</time>
      </trkpt>
      <trkpt lat="45.95704" lon="4.87962">
        <ele>283</ele>
        <time>2017-06-16T08:55:27Z</time>
      </trkpt>
      <trkpt lat="45.95707" lon="4.8796">
        <ele>283</ele>
        <time>2017-06-16T08:55:28Z</time>
      </trkpt>
      <trkpt lat="45.95712" lon="4.87956">
        <ele>283</ele>
        <time>2017-06-16T08:55:30Z</time>
      </trkpt>
      <trkpt lat="45.95716" lon="4.87953">
        <ele>283</ele>
        <time>2017-06-16T08:55:31Z</time>
      </trkpt>
      <trkpt lat="45.95723" lon="4.87948">
        <ele>283</ele>
        <time>2017-06-16T08:55:33Z</time>
      </trkpt>
      <trkpt lat="45.95726" lon="4.87945">
        <ele>283</ele>
        <time>2017-06-16T08:55:34Z</time>
      </trkpt>
      <trkpt lat="45.9573" lon="4.87942">
        <ele>283</ele>
        <time>2017-06-16T08:55:35Z</time>
      </trkpt>
      <trkpt lat="45.95734" lon="4.87938">
        <ele>284</ele>
        <time>2017-06-16T08:55:36Z</time>
      </trkpt>
      <trkpt lat="45.95738" lon="4.87932">
        <ele>284</ele>
        <time>2017-06-16T08:55:37Z</time>
      </trkpt>
      <trkpt lat="45.95742" lon="4.87928">
        <ele>284</ele>
        <time>2017-06-16T08:55:38Z</time>
      </trkpt>
      <trkpt lat="45.9575" lon="4.87923">
        <ele>285</ele>
        <time>2017-06-16T08:55:40Z</time>
      </trkpt>
      <trkpt lat="45.95754" lon="4.87921">
        <ele>285</ele>
        <time>2017-06-16T08:55:41Z</time>
      </trkpt>
      <trkpt lat="45.9576" lon="4.87917">
        <ele>286</ele>
        <time>2017-06-16T08:55:43Z</time>
      </trkpt>
      <trkpt lat="45.95763" lon="4.87915">
        <ele>286</ele>
        <time>2017-06-16T08:55:44Z</time>
      </trkpt>
      <trkpt lat="45.95769" lon="4.87912">
        <ele>286</ele>
        <time>2017-06-16T08:55:46Z</time>
      </trkpt>
      <trkpt lat="45.95771" lon="4.8791">
        <ele>286</ele>
        <time>2017-06-16T08:55:47Z</time>
      </trkpt>
      <trkpt lat="45.95777" lon="4.87906">
        <ele>286</ele>
        <time>2017-06-16T08:55:49Z</time>
      </trkpt>
      <trkpt lat="45.9578" lon="4.87904">
        <ele>286</ele>
        <time>2017-06-16T08:55:50Z</time>
      </trkpt>
      <trkpt lat="45.95787" lon="4.879">
        <ele>286</ele>
        <time>2017-06-16T08:55:53Z</time>
      </trkpt>
      <trkpt lat="45.95789" lon="4.87898">
        <ele>286</ele>
        <time>2017-06-16T08:55:54Z</time>
      </trkpt>
      <trkpt lat="45.95797" lon="4.87892">
        <ele>287</ele>
        <time>2017-06-16T08:55:57Z</time>
      </trkpt>
      <trkpt lat="45.95799" lon="4.87891">
        <ele>287</ele>
        <time>2017-06-16T08:55:58Z</time>
      </trkpt>
      <trkpt lat="45.95807" lon="4.87889">
        <ele>287</ele>
        <time>2017-06-16T08:56:01Z</time>
      </trkpt>
      <trkpt lat="45.9581" lon="4.87888">
        <ele>287</ele>
        <time>2017-06-16T08:56:02Z</time>
      </trkpt>
      <trkpt lat="45.95817" lon="4.87887">
        <ele>287</ele>
        <time>2017-06-16T08:56:04Z</time>
      </trkpt>
      <trkpt lat="45.9582" lon="4.87887">
        <ele>287</ele>
        <time>2017-06-16T08:56:05Z</time>
      </trkpt>
      <trkpt lat="45.95827" lon="4.87886">
        <ele>287</ele>
        <time>2017-06-16T08:56:07Z</time>
      </trkpt>
      <trkpt lat="45.9583" lon="4.87884">
        <ele>287</ele>
        <time>2017-06-16T08:56:08Z</time>
      </trkpt>
      <trkpt lat="45.95836" lon="4.87881">
        <ele>289</ele>
        <time>2017-06-16T08:56:10Z</time>
      </trkpt>
      <trkpt lat="45.95839" lon="4.87879">
        <ele>289</ele>
        <time>2017-06-16T08:56:11Z</time>
      </trkpt>
      <trkpt lat="45.95844" lon="4.87872">
        <ele>289</ele>
        <time>2017-06-16T08:56:13Z</time>
      </trkpt>
      <trkpt lat="45.95847" lon="4.87868">
        <ele>289</ele>
        <time>2017-06-16T08:56:14Z</time>
      </trkpt>
      <trkpt lat="45.95853" lon="4.8786">
        <ele>289</ele>
        <time>2017-06-16T08:56:16Z</time>
      </trkpt>
      <trkpt lat="45.95856" lon="4.87857">
        <ele>289</ele>
        <time>2017-06-16T08:56:17Z</time>
      </trkpt>
      <trkpt lat="45.95863" lon="4.87851">
        <ele>289</ele>
        <time>2017-06-16T08:56:19Z</time>
      </trkpt>
      <trkpt lat="45.95866" lon="4.87848">
        <ele>289</ele>
        <time>2017-06-16T08:56:20Z</time>
      </trkpt>
      <trkpt lat="45.95871" lon="4.87841">
        <ele>289</ele>
        <time>2017-06-16T08:56:22Z</time>
      </trkpt>
      <trkpt lat="45.95875" lon="4.87838">
        <ele>289</ele>
        <time>2017-06-16T08:56:23Z</time>
      </trkpt>
      <trkpt lat="45.95881" lon="4.87831">
        <ele>288</ele>
        <time>2017-06-16T08:56:25Z</time>
      </trkpt>
      <trkpt lat="45.95884" lon="4.87828">
        <ele>288</ele>
        <time>2017-06-16T08:56:26Z</time>
      </trkpt>
      <trkpt lat="45.95891" lon="4.87821">
        <ele>288</ele>
        <time>2017-06-16T08:56:28Z</time>
      </trkpt>
      <trkpt lat="45.95894" lon="4.87817">
        <ele>288</ele>
        <time>2017-06-16T08:56:29Z</time>
      </trkpt>
      <trkpt lat="45.95899" lon="4.87808">
        <ele>288</ele>
        <time>2017-06-16T08:56:31Z</time>
      </trkpt>
      <trkpt lat="45.95902" lon="4.87804">
        <ele>288</ele>
        <time>2017-06-16T08:56:32Z</time>
      </trkpt>
      <trkpt lat="45.95907" lon="4.87795">
        <ele>288</ele>
        <time>2017-06-16T08:56:34Z</time>
      </trkpt>
      <trkpt lat="45.9591" lon="4.87791">
        <ele>288</ele>
        <time>2017-06-16T08:56:35Z</time>
      </trkpt>
      <trkpt lat="45.95914" lon="4.87782">
        <ele>288</ele>
        <time>2017-06-16T08:56:37Z</time>
      </trkpt>
      <trkpt lat="45.95917" lon="4.87776">
        <ele>289</ele>
        <time>2017-06-16T08:56:38Z</time>
      </trkpt>
      <trkpt lat="45.95922" lon="4.87768">
        <ele>289</ele>
        <time>2017-06-16T08:56:40Z</time>
      </trkpt>
      <trkpt lat="45.95925" lon="4.87763">
        <ele>288</ele>
        <time>2017-06-16T08:56:41Z</time>
      </trkpt>
      <trkpt lat="45.9593" lon="4.87756">
        <ele>288</ele>
        <time>2017-06-16T08:56:43Z</time>
      </trkpt>
      <trkpt lat="45.95932" lon="4.87752">
        <ele>288</ele>
        <time>2017-06-16T08:56:44Z</time>
      </trkpt>
      <trkpt lat="45.95938" lon="4.87745">
        <ele>288</ele>
        <time>2017-06-16T08:56:46Z</time>
      </trkpt>
      <trkpt lat="45.9594" lon="4.87741">
        <ele>288</ele>
        <time>2017-06-16T08:56:47Z</time>
      </trkpt>
      <trkpt lat="45.95946" lon="4.87732">
        <ele>289</ele>
        <time>2017-06-16T08:56:49Z</time>
      </trkpt>
      <trkpt lat="45.95948" lon="4.87728">
        <ele>289</ele>
        <time>2017-06-16T08:56:50Z</time>
      </trkpt>
      <trkpt lat="45.95954" lon="4.87721">
        <ele>289</ele>
        <time>2017-06-16T08:56:52Z</time>
      </trkpt>
      <trkpt lat="45.95957" lon="4.87717">
        <ele>289</ele>
        <time>2017-06-16T08:56:53Z</time>
      </trkpt>
      <trkpt lat="45.95962" lon="4.87709">
        <ele>289</ele>
        <time>2017-06-16T08:56:55Z</time>
      </trkpt>
      <trkpt lat="45.95965" lon="4.87706">
        <ele>289</ele>
        <time>2017-06-16T08:56:56Z</time>
      </trkpt>
      <trkpt lat="45.95971" lon="4.87698">
        <ele>289</ele>
        <time>2017-06-16T08:56:58Z</time>
      </trkpt>
      <trkpt lat="45.95974" lon="4.87694">
        <ele>289</ele>
        <time>2017-06-16T08:56:59Z</time>
      </trkpt>
      <trkpt lat="45.95981" lon="4.87686">
        <ele>289</ele>
        <time>2017-06-16T08:57:01Z</time>
      </trkpt>
      <trkpt lat="45.95985" lon="4.87682">
        <ele>289</ele>
        <time>2017-06-16T08:57:02Z</time>
      </trkpt>
      <trkpt lat="45.95991" lon="4.87674">
        <ele>290</ele>
        <time>2017-06-16T08:57:04Z</time>
      </trkpt>
      <trkpt lat="45.95994" lon="4.8767">
        <ele>290</ele>
        <time>2017-06-16T08:57:05Z</time>
      </trkpt>
      <trkpt lat="45.96001" lon="4.87663">
        <ele>290</ele>
        <time>2017-06-16T08:57:07Z</time>
      </trkpt>
      <trkpt lat="45.96005" lon="4.8766">
        <ele>290</ele>
        <time>2017-06-16T08:57:08Z</time>
      </trkpt>
      <trkpt lat="45.96012" lon="4.87653">
        <ele>289</ele>
        <time>2017-06-16T08:57:10Z</time>
      </trkpt>
      <trkpt lat="45.96016" lon="4.87649">
        <ele>289</ele>
        <time>2017-06-16T08:57:11Z</time>
      </trkpt>
      <trkpt lat="45.96022" lon="4.87641">
        <ele>289</ele>
        <time>2017-06-16T08:57:13Z</time>
      </trkpt>
      <trkpt lat="45.96025" lon="4.87637">
        <ele>289</ele>
        <time>2017-06-16T08:57:14Z</time>
      </trkpt>
      <trkpt lat="45.96031" lon="4.8763">
        <ele>289</ele>
        <time>2017-06-16T08:57:16Z</time>
      </trkpt>
      <trkpt lat="45.96034" lon="4.87627">
        <ele>289</ele>
        <time>2017-06-16T08:57:17Z</time>
      </trkpt>
      <trkpt lat="45.9604" lon="4.8762">
        <ele>289</ele>
        <time>2017-06-16T08:57:19Z</time>
      </trkpt>
      <trkpt lat="45.96044" lon="4.87617">
        <ele>289</ele>
        <time>2017-06-16T08:57:20Z</time>
      </trkpt>
      <trkpt lat="45.96047" lon="4.87613">
        <ele>289</ele>
        <time>2017-06-16T08:57:21Z</time>
      </trkpt>
      <trkpt lat="45.96051" lon="4.87608">
        <ele>289</ele>
        <time>2017-06-16T08:57:22Z</time>
      </trkpt>
      <trkpt lat="45.96054" lon="4.87604">
        <ele>289</ele>
        <time>2017-06-16T08:57:23Z</time>
      </trkpt>
      <trkpt lat="45.96058" lon="4.876">
        <ele>288</ele>
        <time>2017-06-16T08:57:24Z</time>
      </trkpt>
      <trkpt lat="45.96062" lon="4.87595">
        <ele>288</ele>
        <time>2017-06-16T08:57:25Z</time>
      </trkpt>
      <trkpt lat="45.96066" lon="4.87591">
        <ele>288</ele>
        <time>2017-06-16T08:57:26Z</time>
      </trkpt>
      <trkpt lat="45.9607" lon="4.87586">
        <ele>288</ele>
        <time>2017-06-16T08:57:27Z</time>
      </trkpt>
      <trkpt lat="45.96074" lon="4.87582">
        <ele>288</ele>
        <time>2017-06-16T08:57:28Z</time>
      </trkpt>
      <trkpt lat="45.96078" lon="4.87578">
        <ele>288</ele>
        <time>2017-06-16T08:57:29Z</time>
      </trkpt>
      <trkpt lat="45.96082" lon="4.87573">
        <ele>288</ele>
        <time>2017-06-16T08:57:30Z</time>
      </trkpt>
      <trkpt lat="45.96086" lon="4.87568">
        <ele>287</ele>
        <time>2017-06-16T08:57:31Z</time>
      </trkpt>
      <trkpt lat="45.96089" lon="4.87564">
        <ele>287</ele>
        <time>2017-06-16T08:57:32Z</time>
      </trkpt>
      <trkpt lat="45.96093" lon="4.87559">
        <ele>287</ele>
        <time>2017-06-16T08:57:33Z</time>
      </trkpt>
      <trkpt lat="45.96097" lon="4.87555">
        <ele>287</ele>
        <time>2017-06-16T08:57:34Z</time>
      </trkpt>
      <trkpt lat="45.96101" lon="4.87551">
        <ele>287</ele>
        <time>2017-06-16T08:57:35Z</time>
      </trkpt>
      <trkpt lat="45.96105" lon="4.87547">
        <ele>287</ele>
        <time>2017-06-16T08:57:36Z</time>
      </trkpt>
      <trkpt lat="45.96109" lon="4.87542">
        <ele>287</ele>
        <time>2017-06-16T08:57:37Z</time>
      </trkpt>
      <trkpt lat="45.96113" lon="4.87537">
        <ele>287</ele>
        <time>2017-06-16T08:57:38Z</time>
      </trkpt>
      <trkpt lat="45.96117" lon="4.87532">
        <ele>287</ele>
        <time>2017-06-16T08:57:39Z</time>
      </trkpt>
      <trkpt lat="45.96122" lon="4.87527">
        <ele>286</ele>
        <time>2017-06-16T08:57:40Z</time>
      </trkpt>
      <trkpt lat="45.96126" lon="4.87522">
        <ele>286</ele>
        <time>2017-06-16T08:57:41Z</time>
      </trkpt>
      <trkpt lat="45.96131" lon="4.87517">
        <ele>286</ele>
        <time>2017-06-16T08:57:42Z</time>
      </trkpt>
      <trkpt lat="45.96135" lon="4.87512">
        <ele>286</ele>
        <time>2017-06-16T08:57:43Z</time>
      </trkpt>
      <trkpt lat="45.9614" lon="4.87507">
        <ele>286</ele>
        <time>2017-06-16T08:57:44Z</time>
      </trkpt>
      <trkpt lat="45.96144" lon="4.87502">
        <ele>286</ele>
        <time>2017-06-16T08:57:45Z</time>
      </trkpt>
      <trkpt lat="45.96149" lon="4.87497">
        <ele>285</ele>
        <time>2017-06-16T08:57:46Z</time>
      </trkpt>
      <trkpt lat="45.96154" lon="4.87491">
        <ele>285</ele>
        <time>2017-06-16T08:57:47Z</time>
      </trkpt>
      <trkpt lat="45.96158" lon="4.87486">
        <ele>285</ele>
        <time>2017-06-16T08:57:48Z</time>
      </trkpt>
      <trkpt lat="45.96163" lon="4.87481">
        <ele>285</ele>
        <time>2017-06-16T08:57:49Z</time>
      </trkpt>
      <trkpt lat="45.96167" lon="4.87476">
        <ele>284</ele>
        <time>2017-06-16T08:57:50Z</time>
      </trkpt>
      <trkpt lat="45.96172" lon="4.8747">
        <ele>284</ele>
        <time>2017-06-16T08:57:51Z</time>
      </trkpt>
      <trkpt lat="45.96176" lon="4.87465">
        <ele>284</ele>
        <time>2017-06-16T08:57:52Z</time>
      </trkpt>
      <trkpt lat="45.96181" lon="4.8746">
        <ele>284</ele>
        <time>2017-06-16T08:57:53Z</time>
      </trkpt>
      <trkpt lat="45.96186" lon="4.87454">
        <ele>284</ele>
        <time>2017-06-16T08:57:54Z</time>
      </trkpt>
      <trkpt lat="45.9619" lon="4.87449">
        <ele>284</ele>
        <time>2017-06-16T08:57:55Z</time>
      </trkpt>
      <trkpt lat="45.96195" lon="4.87444">
        <ele>284</ele>
        <time>2017-06-16T08:57:56Z</time>
      </trkpt>
      <trkpt lat="45.96199" lon="4.87439">
        <ele>284</ele>
        <time>2017-06-16T08:57:57Z</time>
      </trkpt>
      <trkpt lat="45.96203" lon="4.87434">
        <ele>284</ele>
        <time>2017-06-16T08:57:58Z</time>
      </trkpt>
      <trkpt lat="45.96207" lon="4.87429">
        <ele>284</ele>
        <time>2017-06-16T08:57:59Z</time>
      </trkpt>
      <trkpt lat="45.96212" lon="4.87424">
        <ele>284</ele>
        <time>2017-06-16T08:58:00Z</time>
      </trkpt>
      <trkpt lat="45.96216" lon="4.8742">
        <ele>284</ele>
        <time>2017-06-16T08:58:01Z</time>
      </trkpt>
      <trkpt lat="45.9622" lon="4.87414">
        <ele>283</ele>
        <time>2017-06-16T08:58:02Z</time>
      </trkpt>
      <trkpt lat="45.96224" lon="4.87409">
        <ele>283</ele>
        <time>2017-06-16T08:58:03Z</time>
      </trkpt>
      <trkpt lat="45.96229" lon="4.87403">
        <ele>283</ele>
        <time>2017-06-16T08:58:04Z</time>
      </trkpt>
      <trkpt lat="45.96233" lon="4.87398">
        <ele>283</ele>
        <time>2017-06-16T08:58:05Z</time>
      </trkpt>
      <trkpt lat="45.96237" lon="4.87393">
        <ele>283</ele>
        <time>2017-06-16T08:58:06Z</time>
      </trkpt>
      <trkpt lat="45.96241" lon="4.87388">
        <ele>283</ele>
        <time>2017-06-16T08:58:07Z</time>
      </trkpt>
      <trkpt lat="45.96245" lon="4.87383">
        <ele>283</ele>
        <time>2017-06-16T08:58:08Z</time>
      </trkpt>
      <trkpt lat="45.96249" lon="4.87378">
        <ele>283</ele>
        <time>2017-06-16T08:58:09Z</time>
      </trkpt>
      <trkpt lat="45.96253" lon="4.87374">
        <ele>283</ele>
        <time>2017-06-16T08:58:10Z</time>
      </trkpt>
      <trkpt lat="45.96257" lon="4.87369">
        <ele>283</ele>
        <time>2017-06-16T08:58:11Z</time>
      </trkpt>
      <trkpt lat="45.96261" lon="4.87363">
        <ele>283</ele>
        <time>2017-06-16T08:58:12Z</time>
      </trkpt>
      <trkpt lat="45.96265" lon="4.87359">
        <ele>283</ele>
        <time>2017-06-16T08:58:13Z</time>
      </trkpt>
      <trkpt lat="45.96269" lon="4.87354">
        <ele>283</ele>
        <time>2017-06-16T08:58:14Z</time>
      </trkpt>
      <trkpt lat="45.96273" lon="4.87349">
        <ele>283</ele>
        <time>2017-06-16T08:58:15Z</time>
      </trkpt>
      <trkpt lat="45.96277" lon="4.87344">
        <ele>284</ele>
        <time>2017-06-16T08:58:16Z</time>
      </trkpt>
      <trkpt lat="45.96281" lon="4.87339">
        <ele>284</ele>
        <time>2017-06-16T08:58:17Z</time>
      </trkpt>
      <trkpt lat="45.96284" lon="4.87334">
        <ele>284</ele>
        <time>2017-06-16T08:58:18Z</time>
      </trkpt>
      <trkpt lat="45.96288" lon="4.8733">
        <ele>283</ele>
        <time>2017-06-16T08:58:19Z</time>
      </trkpt>
      <trkpt lat="45.96292" lon="4.87325">
        <ele>283</ele>
        <time>2017-06-16T08:58:20Z</time>
      </trkpt>
      <trkpt lat="45.96296" lon="4.87319">
        <ele>283</ele>
        <time>2017-06-16T08:58:21Z</time>
      </trkpt>
      <trkpt lat="45.96301" lon="4.87314">
        <ele>283</ele>
        <time>2017-06-16T08:58:22Z</time>
      </trkpt>
      <trkpt lat="45.96305" lon="4.87308">
        <ele>283</ele>
        <time>2017-06-16T08:58:23Z</time>
      </trkpt>
      <trkpt lat="45.96309" lon="4.87303">
        <ele>283</ele>
        <time>2017-06-16T08:58:24Z</time>
      </trkpt>
      <trkpt lat="45.96313" lon="4.87298">
        <ele>283</ele>
        <time>2017-06-16T08:58:25Z</time>
      </trkpt>
      <trkpt lat="45.96317" lon="4.87292">
        <ele>283</ele>
        <time>2017-06-16T08:58:26Z</time>
      </trkpt>
      <trkpt lat="45.96321" lon="4.87287">
        <ele>283</ele>
        <time>2017-06-16T08:58:27Z</time>
      </trkpt>
      <trkpt lat="45.96325" lon="4.87282">
        <ele>283</ele>
        <time>2017-06-16T08:58:28Z</time>
      </trkpt>
      <trkpt lat="45.96328" lon="4.87277">
        <ele>283</ele>
        <time>2017-06-16T08:58:29Z</time>
      </trkpt>
      <trkpt lat="45.96332" lon="4.87273">
        <ele>283</ele>
        <time>2017-06-16T08:58:30Z</time>
      </trkpt>
      <trkpt lat="45.96336" lon="4.87268">
        <ele>283</ele>
        <time>2017-06-16T08:58:31Z</time>
      </trkpt>
      <trkpt lat="45.96339" lon="4.87263">
        <ele>283</ele>
        <time>2017-06-16T08:58:32Z</time>
      </trkpt>
      <trkpt lat="45.96343" lon="4.87258">
        <ele>283</ele>
        <time>2017-06-16T08:58:33Z</time>
      </trkpt>
      <trkpt lat="45.96347" lon="4.87253">
        <ele>283</ele>
        <time>2017-06-16T08:58:34Z</time>
      </trkpt>
      <trkpt lat="45.96351" lon="4.87248">
        <ele>283</ele>
        <time>2017-06-16T08:58:35Z</time>
      </trkpt>
      <trkpt lat="45.96355" lon="4.87244">
        <ele>282</ele>
        <time>2017-06-16T08:58:36Z</time>
      </trkpt>
      <trkpt lat="45.96358" lon="4.87239">
        <ele>282</ele>
        <time>2017-06-16T08:58:37Z</time>
      </trkpt>
      <trkpt lat="45.96362" lon="4.87234">
        <ele>282</ele>
        <time>2017-06-16T08:58:38Z</time>
      </trkpt>
      <trkpt lat="45.96366" lon="4.87229">
        <ele>282</ele>
        <time>2017-06-16T08:58:39Z</time>
      </trkpt>
      <trkpt lat="45.9637" lon="4.87223">
        <ele>282</ele>
        <time>2017-06-16T08:58:40Z</time>
      </trkpt>
      <trkpt lat="45.96374" lon="4.87218">
        <ele>282</ele>
        <time>2017-06-16T08:58:41Z</time>
      </trkpt>
      <trkpt lat="45.96378" lon="4.87213">
        <ele>282</ele>
        <time>2017-06-16T08:58:42Z</time>
      </trkpt>
      <trkpt lat="45.96382" lon="4.87207">
        <ele>282</ele>
        <time>2017-06-16T08:58:43Z</time>
      </trkpt>
      <trkpt lat="45.96386" lon="4.87202">
        <ele>282</ele>
        <time>2017-06-16T08:58:44Z</time>
      </trkpt>
      <trkpt lat="45.96389" lon="4.87197">
        <ele>282</ele>
        <time>2017-06-16T08:58:45Z</time>
      </trkpt>
      <trkpt lat="45.96393" lon="4.87192">
        <ele>282</ele>
        <time>2017-06-16T08:58:46Z</time>
      </trkpt>
      <trkpt lat="45.96397" lon="4.87187">
        <ele>282</ele>
        <time>2017-06-16T08:58:47Z</time>
      </trkpt>
      <trkpt lat="45.96401" lon="4.87182">
        <ele>282</ele>
        <time>2017-06-16T08:58:48Z</time>
      </trkpt>
      <trkpt lat="45.96404" lon="4.87177">
        <ele>281</ele>
        <time>2017-06-16T08:58:49Z</time>
      </trkpt>
      <trkpt lat="45.96407" lon="4.87172">
        <ele>281</ele>
        <time>2017-06-16T08:58:50Z</time>
      </trkpt>
      <trkpt lat="45.96411" lon="4.87168">
        <ele>281</ele>
        <time>2017-06-16T08:58:51Z</time>
      </trkpt>
      <trkpt lat="45.96414" lon="4.87163">
        <ele>281</ele>
        <time>2017-06-16T08:58:52Z</time>
      </trkpt>
      <trkpt lat="45.96418" lon="4.87159">
        <ele>281</ele>
        <time>2017-06-16T08:58:53Z</time>
      </trkpt>
      <trkpt lat="45.96422" lon="4.87154">
        <ele>281</ele>
        <time>2017-06-16T08:58:54Z</time>
      </trkpt>
      <trkpt lat="45.96425" lon="4.87149">
        <ele>281</ele>
        <time>2017-06-16T08:58:55Z</time>
      </trkpt>
      <trkpt lat="45.96429" lon="4.87144">
        <ele>281</ele>
        <time>2017-06-16T08:58:56Z</time>
      </trkpt>
      <trkpt lat="45.96433" lon="4.87139">
        <ele>281</ele>
        <time>2017-06-16T08:58:57Z</time>
      </trkpt>
      <trkpt lat="45.96436" lon="4.87134">
        <ele>281</ele>
        <time>2017-06-16T08:58:58Z</time>
      </trkpt>
      <trkpt lat="45.9644" lon="4.87129">
        <ele>281</ele>
        <time>2017-06-16T08:58:59Z</time>
      </trkpt>
      <trkpt lat="45.96444" lon="4.87124">
        <ele>281</ele>
        <time>2017-06-16T08:59:00Z</time>
      </trkpt>
      <trkpt lat="45.96448" lon="4.87119">
        <ele>281</ele>
        <time>2017-06-16T08:59:01Z</time>
      </trkpt>
      <trkpt lat="45.96452" lon="4.87114">
        <ele>281</ele>
        <time>2017-06-16T08:59:02Z</time>
      </trkpt>
      <trkpt lat="45.96458" lon="4.87106">
        <ele>281</ele>
        <time>2017-06-16T08:59:04Z</time>
      </trkpt>
      <trkpt lat="45.96461" lon="4.87101">
        <ele>282</ele>
        <time>2017-06-16T08:59:05Z</time>
      </trkpt>
      <trkpt lat="45.96465" lon="4.87096">
        <ele>282</ele>
        <time>2017-06-16T08:59:06Z</time>
      </trkpt>
      <trkpt lat="45.96469" lon="4.87091">
        <ele>282</ele>
        <time>2017-06-16T08:59:07Z</time>
      </trkpt>
      <trkpt lat="45.96474" lon="4.87086">
        <ele>282</ele>
        <time>2017-06-16T08:59:08Z</time>
      </trkpt>
      <trkpt lat="45.96478" lon="4.8708">
        <ele>282</ele>
        <time>2017-06-16T08:59:09Z</time>
      </trkpt>
      <trkpt lat="45.96482" lon="4.87074">
        <ele>282</ele>
        <time>2017-06-16T08:59:10Z</time>
      </trkpt>
      <trkpt lat="45.96486" lon="4.87069">
        <ele>282</ele>
        <time>2017-06-16T08:59:11Z</time>
      </trkpt>
      <trkpt lat="45.9649" lon="4.87063">
        <ele>282</ele>
        <time>2017-06-16T08:59:12Z</time>
      </trkpt>
      <trkpt lat="45.96493" lon="4.87059">
        <ele>281</ele>
        <time>2017-06-16T08:59:13Z</time>
      </trkpt>
      <trkpt lat="45.96499" lon="4.87051">
        <ele>281</ele>
        <time>2017-06-16T08:59:15Z</time>
      </trkpt>
      <trkpt lat="45.96502" lon="4.87049">
        <ele>282</ele>
        <time>2017-06-16T08:59:16Z</time>
      </trkpt>
      <trkpt lat="45.96509" lon="4.87049">
        <ele>283</ele>
        <time>2017-06-16T08:59:18Z</time>
      </trkpt>
      <trkpt lat="45.96511" lon="4.87051">
        <ele>283</ele>
        <time>2017-06-16T08:59:19Z</time>
      </trkpt>
      <trkpt lat="45.96517" lon="4.8706">
        <ele>283</ele>
        <time>2017-06-16T08:59:22Z</time>
      </trkpt>
      <trkpt lat="45.96519" lon="4.87063">
        <ele>283</ele>
        <time>2017-06-16T08:59:23Z</time>
      </trkpt>
      <trkpt lat="45.96528" lon="4.87066">
        <ele>283</ele>
        <time>2017-06-16T08:59:26Z</time>
      </trkpt>
      <trkpt lat="45.9653" lon="4.87065">
        <ele>283</ele>
        <time>2017-06-16T08:59:27Z</time>
      </trkpt>
      <trkpt lat="45.96536" lon="4.8707">
        <ele>283</ele>
        <time>2017-06-16T08:59:32Z</time>
      </trkpt>
      <trkpt lat="45.96537" lon="4.87073">
        <ele>283</ele>
        <time>2017-06-16T08:59:33Z</time>
      </trkpt>
      <trkpt lat="45.96544" lon="4.87079">
        <ele>283</ele>
        <time>2017-06-16T08:59:37Z</time>
      </trkpt>
      <trkpt lat="45.96546" lon="4.8708">
        <ele>283</ele>
        <time>2017-06-16T08:59:38Z</time>
      </trkpt>
      <trkpt lat="45.96554" lon="4.87079">
        <ele>283</ele>
        <time>2017-06-16T08:59:41Z</time>
      </trkpt>
      <trkpt lat="45.96556" lon="4.87076">
        <ele>283</ele>
        <time>2017-06-16T08:59:42Z</time>
      </trkpt>
      <trkpt lat="45.96559" lon="4.87067">
        <ele>283</ele>
        <time>2017-06-16T08:59:44Z</time>
      </trkpt>
      <trkpt lat="45.96559" lon="4.87061">
        <ele>283</ele>
        <time>2017-06-16T08:59:45Z</time>
      </trkpt>
      <trkpt lat="45.9656" lon="4.87048">
        <ele>283</ele>
        <time>2017-06-16T08:59:47Z</time>
      </trkpt>
      <trkpt lat="45.9656" lon="4.87042">
        <ele>283</ele>
        <time>2017-06-16T08:59:48Z</time>
      </trkpt>
      <trkpt lat="45.96558" lon="4.87032">
        <ele>283</ele>
        <time>2017-06-16T08:59:50Z</time>
      </trkpt>
      <trkpt lat="45.96556" lon="4.87029">
        <ele>283</ele>
        <time>2017-06-16T08:59:51Z</time>
      </trkpt>
      <trkpt lat="45.96551" lon="4.87027">
        <ele>283</ele>
        <time>2017-06-16T08:59:54Z</time>
      </trkpt>
      <trkpt lat="45.96551" lon="4.87028">
        <ele>283</ele>
        <time>2017-06-16T08:59:55Z</time>
      </trkpt>
      <trkpt lat="45.96551" lon="4.87029">
        <ele>283</ele>
        <time>2017-06-16T09:06:25Z</time>
      </trkpt>
      <trkpt lat="45.96551" lon="4.87029">
        <ele>283</ele>
        <time>2017-06-16T09:06:26Z</time>
      </trkpt>
      <trkpt lat="45.96542" lon="4.87028">
        <ele>283</ele>
        <time>2017-06-16T09:06:37Z</time>
      </trkpt>
      <trkpt lat="45.96542" lon="4.87029">
        <ele>283</ele>
        <time>2017-06-16T09:06:38Z</time>
      </trkpt>
      <trkpt lat="45.96535" lon="4.87029">
        <ele>283</ele>
        <time>2017-06-16T09:07:25Z</time>
      </trkpt>
      <trkpt lat="45.96531" lon="4.87031">
        <ele>283</ele>
        <time>2017-06-16T09:07:26Z</time>
      </trkpt>
      <trkpt lat="45.96536" lon="4.87042">
        <ele>283</ele>
        <time>2017-06-16T09:07:34Z</time>
      </trkpt>
      <trkpt lat="45.96536" lon="4.87042">
        <ele>283</ele>
        <time>2017-06-16T09:07:35Z</time>
      </trkpt>
      <trkpt lat="45.96543" lon="4.87035">
        <ele>283</ele>
        <time>2017-06-16T09:08:19Z</time>
      </trkpt>
      <trkpt lat="45.96544" lon="4.87036">
        <ele>283</ele>
        <time>2017-06-16T09:08:20Z</time>
      </trkpt>
      <trkpt lat="45.96546" lon="4.87024">
        <ele>283</ele>
        <time>2017-06-16T09:09:03Z</time>
      </trkpt>
      <trkpt lat="45.96546" lon="4.87022">
        <ele>283</ele>
        <time>2017-06-16T09:09:04Z</time>
      </trkpt>
      <trkpt lat="45.96545" lon="4.87009">
        <ele>283</ele>
        <time>2017-06-16T09:09:08Z</time>
      </trkpt>
      <trkpt lat="45.96544" lon="4.87006">
        <ele>283</ele>
        <time>2017-06-16T09:09:09Z</time>
      </trkpt>
      <trkpt lat="45.96544" lon="4.86996">
        <ele>283</ele>
        <time>2017-06-16T09:09:11Z</time>
      </trkpt>
      <trkpt lat="45.96545" lon="4.86992">
        <ele>283</ele>
        <time>2017-06-16T09:09:12Z</time>
      </trkpt>
      <trkpt lat="45.96549" lon="4.86985">
        <ele>283</ele>
        <time>2017-06-16T09:09:14Z</time>
      </trkpt>
      <trkpt lat="45.96552" lon="4.86981">
        <ele>283</ele>
        <time>2017-06-16T09:09:15Z</time>
      </trkpt>
      <trkpt lat="45.96556" lon="4.86973">
        <ele>283</ele>
        <time>2017-06-16T09:09:17Z</time>
      </trkpt>
      <trkpt lat="45.96558" lon="4.8697">
        <ele>283</ele>
        <time>2017-06-16T09:09:18Z</time>
      </trkpt>
      <trkpt lat="45.96563" lon="4.86962">
        <ele>283</ele>
        <time>2017-06-16T09:09:20Z</time>
      </trkpt>
      <trkpt lat="45.96566" lon="4.86957">
        <ele>284</ele>
        <time>2017-06-16T09:09:21Z</time>
      </trkpt>
      <trkpt lat="45.96571" lon="4.86948">
        <ele>284</ele>
        <time>2017-06-16T09:09:23Z</time>
      </trkpt>
      <trkpt lat="45.96574" lon="4.86943">
        <ele>284</ele>
        <time>2017-06-16T09:09:24Z</time>
      </trkpt>
      <trkpt lat="45.9658" lon="4.86934">
        <ele>284</ele>
        <time>2017-06-16T09:09:26Z</time>
      </trkpt>
      <trkpt lat="45.96582" lon="4.8693">
        <ele>284</ele>
        <time>2017-06-16T09:09:27Z</time>
      </trkpt>
      <trkpt lat="45.96588" lon="4.86921">
        <ele>285</ele>
        <time>2017-06-16T09:09:29Z</time>
      </trkpt>
      <trkpt lat="45.96591" lon="4.86916">
        <ele>286</ele>
        <time>2017-06-16T09:09:30Z</time>
      </trkpt>
      <trkpt lat="45.96597" lon="4.86907">
        <ele>286</ele>
        <time>2017-06-16T09:09:32Z</time>
      </trkpt>
      <trkpt lat="45.96599" lon="4.86903">
        <ele>286</ele>
        <time>2017-06-16T09:09:33Z</time>
      </trkpt>
      <trkpt lat="45.96603" lon="4.86895">
        <ele>286</ele>
        <time>2017-06-16T09:09:35Z</time>
      </trkpt>
      <trkpt lat="45.96606" lon="4.86891">
        <ele>287</ele>
        <time>2017-06-16T09:09:36Z</time>
      </trkpt>
      <trkpt lat="45.9661" lon="4.86882">
        <ele>287</ele>
        <time>2017-06-16T09:09:38Z</time>
      </trkpt>
      <trkpt lat="45.96613" lon="4.86878">
        <ele>287</ele>
        <time>2017-06-16T09:09:39Z</time>
      </trkpt>
      <trkpt lat="45.96618" lon="4.86868">
        <ele>287</ele>
        <time>2017-06-16T09:09:41Z</time>
      </trkpt>
      <trkpt lat="45.9662" lon="4.86863">
        <ele>287</ele>
        <time>2017-06-16T09:09:42Z</time>
      </trkpt>
      <trkpt lat="45.96626" lon="4.86854">
        <ele>287</ele>
        <time>2017-06-16T09:09:44Z</time>
      </trkpt>
      <trkpt lat="45.96629" lon="4.8685">
        <ele>287</ele>
        <time>2017-06-16T09:09:45Z</time>
      </trkpt>
      <trkpt lat="45.96634" lon="4.86841">
        <ele>287</ele>
        <time>2017-06-16T09:09:47Z</time>
      </trkpt>
      <trkpt lat="45.96637" lon="4.86837">
        <ele>287</ele>
        <time>2017-06-16T09:09:48Z</time>
      </trkpt>
      <trkpt lat="45.96642" lon="4.86828">
        <ele>288</ele>
        <time>2017-06-16T09:09:50Z</time>
      </trkpt>
      <trkpt lat="45.96645" lon="4.86823">
        <ele>288</ele>
        <time>2017-06-16T09:09:51Z</time>
      </trkpt>
      <trkpt lat="45.96651" lon="4.86813">
        <ele>288</ele>
        <time>2017-06-16T09:09:53Z</time>
      </trkpt>
      <trkpt lat="45.96653" lon="4.86809">
        <ele>288</ele>
        <time>2017-06-16T09:09:54Z</time>
      </trkpt>
      <trkpt lat="45.96658" lon="4.868">
        <ele>288</ele>
        <time>2017-06-16T09:09:56Z</time>
      </trkpt>
      <trkpt lat="45.96661" lon="4.86795">
        <ele>288</ele>
        <time>2017-06-16T09:09:57Z</time>
      </trkpt>
      <trkpt lat="45.96667" lon="4.86786">
        <ele>288</ele>
        <time>2017-06-16T09:09:59Z</time>
      </trkpt>
      <trkpt lat="45.96669" lon="4.86782">
        <ele>289</ele>
        <time>2017-06-16T09:10:00Z</time>
      </trkpt>
      <trkpt lat="45.96675" lon="4.86773">
        <ele>289</ele>
        <time>2017-06-16T09:10:02Z</time>
      </trkpt>
      <trkpt lat="45.96679" lon="4.86768">
        <ele>289</ele>
        <time>2017-06-16T09:10:03Z</time>
      </trkpt>
      <trkpt lat="45.96682" lon="4.86763">
        <ele>289</ele>
        <time>2017-06-16T09:10:04Z</time>
      </trkpt>
      <trkpt lat="45.96686" lon="4.86757">
        <ele>289</ele>
        <time>2017-06-16T09:10:05Z</time>
      </trkpt>
      <trkpt lat="45.96689" lon="4.86752">
        <ele>289</ele>
        <time>2017-06-16T09:10:06Z</time>
      </trkpt>
      <trkpt lat="45.96692" lon="4.86747">
        <ele>289</ele>
        <time>2017-06-16T09:10:07Z</time>
      </trkpt>
      <trkpt lat="45.96698" lon="4.86737">
        <ele>289</ele>
        <time>2017-06-16T09:10:09Z</time>
      </trkpt>
      <trkpt lat="45.96701" lon="4.86733">
        <ele>289</ele>
        <time>2017-06-16T09:10:10Z</time>
      </trkpt>
      <trkpt lat="45.96707" lon="4.86723">
        <ele>289</ele>
        <time>2017-06-16T09:10:12Z</time>
      </trkpt>
      <trkpt lat="45.9671" lon="4.86719">
        <ele>289</ele>
        <time>2017-06-16T09:10:13Z</time>
      </trkpt>
      <trkpt lat="45.96716" lon="4.8671">
        <ele>289</ele>
        <time>2017-06-16T09:10:15Z</time>
      </trkpt>
      <trkpt lat="45.96718" lon="4.86705">
        <ele>289</ele>
        <time>2017-06-16T09:10:16Z</time>
      </trkpt>
      <trkpt lat="45.96724" lon="4.86697">
        <ele>289</ele>
        <time>2017-06-16T09:10:18Z</time>
      </trkpt>
      <trkpt lat="45.96727" lon="4.86693">
        <ele>289</ele>
        <time>2017-06-16T09:10:19Z</time>
      </trkpt>
      <trkpt lat="45.96732" lon="4.86683">
        <ele>290</ele>
        <time>2017-06-16T09:10:21Z</time>
      </trkpt>
      <trkpt lat="45.96735" lon="4.86679">
        <ele>290</ele>
        <time>2017-06-16T09:10:22Z</time>
      </trkpt>
      <trkpt lat="45.9674" lon="4.8667">
        <ele>290</ele>
        <time>2017-06-16T09:10:24Z</time>
      </trkpt>
      <trkpt lat="45.96742" lon="4.86665">
        <ele>290</ele>
        <time>2017-06-16T09:10:25Z</time>
      </trkpt>
      <trkpt lat="45.96747" lon="4.86656">
        <ele>290</ele>
        <time>2017-06-16T09:10:27Z</time>
      </trkpt>
      <trkpt lat="45.9675" lon="4.86651">
        <ele>290</ele>
        <time>2017-06-16T09:10:28Z</time>
      </trkpt>
      <trkpt lat="45.96755" lon="4.86643">
        <ele>290</ele>
        <time>2017-06-16T09:10:30Z</time>
      </trkpt>
      <trkpt lat="45.96757" lon="4.86638">
        <ele>290</ele>
        <time>2017-06-16T09:10:31Z</time>
      </trkpt>
      <trkpt lat="45.96763" lon="4.86629">
        <ele>289</ele>
        <time>2017-06-16T09:10:33Z</time>
      </trkpt>
      <trkpt lat="45.96766" lon="4.86624">
        <ele>289</ele>
        <time>2017-06-16T09:10:34Z</time>
      </trkpt>
      <trkpt lat="45.96771" lon="4.86614">
        <ele>289</ele>
        <time>2017-06-16T09:10:36Z</time>
      </trkpt>
      <trkpt lat="45.96774" lon="4.86609">
        <ele>289</ele>
        <time>2017-06-16T09:10:37Z</time>
      </trkpt>
      <trkpt lat="45.9678" lon="4.86601">
        <ele>289</ele>
        <time>2017-06-16T09:10:39Z</time>
      </trkpt>
      <trkpt lat="45.96783" lon="4.86597">
        <ele>289</ele>
        <time>2017-06-16T09:10:40Z</time>
      </trkpt>
      <trkpt lat="45.96788" lon="4.86589">
        <ele>289</ele>
        <time>2017-06-16T09:10:42Z</time>
      </trkpt>
      <trkpt lat="45.9679" lon="4.86585">
        <ele>289</ele>
        <time>2017-06-16T09:10:43Z</time>
      </trkpt>
      <trkpt lat="45.96795" lon="4.86576">
        <ele>290</ele>
        <time>2017-06-16T09:10:45Z</time>
      </trkpt>
      <trkpt lat="45.96798" lon="4.86571">
        <ele>290</ele>
        <time>2017-06-16T09:10:46Z</time>
      </trkpt>
      <trkpt lat="45.96804" lon="4.86562">
        <ele>290</ele>
        <time>2017-06-16T09:10:48Z</time>
      </trkpt>
      <trkpt lat="45.96807" lon="4.86558">
        <ele>290</ele>
        <time>2017-06-16T09:10:49Z</time>
      </trkpt>
      <trkpt lat="45.96812" lon="4.86549">
        <ele>290</ele>
        <time>2017-06-16T09:10:51Z</time>
      </trkpt>
      <trkpt lat="45.96815" lon="4.86545">
        <ele>290</ele>
        <time>2017-06-16T09:10:52Z</time>
      </trkpt>
      <trkpt lat="45.9682" lon="4.86536">
        <ele>290</ele>
        <time>2017-06-16T09:10:54Z</time>
      </trkpt>
      <trkpt lat="45.96822" lon="4.86532">
        <ele>290</ele>
        <time>2017-06-16T09:10:55Z</time>
      </trkpt>
      <trkpt lat="45.96827" lon="4.86523">
        <ele>289</ele>
        <time>2017-06-16T09:10:57Z</time>
      </trkpt>
      <trkpt lat="45.9683" lon="4.86518">
        <ele>289</ele>
        <time>2017-06-16T09:10:58Z</time>
      </trkpt>
      <trkpt lat="45.96835" lon="4.86509">
        <ele>289</ele>
        <time>2017-06-16T09:11:00Z</time>
      </trkpt>
      <trkpt lat="45.96837" lon="4.86504">
        <ele>289</ele>
        <time>2017-06-16T09:11:01Z</time>
      </trkpt>
      <trkpt lat="45.96841" lon="4.86494">
        <ele>289</ele>
        <time>2017-06-16T09:11:03Z</time>
      </trkpt>
      <trkpt lat="45.96844" lon="4.86488">
        <ele>289</ele>
        <time>2017-06-16T09:11:04Z</time>
      </trkpt>
      <trkpt lat="45.96847" lon="4.86478">
        <ele>289</ele>
        <time>2017-06-16T09:11:06Z</time>
      </trkpt>
      <trkpt lat="45.96849" lon="4.86472">
        <ele>289</ele>
        <time>2017-06-16T09:11:07Z</time>
      </trkpt>
      <trkpt lat="45.96852" lon="4.8646">
        <ele>289</ele>
        <time>2017-06-16T09:11:09Z</time>
      </trkpt>
      <trkpt lat="45.96853" lon="4.86454">
        <ele>289</ele>
        <time>2017-06-16T09:11:10Z</time>
      </trkpt>
      <trkpt lat="45.96855" lon="4.86448">
        <ele>289</ele>
        <time>2017-06-16T09:11:11Z</time>
      </trkpt>
      <trkpt lat="45.96856" lon="4.86442">
        <ele>290</ele>
        <time>2017-06-16T09:11:12Z</time>
      </trkpt>
      <trkpt lat="45.96858" lon="4.8643">
        <ele>290</ele>
        <time>2017-06-16T09:11:14Z</time>
      </trkpt>
      <trkpt lat="45.96859" lon="4.86424">
        <ele>290</ele>
        <time>2017-06-16T09:11:15Z</time>
      </trkpt>
      <trkpt lat="45.96861" lon="4.86413">
        <ele>290</ele>
        <time>2017-06-16T09:11:17Z</time>
      </trkpt>
      <trkpt lat="45.96862" lon="4.86407">
        <ele>290</ele>
        <time>2017-06-16T09:11:18Z</time>
      </trkpt>
      <trkpt lat="45.96864" lon="4.86395">
        <ele>290</ele>
        <time>2017-06-16T09:11:20Z</time>
      </trkpt>
      <trkpt lat="45.96865" lon="4.86389">
        <ele>290</ele>
        <time>2017-06-16T09:11:21Z</time>
      </trkpt>
      <trkpt lat="45.96866" lon="4.86377">
        <ele>290</ele>
        <time>2017-06-16T09:11:23Z</time>
      </trkpt>
      <trkpt lat="45.96867" lon="4.86371">
        <ele>290</ele>
        <time>2017-06-16T09:11:24Z</time>
      </trkpt>
      <trkpt lat="45.96868" lon="4.86365">
        <ele>290</ele>
        <time>2017-06-16T09:11:25Z</time>
      </trkpt>
      <trkpt lat="45.96869" lon="4.86357">
        <ele>290</ele>
        <time>2017-06-16T09:11:26Z</time>
      </trkpt>
      <trkpt lat="45.9687" lon="4.8635">
        <ele>290</ele>
        <time>2017-06-16T09:11:27Z</time>
      </trkpt>
      <trkpt lat="45.96871" lon="4.86343">
        <ele>290</ele>
        <time>2017-06-16T09:11:28Z</time>
      </trkpt>
      <trkpt lat="45.96872" lon="4.86335">
        <ele>290</ele>
        <time>2017-06-16T09:11:29Z</time>
      </trkpt>
      <trkpt lat="45.96873" lon="4.86328">
        <ele>289</ele>
        <time>2017-06-16T09:11:30Z</time>
      </trkpt>
      <trkpt lat="45.96875" lon="4.86316">
        <ele>289</ele>
        <time>2017-06-16T09:11:32Z</time>
      </trkpt>
      <trkpt lat="45.96876" lon="4.8631">
        <ele>289</ele>
        <time>2017-06-16T09:11:33Z</time>
      </trkpt>
      <trkpt lat="45.96878" lon="4.86299">
        <ele>289</ele>
        <time>2017-06-16T09:11:35Z</time>
      </trkpt>
      <trkpt lat="45.96879" lon="4.86295">
        <ele>289</ele>
        <time>2017-06-16T09:11:36Z</time>
      </trkpt>
      <trkpt lat="45.9688" lon="4.86284">
        <ele>289</ele>
        <time>2017-06-16T09:11:38Z</time>
      </trkpt>
      <trkpt lat="45.96881" lon="4.86277">
        <ele>289</ele>
        <time>2017-06-16T09:11:39Z</time>
      </trkpt>
      <trkpt lat="45.96882" lon="4.8627">
        <ele>288</ele>
        <time>2017-06-16T09:11:40Z</time>
      </trkpt>
      <trkpt lat="45.96883" lon="4.86263">
        <ele>288</ele>
        <time>2017-06-16T09:11:41Z</time>
      </trkpt>
      <trkpt lat="45.96884" lon="4.86251">
        <ele>288</ele>
        <time>2017-06-16T09:11:43Z</time>
      </trkpt>
      <trkpt lat="45.96885" lon="4.86244">
        <ele>288</ele>
        <time>2017-06-16T09:11:44Z</time>
      </trkpt>
      <trkpt lat="45.96886" lon="4.86238">
        <ele>288</ele>
        <time>2017-06-16T09:11:45Z</time>
      </trkpt>
      <trkpt lat="45.96887" lon="4.86231">
        <ele>288</ele>
        <time>2017-06-16T09:11:46Z</time>
      </trkpt>
      <trkpt lat="45.96889" lon="4.86219">
        <ele>289</ele>
        <time>2017-06-16T09:11:48Z</time>
      </trkpt>
      <trkpt lat="45.9689" lon="4.86213">
        <ele>289</ele>
        <time>2017-06-16T09:11:49Z</time>
      </trkpt>
      <trkpt lat="45.96892" lon="4.862">
        <ele>289</ele>
        <time>2017-06-16T09:11:51Z</time>
      </trkpt>
      <trkpt lat="45.96893" lon="4.86194">
        <ele>289</ele>
        <time>2017-06-16T09:11:52Z</time>
      </trkpt>
      <trkpt lat="45.96893" lon="4.86187">
        <ele>289</ele>
        <time>2017-06-16T09:11:53Z</time>
      </trkpt>
      <trkpt lat="45.96894" lon="4.8618">
        <ele>288</ele>
        <time>2017-06-16T09:11:54Z</time>
      </trkpt>
      <trkpt lat="45.96895" lon="4.86173">
        <ele>288</ele>
        <time>2017-06-16T09:11:55Z</time>
      </trkpt>
      <trkpt lat="45.96896" lon="4.86166">
        <ele>289</ele>
        <time>2017-06-16T09:11:56Z</time>
      </trkpt>
      <trkpt lat="45.96897" lon="4.86158">
        <ele>289</ele>
        <time>2017-06-16T09:11:57Z</time>
      </trkpt>
      <trkpt lat="45.96898" lon="4.8615">
        <ele>289</ele>
        <time>2017-06-16T09:11:58Z</time>
      </trkpt>
      <trkpt lat="45.96899" lon="4.86141">
        <ele>289</ele>
        <time>2017-06-16T09:11:59Z</time>
      </trkpt>
      <trkpt lat="45.969" lon="4.86133">
        <ele>289</ele>
        <time>2017-06-16T09:12:00Z</time>
      </trkpt>
      <trkpt lat="45.96902" lon="4.86125">
        <ele>289</ele>
        <time>2017-06-16T09:12:01Z</time>
      </trkpt>
      <trkpt lat="45.96903" lon="4.86116">
        <ele>289</ele>
        <time>2017-06-16T09:12:02Z</time>
      </trkpt>
      <trkpt lat="45.96905" lon="4.86108">
        <ele>289</ele>
        <time>2017-06-16T09:12:03Z</time>
      </trkpt>
      <trkpt lat="45.96906" lon="4.86099">
        <ele>288</ele>
        <time>2017-06-16T09:12:04Z</time>
      </trkpt>
      <trkpt lat="45.96907" lon="4.8609">
        <ele>288</ele>
        <time>2017-06-16T09:12:05Z</time>
      </trkpt>
      <trkpt lat="45.96907" lon="4.86081">
        <ele>288</ele>
        <time>2017-06-16T09:12:06Z</time>
      </trkpt>
      <trkpt lat="45.96908" lon="4.86073">
        <ele>288</ele>
        <time>2017-06-16T09:12:07Z</time>
      </trkpt>
      <trkpt lat="45.96908" lon="4.86064">
        <ele>288</ele>
        <time>2017-06-16T09:12:08Z</time>
      </trkpt>
      <trkpt lat="45.96909" lon="4.86057">
        <ele>288</ele>
        <time>2017-06-16T09:12:09Z</time>
      </trkpt>
      <trkpt lat="45.9691" lon="4.86049">
        <ele>289</ele>
        <time>2017-06-16T09:12:10Z</time>
      </trkpt>
      <trkpt lat="45.9691" lon="4.86041">
        <ele>289</ele>
        <time>2017-06-16T09:12:11Z</time>
      </trkpt>
      <trkpt lat="45.96911" lon="4.86033">
        <ele>289</ele>
        <time>2017-06-16T09:12:12Z</time>
      </trkpt>
      <trkpt lat="45.96912" lon="4.86025">
        <ele>289</ele>
        <time>2017-06-16T09:12:13Z</time>
      </trkpt>
      <trkpt lat="45.96914" lon="4.86017">
        <ele>289</ele>
        <time>2017-06-16T09:12:14Z</time>
      </trkpt>
      <trkpt lat="45.96915" lon="4.86008">
        <ele>288</ele>
        <time>2017-06-16T09:12:15Z</time>
      </trkpt>
      <trkpt lat="45.96917" lon="4.85999">
        <ele>288</ele>
        <time>2017-06-16T09:12:16Z</time>
      </trkpt>
      <trkpt lat="45.96919" lon="4.85989">
        <ele>287</ele>
        <time>2017-06-16T09:12:17Z</time>
      </trkpt>
      <trkpt lat="45.96921" lon="4.8598">
        <ele>287</ele>
        <time>2017-06-16T09:12:18Z</time>
      </trkpt>
      <trkpt lat="45.96923" lon="4.8597">
        <ele>287</ele>
        <time>2017-06-16T09:12:19Z</time>
      </trkpt>
      <trkpt lat="45.96925" lon="4.85961">
        <ele>287</ele>
        <time>2017-06-16T09:12:20Z</time>
      </trkpt>
      <trkpt lat="45.96927" lon="4.85952">
        <ele>287</ele>
        <time>2017-06-16T09:12:21Z</time>
      </trkpt>
      <trkpt lat="45.9693" lon="4.85943">
        <ele>286</ele>
        <time>2017-06-16T09:12:22Z</time>
      </trkpt>
      <trkpt lat="45.96932" lon="4.85934">
        <ele>286</ele>
        <time>2017-06-16T09:12:23Z</time>
      </trkpt>
      <trkpt lat="45.96934" lon="4.85925">
        <ele>286</ele>
        <time>2017-06-16T09:12:24Z</time>
      </trkpt>
      <trkpt lat="45.96936" lon="4.85916">
        <ele>286</ele>
        <time>2017-06-16T09:12:25Z</time>
      </trkpt>
      <trkpt lat="45.96939" lon="4.85907">
        <ele>286</ele>
        <time>2017-06-16T09:12:26Z</time>
      </trkpt>
      <trkpt lat="45.96941" lon="4.85899">
        <ele>285</ele>
        <time>2017-06-16T09:12:27Z</time>
      </trkpt>
      <trkpt lat="45.96943" lon="4.8589">
        <ele>285</ele>
        <time>2017-06-16T09:12:28Z</time>
      </trkpt>
      <trkpt lat="45.96945" lon="4.85882">
        <ele>285</ele>
        <time>2017-06-16T09:12:29Z</time>
      </trkpt>
      <trkpt lat="45.96948" lon="4.85874">
        <ele>285</ele>
        <time>2017-06-16T09:12:30Z</time>
      </trkpt>
      <trkpt lat="45.9695" lon="4.85866">
        <ele>285</ele>
        <time>2017-06-16T09:12:31Z</time>
      </trkpt>
      <trkpt lat="45.96953" lon="4.85858">
        <ele>285</ele>
        <time>2017-06-16T09:12:32Z</time>
      </trkpt>
      <trkpt lat="45.96955" lon="4.8585">
        <ele>285</ele>
        <time>2017-06-16T09:12:33Z</time>
      </trkpt>
      <trkpt lat="45.96956" lon="4.85842">
        <ele>285</ele>
        <time>2017-06-16T09:12:34Z</time>
      </trkpt>
      <trkpt lat="45.96958" lon="4.85835">
        <ele>285</ele>
        <time>2017-06-16T09:12:35Z</time>
      </trkpt>
      <trkpt lat="45.9696" lon="4.85827">
        <ele>285</ele>
        <time>2017-06-16T09:12:36Z</time>
      </trkpt>
      <trkpt lat="45.96962" lon="4.8582">
        <ele>285</ele>
        <time>2017-06-16T09:12:37Z</time>
      </trkpt>
      <trkpt lat="45.96964" lon="4.85813">
        <ele>285</ele>
        <time>2017-06-16T09:12:38Z</time>
      </trkpt>
      <trkpt lat="45.96965" lon="4.85806">
        <ele>285</ele>
        <time>2017-06-16T09:12:39Z</time>
      </trkpt>
      <trkpt lat="45.96967" lon="4.858">
        <ele>285</ele>
        <time>2017-06-16T09:12:40Z</time>
      </trkpt>
      <trkpt lat="45.96969" lon="4.85792">
        <ele>285</ele>
        <time>2017-06-16T09:12:41Z</time>
      </trkpt>
      <trkpt lat="45.96971" lon="4.85784">
        <ele>285</ele>
        <time>2017-06-16T09:12:42Z</time>
      </trkpt>
      <trkpt lat="45.96974" lon="4.85776">
        <ele>285</ele>
        <time>2017-06-16T09:12:43Z</time>
      </trkpt>
      <trkpt lat="45.96976" lon="4.85767">
        <ele>285</ele>
        <time>2017-06-16T09:12:44Z</time>
      </trkpt>
      <trkpt lat="45.96978" lon="4.85758">
        <ele>285</ele>
        <time>2017-06-16T09:12:45Z</time>
      </trkpt>
      <trkpt lat="45.96981" lon="4.8575">
        <ele>285</ele>
        <time>2017-06-16T09:12:46Z</time>
      </trkpt>
      <trkpt lat="45.96983" lon="4.85741">
        <ele>285</ele>
        <time>2017-06-16T09:12:47Z</time>
      </trkpt>
      <trkpt lat="45.96985" lon="4.85733">
        <ele>285</ele>
        <time>2017-06-16T09:12:48Z</time>
      </trkpt>
      <trkpt lat="45.96987" lon="4.85725">
        <ele>285</ele>
        <time>2017-06-16T09:12:49Z</time>
      </trkpt>
      <trkpt lat="45.9699" lon="4.85718">
        <ele>285</ele>
        <time>2017-06-16T09:12:50Z</time>
      </trkpt>
      <trkpt lat="45.96992" lon="4.85711">
        <ele>285</ele>
        <time>2017-06-16T09:12:51Z</time>
      </trkpt>
      <trkpt lat="45.96994" lon="4.85703">
        <ele>285</ele>
        <time>2017-06-16T09:12:52Z</time>
      </trkpt>
      <trkpt lat="45.96996" lon="4.85696">
        <ele>285</ele>
        <time>2017-06-16T09:12:53Z</time>
      </trkpt>
      <trkpt lat="45.96997" lon="4.8569">
        <ele>285</ele>
        <time>2017-06-16T09:12:54Z</time>
      </trkpt>
      <trkpt lat="45.96999" lon="4.85683">
        <ele>286</ele>
        <time>2017-06-16T09:12:55Z</time>
      </trkpt>
      <trkpt lat="45.97001" lon="4.85676">
        <ele>285</ele>
        <time>2017-06-16T09:12:56Z</time>
      </trkpt>
      <trkpt lat="45.97002" lon="4.85669">
        <ele>286</ele>
        <time>2017-06-16T09:12:57Z</time>
      </trkpt>
      <trkpt lat="45.97004" lon="4.85662">
        <ele>285</ele>
        <time>2017-06-16T09:12:58Z</time>
      </trkpt>
      <trkpt lat="45.97005" lon="4.85656">
        <ele>285</ele>
        <time>2017-06-16T09:12:59Z</time>
      </trkpt>
      <trkpt lat="45.97007" lon="4.85649">
        <ele>285</ele>
        <time>2017-06-16T09:13:00Z</time>
      </trkpt>
      <trkpt lat="45.97009" lon="4.85643">
        <ele>284</ele>
        <time>2017-06-16T09:13:01Z</time>
      </trkpt>
      <trkpt lat="45.97011" lon="4.85636">
        <ele>284</ele>
        <time>2017-06-16T09:13:02Z</time>
      </trkpt>
      <trkpt lat="45.97012" lon="4.85629">
        <ele>284</ele>
        <time>2017-06-16T09:13:03Z</time>
      </trkpt>
      <trkpt lat="45.97014" lon="4.85622">
        <ele>284</ele>
        <time>2017-06-16T09:13:04Z</time>
      </trkpt>
      <trkpt lat="45.97015" lon="4.85615">
        <ele>284</ele>
        <time>2017-06-16T09:13:05Z</time>
      </trkpt>
      <trkpt lat="45.97017" lon="4.85608">
        <ele>284</ele>
        <time>2017-06-16T09:13:06Z</time>
      </trkpt>
      <trkpt lat="45.97019" lon="4.856">
        <ele>284</ele>
        <time>2017-06-16T09:13:07Z</time>
      </trkpt>
      <trkpt lat="45.97021" lon="4.85593">
        <ele>284</ele>
        <time>2017-06-16T09:13:08Z</time>
      </trkpt>
      <trkpt lat="45.97023" lon="4.85586">
        <ele>284</ele>
        <time>2017-06-16T09:13:09Z</time>
      </trkpt>
      <trkpt lat="45.97025" lon="4.85579">
        <ele>283</ele>
        <time>2017-06-16T09:13:10Z</time>
      </trkpt>
      <trkpt lat="45.97028" lon="4.85571">
        <ele>283</ele>
        <time>2017-06-16T09:13:11Z</time>
      </trkpt>
      <trkpt lat="45.9703" lon="4.85564">
        <ele>283</ele>
        <time>2017-06-16T09:13:12Z</time>
      </trkpt>
      <trkpt lat="45.97032" lon="4.85556">
        <ele>283</ele>
        <time>2017-06-16T09:13:13Z</time>
      </trkpt>
      <trkpt lat="45.97035" lon="4.85548">
        <ele>282</ele>
        <time>2017-06-16T09:13:14Z</time>
      </trkpt>
      <trkpt lat="45.97037" lon="4.85541">
        <ele>282</ele>
        <time>2017-06-16T09:13:15Z</time>
      </trkpt>
      <trkpt lat="45.97039" lon="4.85534">
        <ele>282</ele>
        <time>2017-06-16T09:13:16Z</time>
      </trkpt>
      <trkpt lat="45.97041" lon="4.85527">
        <ele>282</ele>
        <time>2017-06-16T09:13:17Z</time>
      </trkpt>
      <trkpt lat="45.97044" lon="4.85519">
        <ele>282</ele>
        <time>2017-06-16T09:13:18Z</time>
      </trkpt>
      <trkpt lat="45.97046" lon="4.85511">
        <ele>282</ele>
        <time>2017-06-16T09:13:19Z</time>
      </trkpt>
      <trkpt lat="45.97049" lon="4.85503">
        <ele>282</ele>
        <time>2017-06-16T09:13:20Z</time>
      </trkpt>
      <trkpt lat="45.97052" lon="4.85494">
        <ele>281</ele>
        <time>2017-06-16T09:13:21Z</time>
      </trkpt>
      <trkpt lat="45.97055" lon="4.85485">
        <ele>281</ele>
        <time>2017-06-16T09:13:22Z</time>
      </trkpt>
      <trkpt lat="45.97057" lon="4.85477">
        <ele>281</ele>
        <time>2017-06-16T09:13:23Z</time>
      </trkpt>
      <trkpt lat="45.9706" lon="4.85468">
        <ele>281</ele>
        <time>2017-06-16T09:13:24Z</time>
      </trkpt>
      <trkpt lat="45.97063" lon="4.85459">
        <ele>281</ele>
        <time>2017-06-16T09:13:25Z</time>
      </trkpt>
      <trkpt lat="45.97066" lon="4.8545">
        <ele>281</ele>
        <time>2017-06-16T09:13:26Z</time>
      </trkpt>
      <trkpt lat="45.97069" lon="4.85442">
        <ele>281</ele>
        <time>2017-06-16T09:13:27Z</time>
      </trkpt>
      <trkpt lat="45.97071" lon="4.85434">
        <ele>281</ele>
        <time>2017-06-16T09:13:28Z</time>
      </trkpt>
      <trkpt lat="45.97074" lon="4.85426">
        <ele>281</ele>
        <time>2017-06-16T09:13:29Z</time>
      </trkpt>
      <trkpt lat="45.97077" lon="4.85418">
        <ele>280</ele>
        <time>2017-06-16T09:13:30Z</time>
      </trkpt>
      <trkpt lat="45.97079" lon="4.8541">
        <ele>280</ele>
        <time>2017-06-16T09:13:31Z</time>
      </trkpt>
      <trkpt lat="45.97082" lon="4.85402">
        <ele>281</ele>
        <time>2017-06-16T09:13:32Z</time>
      </trkpt>
      <trkpt lat="45.97084" lon="4.85395">
        <ele>280</ele>
        <time>2017-06-16T09:13:33Z</time>
      </trkpt>
      <trkpt lat="45.97087" lon="4.85387">
        <ele>280</ele>
        <time>2017-06-16T09:13:34Z</time>
      </trkpt>
      <trkpt lat="45.97089" lon="4.85379">
        <ele>280</ele>
        <time>2017-06-16T09:13:35Z</time>
      </trkpt>
      <trkpt lat="45.97092" lon="4.85372">
        <ele>280</ele>
        <time>2017-06-16T09:13:36Z</time>
      </trkpt>
      <trkpt lat="45.97095" lon="4.85364">
        <ele>280</ele>
        <time>2017-06-16T09:13:37Z</time>
      </trkpt>
      <trkpt lat="45.97098" lon="4.85355">
        <ele>280</ele>
        <time>2017-06-16T09:13:38Z</time>
      </trkpt>
      <trkpt lat="45.97101" lon="4.85346">
        <ele>280</ele>
        <time>2017-06-16T09:13:39Z</time>
      </trkpt>
      <trkpt lat="45.97104" lon="4.85336">
        <ele>280</ele>
        <time>2017-06-16T09:13:40Z</time>
      </trkpt>
      <trkpt lat="45.97108" lon="4.85327">
        <ele>280</ele>
        <time>2017-06-16T09:13:41Z</time>
      </trkpt>
      <trkpt lat="45.97111" lon="4.85318">
        <ele>280</ele>
        <time>2017-06-16T09:13:42Z</time>
      </trkpt>
      <trkpt lat="45.97115" lon="4.85309">
        <ele>280</ele>
        <time>2017-06-16T09:13:43Z</time>
      </trkpt>
      <trkpt lat="45.97118" lon="4.85301">
        <ele>280</ele>
        <time>2017-06-16T09:13:44Z</time>
      </trkpt>
      <trkpt lat="45.97122" lon="4.85293">
        <ele>280</ele>
        <time>2017-06-16T09:13:45Z</time>
      </trkpt>
      <trkpt lat="45.97126" lon="4.85285">
        <ele>279</ele>
        <time>2017-06-16T09:13:46Z</time>
      </trkpt>
      <trkpt lat="45.97129" lon="4.85277">
        <ele>279</ele>
        <time>2017-06-16T09:13:47Z</time>
      </trkpt>
      <trkpt lat="45.97133" lon="4.8527">
        <ele>279</ele>
        <time>2017-06-16T09:13:48Z</time>
      </trkpt>
      <trkpt lat="45.97136" lon="4.85263">
        <ele>279</ele>
        <time>2017-06-16T09:13:49Z</time>
      </trkpt>
      <trkpt lat="45.9714" lon="4.85255">
        <ele>279</ele>
        <time>2017-06-16T09:13:50Z</time>
      </trkpt>
      <trkpt lat="45.97143" lon="4.85248">
        <ele>279</ele>
        <time>2017-06-16T09:13:51Z</time>
      </trkpt>
      <trkpt lat="45.97146" lon="4.85242">
        <ele>279</ele>
        <time>2017-06-16T09:13:52Z</time>
      </trkpt>
      <trkpt lat="45.97149" lon="4.85235">
        <ele>279</ele>
        <time>2017-06-16T09:13:53Z</time>
      </trkpt>
      <trkpt lat="45.97153" lon="4.85228">
        <ele>279</ele>
        <time>2017-06-16T09:13:54Z</time>
      </trkpt>
      <trkpt lat="45.97157" lon="4.8522">
        <ele>279</ele>
        <time>2017-06-16T09:13:55Z</time>
      </trkpt>
      <trkpt lat="45.9716" lon="4.85212">
        <ele>279</ele>
        <time>2017-06-16T09:13:56Z</time>
      </trkpt>
      <trkpt lat="45.97164" lon="4.85205">
        <ele>279</ele>
        <time>2017-06-16T09:13:57Z</time>
      </trkpt>
      <trkpt lat="45.97168" lon="4.85197">
        <ele>278</ele>
        <time>2017-06-16T09:13:58Z</time>
      </trkpt>
      <trkpt lat="45.97171" lon="4.85189">
        <ele>278</ele>
        <time>2017-06-16T09:13:59Z</time>
      </trkpt>
      <trkpt lat="45.97175" lon="4.85181">
        <ele>278</ele>
        <time>2017-06-16T09:14:00Z</time>
      </trkpt>
      <trkpt lat="45.97178" lon="4.85174">
        <ele>278</ele>
        <time>2017-06-16T09:14:01Z</time>
      </trkpt>
      <trkpt lat="45.97182" lon="4.85167">
        <ele>278</ele>
        <time>2017-06-16T09:14:02Z</time>
      </trkpt>
      <trkpt lat="45.97185" lon="4.8516">
        <ele>278</ele>
        <time>2017-06-16T09:14:03Z</time>
      </trkpt>
      <trkpt lat="45.97189" lon="4.85153">
        <ele>278</ele>
        <time>2017-06-16T09:14:04Z</time>
      </trkpt>
      <trkpt lat="45.97192" lon="4.85146">
        <ele>278</ele>
        <time>2017-06-16T09:14:05Z</time>
      </trkpt>
      <trkpt lat="45.97196" lon="4.85139">
        <ele>278</ele>
        <time>2017-06-16T09:14:06Z</time>
      </trkpt>
      <trkpt lat="45.97199" lon="4.85133">
        <ele>278</ele>
        <time>2017-06-16T09:14:07Z</time>
      </trkpt>
      <trkpt lat="45.97202" lon="4.85126">
        <ele>278</ele>
        <time>2017-06-16T09:14:08Z</time>
      </trkpt>
      <trkpt lat="45.97205" lon="4.8512">
        <ele>278</ele>
        <time>2017-06-16T09:14:09Z</time>
      </trkpt>
      <trkpt lat="45.97208" lon="4.85113">
        <ele>278</ele>
        <time>2017-06-16T09:14:10Z</time>
      </trkpt>
      <trkpt lat="45.97211" lon="4.85107">
        <ele>278</ele>
        <time>2017-06-16T09:14:11Z</time>
      </trkpt>
      <trkpt lat="45.97214" lon="4.851">
        <ele>278</ele>
        <time>2017-06-16T09:14:12Z</time>
      </trkpt>
      <trkpt lat="45.97218" lon="4.85093">
        <ele>278</ele>
        <time>2017-06-16T09:14:13Z</time>
      </trkpt>
      <trkpt lat="45.97221" lon="4.85087">
        <ele>278</ele>
        <time>2017-06-16T09:14:14Z</time>
      </trkpt>
      <trkpt lat="45.97224" lon="4.8508">
        <ele>278</ele>
        <time>2017-06-16T09:14:15Z</time>
      </trkpt>
      <trkpt lat="45.97227" lon="4.85073">
        <ele>278</ele>
        <time>2017-06-16T09:14:16Z</time>
      </trkpt>
      <trkpt lat="45.9723" lon="4.85066">
        <ele>278</ele>
        <time>2017-06-16T09:14:17Z</time>
      </trkpt>
      <trkpt lat="45.97233" lon="4.85059">
        <ele>279</ele>
        <time>2017-06-16T09:14:18Z</time>
      </trkpt>
      <trkpt lat="45.97236" lon="4.85052">
        <ele>279</ele>
        <time>2017-06-16T09:14:19Z</time>
      </trkpt>
      <trkpt lat="45.9724" lon="4.85045">
        <ele>279</ele>
        <time>2017-06-16T09:14:20Z</time>
      </trkpt>
      <trkpt lat="45.97243" lon="4.85037">
        <ele>279</ele>
        <time>2017-06-16T09:14:21Z</time>
      </trkpt>
      <trkpt lat="45.97245" lon="4.8503">
        <ele>279</ele>
        <time>2017-06-16T09:14:22Z</time>
      </trkpt>
      <trkpt lat="45.97248" lon="4.85024">
        <ele>279</ele>
        <time>2017-06-16T09:14:23Z</time>
      </trkpt>
      <trkpt lat="45.97251" lon="4.85018">
        <ele>279</ele>
        <time>2017-06-16T09:14:24Z</time>
      </trkpt>
      <trkpt lat="45.97254" lon="4.85012">
        <ele>279</ele>
        <time>2017-06-16T09:14:25Z</time>
      </trkpt>
      <trkpt lat="45.97257" lon="4.85005">
        <ele>279</ele>
        <time>2017-06-16T09:14:26Z</time>
      </trkpt>
      <trkpt lat="45.9726" lon="4.84999">
        <ele>279</ele>
        <time>2017-06-16T09:14:27Z</time>
      </trkpt>
      <trkpt lat="45.97264" lon="4.84993">
        <ele>279</ele>
        <time>2017-06-16T09:14:28Z</time>
      </trkpt>
      <trkpt lat="45.97267" lon="4.84987">
        <ele>279</ele>
        <time>2017-06-16T09:14:29Z</time>
      </trkpt>
      <trkpt lat="45.9727" lon="4.8498">
        <ele>279</ele>
        <time>2017-06-16T09:14:30Z</time>
      </trkpt>
      <trkpt lat="45.97273" lon="4.84974">
        <ele>278</ele>
        <time>2017-06-16T09:14:31Z</time>
      </trkpt>
      <trkpt lat="45.97276" lon="4.84968">
        <ele>278</ele>
        <time>2017-06-16T09:14:32Z</time>
      </trkpt>
      <trkpt lat="45.97279" lon="4.84962">
        <ele>278</ele>
        <time>2017-06-16T09:14:33Z</time>
      </trkpt>
      <trkpt lat="45.97282" lon="4.84956">
        <ele>278</ele>
        <time>2017-06-16T09:14:34Z</time>
      </trkpt>
      <trkpt lat="45.97285" lon="4.8495">
        <ele>278</ele>
        <time>2017-06-16T09:14:35Z</time>
      </trkpt>
      <trkpt lat="45.97288" lon="4.84944">
        <ele>278</ele>
        <time>2017-06-16T09:14:36Z</time>
      </trkpt>
      <trkpt lat="45.97292" lon="4.84938">
        <ele>278</ele>
        <time>2017-06-16T09:14:37Z</time>
      </trkpt>
      <trkpt lat="45.97295" lon="4.84932">
        <ele>278</ele>
        <time>2017-06-16T09:14:38Z</time>
      </trkpt>
      <trkpt lat="45.97298" lon="4.84927">
        <ele>278</ele>
        <time>2017-06-16T09:14:39Z</time>
      </trkpt>
      <trkpt lat="45.97302" lon="4.84921">
        <ele>278</ele>
        <time>2017-06-16T09:14:40Z</time>
      </trkpt>
      <trkpt lat="45.97305" lon="4.84916">
        <ele>278</ele>
        <time>2017-06-16T09:14:41Z</time>
      </trkpt>
      <trkpt lat="45.97309" lon="4.84911">
        <ele>278</ele>
        <time>2017-06-16T09:14:42Z</time>
      </trkpt>
      <trkpt lat="45.97312" lon="4.84905">
        <ele>278</ele>
        <time>2017-06-16T09:14:43Z</time>
      </trkpt>
      <trkpt lat="45.97315" lon="4.849">
        <ele>278</ele>
        <time>2017-06-16T09:14:44Z</time>
      </trkpt>
      <trkpt lat="45.97319" lon="4.84895">
        <ele>278</ele>
        <time>2017-06-16T09:14:45Z</time>
      </trkpt>
      <trkpt lat="45.97322" lon="4.84888">
        <ele>278</ele>
        <time>2017-06-16T09:14:46Z</time>
      </trkpt>
      <trkpt lat="45.97326" lon="4.84881">
        <ele>278</ele>
        <time>2017-06-16T09:14:47Z</time>
      </trkpt>
      <trkpt lat="45.9733" lon="4.84873">
        <ele>278</ele>
        <time>2017-06-16T09:14:48Z</time>
      </trkpt>
      <trkpt lat="45.97334" lon="4.84866">
        <ele>277</ele>
        <time>2017-06-16T09:14:49Z</time>
      </trkpt>
      <trkpt lat="45.97338" lon="4.84858">
        <ele>277</ele>
        <time>2017-06-16T09:14:50Z</time>
      </trkpt>
      <trkpt lat="45.97342" lon="4.84851">
        <ele>277</ele>
        <time>2017-06-16T09:14:51Z</time>
      </trkpt>
      <trkpt lat="45.97345" lon="4.84843">
        <ele>277</ele>
        <time>2017-06-16T09:14:52Z</time>
      </trkpt>
      <trkpt lat="45.97348" lon="4.84836">
        <ele>277</ele>
        <time>2017-06-16T09:14:53Z</time>
      </trkpt>
      <trkpt lat="45.97351" lon="4.84829">
        <ele>278</ele>
        <time>2017-06-16T09:14:54Z</time>
      </trkpt>
      <trkpt lat="45.97354" lon="4.84823">
        <ele>278</ele>
        <time>2017-06-16T09:14:55Z</time>
      </trkpt>
      <trkpt lat="45.97356" lon="4.84817">
        <ele>278</ele>
        <time>2017-06-16T09:14:56Z</time>
      </trkpt>
      <trkpt lat="45.97359" lon="4.84811">
        <ele>278</ele>
        <time>2017-06-16T09:14:57Z</time>
      </trkpt>
      <trkpt lat="45.97361" lon="4.84805">
        <ele>278</ele>
        <time>2017-06-16T09:14:58Z</time>
      </trkpt>
      <trkpt lat="45.97364" lon="4.84799">
        <ele>278</ele>
        <time>2017-06-16T09:14:59Z</time>
      </trkpt>
      <trkpt lat="45.97366" lon="4.84792">
        <ele>278</ele>
        <time>2017-06-16T09:15:00Z</time>
      </trkpt>
      <trkpt lat="45.97369" lon="4.84786">
        <ele>278</ele>
        <time>2017-06-16T09:15:01Z</time>
      </trkpt>
      <trkpt lat="45.97371" lon="4.84779">
        <ele>278</ele>
        <time>2017-06-16T09:15:02Z</time>
      </trkpt>
      <trkpt lat="45.97374" lon="4.84772">
        <ele>278</ele>
        <time>2017-06-16T09:15:03Z</time>
      </trkpt>
      <trkpt lat="45.97376" lon="4.84766">
        <ele>278</ele>
        <time>2017-06-16T09:15:04Z</time>
      </trkpt>
      <trkpt lat="45.97378" lon="4.8476">
        <ele>278</ele>
        <time>2017-06-16T09:15:05Z</time>
      </trkpt>
      <trkpt lat="45.9738" lon="4.84754">
        <ele>278</ele>
        <time>2017-06-16T09:15:06Z</time>
      </trkpt>
      <trkpt lat="45.97383" lon="4.84748">
        <ele>278</ele>
        <time>2017-06-16T09:15:07Z</time>
      </trkpt>
      <trkpt lat="45.97386" lon="4.84743">
        <ele>278</ele>
        <time>2017-06-16T09:15:08Z</time>
      </trkpt>
      <trkpt lat="45.97392" lon="4.84734">
        <ele>278</ele>
        <time>2017-06-16T09:15:10Z</time>
      </trkpt>
      <trkpt lat="45.97396" lon="4.8473">
        <ele>278</ele>
        <time>2017-06-16T09:15:11Z</time>
      </trkpt>
      <trkpt lat="45.97401" lon="4.84726">
        <ele>278</ele>
        <time>2017-06-16T09:15:12Z</time>
      </trkpt>
      <trkpt lat="45.97406" lon="4.84721">
        <ele>278</ele>
        <time>2017-06-16T09:15:13Z</time>
      </trkpt>
      <trkpt lat="45.97411" lon="4.84718">
        <ele>278</ele>
        <time>2017-06-16T09:15:14Z</time>
      </trkpt>
      <trkpt lat="45.97416" lon="4.84713">
        <ele>278</ele>
        <time>2017-06-16T09:15:15Z</time>
      </trkpt>
      <trkpt lat="45.97421" lon="4.8471">
        <ele>276</ele>
        <time>2017-06-16T09:15:16Z</time>
      </trkpt>
      <trkpt lat="45.97426" lon="4.84706">
        <ele>276</ele>
        <time>2017-06-16T09:15:17Z</time>
      </trkpt>
      <trkpt lat="45.97431" lon="4.84703">
        <ele>276</ele>
        <time>2017-06-16T09:15:18Z</time>
      </trkpt>
      <trkpt lat="45.97436" lon="4.847">
        <ele>276</ele>
        <time>2017-06-16T09:15:19Z</time>
      </trkpt>
      <trkpt lat="45.97441" lon="4.84696">
        <ele>276</ele>
        <time>2017-06-16T09:15:20Z</time>
      </trkpt>
      <trkpt lat="45.97445" lon="4.84693">
        <ele>276</ele>
        <time>2017-06-16T09:15:21Z</time>
      </trkpt>
      <trkpt lat="45.9745" lon="4.8469">
        <ele>276</ele>
        <time>2017-06-16T09:15:22Z</time>
      </trkpt>
      <trkpt lat="45.97455" lon="4.84686">
        <ele>276</ele>
        <time>2017-06-16T09:15:23Z</time>
      </trkpt>
      <trkpt lat="45.9746" lon="4.84683">
        <ele>276</ele>
        <time>2017-06-16T09:15:24Z</time>
      </trkpt>
      <trkpt lat="45.97465" lon="4.84679">
        <ele>276</ele>
        <time>2017-06-16T09:15:25Z</time>
      </trkpt>
      <trkpt lat="45.9747" lon="4.84675">
        <ele>276</ele>
        <time>2017-06-16T09:15:26Z</time>
      </trkpt>
      <trkpt lat="45.97476" lon="4.84672">
        <ele>276</ele>
        <time>2017-06-16T09:15:27Z</time>
      </trkpt>
      <trkpt lat="45.97481" lon="4.84668">
        <ele>276</ele>
        <time>2017-06-16T09:15:28Z</time>
      </trkpt>
      <trkpt lat="45.97487" lon="4.84664">
        <ele>275</ele>
        <time>2017-06-16T09:15:29Z</time>
      </trkpt>
      <trkpt lat="45.97492" lon="4.8466">
        <ele>275</ele>
        <time>2017-06-16T09:15:30Z</time>
      </trkpt>
      <trkpt lat="45.97498" lon="4.84656">
        <ele>275</ele>
        <time>2017-06-16T09:15:31Z</time>
      </trkpt>
      <trkpt lat="45.97503" lon="4.84652">
        <ele>275</ele>
        <time>2017-06-16T09:15:32Z</time>
      </trkpt>
      <trkpt lat="45.97509" lon="4.84648">
        <ele>275</ele>
        <time>2017-06-16T09:15:33Z</time>
      </trkpt>
      <trkpt lat="45.97515" lon="4.84644">
        <ele>275</ele>
        <time>2017-06-16T09:15:34Z</time>
      </trkpt>
      <trkpt lat="45.9752" lon="4.8464">
        <ele>275</ele>
        <time>2017-06-16T09:15:35Z</time>
      </trkpt>
      <trkpt lat="45.97525" lon="4.84635">
        <ele>275</ele>
        <time>2017-06-16T09:15:36Z</time>
      </trkpt>
      <trkpt lat="45.9753" lon="4.84631">
        <ele>275</ele>
        <time>2017-06-16T09:15:37Z</time>
      </trkpt>
      <trkpt lat="45.97536" lon="4.84626">
        <ele>275</ele>
        <time>2017-06-16T09:15:38Z</time>
      </trkpt>
      <trkpt lat="45.97541" lon="4.84622">
        <ele>275</ele>
        <time>2017-06-16T09:15:39Z</time>
      </trkpt>
      <trkpt lat="45.97546" lon="4.84617">
        <ele>274</ele>
        <time>2017-06-16T09:15:40Z</time>
      </trkpt>
      <trkpt lat="45.97552" lon="4.84611">
        <ele>274</ele>
        <time>2017-06-16T09:15:41Z</time>
      </trkpt>
      <trkpt lat="45.97557" lon="4.84606">
        <ele>274</ele>
        <time>2017-06-16T09:15:42Z</time>
      </trkpt>
      <trkpt lat="45.97562" lon="4.84601">
        <ele>274</ele>
        <time>2017-06-16T09:15:43Z</time>
      </trkpt>
      <trkpt lat="45.97567" lon="4.84596">
        <ele>274</ele>
        <time>2017-06-16T09:15:44Z</time>
      </trkpt>
      <trkpt lat="45.97572" lon="4.8459">
        <ele>274</ele>
        <time>2017-06-16T09:15:45Z</time>
      </trkpt>
      <trkpt lat="45.97576" lon="4.84584">
        <ele>274</ele>
        <time>2017-06-16T09:15:46Z</time>
      </trkpt>
      <trkpt lat="45.97581" lon="4.84579">
        <ele>274</ele>
        <time>2017-06-16T09:15:47Z</time>
      </trkpt>
      <trkpt lat="45.97585" lon="4.84573">
        <ele>274</ele>
        <time>2017-06-16T09:15:48Z</time>
      </trkpt>
      <trkpt lat="45.9759" lon="4.84567">
        <ele>274</ele>
        <time>2017-06-16T09:15:49Z</time>
      </trkpt>
      <trkpt lat="45.97595" lon="4.84562">
        <ele>274</ele>
        <time>2017-06-16T09:15:50Z</time>
      </trkpt>
      <trkpt lat="45.97599" lon="4.84556">
        <ele>275</ele>
        <time>2017-06-16T09:15:51Z</time>
      </trkpt>
      <trkpt lat="45.97604" lon="4.8455">
        <ele>275</ele>
        <time>2017-06-16T09:15:52Z</time>
      </trkpt>
      <trkpt lat="45.97609" lon="4.84544">
        <ele>275</ele>
        <time>2017-06-16T09:15:53Z</time>
      </trkpt>
      <trkpt lat="45.97613" lon="4.84538">
        <ele>275</ele>
        <time>2017-06-16T09:15:54Z</time>
      </trkpt>
      <trkpt lat="45.97618" lon="4.84533">
        <ele>275</ele>
        <time>2017-06-16T09:15:55Z</time>
      </trkpt>
      <trkpt lat="45.97623" lon="4.84528">
        <ele>275</ele>
        <time>2017-06-16T09:15:56Z</time>
      </trkpt>
      <trkpt lat="45.97627" lon="4.84522">
        <ele>275</ele>
        <time>2017-06-16T09:15:57Z</time>
      </trkpt>
      <trkpt lat="45.97632" lon="4.84516">
        <ele>275</ele>
        <time>2017-06-16T09:15:58Z</time>
      </trkpt>
      <trkpt lat="45.97637" lon="4.8451">
        <ele>275</ele>
        <time>2017-06-16T09:15:59Z</time>
      </trkpt>
      <trkpt lat="45.97642" lon="4.84505">
        <ele>275</ele>
        <time>2017-06-16T09:16:00Z</time>
      </trkpt>
      <trkpt lat="45.97647" lon="4.84499">
        <ele>275</ele>
        <time>2017-06-16T09:16:01Z</time>
      </trkpt>
      <trkpt lat="45.97651" lon="4.84494">
        <ele>275</ele>
        <time>2017-06-16T09:16:02Z</time>
      </trkpt>
      <trkpt lat="45.97656" lon="4.84489">
        <ele>275</ele>
        <time>2017-06-16T09:16:03Z</time>
      </trkpt>
      <trkpt lat="45.97661" lon="4.84484">
        <ele>275</ele>
        <time>2017-06-16T09:16:04Z</time>
      </trkpt>
      <trkpt lat="45.97666" lon="4.8448">
        <ele>276</ele>
        <time>2017-06-16T09:16:05Z</time>
      </trkpt>
      <trkpt lat="45.97671" lon="4.84476">
        <ele>276</ele>
        <time>2017-06-16T09:16:06Z</time>
      </trkpt>
      <trkpt lat="45.97677" lon="4.84473">
        <ele>276</ele>
        <time>2017-06-16T09:16:07Z</time>
      </trkpt>
      <trkpt lat="45.97682" lon="4.84469">
        <ele>277</ele>
        <time>2017-06-16T09:16:08Z</time>
      </trkpt>
      <trkpt lat="45.97688" lon="4.84466">
        <ele>277</ele>
        <time>2017-06-16T09:16:09Z</time>
      </trkpt>
      <trkpt lat="45.97693" lon="4.84463">
        <ele>277</ele>
        <time>2017-06-16T09:16:10Z</time>
      </trkpt>
      <trkpt lat="45.97698" lon="4.8446">
        <ele>277</ele>
        <time>2017-06-16T09:16:11Z</time>
      </trkpt>
      <trkpt lat="45.97704" lon="4.84457">
        <ele>277</ele>
        <time>2017-06-16T09:16:12Z</time>
      </trkpt>
      <trkpt lat="45.97709" lon="4.84455">
        <ele>277</ele>
        <time>2017-06-16T09:16:13Z</time>
      </trkpt>
      <trkpt lat="45.97715" lon="4.84453">
        <ele>277</ele>
        <time>2017-06-16T09:16:14Z</time>
      </trkpt>
      <trkpt lat="45.9772" lon="4.8445">
        <ele>277</ele>
        <time>2017-06-16T09:16:15Z</time>
      </trkpt>
      <trkpt lat="45.97725" lon="4.84448">
        <ele>277</ele>
        <time>2017-06-16T09:16:16Z</time>
      </trkpt>
      <trkpt lat="45.97731" lon="4.84446">
        <ele>277</ele>
        <time>2017-06-16T09:16:17Z</time>
      </trkpt>
      <trkpt lat="45.97736" lon="4.84445">
        <ele>277</ele>
        <time>2017-06-16T09:16:18Z</time>
      </trkpt>
      <trkpt lat="45.97742" lon="4.84443">
        <ele>277</ele>
        <time>2017-06-16T09:16:19Z</time>
      </trkpt>
      <trkpt lat="45.97747" lon="4.84441">
        <ele>277</ele>
        <time>2017-06-16T09:16:20Z</time>
      </trkpt>
      <trkpt lat="45.97752" lon="4.84439">
        <ele>277</ele>
        <time>2017-06-16T09:16:21Z</time>
      </trkpt>
      <trkpt lat="45.97758" lon="4.84438">
        <ele>277</ele>
        <time>2017-06-16T09:16:22Z</time>
      </trkpt>
      <trkpt lat="45.97763" lon="4.84436">
        <ele>277</ele>
        <time>2017-06-16T09:16:23Z</time>
      </trkpt>
      <trkpt lat="45.97769" lon="4.84435">
        <ele>277</ele>
        <time>2017-06-16T09:16:24Z</time>
      </trkpt>
      <trkpt lat="45.97774" lon="4.84433">
        <ele>277</ele>
        <time>2017-06-16T09:16:25Z</time>
      </trkpt>
      <trkpt lat="45.9778" lon="4.84431">
        <ele>277</ele>
        <time>2017-06-16T09:16:26Z</time>
      </trkpt>
      <trkpt lat="45.97785" lon="4.84429">
        <ele>277</ele>
        <time>2017-06-16T09:16:27Z</time>
      </trkpt>
      <trkpt lat="45.97791" lon="4.84427">
        <ele>277</ele>
        <time>2017-06-16T09:16:28Z</time>
      </trkpt>
      <trkpt lat="45.97796" lon="4.84425">
        <ele>277</ele>
        <time>2017-06-16T09:16:29Z</time>
      </trkpt>
      <trkpt lat="45.97801" lon="4.84422">
        <ele>277</ele>
        <time>2017-06-16T09:16:30Z</time>
      </trkpt>
      <trkpt lat="45.97806" lon="4.84419">
        <ele>277</ele>
        <time>2017-06-16T09:16:31Z</time>
      </trkpt>
      <trkpt lat="45.97812" lon="4.84416">
        <ele>277</ele>
        <time>2017-06-16T09:16:32Z</time>
      </trkpt>
      <trkpt lat="45.97817" lon="4.84412">
        <ele>276</ele>
        <time>2017-06-16T09:16:33Z</time>
      </trkpt>
      <trkpt lat="45.97822" lon="4.84408">
        <ele>276</ele>
        <time>2017-06-16T09:16:34Z</time>
      </trkpt>
      <trkpt lat="45.97827" lon="4.84404">
        <ele>276</ele>
        <time>2017-06-16T09:16:35Z</time>
      </trkpt>
      <trkpt lat="45.97832" lon="4.844">
        <ele>276</ele>
        <time>2017-06-16T09:16:36Z</time>
      </trkpt>
      <trkpt lat="45.97837" lon="4.84395">
        <ele>276</ele>
        <time>2017-06-16T09:16:37Z</time>
      </trkpt>
      <trkpt lat="45.97842" lon="4.84391">
        <ele>276</ele>
        <time>2017-06-16T09:16:38Z</time>
      </trkpt>
      <trkpt lat="45.97846" lon="4.84386">
        <ele>276</ele>
        <time>2017-06-16T09:16:39Z</time>
      </trkpt>
      <trkpt lat="45.97851" lon="4.8438">
        <ele>276</ele>
        <time>2017-06-16T09:16:40Z</time>
      </trkpt>
      <trkpt lat="45.97855" lon="4.84375">
        <ele>276</ele>
        <time>2017-06-16T09:16:41Z</time>
      </trkpt>
      <trkpt lat="45.9786" lon="4.84369">
        <ele>276</ele>
        <time>2017-06-16T09:16:42Z</time>
      </trkpt>
      <trkpt lat="45.97864" lon="4.84363">
        <ele>276</ele>
        <time>2017-06-16T09:16:43Z</time>
      </trkpt>
      <trkpt lat="45.97868" lon="4.84357">
        <ele>276</ele>
        <time>2017-06-16T09:16:44Z</time>
      </trkpt>
      <trkpt lat="45.97871" lon="4.8435">
        <ele>276</ele>
        <time>2017-06-16T09:16:45Z</time>
      </trkpt>
      <trkpt lat="45.97876" lon="4.84344">
        <ele>275</ele>
        <time>2017-06-16T09:16:46Z</time>
      </trkpt>
      <trkpt lat="45.9788" lon="4.84338">
        <ele>275</ele>
        <time>2017-06-16T09:16:47Z</time>
      </trkpt>
      <trkpt lat="45.97884" lon="4.84331">
        <ele>275</ele>
        <time>2017-06-16T09:16:48Z</time>
      </trkpt>
      <trkpt lat="45.97887" lon="4.84325">
        <ele>275</ele>
        <time>2017-06-16T09:16:49Z</time>
      </trkpt>
      <trkpt lat="45.97891" lon="4.8432">
        <ele>275</ele>
        <time>2017-06-16T09:16:50Z</time>
      </trkpt>
      <trkpt lat="45.97894" lon="4.84314">
        <ele>275</ele>
        <time>2017-06-16T09:16:51Z</time>
      </trkpt>
      <trkpt lat="45.97898" lon="4.84309">
        <ele>275</ele>
        <time>2017-06-16T09:16:52Z</time>
      </trkpt>
      <trkpt lat="45.97902" lon="4.84303">
        <ele>275</ele>
        <time>2017-06-16T09:16:53Z</time>
      </trkpt>
      <trkpt lat="45.97906" lon="4.84297">
        <ele>275</ele>
        <time>2017-06-16T09:16:54Z</time>
      </trkpt>
      <trkpt lat="45.9791" lon="4.84291">
        <ele>275</ele>
        <time>2017-06-16T09:16:55Z</time>
      </trkpt>
      <trkpt lat="45.97914" lon="4.84286">
        <ele>275</ele>
        <time>2017-06-16T09:16:56Z</time>
      </trkpt>
      <trkpt lat="45.97919" lon="4.84281">
        <ele>275</ele>
        <time>2017-06-16T09:16:57Z</time>
      </trkpt>
      <trkpt lat="45.97923" lon="4.84276">
        <ele>275</ele>
        <time>2017-06-16T09:16:58Z</time>
      </trkpt>
      <trkpt lat="45.97927" lon="4.84271">
        <ele>275</ele>
        <time>2017-06-16T09:16:59Z</time>
      </trkpt>
      <trkpt lat="45.97932" lon="4.84266">
        <ele>275</ele>
        <time>2017-06-16T09:17:00Z</time>
      </trkpt>
      <trkpt lat="45.97936" lon="4.84262">
        <ele>275</ele>
        <time>2017-06-16T09:17:01Z</time>
      </trkpt>
      <trkpt lat="45.97941" lon="4.84258">
        <ele>275</ele>
        <time>2017-06-16T09:17:02Z</time>
      </trkpt>
      <trkpt lat="45.97945" lon="4.84254">
        <ele>275</ele>
        <time>2017-06-16T09:17:03Z</time>
      </trkpt>
      <trkpt lat="45.97949" lon="4.84249">
        <ele>275</ele>
        <time>2017-06-16T09:17:04Z</time>
      </trkpt>
      <trkpt lat="45.97954" lon="4.84244">
        <ele>275</ele>
        <time>2017-06-16T09:17:05Z</time>
      </trkpt>
      <trkpt lat="45.97958" lon="4.8424">
        <ele>275</ele>
        <time>2017-06-16T09:17:06Z</time>
      </trkpt>
      <trkpt lat="45.97963" lon="4.84236">
        <ele>274</ele>
        <time>2017-06-16T09:17:07Z</time>
      </trkpt>
      <trkpt lat="45.97968" lon="4.84231">
        <ele>274</ele>
        <time>2017-06-16T09:17:08Z</time>
      </trkpt>
      <trkpt lat="45.97973" lon="4.84227">
        <ele>274</ele>
        <time>2017-06-16T09:17:09Z</time>
      </trkpt>
      <trkpt lat="45.97977" lon="4.84223">
        <ele>274</ele>
        <time>2017-06-16T09:17:10Z</time>
      </trkpt>
      <trkpt lat="45.97982" lon="4.84219">
        <ele>274</ele>
        <time>2017-06-16T09:17:11Z</time>
      </trkpt>
      <trkpt lat="45.97987" lon="4.84214">
        <ele>274</ele>
        <time>2017-06-16T09:17:12Z</time>
      </trkpt>
      <trkpt lat="45.97992" lon="4.8421">
        <ele>274</ele>
        <time>2017-06-16T09:17:13Z</time>
      </trkpt>
      <trkpt lat="45.97996" lon="4.84205">
        <ele>274</ele>
        <time>2017-06-16T09:17:14Z</time>
      </trkpt>
      <trkpt lat="45.98001" lon="4.84201">
        <ele>274</ele>
        <time>2017-06-16T09:17:15Z</time>
      </trkpt>
      <trkpt lat="45.98006" lon="4.84197">
        <ele>274</ele>
        <time>2017-06-16T09:17:16Z</time>
      </trkpt>
      <trkpt lat="45.9801" lon="4.84192">
        <ele>274</ele>
        <time>2017-06-16T09:17:17Z</time>
      </trkpt>
      <trkpt lat="45.98015" lon="4.84187">
        <ele>274</ele>
        <time>2017-06-16T09:17:18Z</time>
      </trkpt>
      <trkpt lat="45.98019" lon="4.84183">
        <ele>274</ele>
        <time>2017-06-16T09:17:19Z</time>
      </trkpt>
      <trkpt lat="45.98023" lon="4.84178">
        <ele>274</ele>
        <time>2017-06-16T09:17:20Z</time>
      </trkpt>
      <trkpt lat="45.98028" lon="4.84175">
        <ele>274</ele>
        <time>2017-06-16T09:17:21Z</time>
      </trkpt>
      <trkpt lat="45.98033" lon="4.8417">
        <ele>273</ele>
        <time>2017-06-16T09:17:22Z</time>
      </trkpt>
      <trkpt lat="45.98038" lon="4.84166">
        <ele>273</ele>
        <time>2017-06-16T09:17:23Z</time>
      </trkpt>
      <trkpt lat="45.98044" lon="4.84161">
        <ele>273</ele>
        <time>2017-06-16T09:17:24Z</time>
      </trkpt>
      <trkpt lat="45.98049" lon="4.84156">
        <ele>273</ele>
        <time>2017-06-16T09:17:25Z</time>
      </trkpt>
      <trkpt lat="45.98054" lon="4.8415">
        <ele>273</ele>
        <time>2017-06-16T09:17:26Z</time>
      </trkpt>
      <trkpt lat="45.9806" lon="4.84145">
        <ele>273</ele>
        <time>2017-06-16T09:17:27Z</time>
      </trkpt>
      <trkpt lat="45.98065" lon="4.84139">
        <ele>273</ele>
        <time>2017-06-16T09:17:28Z</time>
      </trkpt>
      <trkpt lat="45.98071" lon="4.84134">
        <ele>273</ele>
        <time>2017-06-16T09:17:29Z</time>
      </trkpt>
      <trkpt lat="45.98077" lon="4.84128">
        <ele>273</ele>
        <time>2017-06-16T09:17:30Z</time>
      </trkpt>
      <trkpt lat="45.98083" lon="4.84123">
        <ele>273</ele>
        <time>2017-06-16T09:17:31Z</time>
      </trkpt>
      <trkpt lat="45.98088" lon="4.84118">
        <ele>273</ele>
        <time>2017-06-16T09:17:32Z</time>
      </trkpt>
      <trkpt lat="45.98093" lon="4.84113">
        <ele>273</ele>
        <time>2017-06-16T09:17:33Z</time>
      </trkpt>
      <trkpt lat="45.98098" lon="4.84108">
        <ele>273</ele>
        <time>2017-06-16T09:17:34Z</time>
      </trkpt>
      <trkpt lat="45.98103" lon="4.84104">
        <ele>273</ele>
        <time>2017-06-16T09:17:35Z</time>
      </trkpt>
      <trkpt lat="45.98108" lon="4.84099">
        <ele>273</ele>
        <time>2017-06-16T09:17:36Z</time>
      </trkpt>
      <trkpt lat="45.98112" lon="4.84095">
        <ele>273</ele>
        <time>2017-06-16T09:17:37Z</time>
      </trkpt>
      <trkpt lat="45.98117" lon="4.8409">
        <ele>273</ele>
        <time>2017-06-16T09:17:38Z</time>
      </trkpt>
      <trkpt lat="45.98122" lon="4.84085">
        <ele>273</ele>
        <time>2017-06-16T09:17:39Z</time>
      </trkpt>
      <trkpt lat="45.98127" lon="4.8408">
        <ele>273</ele>
        <time>2017-06-16T09:17:40Z</time>
      </trkpt>
      <trkpt lat="45.98131" lon="4.84075">
        <ele>273</ele>
        <time>2017-06-16T09:17:41Z</time>
      </trkpt>
      <trkpt lat="45.98136" lon="4.8407">
        <ele>273</ele>
        <time>2017-06-16T09:17:42Z</time>
      </trkpt>
      <trkpt lat="45.9814" lon="4.84064">
        <ele>273</ele>
        <time>2017-06-16T09:17:43Z</time>
      </trkpt>
      <trkpt lat="45.98144" lon="4.84058">
        <ele>273</ele>
        <time>2017-06-16T09:17:44Z</time>
      </trkpt>
      <trkpt lat="45.98149" lon="4.84052">
        <ele>273</ele>
        <time>2017-06-16T09:17:45Z</time>
      </trkpt>
      <trkpt lat="45.98152" lon="4.84046">
        <ele>273</ele>
        <time>2017-06-16T09:17:46Z</time>
      </trkpt>
      <trkpt lat="45.98156" lon="4.8404">
        <ele>273</ele>
        <time>2017-06-16T09:17:47Z</time>
      </trkpt>
      <trkpt lat="45.9816" lon="4.84033">
        <ele>273</ele>
        <time>2017-06-16T09:17:48Z</time>
      </trkpt>
      <trkpt lat="45.98164" lon="4.84028">
        <ele>273</ele>
        <time>2017-06-16T09:17:49Z</time>
      </trkpt>
      <trkpt lat="45.98167" lon="4.84021">
        <ele>273</ele>
        <time>2017-06-16T09:17:50Z</time>
      </trkpt>
      <trkpt lat="45.98171" lon="4.84015">
        <ele>273</ele>
        <time>2017-06-16T09:17:51Z</time>
      </trkpt>
      <trkpt lat="45.98175" lon="4.84008">
        <ele>273</ele>
        <time>2017-06-16T09:17:52Z</time>
      </trkpt>
      <trkpt lat="45.98178" lon="4.84001">
        <ele>273</ele>
        <time>2017-06-16T09:17:53Z</time>
      </trkpt>
      <trkpt lat="45.98181" lon="4.83993">
        <ele>273</ele>
        <time>2017-06-16T09:17:54Z</time>
      </trkpt>
      <trkpt lat="45.98184" lon="4.83986">
        <ele>273</ele>
        <time>2017-06-16T09:17:55Z</time>
      </trkpt>
      <trkpt lat="45.98187" lon="4.83978">
        <ele>273</ele>
        <time>2017-06-16T09:17:56Z</time>
      </trkpt>
      <trkpt lat="45.9819" lon="4.83971">
        <ele>273</ele>
        <time>2017-06-16T09:17:57Z</time>
      </trkpt>
      <trkpt lat="45.98192" lon="4.83963">
        <ele>273</ele>
        <time>2017-06-16T09:17:58Z</time>
      </trkpt>
      <trkpt lat="45.98195" lon="4.83955">
        <ele>273</ele>
        <time>2017-06-16T09:17:59Z</time>
      </trkpt>
      <trkpt lat="45.98198" lon="4.83947">
        <ele>273</ele>
        <time>2017-06-16T09:18:00Z</time>
      </trkpt>
      <trkpt lat="45.982" lon="4.8394">
        <ele>273</ele>
        <time>2017-06-16T09:18:01Z</time>
      </trkpt>
      <trkpt lat="45.98203" lon="4.83932">
        <ele>273</ele>
        <time>2017-06-16T09:18:02Z</time>
      </trkpt>
      <trkpt lat="45.98206" lon="4.83925">
        <ele>273</ele>
        <time>2017-06-16T09:18:03Z</time>
      </trkpt>
      <trkpt lat="45.98208" lon="4.83917">
        <ele>273</ele>
        <time>2017-06-16T09:18:04Z</time>
      </trkpt>
      <trkpt lat="45.98211" lon="4.8391">
        <ele>273</ele>
        <time>2017-06-16T09:18:05Z</time>
      </trkpt>
      <trkpt lat="45.98213" lon="4.83902">
        <ele>273</ele>
        <time>2017-06-16T09:18:06Z</time>
      </trkpt>
      <trkpt lat="45.98216" lon="4.83895">
        <ele>273</ele>
        <time>2017-06-16T09:18:07Z</time>
      </trkpt>
      <trkpt lat="45.98218" lon="4.83887">
        <ele>272</ele>
        <time>2017-06-16T09:18:08Z</time>
      </trkpt>
      <trkpt lat="45.98221" lon="4.8388">
        <ele>272</ele>
        <time>2017-06-16T09:18:09Z</time>
      </trkpt>
      <trkpt lat="45.98224" lon="4.83873">
        <ele>272</ele>
        <time>2017-06-16T09:18:10Z</time>
      </trkpt>
      <trkpt lat="45.98226" lon="4.83866">
        <ele>272</ele>
        <time>2017-06-16T09:18:11Z</time>
      </trkpt>
      <trkpt lat="45.98228" lon="4.83859">
        <ele>272</ele>
        <time>2017-06-16T09:18:12Z</time>
      </trkpt>
      <trkpt lat="45.9823" lon="4.83852">
        <ele>272</ele>
        <time>2017-06-16T09:18:13Z</time>
      </trkpt>
      <trkpt lat="45.98232" lon="4.83845">
        <ele>272</ele>
        <time>2017-06-16T09:18:14Z</time>
      </trkpt>
      <trkpt lat="45.98235" lon="4.83838">
        <ele>272</ele>
        <time>2017-06-16T09:18:15Z</time>
      </trkpt>
      <trkpt lat="45.98237" lon="4.83831">
        <ele>272</ele>
        <time>2017-06-16T09:18:16Z</time>
      </trkpt>
      <trkpt lat="45.98239" lon="4.83824">
        <ele>272</ele>
        <time>2017-06-16T09:18:17Z</time>
      </trkpt>
      <trkpt lat="45.98242" lon="4.83817">
        <ele>272</ele>
        <time>2017-06-16T09:18:18Z</time>
      </trkpt>
      <trkpt lat="45.98244" lon="4.8381">
        <ele>272</ele>
        <time>2017-06-16T09:18:19Z</time>
      </trkpt>
      <trkpt lat="45.98247" lon="4.83803">
        <ele>272</ele>
        <time>2017-06-16T09:18:20Z</time>
      </trkpt>
      <trkpt lat="45.98249" lon="4.83796">
        <ele>272</ele>
        <time>2017-06-16T09:18:21Z</time>
      </trkpt>
      <trkpt lat="45.98251" lon="4.83789">
        <ele>272</ele>
        <time>2017-06-16T09:18:22Z</time>
      </trkpt>
      <trkpt lat="45.98254" lon="4.83782">
        <ele>272</ele>
        <time>2017-06-16T09:18:23Z</time>
      </trkpt>
      <trkpt lat="45.98257" lon="4.83774">
        <ele>272</ele>
        <time>2017-06-16T09:18:24Z</time>
      </trkpt>
      <trkpt lat="45.98259" lon="4.83767">
        <ele>272</ele>
        <time>2017-06-16T09:18:25Z</time>
      </trkpt>
      <trkpt lat="45.98262" lon="4.83759">
        <ele>272</ele>
        <time>2017-06-16T09:18:26Z</time>
      </trkpt>
      <trkpt lat="45.98265" lon="4.83752">
        <ele>272</ele>
        <time>2017-06-16T09:18:27Z</time>
      </trkpt>
      <trkpt lat="45.98267" lon="4.83744">
        <ele>272</ele>
        <time>2017-06-16T09:18:28Z</time>
      </trkpt>
      <trkpt lat="45.9827" lon="4.83737">
        <ele>272</ele>
        <time>2017-06-16T09:18:29Z</time>
      </trkpt>
      <trkpt lat="45.98272" lon="4.83729">
        <ele>272</ele>
        <time>2017-06-16T09:18:30Z</time>
      </trkpt>
      <trkpt lat="45.98275" lon="4.83722">
        <ele>272</ele>
        <time>2017-06-16T09:18:31Z</time>
      </trkpt>
      <trkpt lat="45.98277" lon="4.83715">
        <ele>272</ele>
        <time>2017-06-16T09:18:32Z</time>
      </trkpt>
      <trkpt lat="45.9828" lon="4.83708">
        <ele>272</ele>
        <time>2017-06-16T09:18:33Z</time>
      </trkpt>
      <trkpt lat="45.98282" lon="4.83701">
        <ele>272</ele>
        <time>2017-06-16T09:18:34Z</time>
      </trkpt>
      <trkpt lat="45.98285" lon="4.83693">
        <ele>272</ele>
        <time>2017-06-16T09:18:35Z</time>
      </trkpt>
      <trkpt lat="45.98288" lon="4.83685">
        <ele>272</ele>
        <time>2017-06-16T09:18:36Z</time>
      </trkpt>
      <trkpt lat="45.98291" lon="4.83677">
        <ele>272</ele>
        <time>2017-06-16T09:18:37Z</time>
      </trkpt>
      <trkpt lat="45.98294" lon="4.83668">
        <ele>272</ele>
        <time>2017-06-16T09:18:38Z</time>
      </trkpt>
      <trkpt lat="45.98298" lon="4.83659">
        <ele>271</ele>
        <time>2017-06-16T09:18:39Z</time>
      </trkpt>
      <trkpt lat="45.98301" lon="4.83651">
        <ele>271</ele>
        <time>2017-06-16T09:18:40Z</time>
      </trkpt>
      <trkpt lat="45.98305" lon="4.83643">
        <ele>271</ele>
        <time>2017-06-16T09:18:41Z</time>
      </trkpt>
      <trkpt lat="45.98309" lon="4.83635">
        <ele>271</ele>
        <time>2017-06-16T09:18:42Z</time>
      </trkpt>
      <trkpt lat="45.98313" lon="4.83627">
        <ele>271</ele>
        <time>2017-06-16T09:18:43Z</time>
      </trkpt>
      <trkpt lat="45.98316" lon="4.83621">
        <ele>271</ele>
        <time>2017-06-16T09:18:44Z</time>
      </trkpt>
      <trkpt lat="45.9832" lon="4.83614">
        <ele>271</ele>
        <time>2017-06-16T09:18:45Z</time>
      </trkpt>
      <trkpt lat="45.98324" lon="4.83608">
        <ele>271</ele>
        <time>2017-06-16T09:18:46Z</time>
      </trkpt>
      <trkpt lat="45.98328" lon="4.83602">
        <ele>271</ele>
        <time>2017-06-16T09:18:47Z</time>
      </trkpt>
      <trkpt lat="45.98332" lon="4.83596">
        <ele>270</ele>
        <time>2017-06-16T09:18:48Z</time>
      </trkpt>
      <trkpt lat="45.98336" lon="4.83591">
        <ele>270</ele>
        <time>2017-06-16T09:18:49Z</time>
      </trkpt>
      <trkpt lat="45.98341" lon="4.83585">
        <ele>270</ele>
        <time>2017-06-16T09:18:50Z</time>
      </trkpt>
      <trkpt lat="45.98345" lon="4.8358">
        <ele>270</ele>
        <time>2017-06-16T09:18:51Z</time>
      </trkpt>
      <trkpt lat="45.98349" lon="4.83574">
        <ele>269</ele>
        <time>2017-06-16T09:18:52Z</time>
      </trkpt>
      <trkpt lat="45.98353" lon="4.83569">
        <ele>269</ele>
        <time>2017-06-16T09:18:53Z</time>
      </trkpt>
      <trkpt lat="45.98358" lon="4.83564">
        <ele>269</ele>
        <time>2017-06-16T09:18:54Z</time>
      </trkpt>
      <trkpt lat="45.98362" lon="4.83559">
        <ele>269</ele>
        <time>2017-06-16T09:18:55Z</time>
      </trkpt>
      <trkpt lat="45.98365" lon="4.83553">
        <ele>269</ele>
        <time>2017-06-16T09:18:56Z</time>
      </trkpt>
      <trkpt lat="45.98369" lon="4.83548">
        <ele>269</ele>
        <time>2017-06-16T09:18:57Z</time>
      </trkpt>
      <trkpt lat="45.98373" lon="4.83543">
        <ele>269</ele>
        <time>2017-06-16T09:18:58Z</time>
      </trkpt>
      <trkpt lat="45.98376" lon="4.83538">
        <ele>269</ele>
        <time>2017-06-16T09:18:59Z</time>
      </trkpt>
      <trkpt lat="45.9838" lon="4.83532">
        <ele>269</ele>
        <time>2017-06-16T09:19:00Z</time>
      </trkpt>
      <trkpt lat="45.98384" lon="4.83526">
        <ele>269</ele>
        <time>2017-06-16T09:19:01Z</time>
      </trkpt>
      <trkpt lat="45.98388" lon="4.83521">
        <ele>269</ele>
        <time>2017-06-16T09:19:02Z</time>
      </trkpt>
      <trkpt lat="45.98393" lon="4.83515">
        <ele>269</ele>
        <time>2017-06-16T09:19:03Z</time>
      </trkpt>
      <trkpt lat="45.98397" lon="4.83509">
        <ele>269</ele>
        <time>2017-06-16T09:19:04Z</time>
      </trkpt>
      <trkpt lat="45.98402" lon="4.83503">
        <ele>268</ele>
        <time>2017-06-16T09:19:05Z</time>
      </trkpt>
      <trkpt lat="45.98406" lon="4.83496">
        <ele>268</ele>
        <time>2017-06-16T09:19:06Z</time>
      </trkpt>
      <trkpt lat="45.98411" lon="4.8349">
        <ele>268</ele>
        <time>2017-06-16T09:19:07Z</time>
      </trkpt>
      <trkpt lat="45.98416" lon="4.83484">
        <ele>269</ele>
        <time>2017-06-16T09:19:08Z</time>
      </trkpt>
      <trkpt lat="45.9842" lon="4.83478">
        <ele>268</ele>
        <time>2017-06-16T09:19:09Z</time>
      </trkpt>
      <trkpt lat="45.98424" lon="4.83473">
        <ele>268</ele>
        <time>2017-06-16T09:19:10Z</time>
      </trkpt>
      <trkpt lat="45.98428" lon="4.83467">
        <ele>268</ele>
        <time>2017-06-16T09:19:11Z</time>
      </trkpt>
      <trkpt lat="45.98432" lon="4.83462">
        <ele>268</ele>
        <time>2017-06-16T09:19:12Z</time>
      </trkpt>
      <trkpt lat="45.98435" lon="4.83456">
        <ele>268</ele>
        <time>2017-06-16T09:19:13Z</time>
      </trkpt>
      <trkpt lat="45.98439" lon="4.83451">
        <ele>268</ele>
        <time>2017-06-16T09:19:14Z</time>
      </trkpt>
      <trkpt lat="45.98444" lon="4.83446">
        <ele>268</ele>
        <time>2017-06-16T09:19:15Z</time>
      </trkpt>
      <trkpt lat="45.98448" lon="4.83441">
        <ele>268</ele>
        <time>2017-06-16T09:19:16Z</time>
      </trkpt>
      <trkpt lat="45.98452" lon="4.83435">
        <ele>268</ele>
        <time>2017-06-16T09:19:17Z</time>
      </trkpt>
      <trkpt lat="45.98457" lon="4.83429">
        <ele>268</ele>
        <time>2017-06-16T09:19:18Z</time>
      </trkpt>
      <trkpt lat="45.98462" lon="4.83423">
        <ele>269</ele>
        <time>2017-06-16T09:19:19Z</time>
      </trkpt>
      <trkpt lat="45.98466" lon="4.83417">
        <ele>269</ele>
        <time>2017-06-16T09:19:20Z</time>
      </trkpt>
      <trkpt lat="45.98469" lon="4.83411">
        <ele>269</ele>
        <time>2017-06-16T09:19:21Z</time>
      </trkpt>
      <trkpt lat="45.98473" lon="4.83407">
        <ele>269</ele>
        <time>2017-06-16T09:19:22Z</time>
      </trkpt>
      <trkpt lat="45.98477" lon="4.83402">
        <ele>269</ele>
        <time>2017-06-16T09:19:23Z</time>
      </trkpt>
      <trkpt lat="45.9848" lon="4.83397">
        <ele>269</ele>
        <time>2017-06-16T09:19:24Z</time>
      </trkpt>
      <trkpt lat="45.98484" lon="4.83392">
        <ele>269</ele>
        <time>2017-06-16T09:19:25Z</time>
      </trkpt>
      <trkpt lat="45.98487" lon="4.83387">
        <ele>269</ele>
        <time>2017-06-16T09:19:26Z</time>
      </trkpt>
      <trkpt lat="45.98491" lon="4.83383">
        <ele>269</ele>
        <time>2017-06-16T09:19:27Z</time>
      </trkpt>
      <trkpt lat="45.98494" lon="4.83378">
        <ele>269</ele>
        <time>2017-06-16T09:19:28Z</time>
      </trkpt>
      <trkpt lat="45.98498" lon="4.83373">
        <ele>270</ele>
        <time>2017-06-16T09:19:29Z</time>
      </trkpt>
      <trkpt lat="45.98502" lon="4.83368">
        <ele>269</ele>
        <time>2017-06-16T09:19:30Z</time>
      </trkpt>
      <trkpt lat="45.98505" lon="4.83363">
        <ele>269</ele>
        <time>2017-06-16T09:19:31Z</time>
      </trkpt>
      <trkpt lat="45.98509" lon="4.83359">
        <ele>269</ele>
        <time>2017-06-16T09:19:32Z</time>
      </trkpt>
      <trkpt lat="45.98512" lon="4.83354">
        <ele>270</ele>
        <time>2017-06-16T09:19:33Z</time>
      </trkpt>
      <trkpt lat="45.98516" lon="4.83349">
        <ele>270</ele>
        <time>2017-06-16T09:19:34Z</time>
      </trkpt>
      <trkpt lat="45.9852" lon="4.83344">
        <ele>270</ele>
        <time>2017-06-16T09:19:35Z</time>
      </trkpt>
      <trkpt lat="45.98523" lon="4.83339">
        <ele>270</ele>
        <time>2017-06-16T09:19:36Z</time>
      </trkpt>
      <trkpt lat="45.98526" lon="4.83334">
        <ele>269</ele>
        <time>2017-06-16T09:19:37Z</time>
      </trkpt>
      <trkpt lat="45.9853" lon="4.83329">
        <ele>269</ele>
        <time>2017-06-16T09:19:38Z</time>
      </trkpt>
      <trkpt lat="45.98534" lon="4.83323">
        <ele>269</ele>
        <time>2017-06-16T09:19:39Z</time>
      </trkpt>
      <trkpt lat="45.98538" lon="4.83318">
        <ele>269</ele>
        <time>2017-06-16T09:19:40Z</time>
      </trkpt>
      <trkpt lat="45.98542" lon="4.83312">
        <ele>269</ele>
        <time>2017-06-16T09:19:41Z</time>
      </trkpt>
      <trkpt lat="45.98546" lon="4.83307">
        <ele>269</ele>
        <time>2017-06-16T09:19:42Z</time>
      </trkpt>
      <trkpt lat="45.9855" lon="4.83301">
        <ele>269</ele>
        <time>2017-06-16T09:19:43Z</time>
      </trkpt>
      <trkpt lat="45.98554" lon="4.83296">
        <ele>269</ele>
        <time>2017-06-16T09:19:44Z</time>
      </trkpt>
      <trkpt lat="45.98558" lon="4.83291">
        <ele>269</ele>
        <time>2017-06-16T09:19:45Z</time>
      </trkpt>
      <trkpt lat="45.98562" lon="4.83286">
        <ele>269</ele>
        <time>2017-06-16T09:19:46Z</time>
      </trkpt>
      <trkpt lat="45.98565" lon="4.83281">
        <ele>269</ele>
        <time>2017-06-16T09:19:47Z</time>
      </trkpt>
      <trkpt lat="45.98569" lon="4.83276">
        <ele>269</ele>
        <time>2017-06-16T09:19:48Z</time>
      </trkpt>
      <trkpt lat="45.98573" lon="4.83271">
        <ele>269</ele>
        <time>2017-06-16T09:19:49Z</time>
      </trkpt>
      <trkpt lat="45.98576" lon="4.83266">
        <ele>269</ele>
        <time>2017-06-16T09:19:50Z</time>
      </trkpt>
      <trkpt lat="45.9858" lon="4.83261">
        <ele>268</ele>
        <time>2017-06-16T09:19:51Z</time>
      </trkpt>
      <trkpt lat="45.98584" lon="4.83256">
        <ele>268</ele>
        <time>2017-06-16T09:19:52Z</time>
      </trkpt>
      <trkpt lat="45.98588" lon="4.83251">
        <ele>268</ele>
        <time>2017-06-16T09:19:53Z</time>
      </trkpt>
      <trkpt lat="45.98592" lon="4.83246">
        <ele>268</ele>
        <time>2017-06-16T09:19:54Z</time>
      </trkpt>
      <trkpt lat="45.98596" lon="4.83241">
        <ele>268</ele>
        <time>2017-06-16T09:19:55Z</time>
      </trkpt>
      <trkpt lat="45.98599" lon="4.83236">
        <ele>268</ele>
        <time>2017-06-16T09:19:56Z</time>
      </trkpt>
      <trkpt lat="45.98603" lon="4.8323">
        <ele>268</ele>
        <time>2017-06-16T09:19:57Z</time>
      </trkpt>
      <trkpt lat="45.98607" lon="4.83225">
        <ele>267</ele>
        <time>2017-06-16T09:19:58Z</time>
      </trkpt>
      <trkpt lat="45.98611" lon="4.8322">
        <ele>267</ele>
        <time>2017-06-16T09:19:59Z</time>
      </trkpt>
      <trkpt lat="45.98615" lon="4.83215">
        <ele>267</ele>
        <time>2017-06-16T09:20:00Z</time>
      </trkpt>
      <trkpt lat="45.98618" lon="4.8321">
        <ele>267</ele>
        <time>2017-06-16T09:20:01Z</time>
      </trkpt>
      <trkpt lat="45.98622" lon="4.83205">
        <ele>267</ele>
        <time>2017-06-16T09:20:02Z</time>
      </trkpt>
      <trkpt lat="45.98627" lon="4.832">
        <ele>267</ele>
        <time>2017-06-16T09:20:03Z</time>
      </trkpt>
      <trkpt lat="45.98631" lon="4.83196">
        <ele>267</ele>
        <time>2017-06-16T09:20:04Z</time>
      </trkpt>
      <trkpt lat="45.98635" lon="4.83191">
        <ele>267</ele>
        <time>2017-06-16T09:20:05Z</time>
      </trkpt>
      <trkpt lat="45.98639" lon="4.83187">
        <ele>267</ele>
        <time>2017-06-16T09:20:06Z</time>
      </trkpt>
      <trkpt lat="45.98643" lon="4.83182">
        <ele>267</ele>
        <time>2017-06-16T09:20:07Z</time>
      </trkpt>
      <trkpt lat="45.98648" lon="4.83179">
        <ele>267</ele>
        <time>2017-06-16T09:20:08Z</time>
      </trkpt>
      <trkpt lat="45.98652" lon="4.83175">
        <ele>267</ele>
        <time>2017-06-16T09:20:09Z</time>
      </trkpt>
      <trkpt lat="45.98656" lon="4.83171">
        <ele>266</ele>
        <time>2017-06-16T09:20:10Z</time>
      </trkpt>
      <trkpt lat="45.98661" lon="4.83168">
        <ele>266</ele>
        <time>2017-06-16T09:20:11Z</time>
      </trkpt>
      <trkpt lat="45.98665" lon="4.83164">
        <ele>266</ele>
        <time>2017-06-16T09:20:12Z</time>
      </trkpt>
      <trkpt lat="45.9867" lon="4.8316">
        <ele>266</ele>
        <time>2017-06-16T09:20:13Z</time>
      </trkpt>
      <trkpt lat="45.98675" lon="4.83157">
        <ele>266</ele>
        <time>2017-06-16T09:20:14Z</time>
      </trkpt>
      <trkpt lat="45.9868" lon="4.83153">
        <ele>266</ele>
        <time>2017-06-16T09:20:15Z</time>
      </trkpt>
      <trkpt lat="45.98684" lon="4.8315">
        <ele>266</ele>
        <time>2017-06-16T09:20:16Z</time>
      </trkpt>
      <trkpt lat="45.98688" lon="4.83146">
        <ele>266</ele>
        <time>2017-06-16T09:20:17Z</time>
      </trkpt>
      <trkpt lat="45.98693" lon="4.83143">
        <ele>266</ele>
        <time>2017-06-16T09:20:18Z</time>
      </trkpt>
      <trkpt lat="45.98697" lon="4.8314">
        <ele>266</ele>
        <time>2017-06-16T09:20:19Z</time>
      </trkpt>
      <trkpt lat="45.98702" lon="4.83137">
        <ele>266</ele>
        <time>2017-06-16T09:20:20Z</time>
      </trkpt>
      <trkpt lat="45.98706" lon="4.83133">
        <ele>266</ele>
        <time>2017-06-16T09:20:21Z</time>
      </trkpt>
      <trkpt lat="45.98711" lon="4.83129">
        <ele>266</ele>
        <time>2017-06-16T09:20:22Z</time>
      </trkpt>
      <trkpt lat="45.98715" lon="4.83126">
        <ele>266</ele>
        <time>2017-06-16T09:20:23Z</time>
      </trkpt>
      <trkpt lat="45.9872" lon="4.83122">
        <ele>266</ele>
        <time>2017-06-16T09:20:24Z</time>
      </trkpt>
      <trkpt lat="45.98724" lon="4.83118">
        <ele>266</ele>
        <time>2017-06-16T09:20:25Z</time>
      </trkpt>
      <trkpt lat="45.98729" lon="4.83115">
        <ele>267</ele>
        <time>2017-06-16T09:20:26Z</time>
      </trkpt>
      <trkpt lat="45.98733" lon="4.83111">
        <ele>267</ele>
        <time>2017-06-16T09:20:27Z</time>
      </trkpt>
      <trkpt lat="45.98738" lon="4.83107">
        <ele>267</ele>
        <time>2017-06-16T09:20:28Z</time>
      </trkpt>
      <trkpt lat="45.98742" lon="4.83103">
        <ele>267</ele>
        <time>2017-06-16T09:20:29Z</time>
      </trkpt>
      <trkpt lat="45.98747" lon="4.83099">
        <ele>267</ele>
        <time>2017-06-16T09:20:30Z</time>
      </trkpt>
      <trkpt lat="45.98751" lon="4.83095">
        <ele>266</ele>
        <time>2017-06-16T09:20:31Z</time>
      </trkpt>
      <trkpt lat="45.98756" lon="4.8309">
        <ele>266</ele>
        <time>2017-06-16T09:20:32Z</time>
      </trkpt>
      <trkpt lat="45.9876" lon="4.83086">
        <ele>266</ele>
        <time>2017-06-16T09:20:33Z</time>
      </trkpt>
      <trkpt lat="45.98765" lon="4.83082">
        <ele>266</ele>
        <time>2017-06-16T09:20:34Z</time>
      </trkpt>
      <trkpt lat="45.9877" lon="4.83078">
        <ele>266</ele>
        <time>2017-06-16T09:20:35Z</time>
      </trkpt>
      <trkpt lat="45.98775" lon="4.83074">
        <ele>265</ele>
        <time>2017-06-16T09:20:36Z</time>
      </trkpt>
      <trkpt lat="45.98781" lon="4.8307">
        <ele>265</ele>
        <time>2017-06-16T09:20:37Z</time>
      </trkpt>
      <trkpt lat="45.98786" lon="4.83065">
        <ele>265</ele>
        <time>2017-06-16T09:20:38Z</time>
      </trkpt>
      <trkpt lat="45.98791" lon="4.83061">
        <ele>265</ele>
        <time>2017-06-16T09:20:39Z</time>
      </trkpt>
      <trkpt lat="45.98797" lon="4.83057">
        <ele>264</ele>
        <time>2017-06-16T09:20:40Z</time>
      </trkpt>
      <trkpt lat="45.98802" lon="4.83053">
        <ele>264</ele>
        <time>2017-06-16T09:20:41Z</time>
      </trkpt>
      <trkpt lat="45.98807" lon="4.83049">
        <ele>264</ele>
        <time>2017-06-16T09:20:42Z</time>
      </trkpt>
      <trkpt lat="45.98813" lon="4.83044">
        <ele>264</ele>
        <time>2017-06-16T09:20:43Z</time>
      </trkpt>
      <trkpt lat="45.98818" lon="4.8304">
        <ele>264</ele>
        <time>2017-06-16T09:20:44Z</time>
      </trkpt>
      <trkpt lat="45.98824" lon="4.83035">
        <ele>264</ele>
        <time>2017-06-16T09:20:45Z</time>
      </trkpt>
      <trkpt lat="45.9883" lon="4.8303">
        <ele>264</ele>
        <time>2017-06-16T09:20:46Z</time>
      </trkpt>
      <trkpt lat="45.98837" lon="4.83025">
        <ele>261</ele>
        <time>2017-06-16T09:20:47Z</time>
      </trkpt>
      <trkpt lat="45.98843" lon="4.8302">
        <ele>261</ele>
        <time>2017-06-16T09:20:48Z</time>
      </trkpt>
      <trkpt lat="45.9885" lon="4.83015">
        <ele>261</ele>
        <time>2017-06-16T09:20:49Z</time>
      </trkpt>
      <trkpt lat="45.98857" lon="4.83011">
        <ele>261</ele>
        <time>2017-06-16T09:20:50Z</time>
      </trkpt>
      <trkpt lat="45.98864" lon="4.83006">
        <ele>260</ele>
        <time>2017-06-16T09:20:51Z</time>
      </trkpt>
      <trkpt lat="45.98871" lon="4.83">
        <ele>260</ele>
        <time>2017-06-16T09:20:52Z</time>
      </trkpt>
      <trkpt lat="45.98879" lon="4.82995">
        <ele>260</ele>
        <time>2017-06-16T09:20:53Z</time>
      </trkpt>
      <trkpt lat="45.98886" lon="4.8299">
        <ele>259</ele>
        <time>2017-06-16T09:20:54Z</time>
      </trkpt>
      <trkpt lat="45.98894" lon="4.82983">
        <ele>259</ele>
        <time>2017-06-16T09:20:55Z</time>
      </trkpt>
      <trkpt lat="45.98902" lon="4.82976">
        <ele>259</ele>
        <time>2017-06-16T09:20:56Z</time>
      </trkpt>
      <trkpt lat="45.9891" lon="4.82967">
        <ele>259</ele>
        <time>2017-06-16T09:20:57Z</time>
      </trkpt>
      <trkpt lat="45.98917" lon="4.82957">
        <ele>255</ele>
        <time>2017-06-16T09:20:58Z</time>
      </trkpt>
      <trkpt lat="45.98924" lon="4.82945">
        <ele>255</ele>
        <time>2017-06-16T09:20:59Z</time>
      </trkpt>
      <trkpt lat="45.9893" lon="4.82932">
        <ele>255</ele>
        <time>2017-06-16T09:21:00Z</time>
      </trkpt>
      <trkpt lat="45.98935" lon="4.82918">
        <ele>255</ele>
        <time>2017-06-16T09:21:01Z</time>
      </trkpt>
      <trkpt lat="45.98942" lon="4.82904">
        <ele>253</ele>
        <time>2017-06-16T09:21:02Z</time>
      </trkpt>
      <trkpt lat="45.98948" lon="4.82889">
        <ele>253</ele>
        <time>2017-06-16T09:21:03Z</time>
      </trkpt>
      <trkpt lat="45.98954" lon="4.82874">
        <ele>253</ele>
        <time>2017-06-16T09:21:04Z</time>
      </trkpt>
      <trkpt lat="45.98961" lon="4.82859">
        <ele>252</ele>
        <time>2017-06-16T09:21:05Z</time>
      </trkpt>
      <trkpt lat="45.98968" lon="4.82843">
        <ele>252</ele>
        <time>2017-06-16T09:21:06Z</time>
      </trkpt>
      <trkpt lat="45.98974" lon="4.82828">
        <ele>249</ele>
        <time>2017-06-16T09:21:07Z</time>
      </trkpt>
      <trkpt lat="45.98981" lon="4.82812">
        <ele>248</ele>
        <time>2017-06-16T09:21:08Z</time>
      </trkpt>
      <trkpt lat="45.98988" lon="4.82796">
        <ele>247</ele>
        <time>2017-06-16T09:21:09Z</time>
      </trkpt>
      <trkpt lat="45.98994" lon="4.8278">
        <ele>246</ele>
        <time>2017-06-16T09:21:10Z</time>
      </trkpt>
      <trkpt lat="45.99001" lon="4.82764">
        <ele>241</ele>
        <time>2017-06-16T09:21:11Z</time>
      </trkpt>
      <trkpt lat="45.99008" lon="4.82749">
        <ele>240</ele>
        <time>2017-06-16T09:21:12Z</time>
      </trkpt>
      <trkpt lat="45.99015" lon="4.82734">
        <ele>239</ele>
        <time>2017-06-16T09:21:13Z</time>
      </trkpt>
      <trkpt lat="45.99022" lon="4.82718">
        <ele>239</ele>
        <time>2017-06-16T09:21:14Z</time>
      </trkpt>
      <trkpt lat="45.99028" lon="4.82703">
        <ele>238</ele>
        <time>2017-06-16T09:21:15Z</time>
      </trkpt>
      <trkpt lat="45.99035" lon="4.82687">
        <ele>238</ele>
        <time>2017-06-16T09:21:16Z</time>
      </trkpt>
      <trkpt lat="45.99042" lon="4.82672">
        <ele>238</ele>
        <time>2017-06-16T09:21:17Z</time>
      </trkpt>
      <trkpt lat="45.99048" lon="4.82658">
        <ele>236</ele>
        <time>2017-06-16T09:21:18Z</time>
      </trkpt>
      <trkpt lat="45.99053" lon="4.82645">
        <ele>236</ele>
        <time>2017-06-16T09:21:19Z</time>
      </trkpt>
      <trkpt lat="45.99058" lon="4.82633">
        <ele>236</ele>
        <time>2017-06-16T09:21:20Z</time>
      </trkpt>
      <trkpt lat="45.99063" lon="4.82622">
        <ele>236</ele>
        <time>2017-06-16T09:21:21Z</time>
      </trkpt>
      <trkpt lat="45.99067" lon="4.82612">
        <ele>236</ele>
        <time>2017-06-16T09:21:22Z</time>
      </trkpt>
      <trkpt lat="45.99071" lon="4.82604">
        <ele>236</ele>
        <time>2017-06-16T09:21:23Z</time>
      </trkpt>
      <trkpt lat="45.99074" lon="4.82598">
        <ele>235</ele>
        <time>2017-06-16T09:21:24Z</time>
      </trkpt>
      <trkpt lat="45.99076" lon="4.82591">
        <ele>235</ele>
        <time>2017-06-16T09:21:25Z</time>
      </trkpt>
      <trkpt lat="45.99077" lon="4.82584">
        <ele>235</ele>
        <time>2017-06-16T09:21:26Z</time>
      </trkpt>
      <trkpt lat="45.99076" lon="4.82578">
        <ele>235</ele>
        <time>2017-06-16T09:21:27Z</time>
      </trkpt>
      <trkpt lat="45.99073" lon="4.82572">
        <ele>235</ele>
        <time>2017-06-16T09:21:28Z</time>
      </trkpt>
      <trkpt lat="45.99069" lon="4.82567">
        <ele>235</ele>
        <time>2017-06-16T09:21:29Z</time>
      </trkpt>
      <trkpt lat="45.99064" lon="4.82566">
        <ele>235</ele>
        <time>2017-06-16T09:21:30Z</time>
      </trkpt>
      <trkpt lat="45.99058" lon="4.82565">
        <ele>235</ele>
        <time>2017-06-16T09:21:31Z</time>
      </trkpt>
      <trkpt lat="45.99053" lon="4.82564">
        <ele>235</ele>
        <time>2017-06-16T09:21:32Z</time>
      </trkpt>
      <trkpt lat="45.99048" lon="4.82561">
        <ele>235</ele>
        <time>2017-06-16T09:21:33Z</time>
      </trkpt>
      <trkpt lat="45.99044" lon="4.82558">
        <ele>235</ele>
        <time>2017-06-16T09:21:34Z</time>
      </trkpt>
      <trkpt lat="45.99039" lon="4.82555">
        <ele>235</ele>
        <time>2017-06-16T09:21:35Z</time>
      </trkpt>
      <trkpt lat="45.99035" lon="4.82552">
        <ele>235</ele>
        <time>2017-06-16T09:21:36Z</time>
      </trkpt>
      <trkpt lat="45.99031" lon="4.82548">
        <ele>235</ele>
        <time>2017-06-16T09:21:37Z</time>
      </trkpt>
      <trkpt lat="45.99024" lon="4.82541">
        <ele>235</ele>
        <time>2017-06-16T09:21:39Z</time>
      </trkpt>
      <trkpt lat="45.99021" lon="4.82537">
        <ele>235</ele>
        <time>2017-06-16T09:21:40Z</time>
      </trkpt>
      <trkpt lat="45.99015" lon="4.82527">
        <ele>235</ele>
        <time>2017-06-16T09:21:42Z</time>
      </trkpt>
      <trkpt lat="45.99013" lon="4.82521">
        <ele>235</ele>
        <time>2017-06-16T09:21:43Z</time>
      </trkpt>
      <trkpt lat="45.9901" lon="4.82515">
        <ele>235</ele>
        <time>2017-06-16T09:21:44Z</time>
      </trkpt>
      <trkpt lat="45.99008" lon="4.82509">
        <ele>235</ele>
        <time>2017-06-16T09:21:45Z</time>
      </trkpt>
      <trkpt lat="45.99004" lon="4.82502">
        <ele>235</ele>
        <time>2017-06-16T09:21:46Z</time>
      </trkpt>
      <trkpt lat="45.99001" lon="4.82495">
        <ele>235</ele>
        <time>2017-06-16T09:21:47Z</time>
      </trkpt>
      <trkpt lat="45.98998" lon="4.82488">
        <ele>236</ele>
        <time>2017-06-16T09:21:48Z</time>
      </trkpt>
      <trkpt lat="45.98995" lon="4.82481">
        <ele>236</ele>
        <time>2017-06-16T09:21:49Z</time>
      </trkpt>
      <trkpt lat="45.98993" lon="4.82474">
        <ele>236</ele>
        <time>2017-06-16T09:21:50Z</time>
      </trkpt>
      <trkpt lat="45.98991" lon="4.82467">
        <ele>236</ele>
        <time>2017-06-16T09:21:51Z</time>
      </trkpt>
      <trkpt lat="45.98988" lon="4.8246">
        <ele>236</ele>
        <time>2017-06-16T09:21:52Z</time>
      </trkpt>
      <trkpt lat="45.98987" lon="4.82453">
        <ele>236</ele>
        <time>2017-06-16T09:21:53Z</time>
      </trkpt>
      <trkpt lat="45.98986" lon="4.82446">
        <ele>236</ele>
        <time>2017-06-16T09:21:54Z</time>
      </trkpt>
      <trkpt lat="45.98984" lon="4.82439">
        <ele>236</ele>
        <time>2017-06-16T09:21:55Z</time>
      </trkpt>
      <trkpt lat="45.98982" lon="4.82433">
        <ele>236</ele>
        <time>2017-06-16T09:21:56Z</time>
      </trkpt>
      <trkpt lat="45.9898" lon="4.82426">
        <ele>236</ele>
        <time>2017-06-16T09:21:57Z</time>
      </trkpt>
      <trkpt lat="45.98978" lon="4.82418">
        <ele>236</ele>
        <time>2017-06-16T09:21:58Z</time>
      </trkpt>
      <trkpt lat="45.98976" lon="4.82411">
        <ele>235</ele>
        <time>2017-06-16T09:21:59Z</time>
      </trkpt>
      <trkpt lat="45.98974" lon="4.82403">
        <ele>235</ele>
        <time>2017-06-16T09:22:00Z</time>
      </trkpt>
      <trkpt lat="45.98973" lon="4.82396">
        <ele>235</ele>
        <time>2017-06-16T09:22:01Z</time>
      </trkpt>
      <trkpt lat="45.98971" lon="4.82388">
        <ele>235</ele>
        <time>2017-06-16T09:22:02Z</time>
      </trkpt>
      <trkpt lat="45.98968" lon="4.82381">
        <ele>235</ele>
        <time>2017-06-16T09:22:03Z</time>
      </trkpt>
      <trkpt lat="45.98966" lon="4.82373">
        <ele>235</ele>
        <time>2017-06-16T09:22:04Z</time>
      </trkpt>
      <trkpt lat="45.98964" lon="4.82366">
        <ele>235</ele>
        <time>2017-06-16T09:22:05Z</time>
      </trkpt>
      <trkpt lat="45.98962" lon="4.82358">
        <ele>235</ele>
        <time>2017-06-16T09:22:06Z</time>
      </trkpt>
      <trkpt lat="45.98958" lon="4.82351">
        <ele>235</ele>
        <time>2017-06-16T09:22:07Z</time>
      </trkpt>
      <trkpt lat="45.98955" lon="4.82344">
        <ele>235</ele>
        <time>2017-06-16T09:22:08Z</time>
      </trkpt>
      <trkpt lat="45.98952" lon="4.82338">
        <ele>235</ele>
        <time>2017-06-16T09:22:09Z</time>
      </trkpt>
      <trkpt lat="45.98948" lon="4.82332">
        <ele>234</ele>
        <time>2017-06-16T09:22:10Z</time>
      </trkpt>
      <trkpt lat="45.98945" lon="4.82326">
        <ele>234</ele>
        <time>2017-06-16T09:22:11Z</time>
      </trkpt>
      <trkpt lat="45.98941" lon="4.82321">
        <ele>234</ele>
        <time>2017-06-16T09:22:12Z</time>
      </trkpt>
      <trkpt lat="45.98938" lon="4.82315">
        <ele>234</ele>
        <time>2017-06-16T09:22:13Z</time>
      </trkpt>
      <trkpt lat="45.98934" lon="4.82311">
        <ele>234</ele>
        <time>2017-06-16T09:22:14Z</time>
      </trkpt>
      <trkpt lat="45.9893" lon="4.82306">
        <ele>234</ele>
        <time>2017-06-16T09:22:15Z</time>
      </trkpt>
      <trkpt lat="45.98926" lon="4.82301">
        <ele>234</ele>
        <time>2017-06-16T09:22:16Z</time>
      </trkpt>
      <trkpt lat="45.98921" lon="4.82295">
        <ele>234</ele>
        <time>2017-06-16T09:22:17Z</time>
      </trkpt>
      <trkpt lat="45.98917" lon="4.8229">
        <ele>234</ele>
        <time>2017-06-16T09:22:18Z</time>
      </trkpt>
      <trkpt lat="45.98912" lon="4.82284">
        <ele>236</ele>
        <time>2017-06-16T09:22:19Z</time>
      </trkpt>
      <trkpt lat="45.98908" lon="4.82278">
        <ele>236</ele>
        <time>2017-06-16T09:22:20Z</time>
      </trkpt>
      <trkpt lat="45.98904" lon="4.82272">
        <ele>236</ele>
        <time>2017-06-16T09:22:21Z</time>
      </trkpt>
      <trkpt lat="45.989" lon="4.82266">
        <ele>236</ele>
        <time>2017-06-16T09:22:22Z</time>
      </trkpt>
      <trkpt lat="45.98896" lon="4.82259">
        <ele>236</ele>
        <time>2017-06-16T09:22:23Z</time>
      </trkpt>
      <trkpt lat="45.98892" lon="4.82253">
        <ele>236</ele>
        <time>2017-06-16T09:22:24Z</time>
      </trkpt>
      <trkpt lat="45.98889" lon="4.82246">
        <ele>235</ele>
        <time>2017-06-16T09:22:25Z</time>
      </trkpt>
      <trkpt lat="45.98885" lon="4.8224">
        <ele>235</ele>
        <time>2017-06-16T09:22:26Z</time>
      </trkpt>
      <trkpt lat="45.98882" lon="4.82234">
        <ele>236</ele>
        <time>2017-06-16T09:22:27Z</time>
      </trkpt>
      <trkpt lat="45.98878" lon="4.82228">
        <ele>236</ele>
        <time>2017-06-16T09:22:28Z</time>
      </trkpt>
      <trkpt lat="45.98875" lon="4.82221">
        <ele>236</ele>
        <time>2017-06-16T09:22:29Z</time>
      </trkpt>
      <trkpt lat="45.98872" lon="4.82213">
        <ele>236</ele>
        <time>2017-06-16T09:22:30Z</time>
      </trkpt>
      <trkpt lat="45.98869" lon="4.82206">
        <ele>236</ele>
        <time>2017-06-16T09:22:31Z</time>
      </trkpt>
      <trkpt lat="45.98867" lon="4.82199">
        <ele>236</ele>
        <time>2017-06-16T09:22:32Z</time>
      </trkpt>
      <trkpt lat="45.98864" lon="4.82192">
        <ele>236</ele>
        <time>2017-06-16T09:22:33Z</time>
      </trkpt>
      <trkpt lat="45.98861" lon="4.82184">
        <ele>236</ele>
        <time>2017-06-16T09:22:34Z</time>
      </trkpt>
      <trkpt lat="45.98859" lon="4.82177">
        <ele>236</ele>
        <time>2017-06-16T09:22:35Z</time>
      </trkpt>
      <trkpt lat="45.98857" lon="4.8217">
        <ele>236</ele>
        <time>2017-06-16T09:22:36Z</time>
      </trkpt>
      <trkpt lat="45.98855" lon="4.82164">
        <ele>236</ele>
        <time>2017-06-16T09:22:37Z</time>
      </trkpt>
      <trkpt lat="45.98853" lon="4.82157">
        <ele>236</ele>
        <time>2017-06-16T09:22:38Z</time>
      </trkpt>
      <trkpt lat="45.98851" lon="4.8215">
        <ele>236</ele>
        <time>2017-06-16T09:22:39Z</time>
      </trkpt>
      <trkpt lat="45.9885" lon="4.82143">
        <ele>236</ele>
        <time>2017-06-16T09:22:40Z</time>
      </trkpt>
      <trkpt lat="45.98848" lon="4.82136">
        <ele>236</ele>
        <time>2017-06-16T09:22:41Z</time>
      </trkpt>
      <trkpt lat="45.98846" lon="4.82129">
        <ele>235</ele>
        <time>2017-06-16T09:22:42Z</time>
      </trkpt>
      <trkpt lat="45.98844" lon="4.82122">
        <ele>235</ele>
        <time>2017-06-16T09:22:43Z</time>
      </trkpt>
      <trkpt lat="45.98843" lon="4.82114">
        <ele>235</ele>
        <time>2017-06-16T09:22:44Z</time>
      </trkpt>
      <trkpt lat="45.98841" lon="4.82106">
        <ele>235</ele>
        <time>2017-06-16T09:22:45Z</time>
      </trkpt>
      <trkpt lat="45.9884" lon="4.82099">
        <ele>236</ele>
        <time>2017-06-16T09:22:46Z</time>
      </trkpt>
      <trkpt lat="45.98839" lon="4.82091">
        <ele>236</ele>
        <time>2017-06-16T09:22:47Z</time>
      </trkpt>
      <trkpt lat="45.98838" lon="4.82084">
        <ele>236</ele>
        <time>2017-06-16T09:22:48Z</time>
      </trkpt>
      <trkpt lat="45.98836" lon="4.82077">
        <ele>236</ele>
        <time>2017-06-16T09:22:49Z</time>
      </trkpt>
      <trkpt lat="45.98835" lon="4.8207">
        <ele>236</ele>
        <time>2017-06-16T09:22:50Z</time>
      </trkpt>
      <trkpt lat="45.98834" lon="4.82062">
        <ele>236</ele>
        <time>2017-06-16T09:22:51Z</time>
      </trkpt>
      <trkpt lat="45.98833" lon="4.82055">
        <ele>237</ele>
        <time>2017-06-16T09:22:52Z</time>
      </trkpt>
      <trkpt lat="45.98831" lon="4.82048">
        <ele>238</ele>
        <time>2017-06-16T09:22:53Z</time>
      </trkpt>
      <trkpt lat="45.9883" lon="4.8204">
        <ele>238</ele>
        <time>2017-06-16T09:22:54Z</time>
      </trkpt>
      <trkpt lat="45.98829" lon="4.82032">
        <ele>238</ele>
        <time>2017-06-16T09:22:55Z</time>
      </trkpt>
      <trkpt lat="45.98828" lon="4.82025">
        <ele>238</ele>
        <time>2017-06-16T09:22:56Z</time>
      </trkpt>
      <trkpt lat="45.98826" lon="4.82017">
        <ele>238</ele>
        <time>2017-06-16T09:22:57Z</time>
      </trkpt>
      <trkpt lat="45.98824" lon="4.8201">
        <ele>238</ele>
        <time>2017-06-16T09:22:58Z</time>
      </trkpt>
      <trkpt lat="45.98823" lon="4.82003">
        <ele>238</ele>
        <time>2017-06-16T09:22:59Z</time>
      </trkpt>
      <trkpt lat="45.98821" lon="4.81996">
        <ele>238</ele>
        <time>2017-06-16T09:23:00Z</time>
      </trkpt>
      <trkpt lat="45.9882" lon="4.81989">
        <ele>238</ele>
        <time>2017-06-16T09:23:01Z</time>
      </trkpt>
      <trkpt lat="45.98819" lon="4.81982">
        <ele>238</ele>
        <time>2017-06-16T09:23:02Z</time>
      </trkpt>
      <trkpt lat="45.98818" lon="4.81976">
        <ele>239</ele>
        <time>2017-06-16T09:23:03Z</time>
      </trkpt>
      <trkpt lat="45.98817" lon="4.81969">
        <ele>239</ele>
        <time>2017-06-16T09:23:04Z</time>
      </trkpt>
      <trkpt lat="45.98815" lon="4.81962">
        <ele>239</ele>
        <time>2017-06-16T09:23:05Z</time>
      </trkpt>
      <trkpt lat="45.98814" lon="4.81954">
        <ele>239</ele>
        <time>2017-06-16T09:23:06Z</time>
      </trkpt>
      <trkpt lat="45.98813" lon="4.81946">
        <ele>239</ele>
        <time>2017-06-16T09:23:07Z</time>
      </trkpt>
      <trkpt lat="45.98812" lon="4.81938">
        <ele>239</ele>
        <time>2017-06-16T09:23:08Z</time>
      </trkpt>
      <trkpt lat="45.98811" lon="4.81928">
        <ele>239</ele>
        <time>2017-06-16T09:23:09Z</time>
      </trkpt>
      <trkpt lat="45.9881" lon="4.81919">
        <ele>239</ele>
        <time>2017-06-16T09:23:10Z</time>
      </trkpt>
      <trkpt lat="45.98808" lon="4.8191">
        <ele>239</ele>
        <time>2017-06-16T09:23:11Z</time>
      </trkpt>
      <trkpt lat="45.98806" lon="4.81901">
        <ele>239</ele>
        <time>2017-06-16T09:23:12Z</time>
      </trkpt>
      <trkpt lat="45.98804" lon="4.81893">
        <ele>239</ele>
        <time>2017-06-16T09:23:13Z</time>
      </trkpt>
      <trkpt lat="45.98802" lon="4.81886">
        <ele>239</ele>
        <time>2017-06-16T09:23:14Z</time>
      </trkpt>
      <trkpt lat="45.988" lon="4.81879">
        <ele>239</ele>
        <time>2017-06-16T09:23:15Z</time>
      </trkpt>
      <trkpt lat="45.98798" lon="4.81872">
        <ele>239</ele>
        <time>2017-06-16T09:23:16Z</time>
      </trkpt>
      <trkpt lat="45.98795" lon="4.81866">
        <ele>239</ele>
        <time>2017-06-16T09:23:17Z</time>
      </trkpt>
      <trkpt lat="45.98792" lon="4.81856">
        <ele>239</ele>
        <time>2017-06-16T09:23:19Z</time>
      </trkpt>
      <trkpt lat="45.9879" lon="4.81851">
        <ele>239</ele>
        <time>2017-06-16T09:23:20Z</time>
      </trkpt>
      <trkpt lat="45.98786" lon="4.81841">
        <ele>239</ele>
        <time>2017-06-16T09:23:22Z</time>
      </trkpt>
      <trkpt lat="45.98783" lon="4.81835">
        <ele>239</ele>
        <time>2017-06-16T09:23:23Z</time>
      </trkpt>
      <trkpt lat="45.98781" lon="4.81829">
        <ele>240</ele>
        <time>2017-06-16T09:23:24Z</time>
      </trkpt>
      <trkpt lat="45.98779" lon="4.81823">
        <ele>240</ele>
        <time>2017-06-16T09:23:25Z</time>
      </trkpt>
      <trkpt lat="45.98777" lon="4.81818">
        <ele>240</ele>
        <time>2017-06-16T09:23:26Z</time>
      </trkpt>
      <trkpt lat="45.98775" lon="4.81812">
        <ele>240</ele>
        <time>2017-06-16T09:23:27Z</time>
      </trkpt>
      <trkpt lat="45.9877" lon="4.81802">
        <ele>240</ele>
        <time>2017-06-16T09:23:29Z</time>
      </trkpt>
      <trkpt lat="45.98767" lon="4.81797">
        <ele>240</ele>
        <time>2017-06-16T09:23:30Z</time>
      </trkpt>
      <trkpt lat="45.98764" lon="4.81786">
        <ele>241</ele>
        <time>2017-06-16T09:23:33Z</time>
      </trkpt>
      <trkpt lat="45.98762" lon="4.8178">
        <ele>241</ele>
        <time>2017-06-16T09:23:34Z</time>
      </trkpt>
      <trkpt lat="45.98758" lon="4.81771">
        <ele>241</ele>
        <time>2017-06-16T09:23:36Z</time>
      </trkpt>
      <trkpt lat="45.98755" lon="4.81768">
        <ele>241</ele>
        <time>2017-06-16T09:23:37Z</time>
      </trkpt>
      <trkpt lat="45.98749" lon="4.81761">
        <ele>240</ele>
        <time>2017-06-16T09:23:39Z</time>
      </trkpt>
      <trkpt lat="45.98747" lon="4.81757">
        <ele>241</ele>
        <time>2017-06-16T09:23:40Z</time>
      </trkpt>
      <trkpt lat="45.98743" lon="4.81747">
        <ele>240</ele>
        <time>2017-06-16T09:23:42Z</time>
      </trkpt>
      <trkpt lat="45.9874" lon="4.81744">
        <ele>240</ele>
        <time>2017-06-16T09:23:43Z</time>
      </trkpt>
      <trkpt lat="45.98733" lon="4.81741">
        <ele>240</ele>
        <time>2017-06-16T09:23:45Z</time>
      </trkpt>
      <trkpt lat="45.98729" lon="4.8174">
        <ele>239</ele>
        <time>2017-06-16T09:23:46Z</time>
      </trkpt>
      <trkpt lat="45.9872" lon="4.81741">
        <ele>239</ele>
        <time>2017-06-16T09:23:48Z</time>
      </trkpt>
      <trkpt lat="45.98716" lon="4.81742">
        <ele>239</ele>
        <time>2017-06-16T09:23:49Z</time>
      </trkpt>
      <trkpt lat="45.98708" lon="4.81742">
        <ele>239</ele>
        <time>2017-06-16T09:23:51Z</time>
      </trkpt>
      <trkpt lat="45.98704" lon="4.81743">
        <ele>239</ele>
        <time>2017-06-16T09:23:52Z</time>
      </trkpt>
      <trkpt lat="45.98699" lon="4.81744">
        <ele>239</ele>
        <time>2017-06-16T09:23:53Z</time>
      </trkpt>
      <trkpt lat="45.98694" lon="4.81744">
        <ele>239</ele>
        <time>2017-06-16T09:23:54Z</time>
      </trkpt>
      <trkpt lat="45.98685" lon="4.81745">
        <ele>238</ele>
        <time>2017-06-16T09:23:56Z</time>
      </trkpt>
      <trkpt lat="45.9868" lon="4.81747">
        <ele>238</ele>
        <time>2017-06-16T09:23:57Z</time>
      </trkpt>
      <trkpt lat="45.98677" lon="4.81748">
        <ele>238</ele>
        <time>2017-06-16T09:23:58Z</time>
      </trkpt>
      <trkpt lat="45.98671" lon="4.81748">
        <ele>238</ele>
        <time>2017-06-16T09:23:59Z</time>
      </trkpt>
      <trkpt lat="45.98664" lon="4.81749">
        <ele>238</ele>
        <time>2017-06-16T09:24:00Z</time>
      </trkpt>
      <trkpt lat="45.98656" lon="4.81749">
        <ele>237</ele>
        <time>2017-06-16T09:24:01Z</time>
      </trkpt>
      <trkpt lat="45.98651" lon="4.81751">
        <ele>238</ele>
        <time>2017-06-16T09:24:02Z</time>
      </trkpt>
      <trkpt lat="45.98646" lon="4.81752">
        <ele>238</ele>
        <time>2017-06-16T09:24:03Z</time>
      </trkpt>
      <trkpt lat="45.98642" lon="4.81753">
        <ele>238</ele>
        <time>2017-06-16T09:24:04Z</time>
      </trkpt>
      <trkpt lat="45.98637" lon="4.81754">
        <ele>238</ele>
        <time>2017-06-16T09:24:05Z</time>
      </trkpt>
      <trkpt lat="45.98632" lon="4.81756">
        <ele>238</ele>
        <time>2017-06-16T09:24:06Z</time>
      </trkpt>
      <trkpt lat="45.98627" lon="4.81758">
        <ele>238</ele>
        <time>2017-06-16T09:24:07Z</time>
      </trkpt>
      <trkpt lat="45.98623" lon="4.8176">
        <ele>238</ele>
        <time>2017-06-16T09:24:08Z</time>
      </trkpt>
      <trkpt lat="45.98618" lon="4.81761">
        <ele>238</ele>
        <time>2017-06-16T09:24:09Z</time>
      </trkpt>
      <trkpt lat="45.98613" lon="4.81763">
        <ele>238</ele>
        <time>2017-06-16T09:24:10Z</time>
      </trkpt>
      <trkpt lat="45.98605" lon="4.81765">
        <ele>238</ele>
        <time>2017-06-16T09:24:11Z</time>
      </trkpt>
      <trkpt lat="45.98598" lon="4.81767">
        <ele>238</ele>
        <time>2017-06-16T09:24:12Z</time>
      </trkpt>
      <trkpt lat="45.98591" lon="4.81771">
        <ele>238</ele>
        <time>2017-06-16T09:24:13Z</time>
      </trkpt>
      <trkpt lat="45.98585" lon="4.81775">
        <ele>238</ele>
        <time>2017-06-16T09:24:14Z</time>
      </trkpt>
      <trkpt lat="45.9858" lon="4.8178">
        <ele>238</ele>
        <time>2017-06-16T09:24:15Z</time>
      </trkpt>
      <trkpt lat="45.98576" lon="4.81785">
        <ele>238</ele>
        <time>2017-06-16T09:24:16Z</time>
      </trkpt>
      <trkpt lat="45.98571" lon="4.81791">
        <ele>238</ele>
        <time>2017-06-16T09:24:17Z</time>
      </trkpt>
      <trkpt lat="45.98567" lon="4.81796">
        <ele>238</ele>
        <time>2017-06-16T09:24:18Z</time>
      </trkpt>
      <trkpt lat="45.98562" lon="4.81801">
        <ele>238</ele>
        <time>2017-06-16T09:24:19Z</time>
      </trkpt>
      <trkpt lat="45.98558" lon="4.81805">
        <ele>238</ele>
        <time>2017-06-16T09:24:20Z</time>
      </trkpt>
      <trkpt lat="45.98553" lon="4.81807">
        <ele>238</ele>
        <time>2017-06-16T09:24:21Z</time>
      </trkpt>
      <trkpt lat="45.98547" lon="4.81807">
        <ele>238</ele>
        <time>2017-06-16T09:24:22Z</time>
      </trkpt>
      <trkpt lat="45.98543" lon="4.81805">
        <ele>238</ele>
        <time>2017-06-16T09:24:23Z</time>
      </trkpt>
      <trkpt lat="45.98539" lon="4.81801">
        <ele>238</ele>
        <time>2017-06-16T09:24:24Z</time>
      </trkpt>
      <trkpt lat="45.98536" lon="4.81797">
        <ele>238</ele>
        <time>2017-06-16T09:24:25Z</time>
      </trkpt>
      <trkpt lat="45.98532" lon="4.81792">
        <ele>238</ele>
        <time>2017-06-16T09:24:26Z</time>
      </trkpt>
      <trkpt lat="45.98529" lon="4.81787">
        <ele>238</ele>
        <time>2017-06-16T09:24:27Z</time>
      </trkpt>
      <trkpt lat="45.98526" lon="4.81782">
        <ele>238</ele>
        <time>2017-06-16T09:24:28Z</time>
      </trkpt>
      <trkpt lat="45.98522" lon="4.81777">
        <ele>238</ele>
        <time>2017-06-16T09:24:29Z</time>
      </trkpt>
      <trkpt lat="45.98516" lon="4.81768">
        <ele>237</ele>
        <time>2017-06-16T09:24:31Z</time>
      </trkpt>
      <trkpt lat="45.98513" lon="4.81764">
        <ele>237</ele>
        <time>2017-06-16T09:24:32Z</time>
      </trkpt>
      <trkpt lat="45.98505" lon="4.81756">
        <ele>237</ele>
        <time>2017-06-16T09:24:34Z</time>
      </trkpt>
      <trkpt lat="45.98502" lon="4.81752">
        <ele>237</ele>
        <time>2017-06-16T09:24:35Z</time>
      </trkpt>
      <trkpt lat="45.98498" lon="4.81748">
        <ele>237</ele>
        <time>2017-06-16T09:24:36Z</time>
      </trkpt>
      <trkpt lat="45.98494" lon="4.81744">
        <ele>238</ele>
        <time>2017-06-16T09:24:37Z</time>
      </trkpt>
      <trkpt lat="45.9849" lon="4.8174">
        <ele>238</ele>
        <time>2017-06-16T09:24:38Z</time>
      </trkpt>
      <trkpt lat="45.98485" lon="4.81736">
        <ele>238</ele>
        <time>2017-06-16T09:24:39Z</time>
      </trkpt>
      <trkpt lat="45.9848" lon="4.81731">
        <ele>238</ele>
        <time>2017-06-16T09:24:40Z</time>
      </trkpt>
      <trkpt lat="45.98477" lon="4.81725">
        <ele>238</ele>
        <time>2017-06-16T09:24:41Z</time>
      </trkpt>
      <trkpt lat="45.98473" lon="4.8172">
        <ele>239</ele>
        <time>2017-06-16T09:24:42Z</time>
      </trkpt>
      <trkpt lat="45.9847" lon="4.81715">
        <ele>239</ele>
        <time>2017-06-16T09:24:43Z</time>
      </trkpt>
      <trkpt lat="45.98464" lon="4.81705">
        <ele>239</ele>
        <time>2017-06-16T09:24:45Z</time>
      </trkpt>
      <trkpt lat="45.98462" lon="4.81699">
        <ele>239</ele>
        <time>2017-06-16T09:24:46Z</time>
      </trkpt>
      <trkpt lat="45.9846" lon="4.81694">
        <ele>239</ele>
        <time>2017-06-16T09:24:47Z</time>
      </trkpt>
      <trkpt lat="45.98456" lon="4.81688">
        <ele>239</ele>
        <time>2017-06-16T09:24:48Z</time>
      </trkpt>
      <trkpt lat="45.98452" lon="4.81683">
        <ele>239</ele>
        <time>2017-06-16T09:24:49Z</time>
      </trkpt>
      <trkpt lat="45.98448" lon="4.81677">
        <ele>239</ele>
        <time>2017-06-16T09:24:50Z</time>
      </trkpt>
      <trkpt lat="45.98444" lon="4.81673">
        <ele>239</ele>
        <time>2017-06-16T09:24:51Z</time>
      </trkpt>
      <trkpt lat="45.98438" lon="4.8167">
        <ele>240</ele>
        <time>2017-06-16T09:24:52Z</time>
      </trkpt>
      <trkpt lat="45.98432" lon="4.81668">
        <ele>240</ele>
        <time>2017-06-16T09:24:53Z</time>
      </trkpt>
      <trkpt lat="45.98426" lon="4.81667">
        <ele>240</ele>
        <time>2017-06-16T09:24:54Z</time>
      </trkpt>
      <trkpt lat="45.9842" lon="4.81666">
        <ele>240</ele>
        <time>2017-06-16T09:24:55Z</time>
      </trkpt>
      <trkpt lat="45.98415" lon="4.81666">
        <ele>241</ele>
        <time>2017-06-16T09:24:56Z</time>
      </trkpt>
      <trkpt lat="45.98409" lon="4.81667">
        <ele>242</ele>
        <time>2017-06-16T09:24:57Z</time>
      </trkpt>
      <trkpt lat="45.98404" lon="4.81668">
        <ele>242</ele>
        <time>2017-06-16T09:24:58Z</time>
      </trkpt>
      <trkpt lat="45.98399" lon="4.8167">
        <ele>243</ele>
        <time>2017-06-16T09:24:59Z</time>
      </trkpt>
      <trkpt lat="45.98394" lon="4.81671">
        <ele>243</ele>
        <time>2017-06-16T09:25:00Z</time>
      </trkpt>
      <trkpt lat="45.9839" lon="4.81671">
        <ele>243</ele>
        <time>2017-06-16T09:25:01Z</time>
      </trkpt>
      <trkpt lat="45.98385" lon="4.81672">
        <ele>243</ele>
        <time>2017-06-16T09:25:02Z</time>
      </trkpt>
      <trkpt lat="45.98377" lon="4.81673">
        <ele>244</ele>
        <time>2017-06-16T09:25:04Z</time>
      </trkpt>
      <trkpt lat="45.98372" lon="4.81674">
        <ele>244</ele>
        <time>2017-06-16T09:25:05Z</time>
      </trkpt>
      <trkpt lat="45.98367" lon="4.81675">
        <ele>244</ele>
        <time>2017-06-16T09:25:06Z</time>
      </trkpt>
      <trkpt lat="45.98362" lon="4.81675">
        <ele>244</ele>
        <time>2017-06-16T09:25:07Z</time>
      </trkpt>
      <trkpt lat="45.98358" lon="4.81675">
        <ele>245</ele>
        <time>2017-06-16T09:25:08Z</time>
      </trkpt>
      <trkpt lat="45.98353" lon="4.81676">
        <ele>245</ele>
        <time>2017-06-16T09:25:09Z</time>
      </trkpt>
      <trkpt lat="45.98348" lon="4.81675">
        <ele>245</ele>
        <time>2017-06-16T09:25:10Z</time>
      </trkpt>
      <trkpt lat="45.98344" lon="4.81673">
        <ele>245</ele>
        <time>2017-06-16T09:25:11Z</time>
      </trkpt>
      <trkpt lat="45.98336" lon="4.81671">
        <ele>246</ele>
        <time>2017-06-16T09:25:13Z</time>
      </trkpt>
      <trkpt lat="45.98333" lon="4.81669">
        <ele>246</ele>
        <time>2017-06-16T09:25:14Z</time>
      </trkpt>
      <trkpt lat="45.98326" lon="4.81666">
        <ele>246</ele>
        <time>2017-06-16T09:25:16Z</time>
      </trkpt>
      <trkpt lat="45.98323" lon="4.81663">
        <ele>246</ele>
        <time>2017-06-16T09:25:17Z</time>
      </trkpt>
      <trkpt lat="45.98315" lon="4.81657">
        <ele>246</ele>
        <time>2017-06-16T09:25:19Z</time>
      </trkpt>
      <trkpt lat="45.98312" lon="4.81654">
        <ele>246</ele>
        <time>2017-06-16T09:25:20Z</time>
      </trkpt>
      <trkpt lat="45.98304" lon="4.81648">
        <ele>246</ele>
        <time>2017-06-16T09:25:22Z</time>
      </trkpt>
      <trkpt lat="45.983" lon="4.81644">
        <ele>247</ele>
        <time>2017-06-16T09:25:23Z</time>
      </trkpt>
      <trkpt lat="45.98294" lon="4.81635">
        <ele>247</ele>
        <time>2017-06-16T09:25:25Z</time>
      </trkpt>
      <trkpt lat="45.98291" lon="4.8163">
        <ele>247</ele>
        <time>2017-06-16T09:25:26Z</time>
      </trkpt>
      <trkpt lat="45.98285" lon="4.81621">
        <ele>247</ele>
        <time>2017-06-16T09:25:28Z</time>
      </trkpt>
      <trkpt lat="45.98283" lon="4.81616">
        <ele>247</ele>
        <time>2017-06-16T09:25:29Z</time>
      </trkpt>
      <trkpt lat="45.98279" lon="4.81605">
        <ele>247</ele>
        <time>2017-06-16T09:25:31Z</time>
      </trkpt>
      <trkpt lat="45.98277" lon="4.81599">
        <ele>247</ele>
        <time>2017-06-16T09:25:32Z</time>
      </trkpt>
      <trkpt lat="45.98274" lon="4.81588">
        <ele>247</ele>
        <time>2017-06-16T09:25:34Z</time>
      </trkpt>
      <trkpt lat="45.98273" lon="4.81582">
        <ele>247</ele>
        <time>2017-06-16T09:25:35Z</time>
      </trkpt>
      <trkpt lat="45.98269" lon="4.81571">
        <ele>247</ele>
        <time>2017-06-16T09:25:37Z</time>
      </trkpt>
      <trkpt lat="45.98267" lon="4.81565">
        <ele>247</ele>
        <time>2017-06-16T09:25:38Z</time>
      </trkpt>
      <trkpt lat="45.98266" lon="4.81559">
        <ele>247</ele>
        <time>2017-06-16T09:25:39Z</time>
      </trkpt>
      <trkpt lat="45.98264" lon="4.81553">
        <ele>247</ele>
        <time>2017-06-16T09:25:40Z</time>
      </trkpt>
      <trkpt lat="45.98262" lon="4.81546">
        <ele>247</ele>
        <time>2017-06-16T09:25:41Z</time>
      </trkpt>
      <trkpt lat="45.9826" lon="4.8154">
        <ele>247</ele>
        <time>2017-06-16T09:25:42Z</time>
      </trkpt>
      <trkpt lat="45.98258" lon="4.81533">
        <ele>247</ele>
        <time>2017-06-16T09:25:43Z</time>
      </trkpt>
      <trkpt lat="45.98257" lon="4.81527">
        <ele>247</ele>
        <time>2017-06-16T09:25:44Z</time>
      </trkpt>
      <trkpt lat="45.98252" lon="4.81516">
        <ele>248</ele>
        <time>2017-06-16T09:25:46Z</time>
      </trkpt>
      <trkpt lat="45.98251" lon="4.8151">
        <ele>248</ele>
        <time>2017-06-16T09:25:47Z</time>
      </trkpt>
      <trkpt lat="45.98249" lon="4.81504">
        <ele>249</ele>
        <time>2017-06-16T09:25:48Z</time>
      </trkpt>
      <trkpt lat="45.98247" lon="4.81498">
        <ele>249</ele>
        <time>2017-06-16T09:25:49Z</time>
      </trkpt>
      <trkpt lat="45.98245" lon="4.81492">
        <ele>249</ele>
        <time>2017-06-16T09:25:50Z</time>
      </trkpt>
      <trkpt lat="45.98243" lon="4.81486">
        <ele>249</ele>
        <time>2017-06-16T09:25:51Z</time>
      </trkpt>
      <trkpt lat="45.98239" lon="4.81475">
        <ele>249</ele>
        <time>2017-06-16T09:25:53Z</time>
      </trkpt>
      <trkpt lat="45.98238" lon="4.81469">
        <ele>249</ele>
        <time>2017-06-16T09:25:54Z</time>
      </trkpt>
      <trkpt lat="45.98234" lon="4.81457">
        <ele>249</ele>
        <time>2017-06-16T09:25:56Z</time>
      </trkpt>
      <trkpt lat="45.98233" lon="4.81451">
        <ele>249</ele>
        <time>2017-06-16T09:25:57Z</time>
      </trkpt>
      <trkpt lat="45.98228" lon="4.81442">
        <ele>249</ele>
        <time>2017-06-16T09:25:59Z</time>
      </trkpt>
      <trkpt lat="45.98227" lon="4.81437">
        <ele>249</ele>
        <time>2017-06-16T09:26:00Z</time>
      </trkpt>
      <trkpt lat="45.98224" lon="4.81427">
        <ele>249</ele>
        <time>2017-06-16T09:26:02Z</time>
      </trkpt>
      <trkpt lat="45.98222" lon="4.81423">
        <ele>249</ele>
        <time>2017-06-16T09:26:03Z</time>
      </trkpt>
      <trkpt lat="45.98219" lon="4.81414">
        <ele>248</ele>
        <time>2017-06-16T09:26:05Z</time>
      </trkpt>
      <trkpt lat="45.98218" lon="4.81409">
        <ele>248</ele>
        <time>2017-06-16T09:26:06Z</time>
      </trkpt>
      <trkpt lat="45.98214" lon="4.81399">
        <ele>248</ele>
        <time>2017-06-16T09:26:08Z</time>
      </trkpt>
      <trkpt lat="45.98213" lon="4.81394">
        <ele>248</ele>
        <time>2017-06-16T09:26:09Z</time>
      </trkpt>
      <trkpt lat="45.98209" lon="4.81384">
        <ele>248</ele>
        <time>2017-06-16T09:26:11Z</time>
      </trkpt>
      <trkpt lat="45.98208" lon="4.81378">
        <ele>248</ele>
        <time>2017-06-16T09:26:12Z</time>
      </trkpt>
      <trkpt lat="45.98206" lon="4.81372">
        <ele>248</ele>
        <time>2017-06-16T09:26:13Z</time>
      </trkpt>
      <trkpt lat="45.98204" lon="4.81366">
        <ele>248</ele>
        <time>2017-06-16T09:26:14Z</time>
      </trkpt>
      <trkpt lat="45.98202" lon="4.81359">
        <ele>248</ele>
        <time>2017-06-16T09:26:15Z</time>
      </trkpt>
      <trkpt lat="45.98201" lon="4.81352">
        <ele>248</ele>
        <time>2017-06-16T09:26:16Z</time>
      </trkpt>
      <trkpt lat="45.98199" lon="4.81345">
        <ele>248</ele>
        <time>2017-06-16T09:26:17Z</time>
      </trkpt>
      <trkpt lat="45.98197" lon="4.81337">
        <ele>248</ele>
        <time>2017-06-16T09:26:18Z</time>
      </trkpt>
      <trkpt lat="45.98197" lon="4.8133">
        <ele>247</ele>
        <time>2017-06-16T09:26:19Z</time>
      </trkpt>
      <trkpt lat="45.98195" lon="4.81323">
        <ele>247</ele>
        <time>2017-06-16T09:26:20Z</time>
      </trkpt>
      <trkpt lat="45.98194" lon="4.81316">
        <ele>247</ele>
        <time>2017-06-16T09:26:21Z</time>
      </trkpt>
      <trkpt lat="45.98192" lon="4.81309">
        <ele>247</ele>
        <time>2017-06-16T09:26:22Z</time>
      </trkpt>
      <trkpt lat="45.98191" lon="4.81302">
        <ele>247</ele>
        <time>2017-06-16T09:26:23Z</time>
      </trkpt>
      <trkpt lat="45.9819" lon="4.81295">
        <ele>247</ele>
        <time>2017-06-16T09:26:24Z</time>
      </trkpt>
      <trkpt lat="45.98189" lon="4.81287">
        <ele>247</ele>
        <time>2017-06-16T09:26:25Z</time>
      </trkpt>
      <trkpt lat="45.98188" lon="4.8128">
        <ele>247</ele>
        <time>2017-06-16T09:26:26Z</time>
      </trkpt>
      <trkpt lat="45.98186" lon="4.81273">
        <ele>247</ele>
        <time>2017-06-16T09:26:27Z</time>
      </trkpt>
      <trkpt lat="45.98185" lon="4.81265">
        <ele>247</ele>
        <time>2017-06-16T09:26:28Z</time>
      </trkpt>
      <trkpt lat="45.98184" lon="4.81258">
        <ele>247</ele>
        <time>2017-06-16T09:26:29Z</time>
      </trkpt>
      <trkpt lat="45.98183" lon="4.8125">
        <ele>247</ele>
        <time>2017-06-16T09:26:30Z</time>
      </trkpt>
      <trkpt lat="45.98182" lon="4.81243">
        <ele>246</ele>
        <time>2017-06-16T09:26:31Z</time>
      </trkpt>
      <trkpt lat="45.98181" lon="4.81235">
        <ele>246</ele>
        <time>2017-06-16T09:26:32Z</time>
      </trkpt>
      <trkpt lat="45.9818" lon="4.81228">
        <ele>246</ele>
        <time>2017-06-16T09:26:33Z</time>
      </trkpt>
      <trkpt lat="45.9818" lon="4.8122">
        <ele>246</ele>
        <time>2017-06-16T09:26:34Z</time>
      </trkpt>
      <trkpt lat="45.98179" lon="4.81212">
        <ele>246</ele>
        <time>2017-06-16T09:26:35Z</time>
      </trkpt>
      <trkpt lat="45.98177" lon="4.81205">
        <ele>245</ele>
        <time>2017-06-16T09:26:36Z</time>
      </trkpt>
      <trkpt lat="45.98176" lon="4.81197">
        <ele>245</ele>
        <time>2017-06-16T09:26:37Z</time>
      </trkpt>
      <trkpt lat="45.98175" lon="4.81189">
        <ele>245</ele>
        <time>2017-06-16T09:26:38Z</time>
      </trkpt>
      <trkpt lat="45.98174" lon="4.81181">
        <ele>245</ele>
        <time>2017-06-16T09:26:39Z</time>
      </trkpt>
      <trkpt lat="45.98173" lon="4.81174">
        <ele>245</ele>
        <time>2017-06-16T09:26:40Z</time>
      </trkpt>
      <trkpt lat="45.98171" lon="4.81167">
        <ele>245</ele>
        <time>2017-06-16T09:26:41Z</time>
      </trkpt>
      <trkpt lat="45.98169" lon="4.81159">
        <ele>244</ele>
        <time>2017-06-16T09:26:42Z</time>
      </trkpt>
      <trkpt lat="45.98166" lon="4.81151">
        <ele>245</ele>
        <time>2017-06-16T09:26:43Z</time>
      </trkpt>
      <trkpt lat="45.98164" lon="4.81144">
        <ele>245</ele>
        <time>2017-06-16T09:26:44Z</time>
      </trkpt>
      <trkpt lat="45.98162" lon="4.81136">
        <ele>245</ele>
        <time>2017-06-16T09:26:45Z</time>
      </trkpt>
      <trkpt lat="45.9816" lon="4.81129">
        <ele>245</ele>
        <time>2017-06-16T09:26:46Z</time>
      </trkpt>
      <trkpt lat="45.98157" lon="4.81121">
        <ele>245</ele>
        <time>2017-06-16T09:26:47Z</time>
      </trkpt>
      <trkpt lat="45.98155" lon="4.81114">
        <ele>245</ele>
        <time>2017-06-16T09:26:48Z</time>
      </trkpt>
      <trkpt lat="45.98152" lon="4.81106">
        <ele>245</ele>
        <time>2017-06-16T09:26:49Z</time>
      </trkpt>
      <trkpt lat="45.98149" lon="4.81099">
        <ele>245</ele>
        <time>2017-06-16T09:26:50Z</time>
      </trkpt>
      <trkpt lat="45.98146" lon="4.81092">
        <ele>245</ele>
        <time>2017-06-16T09:26:51Z</time>
      </trkpt>
      <trkpt lat="45.98143" lon="4.81084">
        <ele>245</ele>
        <time>2017-06-16T09:26:52Z</time>
      </trkpt>
      <trkpt lat="45.9814" lon="4.81077">
        <ele>243</ele>
        <time>2017-06-16T09:26:53Z</time>
      </trkpt>
      <trkpt lat="45.98136" lon="4.8107">
        <ele>243</ele>
        <time>2017-06-16T09:26:54Z</time>
      </trkpt>
      <trkpt lat="45.98134" lon="4.81062">
        <ele>243</ele>
        <time>2017-06-16T09:26:55Z</time>
      </trkpt>
      <trkpt lat="45.98132" lon="4.81054">
        <ele>243</ele>
        <time>2017-06-16T09:26:56Z</time>
      </trkpt>
      <trkpt lat="45.98129" lon="4.81047">
        <ele>242</ele>
        <time>2017-06-16T09:26:57Z</time>
      </trkpt>
      <trkpt lat="45.98127" lon="4.81039">
        <ele>242</ele>
        <time>2017-06-16T09:26:58Z</time>
      </trkpt>
      <trkpt lat="45.98124" lon="4.81032">
        <ele>242</ele>
        <time>2017-06-16T09:26:59Z</time>
      </trkpt>
      <trkpt lat="45.98122" lon="4.81025">
        <ele>242</ele>
        <time>2017-06-16T09:27:00Z</time>
      </trkpt>
      <trkpt lat="45.9812" lon="4.81018">
        <ele>242</ele>
        <time>2017-06-16T09:27:01Z</time>
      </trkpt>
      <trkpt lat="45.98118" lon="4.81011">
        <ele>242</ele>
        <time>2017-06-16T09:27:02Z</time>
      </trkpt>
      <trkpt lat="45.98116" lon="4.81005">
        <ele>242</ele>
        <time>2017-06-16T09:27:03Z</time>
      </trkpt>
      <trkpt lat="45.98113" lon="4.80999">
        <ele>239</ele>
        <time>2017-06-16T09:27:04Z</time>
      </trkpt>
      <trkpt lat="45.98111" lon="4.80994">
        <ele>239</ele>
        <time>2017-06-16T09:27:05Z</time>
      </trkpt>
      <trkpt lat="45.98108" lon="4.80989">
        <ele>239</ele>
        <time>2017-06-16T09:27:06Z</time>
      </trkpt>
      <trkpt lat="45.98107" lon="4.80983">
        <ele>239</ele>
        <time>2017-06-16T09:27:07Z</time>
      </trkpt>
      <trkpt lat="45.98105" lon="4.80976">
        <ele>239</ele>
        <time>2017-06-16T09:27:08Z</time>
      </trkpt>
      <trkpt lat="45.98103" lon="4.80968">
        <ele>239</ele>
        <time>2017-06-16T09:27:09Z</time>
      </trkpt>
      <trkpt lat="45.98101" lon="4.8096">
        <ele>238</ele>
        <time>2017-06-16T09:27:10Z</time>
      </trkpt>
      <trkpt lat="45.98099" lon="4.80951">
        <ele>238</ele>
        <time>2017-06-16T09:27:11Z</time>
      </trkpt>
      <trkpt lat="45.98096" lon="4.8094">
        <ele>238</ele>
        <time>2017-06-16T09:27:12Z</time>
      </trkpt>
      <trkpt lat="45.98093" lon="4.8093">
        <ele>238</ele>
        <time>2017-06-16T09:27:13Z</time>
      </trkpt>
      <trkpt lat="45.9809" lon="4.80919">
        <ele>239</ele>
        <time>2017-06-16T09:27:14Z</time>
      </trkpt>
      <trkpt lat="45.98087" lon="4.80908">
        <ele>237</ele>
        <time>2017-06-16T09:27:15Z</time>
      </trkpt>
      <trkpt lat="45.98084" lon="4.80897">
        <ele>236</ele>
        <time>2017-06-16T09:27:16Z</time>
      </trkpt>
      <trkpt lat="45.98082" lon="4.80885">
        <ele>237</ele>
        <time>2017-06-16T09:27:17Z</time>
      </trkpt>
      <trkpt lat="45.98079" lon="4.80872">
        <ele>237</ele>
        <time>2017-06-16T09:27:18Z</time>
      </trkpt>
      <trkpt lat="45.98077" lon="4.80859">
        <ele>236</ele>
        <time>2017-06-16T09:27:19Z</time>
      </trkpt>
      <trkpt lat="45.98074" lon="4.80847">
        <ele>236</ele>
        <time>2017-06-16T09:27:20Z</time>
      </trkpt>
      <trkpt lat="45.98071" lon="4.80834">
        <ele>235</ele>
        <time>2017-06-16T09:27:21Z</time>
      </trkpt>
      <trkpt lat="45.98066" lon="4.8082">
        <ele>234</ele>
        <time>2017-06-16T09:27:22Z</time>
      </trkpt>
      <trkpt lat="45.98063" lon="4.80807">
        <ele>234</ele>
        <time>2017-06-16T09:27:23Z</time>
      </trkpt>
      <trkpt lat="45.98059" lon="4.80794">
        <ele>233</ele>
        <time>2017-06-16T09:27:24Z</time>
      </trkpt>
      <trkpt lat="45.98056" lon="4.80782">
        <ele>233</ele>
        <time>2017-06-16T09:27:25Z</time>
      </trkpt>
      <trkpt lat="45.98053" lon="4.8077">
        <ele>233</ele>
        <time>2017-06-16T09:27:26Z</time>
      </trkpt>
      <trkpt lat="45.9805" lon="4.80759">
        <ele>233</ele>
        <time>2017-06-16T09:27:27Z</time>
      </trkpt>
      <trkpt lat="45.98047" lon="4.80749">
        <ele>231</ele>
        <time>2017-06-16T09:27:28Z</time>
      </trkpt>
      <trkpt lat="45.98044" lon="4.8074">
        <ele>231</ele>
        <time>2017-06-16T09:27:29Z</time>
      </trkpt>
      <trkpt lat="45.98042" lon="4.80732">
        <ele>231</ele>
        <time>2017-06-16T09:27:30Z</time>
      </trkpt>
      <trkpt lat="45.9804" lon="4.80725">
        <ele>231</ele>
        <time>2017-06-16T09:27:31Z</time>
      </trkpt>
      <trkpt lat="45.98038" lon="4.80718">
        <ele>231</ele>
        <time>2017-06-16T09:27:32Z</time>
      </trkpt>
      <trkpt lat="45.98037" lon="4.80706">
        <ele>231</ele>
        <time>2017-06-16T09:27:34Z</time>
      </trkpt>
      <trkpt lat="45.98039" lon="4.80701">
        <ele>230</ele>
        <time>2017-06-16T09:27:35Z</time>
      </trkpt>
      <trkpt lat="45.98048" lon="4.80697">
        <ele>230</ele>
        <time>2017-06-16T09:27:37Z</time>
      </trkpt>
      <trkpt lat="45.98055" lon="4.80697">
        <ele>230</ele>
        <time>2017-06-16T09:27:38Z</time>
      </trkpt>
      <trkpt lat="45.98062" lon="4.80696">
        <ele>230</ele>
        <time>2017-06-16T09:27:39Z</time>
      </trkpt>
      <trkpt lat="45.9807" lon="4.80695">
        <ele>230</ele>
        <time>2017-06-16T09:27:40Z</time>
      </trkpt>
      <trkpt lat="45.98077" lon="4.80695">
        <ele>230</ele>
        <time>2017-06-16T09:27:41Z</time>
      </trkpt>
      <trkpt lat="45.98085" lon="4.80695">
        <ele>228</ele>
        <time>2017-06-16T09:27:42Z</time>
      </trkpt>
      <trkpt lat="45.98093" lon="4.80695">
        <ele>228</ele>
        <time>2017-06-16T09:27:43Z</time>
      </trkpt>
      <trkpt lat="45.98101" lon="4.80695">
        <ele>228</ele>
        <time>2017-06-16T09:27:44Z</time>
      </trkpt>
      <trkpt lat="45.98109" lon="4.80696">
        <ele>228</ele>
        <time>2017-06-16T09:27:45Z</time>
      </trkpt>
      <trkpt lat="45.98117" lon="4.80697">
        <ele>228</ele>
        <time>2017-06-16T09:27:46Z</time>
      </trkpt>
      <trkpt lat="45.98125" lon="4.80697">
        <ele>228</ele>
        <time>2017-06-16T09:27:47Z</time>
      </trkpt>
      <trkpt lat="45.98134" lon="4.80696">
        <ele>228</ele>
        <time>2017-06-16T09:27:48Z</time>
      </trkpt>
      <trkpt lat="45.98141" lon="4.80696">
        <ele>228</ele>
        <time>2017-06-16T09:27:49Z</time>
      </trkpt>
      <trkpt lat="45.98149" lon="4.80695">
        <ele>228</ele>
        <time>2017-06-16T09:27:50Z</time>
      </trkpt>
      <trkpt lat="45.98156" lon="4.80694">
        <ele>228</ele>
        <time>2017-06-16T09:27:51Z</time>
      </trkpt>
      <trkpt lat="45.98164" lon="4.80693">
        <ele>227</ele>
        <time>2017-06-16T09:27:52Z</time>
      </trkpt>
      <trkpt lat="45.98171" lon="4.80692">
        <ele>225</ele>
        <time>2017-06-16T09:27:53Z</time>
      </trkpt>
      <trkpt lat="45.98179" lon="4.80691">
        <ele>225</ele>
        <time>2017-06-16T09:27:54Z</time>
      </trkpt>
      <trkpt lat="45.98186" lon="4.80689">
        <ele>225</ele>
        <time>2017-06-16T09:27:55Z</time>
      </trkpt>
      <trkpt lat="45.98193" lon="4.80687">
        <ele>225</ele>
        <time>2017-06-16T09:27:56Z</time>
      </trkpt>
      <trkpt lat="45.982" lon="4.80684">
        <ele>225</ele>
        <time>2017-06-16T09:27:57Z</time>
      </trkpt>
      <trkpt lat="45.98207" lon="4.80681">
        <ele>224</ele>
        <time>2017-06-16T09:27:58Z</time>
      </trkpt>
      <trkpt lat="45.98213" lon="4.80677">
        <ele>224</ele>
        <time>2017-06-16T09:27:59Z</time>
      </trkpt>
      <trkpt lat="45.98219" lon="4.80672">
        <ele>224</ele>
        <time>2017-06-16T09:28:00Z</time>
      </trkpt>
      <trkpt lat="45.98224" lon="4.80666">
        <ele>223</ele>
        <time>2017-06-16T09:28:01Z</time>
      </trkpt>
      <trkpt lat="45.98229" lon="4.80658">
        <ele>223</ele>
        <time>2017-06-16T09:28:02Z</time>
      </trkpt>
      <trkpt lat="45.98233" lon="4.80649">
        <ele>223</ele>
        <time>2017-06-16T09:28:03Z</time>
      </trkpt>
      <trkpt lat="45.98236" lon="4.80639">
        <ele>223</ele>
        <time>2017-06-16T09:28:04Z</time>
      </trkpt>
      <trkpt lat="45.98239" lon="4.80629">
        <ele>224</ele>
        <time>2017-06-16T09:28:05Z</time>
      </trkpt>
      <trkpt lat="45.98242" lon="4.80619">
        <ele>224</ele>
        <time>2017-06-16T09:28:06Z</time>
      </trkpt>
      <trkpt lat="45.98245" lon="4.80608">
        <ele>224</ele>
        <time>2017-06-16T09:28:07Z</time>
      </trkpt>
      <trkpt lat="45.98248" lon="4.80598">
        <ele>224</ele>
        <time>2017-06-16T09:28:08Z</time>
      </trkpt>
      <trkpt lat="45.98251" lon="4.80587">
        <ele>224</ele>
        <time>2017-06-16T09:28:09Z</time>
      </trkpt>
      <trkpt lat="45.98254" lon="4.80577">
        <ele>224</ele>
        <time>2017-06-16T09:28:10Z</time>
      </trkpt>
      <trkpt lat="45.98257" lon="4.80567">
        <ele>224</ele>
        <time>2017-06-16T09:28:11Z</time>
      </trkpt>
      <trkpt lat="45.98259" lon="4.80558">
        <ele>224</ele>
        <time>2017-06-16T09:28:12Z</time>
      </trkpt>
      <trkpt lat="45.98262" lon="4.80549">
        <ele>224</ele>
        <time>2017-06-16T09:28:13Z</time>
      </trkpt>
      <trkpt lat="45.98264" lon="4.8054">
        <ele>224</ele>
        <time>2017-06-16T09:28:14Z</time>
      </trkpt>
      <trkpt lat="45.98266" lon="4.80532">
        <ele>224</ele>
        <time>2017-06-16T09:28:15Z</time>
      </trkpt>
      <trkpt lat="45.98268" lon="4.80523">
        <ele>224</ele>
        <time>2017-06-16T09:28:16Z</time>
      </trkpt>
      <trkpt lat="45.98271" lon="4.80515">
        <ele>223</ele>
        <time>2017-06-16T09:28:17Z</time>
      </trkpt>
      <trkpt lat="45.98273" lon="4.80507">
        <ele>223</ele>
        <time>2017-06-16T09:28:18Z</time>
      </trkpt>
      <trkpt lat="45.98274" lon="4.80499">
        <ele>223</ele>
        <time>2017-06-16T09:28:19Z</time>
      </trkpt>
      <trkpt lat="45.98276" lon="4.80492">
        <ele>223</ele>
        <time>2017-06-16T09:28:20Z</time>
      </trkpt>
      <trkpt lat="45.98277" lon="4.80484">
        <ele>223</ele>
        <time>2017-06-16T09:28:21Z</time>
      </trkpt>
      <trkpt lat="45.98279" lon="4.80477">
        <ele>223</ele>
        <time>2017-06-16T09:28:22Z</time>
      </trkpt>
      <trkpt lat="45.98281" lon="4.8047">
        <ele>223</ele>
        <time>2017-06-16T09:28:23Z</time>
      </trkpt>
      <trkpt lat="45.98283" lon="4.80463">
        <ele>223</ele>
        <time>2017-06-16T09:28:24Z</time>
      </trkpt>
      <trkpt lat="45.98286" lon="4.80451">
        <ele>224</ele>
        <time>2017-06-16T09:28:26Z</time>
      </trkpt>
      <trkpt lat="45.98287" lon="4.80445">
        <ele>224</ele>
        <time>2017-06-16T09:28:27Z</time>
      </trkpt>
      <trkpt lat="45.98288" lon="4.80438">
        <ele>224</ele>
        <time>2017-06-16T09:28:28Z</time>
      </trkpt>
      <trkpt lat="45.9829" lon="4.80431">
        <ele>224</ele>
        <time>2017-06-16T09:28:29Z</time>
      </trkpt>
      <trkpt lat="45.98291" lon="4.80423">
        <ele>224</ele>
        <time>2017-06-16T09:28:30Z</time>
      </trkpt>
      <trkpt lat="45.98293" lon="4.80415">
        <ele>224</ele>
        <time>2017-06-16T09:28:31Z</time>
      </trkpt>
      <trkpt lat="45.98295" lon="4.80408">
        <ele>224</ele>
        <time>2017-06-16T09:28:32Z</time>
      </trkpt>
      <trkpt lat="45.98296" lon="4.804">
        <ele>224</ele>
        <time>2017-06-16T09:28:33Z</time>
      </trkpt>
      <trkpt lat="45.98298" lon="4.80393">
        <ele>225</ele>
        <time>2017-06-16T09:28:34Z</time>
      </trkpt>
      <trkpt lat="45.983" lon="4.80385">
        <ele>225</ele>
        <time>2017-06-16T09:28:35Z</time>
      </trkpt>
      <trkpt lat="45.98301" lon="4.80377">
        <ele>225</ele>
        <time>2017-06-16T09:28:36Z</time>
      </trkpt>
      <trkpt lat="45.98303" lon="4.80369">
        <ele>225</ele>
        <time>2017-06-16T09:28:37Z</time>
      </trkpt>
      <trkpt lat="45.98303" lon="4.8036">
        <ele>225</ele>
        <time>2017-06-16T09:28:38Z</time>
      </trkpt>
      <trkpt lat="45.98305" lon="4.80352">
        <ele>225</ele>
        <time>2017-06-16T09:28:39Z</time>
      </trkpt>
      <trkpt lat="45.98307" lon="4.80343">
        <ele>226</ele>
        <time>2017-06-16T09:28:40Z</time>
      </trkpt>
      <trkpt lat="45.98309" lon="4.80335">
        <ele>226</ele>
        <time>2017-06-16T09:28:41Z</time>
      </trkpt>
      <trkpt lat="45.98311" lon="4.80327">
        <ele>227</ele>
        <time>2017-06-16T09:28:42Z</time>
      </trkpt>
      <trkpt lat="45.98312" lon="4.8032">
        <ele>227</ele>
        <time>2017-06-16T09:28:43Z</time>
      </trkpt>
      <trkpt lat="45.98314" lon="4.80314">
        <ele>227</ele>
        <time>2017-06-16T09:28:44Z</time>
      </trkpt>
      <trkpt lat="45.98315" lon="4.80308">
        <ele>226</ele>
        <time>2017-06-16T09:28:45Z</time>
      </trkpt>
      <trkpt lat="45.98317" lon="4.80302">
        <ele>226</ele>
        <time>2017-06-16T09:28:46Z</time>
      </trkpt>
      <trkpt lat="45.98319" lon="4.80296">
        <ele>226</ele>
        <time>2017-06-16T09:28:47Z</time>
      </trkpt>
      <trkpt lat="45.98322" lon="4.80283">
        <ele>227</ele>
        <time>2017-06-16T09:28:49Z</time>
      </trkpt>
      <trkpt lat="45.98323" lon="4.80277">
        <ele>227</ele>
        <time>2017-06-16T09:28:50Z</time>
      </trkpt>
      <trkpt lat="45.98325" lon="4.80266">
        <ele>228</ele>
        <time>2017-06-16T09:28:52Z</time>
      </trkpt>
      <trkpt lat="45.98326" lon="4.8026">
        <ele>228</ele>
        <time>2017-06-16T09:28:53Z</time>
      </trkpt>
      <trkpt lat="45.98329" lon="4.80249">
        <ele>229</ele>
        <time>2017-06-16T09:28:55Z</time>
      </trkpt>
      <trkpt lat="45.98331" lon="4.80243">
        <ele>229</ele>
        <time>2017-06-16T09:28:56Z</time>
      </trkpt>
      <trkpt lat="45.98334" lon="4.80231">
        <ele>230</ele>
        <time>2017-06-16T09:28:58Z</time>
      </trkpt>
      <trkpt lat="45.98334" lon="4.80226">
        <ele>230</ele>
        <time>2017-06-16T09:28:59Z</time>
      </trkpt>
      <trkpt lat="45.98333" lon="4.80214">
        <ele>227</ele>
        <time>2017-06-16T09:29:01Z</time>
      </trkpt>
      <trkpt lat="45.98332" lon="4.80209">
        <ele>227</ele>
        <time>2017-06-16T09:29:02Z</time>
      </trkpt>
      <trkpt lat="45.98329" lon="4.80198">
        <ele>227</ele>
        <time>2017-06-16T09:29:04Z</time>
      </trkpt>
      <trkpt lat="45.98328" lon="4.80193">
        <ele>227</ele>
        <time>2017-06-16T09:29:05Z</time>
      </trkpt>
      <trkpt lat="45.98325" lon="4.80181">
        <ele>227</ele>
        <time>2017-06-16T09:29:07Z</time>
      </trkpt>
      <trkpt lat="45.98323" lon="4.80176">
        <ele>227</ele>
        <time>2017-06-16T09:29:08Z</time>
      </trkpt>
      <trkpt lat="45.98322" lon="4.80169">
        <ele>227</ele>
        <time>2017-06-16T09:29:09Z</time>
      </trkpt>
      <trkpt lat="45.9832" lon="4.80163">
        <ele>228</ele>
        <time>2017-06-16T09:29:10Z</time>
      </trkpt>
      <trkpt lat="45.98318" lon="4.80157">
        <ele>228</ele>
        <time>2017-06-16T09:29:11Z</time>
      </trkpt>
      <trkpt lat="45.98315" lon="4.80152">
        <ele>228</ele>
        <time>2017-06-16T09:29:12Z</time>
      </trkpt>
      <trkpt lat="45.98312" lon="4.80146">
        <ele>228</ele>
        <time>2017-06-16T09:29:13Z</time>
      </trkpt>
      <trkpt lat="45.9831" lon="4.8014">
        <ele>228</ele>
        <time>2017-06-16T09:29:14Z</time>
      </trkpt>
      <trkpt lat="45.98308" lon="4.80133">
        <ele>228</ele>
        <time>2017-06-16T09:29:15Z</time>
      </trkpt>
      <trkpt lat="45.98306" lon="4.80127">
        <ele>228</ele>
        <time>2017-06-16T09:29:16Z</time>
      </trkpt>
      <trkpt lat="45.98303" lon="4.8012">
        <ele>228</ele>
        <time>2017-06-16T09:29:17Z</time>
      </trkpt>
      <trkpt lat="45.98301" lon="4.80115">
        <ele>228</ele>
        <time>2017-06-16T09:29:18Z</time>
      </trkpt>
      <trkpt lat="45.98298" lon="4.80109">
        <ele>228</ele>
        <time>2017-06-16T09:29:19Z</time>
      </trkpt>
      <trkpt lat="45.98296" lon="4.80103">
        <ele>228</ele>
        <time>2017-06-16T09:29:20Z</time>
      </trkpt>
      <trkpt lat="45.98294" lon="4.80097">
        <ele>228</ele>
        <time>2017-06-16T09:29:21Z</time>
      </trkpt>
      <trkpt lat="45.98293" lon="4.80091">
        <ele>228</ele>
        <time>2017-06-16T09:29:22Z</time>
      </trkpt>
      <trkpt lat="45.98291" lon="4.80085">
        <ele>228</ele>
        <time>2017-06-16T09:29:23Z</time>
      </trkpt>
      <trkpt lat="45.98289" lon="4.80079">
        <ele>229</ele>
        <time>2017-06-16T09:29:24Z</time>
      </trkpt>
      <trkpt lat="45.98287" lon="4.80073">
        <ele>229</ele>
        <time>2017-06-16T09:29:25Z</time>
      </trkpt>
      <trkpt lat="45.98285" lon="4.80066">
        <ele>229</ele>
        <time>2017-06-16T09:29:26Z</time>
      </trkpt>
      <trkpt lat="45.98283" lon="4.80059">
        <ele>229</ele>
        <time>2017-06-16T09:29:27Z</time>
      </trkpt>
      <trkpt lat="45.9828" lon="4.80052">
        <ele>229</ele>
        <time>2017-06-16T09:29:28Z</time>
      </trkpt>
      <trkpt lat="45.98278" lon="4.80046">
        <ele>229</ele>
        <time>2017-06-16T09:29:29Z</time>
      </trkpt>
      <trkpt lat="45.98275" lon="4.80039">
        <ele>229</ele>
        <time>2017-06-16T09:29:30Z</time>
      </trkpt>
      <trkpt lat="45.98273" lon="4.80033">
        <ele>229</ele>
        <time>2017-06-16T09:29:31Z</time>
      </trkpt>
      <trkpt lat="45.98271" lon="4.80027">
        <ele>229</ele>
        <time>2017-06-16T09:29:32Z</time>
      </trkpt>
      <trkpt lat="45.98269" lon="4.80021">
        <ele>228</ele>
        <time>2017-06-16T09:29:33Z</time>
      </trkpt>
      <trkpt lat="45.98267" lon="4.80015">
        <ele>228</ele>
        <time>2017-06-16T09:29:34Z</time>
      </trkpt>
      <trkpt lat="45.98265" lon="4.80009">
        <ele>228</ele>
        <time>2017-06-16T09:29:35Z</time>
      </trkpt>
      <trkpt lat="45.98264" lon="4.80003">
        <ele>228</ele>
        <time>2017-06-16T09:29:36Z</time>
      </trkpt>
      <trkpt lat="45.98262" lon="4.79996">
        <ele>227</ele>
        <time>2017-06-16T09:29:37Z</time>
      </trkpt>
      <trkpt lat="45.9826" lon="4.7999">
        <ele>228</ele>
        <time>2017-06-16T09:29:38Z</time>
      </trkpt>
      <trkpt lat="45.98258" lon="4.79983">
        <ele>228</ele>
        <time>2017-06-16T09:29:39Z</time>
      </trkpt>
      <trkpt lat="45.98256" lon="4.79977">
        <ele>228</ele>
        <time>2017-06-16T09:29:40Z</time>
      </trkpt>
      <trkpt lat="45.98254" lon="4.7997">
        <ele>228</ele>
        <time>2017-06-16T09:29:41Z</time>
      </trkpt>
      <trkpt lat="45.9825" lon="4.79963">
        <ele>228</ele>
        <time>2017-06-16T09:29:42Z</time>
      </trkpt>
      <trkpt lat="45.98248" lon="4.79957">
        <ele>225</ele>
        <time>2017-06-16T09:29:43Z</time>
      </trkpt>
      <trkpt lat="45.98247" lon="4.79951">
        <ele>225</ele>
        <time>2017-06-16T09:29:44Z</time>
      </trkpt>
      <trkpt lat="45.98245" lon="4.79945">
        <ele>225</ele>
        <time>2017-06-16T09:29:45Z</time>
      </trkpt>
      <trkpt lat="45.98243" lon="4.79939">
        <ele>225</ele>
        <time>2017-06-16T09:29:46Z</time>
      </trkpt>
      <trkpt lat="45.9824" lon="4.79932">
        <ele>225</ele>
        <time>2017-06-16T09:29:47Z</time>
      </trkpt>
      <trkpt lat="45.98238" lon="4.79926">
        <ele>225</ele>
        <time>2017-06-16T09:29:48Z</time>
      </trkpt>
      <trkpt lat="45.98236" lon="4.7992">
        <ele>225</ele>
        <time>2017-06-16T09:29:49Z</time>
      </trkpt>
      <trkpt lat="45.98234" lon="4.79914">
        <ele>225</ele>
        <time>2017-06-16T09:29:50Z</time>
      </trkpt>
      <trkpt lat="45.9823" lon="4.79903">
        <ele>225</ele>
        <time>2017-06-16T09:29:52Z</time>
      </trkpt>
      <trkpt lat="45.98228" lon="4.79898">
        <ele>225</ele>
        <time>2017-06-16T09:29:53Z</time>
      </trkpt>
      <trkpt lat="45.98226" lon="4.79889">
        <ele>225</ele>
        <time>2017-06-16T09:29:55Z</time>
      </trkpt>
      <trkpt lat="45.98224" lon="4.79884">
        <ele>225</ele>
        <time>2017-06-16T09:29:56Z</time>
      </trkpt>
      <trkpt lat="45.9822" lon="4.79873">
        <ele>225</ele>
        <time>2017-06-16T09:29:58Z</time>
      </trkpt>
      <trkpt lat="45.98218" lon="4.79867">
        <ele>225</ele>
        <time>2017-06-16T09:29:59Z</time>
      </trkpt>
      <trkpt lat="45.98216" lon="4.7986">
        <ele>225</ele>
        <time>2017-06-16T09:30:00Z</time>
      </trkpt>
      <trkpt lat="45.98214" lon="4.79854">
        <ele>225</ele>
        <time>2017-06-16T09:30:01Z</time>
      </trkpt>
      <trkpt lat="45.98213" lon="4.79848">
        <ele>225</ele>
        <time>2017-06-16T09:30:02Z</time>
      </trkpt>
      <trkpt lat="45.98211" lon="4.79842">
        <ele>225</ele>
        <time>2017-06-16T09:30:03Z</time>
      </trkpt>
      <trkpt lat="45.98209" lon="4.79835">
        <ele>225</ele>
        <time>2017-06-16T09:30:04Z</time>
      </trkpt>
      <trkpt lat="45.98206" lon="4.79829">
        <ele>226</ele>
        <time>2017-06-16T09:30:05Z</time>
      </trkpt>
      <trkpt lat="45.98204" lon="4.79823">
        <ele>226</ele>
        <time>2017-06-16T09:30:06Z</time>
      </trkpt>
      <trkpt lat="45.98201" lon="4.79816">
        <ele>226</ele>
        <time>2017-06-16T09:30:07Z</time>
      </trkpt>
      <trkpt lat="45.98199" lon="4.7981">
        <ele>226</ele>
        <time>2017-06-16T09:30:08Z</time>
      </trkpt>
      <trkpt lat="45.98196" lon="4.79804">
        <ele>226</ele>
        <time>2017-06-16T09:30:09Z</time>
      </trkpt>
      <trkpt lat="45.98192" lon="4.79792">
        <ele>226</ele>
        <time>2017-06-16T09:30:11Z</time>
      </trkpt>
      <trkpt lat="45.98191" lon="4.79787">
        <ele>226</ele>
        <time>2017-06-16T09:30:12Z</time>
      </trkpt>
      <trkpt lat="45.9819" lon="4.79775">
        <ele>226</ele>
        <time>2017-06-16T09:30:14Z</time>
      </trkpt>
      <trkpt lat="45.9819" lon="4.79768">
        <ele>226</ele>
        <time>2017-06-16T09:30:15Z</time>
      </trkpt>
      <trkpt lat="45.98191" lon="4.79761">
        <ele>226</ele>
        <time>2017-06-16T09:30:16Z</time>
      </trkpt>
      <trkpt lat="45.9819" lon="4.79755">
        <ele>226</ele>
        <time>2017-06-16T09:30:17Z</time>
      </trkpt>
      <trkpt lat="45.98186" lon="4.79745">
        <ele>227</ele>
        <time>2017-06-16T09:30:19Z</time>
      </trkpt>
      <trkpt lat="45.98183" lon="4.79741">
        <ele>227</ele>
        <time>2017-06-16T09:30:20Z</time>
      </trkpt>
      <trkpt lat="45.98177" lon="4.7974">
        <ele>227</ele>
        <time>2017-06-16T09:30:21Z</time>
      </trkpt>
      <trkpt lat="45.98172" lon="4.79741">
        <ele>227</ele>
        <time>2017-06-16T09:30:22Z</time>
      </trkpt>
      <trkpt lat="45.98167" lon="4.79743">
        <ele>226</ele>
        <time>2017-06-16T09:30:23Z</time>
      </trkpt>
      <trkpt lat="45.98162" lon="4.79747">
        <ele>226</ele>
        <time>2017-06-16T09:30:24Z</time>
      </trkpt>
      <trkpt lat="45.98157" lon="4.79751">
        <ele>225</ele>
        <time>2017-06-16T09:30:25Z</time>
      </trkpt>
      <trkpt lat="45.98151" lon="4.79753">
        <ele>225</ele>
        <time>2017-06-16T09:30:26Z</time>
      </trkpt>
      <trkpt lat="45.98146" lon="4.79755">
        <ele>225</ele>
        <time>2017-06-16T09:30:27Z</time>
      </trkpt>
      <trkpt lat="45.98139" lon="4.79756">
        <ele>224</ele>
        <time>2017-06-16T09:30:28Z</time>
      </trkpt>
      <trkpt lat="45.98133" lon="4.79757">
        <ele>224</ele>
        <time>2017-06-16T09:30:29Z</time>
      </trkpt>
      <trkpt lat="45.98127" lon="4.79758">
        <ele>224</ele>
        <time>2017-06-16T09:30:30Z</time>
      </trkpt>
      <trkpt lat="45.9812" lon="4.79759">
        <ele>224</ele>
        <time>2017-06-16T09:30:31Z</time>
      </trkpt>
      <trkpt lat="45.98112" lon="4.7976">
        <ele>224</ele>
        <time>2017-06-16T09:30:32Z</time>
      </trkpt>
      <trkpt lat="45.98105" lon="4.79761">
        <ele>224</ele>
        <time>2017-06-16T09:30:33Z</time>
      </trkpt>
      <trkpt lat="45.98098" lon="4.79762">
        <ele>223</ele>
        <time>2017-06-16T09:30:34Z</time>
      </trkpt>
      <trkpt lat="45.9809" lon="4.79763">
        <ele>223</ele>
        <time>2017-06-16T09:30:35Z</time>
      </trkpt>
      <trkpt lat="45.98083" lon="4.79764">
        <ele>223</ele>
        <time>2017-06-16T09:30:36Z</time>
      </trkpt>
      <trkpt lat="45.98076" lon="4.79765">
        <ele>223</ele>
        <time>2017-06-16T09:30:37Z</time>
      </trkpt>
      <trkpt lat="45.98068" lon="4.79766">
        <ele>223</ele>
        <time>2017-06-16T09:30:38Z</time>
      </trkpt>
      <trkpt lat="45.98061" lon="4.79767">
        <ele>223</ele>
        <time>2017-06-16T09:30:39Z</time>
      </trkpt>
      <trkpt lat="45.98054" lon="4.79769">
        <ele>223</ele>
        <time>2017-06-16T09:30:40Z</time>
      </trkpt>
      <trkpt lat="45.98047" lon="4.7977">
        <ele>223</ele>
        <time>2017-06-16T09:30:41Z</time>
      </trkpt>
      <trkpt lat="45.98039" lon="4.7977">
        <ele>223</ele>
        <time>2017-06-16T09:30:42Z</time>
      </trkpt>
      <trkpt lat="45.98032" lon="4.79771">
        <ele>223</ele>
        <time>2017-06-16T09:30:43Z</time>
      </trkpt>
      <trkpt lat="45.98025" lon="4.79772">
        <ele>223</ele>
        <time>2017-06-16T09:30:44Z</time>
      </trkpt>
      <trkpt lat="45.98018" lon="4.79773">
        <ele>223</ele>
        <time>2017-06-16T09:30:45Z</time>
      </trkpt>
      <trkpt lat="45.98011" lon="4.79774">
        <ele>223</ele>
        <time>2017-06-16T09:30:46Z</time>
      </trkpt>
      <trkpt lat="45.98004" lon="4.79775">
        <ele>223</ele>
        <time>2017-06-16T09:30:47Z</time>
      </trkpt>
      <trkpt lat="45.97997" lon="4.79776">
        <ele>224</ele>
        <time>2017-06-16T09:30:48Z</time>
      </trkpt>
      <trkpt lat="45.9799" lon="4.79777">
        <ele>224</ele>
        <time>2017-06-16T09:30:49Z</time>
      </trkpt>
      <trkpt lat="45.97984" lon="4.79778">
        <ele>224</ele>
        <time>2017-06-16T09:30:50Z</time>
      </trkpt>
      <trkpt lat="45.97978" lon="4.79779">
        <ele>224</ele>
        <time>2017-06-16T09:30:51Z</time>
      </trkpt>
      <trkpt lat="45.97971" lon="4.7978">
        <ele>224</ele>
        <time>2017-06-16T09:30:52Z</time>
      </trkpt>
      <trkpt lat="45.97965" lon="4.79781">
        <ele>224</ele>
        <time>2017-06-16T09:30:53Z</time>
      </trkpt>
      <trkpt lat="45.97959" lon="4.79782">
        <ele>224</ele>
        <time>2017-06-16T09:30:54Z</time>
      </trkpt>
      <trkpt lat="45.97953" lon="4.79782">
        <ele>224</ele>
        <time>2017-06-16T09:30:55Z</time>
      </trkpt>
      <trkpt lat="45.97947" lon="4.79783">
        <ele>224</ele>
        <time>2017-06-16T09:30:56Z</time>
      </trkpt>
      <trkpt lat="45.97941" lon="4.79784">
        <ele>224</ele>
        <time>2017-06-16T09:30:57Z</time>
      </trkpt>
      <trkpt lat="45.97934" lon="4.79785">
        <ele>224</ele>
        <time>2017-06-16T09:30:58Z</time>
      </trkpt>
      <trkpt lat="45.97929" lon="4.79786">
        <ele>225</ele>
        <time>2017-06-16T09:30:59Z</time>
      </trkpt>
      <trkpt lat="45.97922" lon="4.79786">
        <ele>225</ele>
        <time>2017-06-16T09:31:00Z</time>
      </trkpt>
      <trkpt lat="45.97916" lon="4.79787">
        <ele>225</ele>
        <time>2017-06-16T09:31:01Z</time>
      </trkpt>
      <trkpt lat="45.97909" lon="4.79788">
        <ele>225</ele>
        <time>2017-06-16T09:31:02Z</time>
      </trkpt>
      <trkpt lat="45.97902" lon="4.79789">
        <ele>225</ele>
        <time>2017-06-16T09:31:03Z</time>
      </trkpt>
      <trkpt lat="45.97896" lon="4.7979">
        <ele>224</ele>
        <time>2017-06-16T09:31:04Z</time>
      </trkpt>
      <trkpt lat="45.97889" lon="4.79792">
        <ele>224</ele>
        <time>2017-06-16T09:31:05Z</time>
      </trkpt>
      <trkpt lat="45.97883" lon="4.79793">
        <ele>224</ele>
        <time>2017-06-16T09:31:06Z</time>
      </trkpt>
      <trkpt lat="45.97876" lon="4.79794">
        <ele>224</ele>
        <time>2017-06-16T09:31:07Z</time>
      </trkpt>
      <trkpt lat="45.97869" lon="4.79795">
        <ele>224</ele>
        <time>2017-06-16T09:31:08Z</time>
      </trkpt>
      <trkpt lat="45.97862" lon="4.79796">
        <ele>224</ele>
        <time>2017-06-16T09:31:09Z</time>
      </trkpt>
      <trkpt lat="45.97855" lon="4.79797">
        <ele>224</ele>
        <time>2017-06-16T09:31:10Z</time>
      </trkpt>
      <trkpt lat="45.97849" lon="4.79798">
        <ele>224</ele>
        <time>2017-06-16T09:31:11Z</time>
      </trkpt>
      <trkpt lat="45.97842" lon="4.79799">
        <ele>224</ele>
        <time>2017-06-16T09:31:12Z</time>
      </trkpt>
      <trkpt lat="45.97836" lon="4.79801">
        <ele>224</ele>
        <time>2017-06-16T09:31:13Z</time>
      </trkpt>
      <trkpt lat="45.97829" lon="4.79802">
        <ele>223</ele>
        <time>2017-06-16T09:31:14Z</time>
      </trkpt>
      <trkpt lat="45.97823" lon="4.79803">
        <ele>223</ele>
        <time>2017-06-16T09:31:15Z</time>
      </trkpt>
      <trkpt lat="45.97816" lon="4.79804">
        <ele>223</ele>
        <time>2017-06-16T09:31:16Z</time>
      </trkpt>
      <trkpt lat="45.9781" lon="4.79805">
        <ele>223</ele>
        <time>2017-06-16T09:31:17Z</time>
      </trkpt>
      <trkpt lat="45.97804" lon="4.79807">
        <ele>223</ele>
        <time>2017-06-16T09:31:18Z</time>
      </trkpt>
      <trkpt lat="45.97798" lon="4.79808">
        <ele>223</ele>
        <time>2017-06-16T09:31:19Z</time>
      </trkpt>
      <trkpt lat="45.97791" lon="4.7981">
        <ele>223</ele>
        <time>2017-06-16T09:31:20Z</time>
      </trkpt>
      <trkpt lat="45.97785" lon="4.79811">
        <ele>223</ele>
        <time>2017-06-16T09:31:21Z</time>
      </trkpt>
      <trkpt lat="45.97779" lon="4.79813">
        <ele>223</ele>
        <time>2017-06-16T09:31:22Z</time>
      </trkpt>
      <trkpt lat="45.97772" lon="4.79814">
        <ele>223</ele>
        <time>2017-06-16T09:31:23Z</time>
      </trkpt>
      <trkpt lat="45.97766" lon="4.79815">
        <ele>223</ele>
        <time>2017-06-16T09:31:24Z</time>
      </trkpt>
      <trkpt lat="45.97759" lon="4.79816">
        <ele>223</ele>
        <time>2017-06-16T09:31:25Z</time>
      </trkpt>
      <trkpt lat="45.97753" lon="4.79818">
        <ele>223</ele>
        <time>2017-06-16T09:31:26Z</time>
      </trkpt>
      <trkpt lat="45.97747" lon="4.79819">
        <ele>223</ele>
        <time>2017-06-16T09:31:27Z</time>
      </trkpt>
      <trkpt lat="45.97741" lon="4.7982">
        <ele>223</ele>
        <time>2017-06-16T09:31:28Z</time>
      </trkpt>
      <trkpt lat="45.97735" lon="4.79821">
        <ele>223</ele>
        <time>2017-06-16T09:31:29Z</time>
      </trkpt>
      <trkpt lat="45.97729" lon="4.79822">
        <ele>223</ele>
        <time>2017-06-16T09:31:30Z</time>
      </trkpt>
      <trkpt lat="45.97723" lon="4.79823">
        <ele>223</ele>
        <time>2017-06-16T09:31:31Z</time>
      </trkpt>
      <trkpt lat="45.97717" lon="4.79825">
        <ele>223</ele>
        <time>2017-06-16T09:31:32Z</time>
      </trkpt>
      <trkpt lat="45.97711" lon="4.79826">
        <ele>223</ele>
        <time>2017-06-16T09:31:33Z</time>
      </trkpt>
      <trkpt lat="45.97705" lon="4.79827">
        <ele>223</ele>
        <time>2017-06-16T09:31:34Z</time>
      </trkpt>
      <trkpt lat="45.97699" lon="4.79828">
        <ele>223</ele>
        <time>2017-06-16T09:31:35Z</time>
      </trkpt>
      <trkpt lat="45.97693" lon="4.79828">
        <ele>223</ele>
        <time>2017-06-16T09:31:36Z</time>
      </trkpt>
      <trkpt lat="45.97687" lon="4.79829">
        <ele>223</ele>
        <time>2017-06-16T09:31:37Z</time>
      </trkpt>
      <trkpt lat="45.97681" lon="4.79831">
        <ele>223</ele>
        <time>2017-06-16T09:31:38Z</time>
      </trkpt>
      <trkpt lat="45.97676" lon="4.79832">
        <ele>222</ele>
        <time>2017-06-16T09:31:39Z</time>
      </trkpt>
      <trkpt lat="45.9767" lon="4.79834">
        <ele>222</ele>
        <time>2017-06-16T09:31:40Z</time>
      </trkpt>
      <trkpt lat="45.97664" lon="4.79835">
        <ele>222</ele>
        <time>2017-06-16T09:31:41Z</time>
      </trkpt>
      <trkpt lat="45.97659" lon="4.79837">
        <ele>221</ele>
        <time>2017-06-16T09:31:42Z</time>
      </trkpt>
      <trkpt lat="45.97653" lon="4.79839">
        <ele>221</ele>
        <time>2017-06-16T09:31:43Z</time>
      </trkpt>
      <trkpt lat="45.97647" lon="4.79841">
        <ele>221</ele>
        <time>2017-06-16T09:31:44Z</time>
      </trkpt>
      <trkpt lat="45.97641" lon="4.79843">
        <ele>221</ele>
        <time>2017-06-16T09:31:45Z</time>
      </trkpt>
      <trkpt lat="45.97635" lon="4.79846">
        <ele>221</ele>
        <time>2017-06-16T09:31:46Z</time>
      </trkpt>
      <trkpt lat="45.97629" lon="4.79848">
        <ele>221</ele>
        <time>2017-06-16T09:31:47Z</time>
      </trkpt>
      <trkpt lat="45.97622" lon="4.79851">
        <ele>221</ele>
        <time>2017-06-16T09:31:48Z</time>
      </trkpt>
      <trkpt lat="45.97615" lon="4.79854">
        <ele>221</ele>
        <time>2017-06-16T09:31:49Z</time>
      </trkpt>
      <trkpt lat="45.97609" lon="4.79857">
        <ele>221</ele>
        <time>2017-06-16T09:31:50Z</time>
      </trkpt>
      <trkpt lat="45.97603" lon="4.79859">
        <ele>221</ele>
        <time>2017-06-16T09:31:51Z</time>
      </trkpt>
      <trkpt lat="45.97597" lon="4.79862">
        <ele>221</ele>
        <time>2017-06-16T09:31:52Z</time>
      </trkpt>
      <trkpt lat="45.9759" lon="4.79864">
        <ele>221</ele>
        <time>2017-06-16T09:31:53Z</time>
      </trkpt>
      <trkpt lat="45.97583" lon="4.79867">
        <ele>222</ele>
        <time>2017-06-16T09:31:54Z</time>
      </trkpt>
      <trkpt lat="45.97576" lon="4.7987">
        <ele>222</ele>
        <time>2017-06-16T09:31:55Z</time>
      </trkpt>
      <trkpt lat="45.97569" lon="4.79873">
        <ele>222</ele>
        <time>2017-06-16T09:31:56Z</time>
      </trkpt>
      <trkpt lat="45.97562" lon="4.79875">
        <ele>222</ele>
        <time>2017-06-16T09:31:57Z</time>
      </trkpt>
      <trkpt lat="45.97555" lon="4.79877">
        <ele>222</ele>
        <time>2017-06-16T09:31:58Z</time>
      </trkpt>
      <trkpt lat="45.97547" lon="4.79878">
        <ele>222</ele>
        <time>2017-06-16T09:31:59Z</time>
      </trkpt>
      <trkpt lat="45.97539" lon="4.7988">
        <ele>222</ele>
        <time>2017-06-16T09:32:00Z</time>
      </trkpt>
      <trkpt lat="45.9753" lon="4.79881">
        <ele>222</ele>
        <time>2017-06-16T09:32:01Z</time>
      </trkpt>
      <trkpt lat="45.97522" lon="4.79883">
        <ele>222</ele>
        <time>2017-06-16T09:32:02Z</time>
      </trkpt>
      <trkpt lat="45.97513" lon="4.79884">
        <ele>221</ele>
        <time>2017-06-16T09:32:03Z</time>
      </trkpt>
      <trkpt lat="45.97504" lon="4.79885">
        <ele>221</ele>
        <time>2017-06-16T09:32:04Z</time>
      </trkpt>
      <trkpt lat="45.97494" lon="4.79886">
        <ele>221</ele>
        <time>2017-06-16T09:32:05Z</time>
      </trkpt>
      <trkpt lat="45.97484" lon="4.79887">
        <ele>221</ele>
        <time>2017-06-16T09:32:06Z</time>
      </trkpt>
      <trkpt lat="45.97474" lon="4.79886">
        <ele>221</ele>
        <time>2017-06-16T09:32:07Z</time>
      </trkpt>
      <trkpt lat="45.97465" lon="4.79886">
        <ele>221</ele>
        <time>2017-06-16T09:32:08Z</time>
      </trkpt>
      <trkpt lat="45.97455" lon="4.79885">
        <ele>221</ele>
        <time>2017-06-16T09:32:09Z</time>
      </trkpt>
      <trkpt lat="45.97445" lon="4.79886">
        <ele>221</ele>
        <time>2017-06-16T09:32:10Z</time>
      </trkpt>
      <trkpt lat="45.97435" lon="4.79886">
        <ele>220</ele>
        <time>2017-06-16T09:32:11Z</time>
      </trkpt>
      <trkpt lat="45.97425" lon="4.79886">
        <ele>220</ele>
        <time>2017-06-16T09:32:12Z</time>
      </trkpt>
      <trkpt lat="45.97415" lon="4.79887">
        <ele>218</ele>
        <time>2017-06-16T09:32:13Z</time>
      </trkpt>
      <trkpt lat="45.97405" lon="4.79889">
        <ele>218</ele>
        <time>2017-06-16T09:32:14Z</time>
      </trkpt>
      <trkpt lat="45.97395" lon="4.79891">
        <ele>217</ele>
        <time>2017-06-16T09:32:15Z</time>
      </trkpt>
      <trkpt lat="45.97386" lon="4.79894">
        <ele>217</ele>
        <time>2017-06-16T09:32:16Z</time>
      </trkpt>
      <trkpt lat="45.97376" lon="4.79896">
        <ele>217</ele>
        <time>2017-06-16T09:32:17Z</time>
      </trkpt>
      <trkpt lat="45.97365" lon="4.79898">
        <ele>217</ele>
        <time>2017-06-16T09:32:18Z</time>
      </trkpt>
      <trkpt lat="45.97355" lon="4.799">
        <ele>216</ele>
        <time>2017-06-16T09:32:19Z</time>
      </trkpt>
      <trkpt lat="45.97345" lon="4.79902">
        <ele>215</ele>
        <time>2017-06-16T09:32:20Z</time>
      </trkpt>
      <trkpt lat="45.97334" lon="4.79903">
        <ele>215</ele>
        <time>2017-06-16T09:32:21Z</time>
      </trkpt>
      <trkpt lat="45.97324" lon="4.79904">
        <ele>213</ele>
        <time>2017-06-16T09:32:22Z</time>
      </trkpt>
      <trkpt lat="45.97314" lon="4.79905">
        <ele>213</ele>
        <time>2017-06-16T09:32:23Z</time>
      </trkpt>
      <trkpt lat="45.97304" lon="4.79907">
        <ele>213</ele>
        <time>2017-06-16T09:32:24Z</time>
      </trkpt>
      <trkpt lat="45.97294" lon="4.79908">
        <ele>213</ele>
        <time>2017-06-16T09:32:25Z</time>
      </trkpt>
      <trkpt lat="45.97285" lon="4.7991">
        <ele>213</ele>
        <time>2017-06-16T09:32:26Z</time>
      </trkpt>
      <trkpt lat="45.97276" lon="4.79911">
        <ele>213</ele>
        <time>2017-06-16T09:32:27Z</time>
      </trkpt>
      <trkpt lat="45.97268" lon="4.79912">
        <ele>213</ele>
        <time>2017-06-16T09:32:28Z</time>
      </trkpt>
      <trkpt lat="45.97262" lon="4.79913">
        <ele>213</ele>
        <time>2017-06-16T09:32:29Z</time>
      </trkpt>
      <trkpt lat="45.97256" lon="4.79912">
        <ele>212</ele>
        <time>2017-06-16T09:32:30Z</time>
      </trkpt>
      <trkpt lat="45.9725" lon="4.79905">
        <ele>213</ele>
        <time>2017-06-16T09:32:32Z</time>
      </trkpt>
      <trkpt lat="45.97249" lon="4.79898">
        <ele>211</ele>
        <time>2017-06-16T09:32:33Z</time>
      </trkpt>
      <trkpt lat="45.97247" lon="4.79891">
        <ele>211</ele>
        <time>2017-06-16T09:32:34Z</time>
      </trkpt>
      <trkpt lat="45.97245" lon="4.79883">
        <ele>211</ele>
        <time>2017-06-16T09:32:35Z</time>
      </trkpt>
      <trkpt lat="45.97242" lon="4.79875">
        <ele>211</ele>
        <time>2017-06-16T09:32:36Z</time>
      </trkpt>
      <trkpt lat="45.9724" lon="4.79867">
        <ele>211</ele>
        <time>2017-06-16T09:32:37Z</time>
      </trkpt>
      <trkpt lat="45.97239" lon="4.79858">
        <ele>211</ele>
        <time>2017-06-16T09:32:38Z</time>
      </trkpt>
      <trkpt lat="45.97238" lon="4.7985">
        <ele>211</ele>
        <time>2017-06-16T09:32:39Z</time>
      </trkpt>
      <trkpt lat="45.97239" lon="4.79842">
        <ele>211</ele>
        <time>2017-06-16T09:32:40Z</time>
      </trkpt>
      <trkpt lat="45.97239" lon="4.79833">
        <ele>211</ele>
        <time>2017-06-16T09:32:41Z</time>
      </trkpt>
      <trkpt lat="45.97239" lon="4.79825">
        <ele>211</ele>
        <time>2017-06-16T09:32:42Z</time>
      </trkpt>
      <trkpt lat="45.9724" lon="4.79817">
        <ele>211</ele>
        <time>2017-06-16T09:32:43Z</time>
      </trkpt>
      <trkpt lat="45.97241" lon="4.79809">
        <ele>210</ele>
        <time>2017-06-16T09:32:44Z</time>
      </trkpt>
      <trkpt lat="45.97242" lon="4.79801">
        <ele>210</ele>
        <time>2017-06-16T09:32:45Z</time>
      </trkpt>
      <trkpt lat="45.97242" lon="4.79794">
        <ele>210</ele>
        <time>2017-06-16T09:32:46Z</time>
      </trkpt>
      <trkpt lat="45.97243" lon="4.79786">
        <ele>210</ele>
        <time>2017-06-16T09:32:47Z</time>
      </trkpt>
      <trkpt lat="45.97243" lon="4.79779">
        <ele>210</ele>
        <time>2017-06-16T09:32:48Z</time>
      </trkpt>
      <trkpt lat="45.97244" lon="4.79772">
        <ele>210</ele>
        <time>2017-06-16T09:32:49Z</time>
      </trkpt>
      <trkpt lat="45.97244" lon="4.79764">
        <ele>209</ele>
        <time>2017-06-16T09:32:50Z</time>
      </trkpt>
      <trkpt lat="45.97244" lon="4.79757">
        <ele>209</ele>
        <time>2017-06-16T09:32:51Z</time>
      </trkpt>
      <trkpt lat="45.97246" lon="4.79749">
        <ele>209</ele>
        <time>2017-06-16T09:32:52Z</time>
      </trkpt>
      <trkpt lat="45.97247" lon="4.7974">
        <ele>209</ele>
        <time>2017-06-16T09:32:53Z</time>
      </trkpt>
      <trkpt lat="45.97248" lon="4.79733">
        <ele>209</ele>
        <time>2017-06-16T09:32:54Z</time>
      </trkpt>
      <trkpt lat="45.97249" lon="4.79725">
        <ele>209</ele>
        <time>2017-06-16T09:32:55Z</time>
      </trkpt>
      <trkpt lat="45.9725" lon="4.79717">
        <ele>212</ele>
        <time>2017-06-16T09:32:56Z</time>
      </trkpt>
      <trkpt lat="45.97252" lon="4.79709">
        <ele>212</ele>
        <time>2017-06-16T09:32:57Z</time>
      </trkpt>
      <trkpt lat="45.97253" lon="4.79701">
        <ele>212</ele>
        <time>2017-06-16T09:32:58Z</time>
      </trkpt>
      <trkpt lat="45.97254" lon="4.79694">
        <ele>212</ele>
        <time>2017-06-16T09:32:59Z</time>
      </trkpt>
      <trkpt lat="45.97255" lon="4.79686">
        <ele>211</ele>
        <time>2017-06-16T09:33:00Z</time>
      </trkpt>
      <trkpt lat="45.97255" lon="4.79677">
        <ele>210</ele>
        <time>2017-06-16T09:33:01Z</time>
      </trkpt>
      <trkpt lat="45.97255" lon="4.79669">
        <ele>209</ele>
        <time>2017-06-16T09:33:02Z</time>
      </trkpt>
      <trkpt lat="45.97257" lon="4.79661">
        <ele>210</ele>
        <time>2017-06-16T09:33:03Z</time>
      </trkpt>
      <trkpt lat="45.97257" lon="4.79653">
        <ele>211</ele>
        <time>2017-06-16T09:33:04Z</time>
      </trkpt>
      <trkpt lat="45.97258" lon="4.79645">
        <ele>212</ele>
        <time>2017-06-16T09:33:05Z</time>
      </trkpt>
      <trkpt lat="45.97258" lon="4.79637">
        <ele>213</ele>
        <time>2017-06-16T09:33:06Z</time>
      </trkpt>
      <trkpt lat="45.97258" lon="4.79629">
        <ele>213</ele>
        <time>2017-06-16T09:33:07Z</time>
      </trkpt>
      <trkpt lat="45.97258" lon="4.7962">
        <ele>213</ele>
        <time>2017-06-16T09:33:08Z</time>
      </trkpt>
      <trkpt lat="45.97259" lon="4.79613">
        <ele>213</ele>
        <time>2017-06-16T09:33:09Z</time>
      </trkpt>
      <trkpt lat="45.97259" lon="4.79605">
        <ele>213</ele>
        <time>2017-06-16T09:33:10Z</time>
      </trkpt>
      <trkpt lat="45.97258" lon="4.79598">
        <ele>212</ele>
        <time>2017-06-16T09:33:11Z</time>
      </trkpt>
      <trkpt lat="45.97258" lon="4.79591">
        <ele>212</ele>
        <time>2017-06-16T09:33:12Z</time>
      </trkpt>
      <trkpt lat="45.97258" lon="4.79584">
        <ele>211</ele>
        <time>2017-06-16T09:33:13Z</time>
      </trkpt>
      <trkpt lat="45.97258" lon="4.79577">
        <ele>212</ele>
        <time>2017-06-16T09:33:14Z</time>
      </trkpt>
      <trkpt lat="45.97258" lon="4.79571">
        <ele>213</ele>
        <time>2017-06-16T09:33:15Z</time>
      </trkpt>
      <trkpt lat="45.97257" lon="4.79558">
        <ele>213</ele>
        <time>2017-06-16T09:33:17Z</time>
      </trkpt>
      <trkpt lat="45.97256" lon="4.79551">
        <ele>214</ele>
        <time>2017-06-16T09:33:18Z</time>
      </trkpt>
      <trkpt lat="45.97256" lon="4.79544">
        <ele>214</ele>
        <time>2017-06-16T09:33:19Z</time>
      </trkpt>
      <trkpt lat="45.97255" lon="4.79537">
        <ele>214</ele>
        <time>2017-06-16T09:33:20Z</time>
      </trkpt>
      <trkpt lat="45.97254" lon="4.7953">
        <ele>214</ele>
        <time>2017-06-16T09:33:21Z</time>
      </trkpt>
      <trkpt lat="45.97252" lon="4.79524">
        <ele>213</ele>
        <time>2017-06-16T09:33:22Z</time>
      </trkpt>
      <trkpt lat="45.97251" lon="4.79516">
        <ele>213</ele>
        <time>2017-06-16T09:33:23Z</time>
      </trkpt>
      <trkpt lat="45.97249" lon="4.79509">
        <ele>210</ele>
        <time>2017-06-16T09:33:24Z</time>
      </trkpt>
      <trkpt lat="45.97249" lon="4.79502">
        <ele>211</ele>
        <time>2017-06-16T09:33:25Z</time>
      </trkpt>
      <trkpt lat="45.97248" lon="4.79495">
        <ele>210</ele>
        <time>2017-06-16T09:33:26Z</time>
      </trkpt>
      <trkpt lat="45.97247" lon="4.79488">
        <ele>210</ele>
        <time>2017-06-16T09:33:27Z</time>
      </trkpt>
      <trkpt lat="45.97245" lon="4.79481">
        <ele>210</ele>
        <time>2017-06-16T09:33:28Z</time>
      </trkpt>
      <trkpt lat="45.97243" lon="4.79473">
        <ele>209</ele>
        <time>2017-06-16T09:33:29Z</time>
      </trkpt>
      <trkpt lat="45.97242" lon="4.79466">
        <ele>209</ele>
        <time>2017-06-16T09:33:30Z</time>
      </trkpt>
      <trkpt lat="45.9724" lon="4.79459">
        <ele>209</ele>
        <time>2017-06-16T09:33:31Z</time>
      </trkpt>
      <trkpt lat="45.97237" lon="4.79452">
        <ele>209</ele>
        <time>2017-06-16T09:33:32Z</time>
      </trkpt>
      <trkpt lat="45.97235" lon="4.79445">
        <ele>209</ele>
        <time>2017-06-16T09:33:33Z</time>
      </trkpt>
      <trkpt lat="45.97232" lon="4.79438">
        <ele>209</ele>
        <time>2017-06-16T09:33:34Z</time>
      </trkpt>
      <trkpt lat="45.97229" lon="4.7943">
        <ele>209</ele>
        <time>2017-06-16T09:33:35Z</time>
      </trkpt>
      <trkpt lat="45.97225" lon="4.79423">
        <ele>209</ele>
        <time>2017-06-16T09:33:36Z</time>
      </trkpt>
      <trkpt lat="45.97221" lon="4.79416">
        <ele>208</ele>
        <time>2017-06-16T09:33:37Z</time>
      </trkpt>
      <trkpt lat="45.97218" lon="4.7941">
        <ele>208</ele>
        <time>2017-06-16T09:33:38Z</time>
      </trkpt>
      <trkpt lat="45.97216" lon="4.79403">
        <ele>208</ele>
        <time>2017-06-16T09:33:39Z</time>
      </trkpt>
      <trkpt lat="45.97213" lon="4.79396">
        <ele>208</ele>
        <time>2017-06-16T09:33:40Z</time>
      </trkpt>
      <trkpt lat="45.9721" lon="4.7939">
        <ele>208</ele>
        <time>2017-06-16T09:33:41Z</time>
      </trkpt>
      <trkpt lat="45.97208" lon="4.79383">
        <ele>208</ele>
        <time>2017-06-16T09:33:42Z</time>
      </trkpt>
      <trkpt lat="45.97206" lon="4.79377">
        <ele>208</ele>
        <time>2017-06-16T09:33:43Z</time>
      </trkpt>
      <trkpt lat="45.97203" lon="4.7937">
        <ele>208</ele>
        <time>2017-06-16T09:33:44Z</time>
      </trkpt>
      <trkpt lat="45.97199" lon="4.79363">
        <ele>207</ele>
        <time>2017-06-16T09:33:45Z</time>
      </trkpt>
      <trkpt lat="45.97197" lon="4.79355">
        <ele>207</ele>
        <time>2017-06-16T09:33:46Z</time>
      </trkpt>
      <trkpt lat="45.97193" lon="4.79347">
        <ele>207</ele>
        <time>2017-06-16T09:33:47Z</time>
      </trkpt>
      <trkpt lat="45.9719" lon="4.79339">
        <ele>207</ele>
        <time>2017-06-16T09:33:48Z</time>
      </trkpt>
      <trkpt lat="45.97187" lon="4.79331">
        <ele>207</ele>
        <time>2017-06-16T09:33:49Z</time>
      </trkpt>
      <trkpt lat="45.97184" lon="4.79324">
        <ele>207</ele>
        <time>2017-06-16T09:33:50Z</time>
      </trkpt>
      <trkpt lat="45.9718" lon="4.79316">
        <ele>207</ele>
        <time>2017-06-16T09:33:51Z</time>
      </trkpt>
      <trkpt lat="45.97177" lon="4.79308">
        <ele>207</ele>
        <time>2017-06-16T09:33:52Z</time>
      </trkpt>
      <trkpt lat="45.97173" lon="4.79299">
        <ele>207</ele>
        <time>2017-06-16T09:33:53Z</time>
      </trkpt>
      <trkpt lat="45.9717" lon="4.79291">
        <ele>207</ele>
        <time>2017-06-16T09:33:54Z</time>
      </trkpt>
      <trkpt lat="45.97168" lon="4.79283">
        <ele>207</ele>
        <time>2017-06-16T09:33:55Z</time>
      </trkpt>
      <trkpt lat="45.97165" lon="4.79275">
        <ele>204</ele>
        <time>2017-06-16T09:33:56Z</time>
      </trkpt>
      <trkpt lat="45.97162" lon="4.79267">
        <ele>205</ele>
        <time>2017-06-16T09:33:57Z</time>
      </trkpt>
      <trkpt lat="45.97159" lon="4.7926">
        <ele>205</ele>
        <time>2017-06-16T09:33:58Z</time>
      </trkpt>
      <trkpt lat="45.97156" lon="4.79252">
        <ele>205</ele>
        <time>2017-06-16T09:33:59Z</time>
      </trkpt>
      <trkpt lat="45.97153" lon="4.79245">
        <ele>205</ele>
        <time>2017-06-16T09:34:00Z</time>
      </trkpt>
      <trkpt lat="45.97149" lon="4.79238">
        <ele>205</ele>
        <time>2017-06-16T09:34:01Z</time>
      </trkpt>
      <trkpt lat="45.97146" lon="4.7923">
        <ele>205</ele>
        <time>2017-06-16T09:34:02Z</time>
      </trkpt>
      <trkpt lat="45.97143" lon="4.79221">
        <ele>206</ele>
        <time>2017-06-16T09:34:03Z</time>
      </trkpt>
      <trkpt lat="45.97139" lon="4.79212">
        <ele>206</ele>
        <time>2017-06-16T09:34:04Z</time>
      </trkpt>
      <trkpt lat="45.97135" lon="4.79203">
        <ele>206</ele>
        <time>2017-06-16T09:34:05Z</time>
      </trkpt>
      <trkpt lat="45.97131" lon="4.79194">
        <ele>206</ele>
        <time>2017-06-16T09:34:06Z</time>
      </trkpt>
      <trkpt lat="45.97128" lon="4.79185">
        <ele>206</ele>
        <time>2017-06-16T09:34:07Z</time>
      </trkpt>
      <trkpt lat="45.97124" lon="4.79176">
        <ele>206</ele>
        <time>2017-06-16T09:34:08Z</time>
      </trkpt>
      <trkpt lat="45.9712" lon="4.79168">
        <ele>206</ele>
        <time>2017-06-16T09:34:09Z</time>
      </trkpt>
      <trkpt lat="45.97116" lon="4.7916">
        <ele>207</ele>
        <time>2017-06-16T09:34:10Z</time>
      </trkpt>
      <trkpt lat="45.97112" lon="4.79153">
        <ele>206</ele>
        <time>2017-06-16T09:34:11Z</time>
      </trkpt>
      <trkpt lat="45.97107" lon="4.79146">
        <ele>206</ele>
        <time>2017-06-16T09:34:12Z</time>
      </trkpt>
      <trkpt lat="45.97103" lon="4.79139">
        <ele>206</ele>
        <time>2017-06-16T09:34:13Z</time>
      </trkpt>
      <trkpt lat="45.97098" lon="4.79132">
        <ele>206</ele>
        <time>2017-06-16T09:34:14Z</time>
      </trkpt>
      <trkpt lat="45.97094" lon="4.79125">
        <ele>206</ele>
        <time>2017-06-16T09:34:15Z</time>
      </trkpt>
      <trkpt lat="45.9709" lon="4.79118">
        <ele>206</ele>
        <time>2017-06-16T09:34:16Z</time>
      </trkpt>
      <trkpt lat="45.97088" lon="4.7911">
        <ele>206</ele>
        <time>2017-06-16T09:34:17Z</time>
      </trkpt>
      <trkpt lat="45.97086" lon="4.79102">
        <ele>206</ele>
        <time>2017-06-16T09:34:18Z</time>
      </trkpt>
      <trkpt lat="45.97084" lon="4.79093">
        <ele>205</ele>
        <time>2017-06-16T09:34:19Z</time>
      </trkpt>
      <trkpt lat="45.97083" lon="4.79084">
        <ele>204</ele>
        <time>2017-06-16T09:34:20Z</time>
      </trkpt>
      <trkpt lat="45.97082" lon="4.79076">
        <ele>204</ele>
        <time>2017-06-16T09:34:21Z</time>
      </trkpt>
      <trkpt lat="45.9708" lon="4.79068">
        <ele>204</ele>
        <time>2017-06-16T09:34:22Z</time>
      </trkpt>
      <trkpt lat="45.97079" lon="4.7906">
        <ele>204</ele>
        <time>2017-06-16T09:34:23Z</time>
      </trkpt>
      <trkpt lat="45.97077" lon="4.79052">
        <ele>203</ele>
        <time>2017-06-16T09:34:24Z</time>
      </trkpt>
      <trkpt lat="45.97074" lon="4.79043">
        <ele>203</ele>
        <time>2017-06-16T09:34:25Z</time>
      </trkpt>
      <trkpt lat="45.97072" lon="4.79035">
        <ele>204</ele>
        <time>2017-06-16T09:34:26Z</time>
      </trkpt>
      <trkpt lat="45.97069" lon="4.79026">
        <ele>204</ele>
        <time>2017-06-16T09:34:27Z</time>
      </trkpt>
      <trkpt lat="45.97067" lon="4.79018">
        <ele>204</ele>
        <time>2017-06-16T09:34:28Z</time>
      </trkpt>
      <trkpt lat="45.97065" lon="4.79009">
        <ele>204</ele>
        <time>2017-06-16T09:34:29Z</time>
      </trkpt>
      <trkpt lat="45.97063" lon="4.79001">
        <ele>204</ele>
        <time>2017-06-16T09:34:30Z</time>
      </trkpt>
      <trkpt lat="45.9706" lon="4.78993">
        <ele>205</ele>
        <time>2017-06-16T09:34:31Z</time>
      </trkpt>
      <trkpt lat="45.97058" lon="4.78985">
        <ele>205</ele>
        <time>2017-06-16T09:34:32Z</time>
      </trkpt>
      <trkpt lat="45.97055" lon="4.78978">
        <ele>205</ele>
        <time>2017-06-16T09:34:33Z</time>
      </trkpt>
      <trkpt lat="45.97052" lon="4.7897">
        <ele>205</ele>
        <time>2017-06-16T09:34:34Z</time>
      </trkpt>
      <trkpt lat="45.97049" lon="4.78963">
        <ele>205</ele>
        <time>2017-06-16T09:34:35Z</time>
      </trkpt>
      <trkpt lat="45.97046" lon="4.78956">
        <ele>205</ele>
        <time>2017-06-16T09:34:36Z</time>
      </trkpt>
      <trkpt lat="45.97042" lon="4.78949">
        <ele>205</ele>
        <time>2017-06-16T09:34:37Z</time>
      </trkpt>
      <trkpt lat="45.97037" lon="4.78942">
        <ele>205</ele>
        <time>2017-06-16T09:34:38Z</time>
      </trkpt>
      <trkpt lat="45.97032" lon="4.78936">
        <ele>205</ele>
        <time>2017-06-16T09:34:39Z</time>
      </trkpt>
      <trkpt lat="45.97028" lon="4.78929">
        <ele>205</ele>
        <time>2017-06-16T09:34:40Z</time>
      </trkpt>
      <trkpt lat="45.97022" lon="4.78922">
        <ele>205</ele>
        <time>2017-06-16T09:34:41Z</time>
      </trkpt>
      <trkpt lat="45.97017" lon="4.78916">
        <ele>206</ele>
        <time>2017-06-16T09:34:42Z</time>
      </trkpt>
      <trkpt lat="45.97011" lon="4.78909">
        <ele>206</ele>
        <time>2017-06-16T09:34:43Z</time>
      </trkpt>
      <trkpt lat="45.97006" lon="4.78903">
        <ele>206</ele>
        <time>2017-06-16T09:34:44Z</time>
      </trkpt>
      <trkpt lat="45.97001" lon="4.78896">
        <ele>206</ele>
        <time>2017-06-16T09:34:45Z</time>
      </trkpt>
      <trkpt lat="45.96996" lon="4.7889">
        <ele>203</ele>
        <time>2017-06-16T09:34:46Z</time>
      </trkpt>
      <trkpt lat="45.96991" lon="4.78883">
        <ele>203</ele>
        <time>2017-06-16T09:34:47Z</time>
      </trkpt>
      <trkpt lat="45.96985" lon="4.78877">
        <ele>203</ele>
        <time>2017-06-16T09:34:48Z</time>
      </trkpt>
      <trkpt lat="45.9698" lon="4.78872">
        <ele>203</ele>
        <time>2017-06-16T09:34:49Z</time>
      </trkpt>
      <trkpt lat="45.96975" lon="4.78866">
        <ele>203</ele>
        <time>2017-06-16T09:34:50Z</time>
      </trkpt>
      <trkpt lat="45.9697" lon="4.7886">
        <ele>203</ele>
        <time>2017-06-16T09:34:51Z</time>
      </trkpt>
      <trkpt lat="45.96964" lon="4.78853">
        <ele>203</ele>
        <time>2017-06-16T09:34:52Z</time>
      </trkpt>
      <trkpt lat="45.96959" lon="4.78847">
        <ele>203</ele>
        <time>2017-06-16T09:34:53Z</time>
      </trkpt>
      <trkpt lat="45.96953" lon="4.78841">
        <ele>203</ele>
        <time>2017-06-16T09:34:54Z</time>
      </trkpt>
      <trkpt lat="45.96948" lon="4.78834">
        <ele>202</ele>
        <time>2017-06-16T09:34:55Z</time>
      </trkpt>
      <trkpt lat="45.96943" lon="4.78828">
        <ele>203</ele>
        <time>2017-06-16T09:34:56Z</time>
      </trkpt>
      <trkpt lat="45.96937" lon="4.78821">
        <ele>203</ele>
        <time>2017-06-16T09:34:57Z</time>
      </trkpt>
      <trkpt lat="45.96933" lon="4.78814">
        <ele>203</ele>
        <time>2017-06-16T09:34:58Z</time>
      </trkpt>
      <trkpt lat="45.96928" lon="4.78807">
        <ele>203</ele>
        <time>2017-06-16T09:34:59Z</time>
      </trkpt>
      <trkpt lat="45.96924" lon="4.78801">
        <ele>203</ele>
        <time>2017-06-16T09:35:00Z</time>
      </trkpt>
      <trkpt lat="45.9692" lon="4.78794">
        <ele>203</ele>
        <time>2017-06-16T09:35:01Z</time>
      </trkpt>
      <trkpt lat="45.96916" lon="4.78787">
        <ele>201</ele>
        <time>2017-06-16T09:35:02Z</time>
      </trkpt>
      <trkpt lat="45.96913" lon="4.78779">
        <ele>201</ele>
        <time>2017-06-16T09:35:03Z</time>
      </trkpt>
      <trkpt lat="45.9691" lon="4.78772">
        <ele>201</ele>
        <time>2017-06-16T09:35:04Z</time>
      </trkpt>
      <trkpt lat="45.96906" lon="4.78766">
        <ele>202</ele>
        <time>2017-06-16T09:35:05Z</time>
      </trkpt>
      <trkpt lat="45.96903" lon="4.78759">
        <ele>202</ele>
        <time>2017-06-16T09:35:06Z</time>
      </trkpt>
      <trkpt lat="45.96899" lon="4.78752">
        <ele>202</ele>
        <time>2017-06-16T09:35:07Z</time>
      </trkpt>
      <trkpt lat="45.96896" lon="4.78744">
        <ele>202</ele>
        <time>2017-06-16T09:35:08Z</time>
      </trkpt>
      <trkpt lat="45.96892" lon="4.78736">
        <ele>202</ele>
        <time>2017-06-16T09:35:09Z</time>
      </trkpt>
      <trkpt lat="45.96888" lon="4.78728">
        <ele>202</ele>
        <time>2017-06-16T09:35:10Z</time>
      </trkpt>
      <trkpt lat="45.96885" lon="4.78721">
        <ele>202</ele>
        <time>2017-06-16T09:35:11Z</time>
      </trkpt>
      <trkpt lat="45.96883" lon="4.78713">
        <ele>202</ele>
        <time>2017-06-16T09:35:12Z</time>
      </trkpt>
      <trkpt lat="45.96879" lon="4.78706">
        <ele>202</ele>
        <time>2017-06-16T09:35:13Z</time>
      </trkpt>
      <trkpt lat="45.96875" lon="4.78699">
        <ele>202</ele>
        <time>2017-06-16T09:35:14Z</time>
      </trkpt>
      <trkpt lat="45.96871" lon="4.78692">
        <ele>202</ele>
        <time>2017-06-16T09:35:15Z</time>
      </trkpt>
      <trkpt lat="45.96867" lon="4.78686">
        <ele>202</ele>
        <time>2017-06-16T09:35:16Z</time>
      </trkpt>
      <trkpt lat="45.96864" lon="4.78679">
        <ele>202</ele>
        <time>2017-06-16T09:35:17Z</time>
      </trkpt>
      <trkpt lat="45.9686" lon="4.78672">
        <ele>202</ele>
        <time>2017-06-16T09:35:18Z</time>
      </trkpt>
      <trkpt lat="45.96856" lon="4.78665">
        <ele>203</ele>
        <time>2017-06-16T09:35:19Z</time>
      </trkpt>
      <trkpt lat="45.96853" lon="4.78658">
        <ele>203</ele>
        <time>2017-06-16T09:35:20Z</time>
      </trkpt>
      <trkpt lat="45.96849" lon="4.7865">
        <ele>203</ele>
        <time>2017-06-16T09:35:21Z</time>
      </trkpt>
      <trkpt lat="45.96845" lon="4.78642">
        <ele>203</ele>
        <time>2017-06-16T09:35:22Z</time>
      </trkpt>
      <trkpt lat="45.96841" lon="4.78635">
        <ele>203</ele>
        <time>2017-06-16T09:35:23Z</time>
      </trkpt>
      <trkpt lat="45.96838" lon="4.78627">
        <ele>203</ele>
        <time>2017-06-16T09:35:24Z</time>
      </trkpt>
      <trkpt lat="45.96835" lon="4.78619">
        <ele>203</ele>
        <time>2017-06-16T09:35:25Z</time>
      </trkpt>
      <trkpt lat="45.96831" lon="4.78611">
        <ele>202</ele>
        <time>2017-06-16T09:35:26Z</time>
      </trkpt>
      <trkpt lat="45.96828" lon="4.78603">
        <ele>202</ele>
        <time>2017-06-16T09:35:27Z</time>
      </trkpt>
      <trkpt lat="45.96825" lon="4.78595">
        <ele>202</ele>
        <time>2017-06-16T09:35:28Z</time>
      </trkpt>
      <trkpt lat="45.96821" lon="4.78587">
        <ele>202</ele>
        <time>2017-06-16T09:35:29Z</time>
      </trkpt>
      <trkpt lat="45.96817" lon="4.7858">
        <ele>203</ele>
        <time>2017-06-16T09:35:30Z</time>
      </trkpt>
      <trkpt lat="45.96814" lon="4.78574">
        <ele>203</ele>
        <time>2017-06-16T09:35:31Z</time>
      </trkpt>
      <trkpt lat="45.96809" lon="4.78567">
        <ele>203</ele>
        <time>2017-06-16T09:35:32Z</time>
      </trkpt>
      <trkpt lat="45.96804" lon="4.7856">
        <ele>203</ele>
        <time>2017-06-16T09:35:33Z</time>
      </trkpt>
      <trkpt lat="45.96799" lon="4.78553">
        <ele>203</ele>
        <time>2017-06-16T09:35:34Z</time>
      </trkpt>
      <trkpt lat="45.96794" lon="4.78545">
        <ele>203</ele>
        <time>2017-06-16T09:35:35Z</time>
      </trkpt>
      <trkpt lat="45.96789" lon="4.78537">
        <ele>203</ele>
        <time>2017-06-16T09:35:36Z</time>
      </trkpt>
      <trkpt lat="45.96784" lon="4.78529">
        <ele>203</ele>
        <time>2017-06-16T09:35:37Z</time>
      </trkpt>
      <trkpt lat="45.96779" lon="4.78521">
        <ele>203</ele>
        <time>2017-06-16T09:35:38Z</time>
      </trkpt>
      <trkpt lat="45.96774" lon="4.78513">
        <ele>203</ele>
        <time>2017-06-16T09:35:39Z</time>
      </trkpt>
      <trkpt lat="45.9677" lon="4.78505">
        <ele>203</ele>
        <time>2017-06-16T09:35:40Z</time>
      </trkpt>
      <trkpt lat="45.96766" lon="4.78498">
        <ele>205</ele>
        <time>2017-06-16T09:35:41Z</time>
      </trkpt>
      <trkpt lat="45.96761" lon="4.78493">
        <ele>204</ele>
        <time>2017-06-16T09:35:42Z</time>
      </trkpt>
      <trkpt lat="45.96757" lon="4.78487">
        <ele>204</ele>
        <time>2017-06-16T09:35:43Z</time>
      </trkpt>
      <trkpt lat="45.96753" lon="4.78481">
        <ele>205</ele>
        <time>2017-06-16T09:35:44Z</time>
      </trkpt>
      <trkpt lat="45.96747" lon="4.78475">
        <ele>203</ele>
        <time>2017-06-16T09:35:45Z</time>
      </trkpt>
      <trkpt lat="45.96742" lon="4.7847">
        <ele>203</ele>
        <time>2017-06-16T09:35:46Z</time>
      </trkpt>
      <trkpt lat="45.96736" lon="4.78465">
        <ele>203</ele>
        <time>2017-06-16T09:35:47Z</time>
      </trkpt>
      <trkpt lat="45.9673" lon="4.7846">
        <ele>203</ele>
        <time>2017-06-16T09:35:48Z</time>
      </trkpt>
      <trkpt lat="45.96725" lon="4.78455">
        <ele>203</ele>
        <time>2017-06-16T09:35:49Z</time>
      </trkpt>
      <trkpt lat="45.9672" lon="4.7845">
        <ele>203</ele>
        <time>2017-06-16T09:35:50Z</time>
      </trkpt>
      <trkpt lat="45.96715" lon="4.78446">
        <ele>203</ele>
        <time>2017-06-16T09:35:51Z</time>
      </trkpt>
      <trkpt lat="45.96711" lon="4.78441">
        <ele>203</ele>
        <time>2017-06-16T09:35:52Z</time>
      </trkpt>
      <trkpt lat="45.96706" lon="4.78436">
        <ele>203</ele>
        <time>2017-06-16T09:35:53Z</time>
      </trkpt>
      <trkpt lat="45.96701" lon="4.78431">
        <ele>203</ele>
        <time>2017-06-16T09:35:54Z</time>
      </trkpt>
      <trkpt lat="45.96697" lon="4.78425">
        <ele>203</ele>
        <time>2017-06-16T09:35:55Z</time>
      </trkpt>
      <trkpt lat="45.96692" lon="4.7842">
        <ele>202</ele>
        <time>2017-06-16T09:35:56Z</time>
      </trkpt>
      <trkpt lat="45.96687" lon="4.78416">
        <ele>204</ele>
        <time>2017-06-16T09:35:57Z</time>
      </trkpt>
      <trkpt lat="45.96682" lon="4.78411">
        <ele>204</ele>
        <time>2017-06-16T09:35:58Z</time>
      </trkpt>
      <trkpt lat="45.96676" lon="4.78406">
        <ele>204</ele>
        <time>2017-06-16T09:35:59Z</time>
      </trkpt>
      <trkpt lat="45.96671" lon="4.78401">
        <ele>204</ele>
        <time>2017-06-16T09:36:00Z</time>
      </trkpt>
      <trkpt lat="45.96666" lon="4.78395">
        <ele>201</ele>
        <time>2017-06-16T09:36:01Z</time>
      </trkpt>
      <trkpt lat="45.9666" lon="4.7839">
        <ele>201</ele>
        <time>2017-06-16T09:36:02Z</time>
      </trkpt>
      <trkpt lat="45.96654" lon="4.78384">
        <ele>201</ele>
        <time>2017-06-16T09:36:03Z</time>
      </trkpt>
      <trkpt lat="45.96649" lon="4.78378">
        <ele>201</ele>
        <time>2017-06-16T09:36:04Z</time>
      </trkpt>
      <trkpt lat="45.96643" lon="4.78373">
        <ele>201</ele>
        <time>2017-06-16T09:36:05Z</time>
      </trkpt>
      <trkpt lat="45.96637" lon="4.78368">
        <ele>201</ele>
        <time>2017-06-16T09:36:06Z</time>
      </trkpt>
      <trkpt lat="45.96631" lon="4.78363">
        <ele>201</ele>
        <time>2017-06-16T09:36:07Z</time>
      </trkpt>
      <trkpt lat="45.96625" lon="4.78358">
        <ele>201</ele>
        <time>2017-06-16T09:36:08Z</time>
      </trkpt>
      <trkpt lat="45.9662" lon="4.78353">
        <ele>201</ele>
        <time>2017-06-16T09:36:09Z</time>
      </trkpt>
      <trkpt lat="45.96614" lon="4.78348">
        <ele>200</ele>
        <time>2017-06-16T09:36:10Z</time>
      </trkpt>
      <trkpt lat="45.96607" lon="4.78342">
        <ele>200</ele>
        <time>2017-06-16T09:36:11Z</time>
      </trkpt>
      <trkpt lat="45.96601" lon="4.78337">
        <ele>200</ele>
        <time>2017-06-16T09:36:12Z</time>
      </trkpt>
      <trkpt lat="45.96596" lon="4.78331">
        <ele>201</ele>
        <time>2017-06-16T09:36:13Z</time>
      </trkpt>
      <trkpt lat="45.9659" lon="4.78325">
        <ele>201</ele>
        <time>2017-06-16T09:36:14Z</time>
      </trkpt>
      <trkpt lat="45.96584" lon="4.7832">
        <ele>202</ele>
        <time>2017-06-16T09:36:15Z</time>
      </trkpt>
      <trkpt lat="45.96579" lon="4.78315">
        <ele>199</ele>
        <time>2017-06-16T09:36:16Z</time>
      </trkpt>
      <trkpt lat="45.96573" lon="4.78309">
        <ele>200</ele>
        <time>2017-06-16T09:36:17Z</time>
      </trkpt>
      <trkpt lat="45.96568" lon="4.78303">
        <ele>200</ele>
        <time>2017-06-16T09:36:18Z</time>
      </trkpt>
      <trkpt lat="45.96563" lon="4.78298">
        <ele>200</ele>
        <time>2017-06-16T09:36:19Z</time>
      </trkpt>
      <trkpt lat="45.96558" lon="4.78292">
        <ele>200</ele>
        <time>2017-06-16T09:36:20Z</time>
      </trkpt>
      <trkpt lat="45.96553" lon="4.78286">
        <ele>200</ele>
        <time>2017-06-16T09:36:21Z</time>
      </trkpt>
      <trkpt lat="45.96548" lon="4.7828">
        <ele>200</ele>
        <time>2017-06-16T09:36:22Z</time>
      </trkpt>
      <trkpt lat="45.96544" lon="4.78273">
        <ele>200</ele>
        <time>2017-06-16T09:36:23Z</time>
      </trkpt>
      <trkpt lat="45.9654" lon="4.78267">
        <ele>200</ele>
        <time>2017-06-16T09:36:24Z</time>
      </trkpt>
      <trkpt lat="45.96536" lon="4.7826">
        <ele>200</ele>
        <time>2017-06-16T09:36:25Z</time>
      </trkpt>
      <trkpt lat="45.96532" lon="4.78253">
        <ele>200</ele>
        <time>2017-06-16T09:36:26Z</time>
      </trkpt>
      <trkpt lat="45.96528" lon="4.78247">
        <ele>204</ele>
        <time>2017-06-16T09:36:27Z</time>
      </trkpt>
      <trkpt lat="45.96525" lon="4.7824">
        <ele>204</ele>
        <time>2017-06-16T09:36:28Z</time>
      </trkpt>
      <trkpt lat="45.96521" lon="4.78234">
        <ele>204</ele>
        <time>2017-06-16T09:36:29Z</time>
      </trkpt>
      <trkpt lat="45.96518" lon="4.78228">
        <ele>204</ele>
        <time>2017-06-16T09:36:30Z</time>
      </trkpt>
      <trkpt lat="45.96514" lon="4.78222">
        <ele>204</ele>
        <time>2017-06-16T09:36:31Z</time>
      </trkpt>
      <trkpt lat="45.9651" lon="4.78216">
        <ele>205</ele>
        <time>2017-06-16T09:36:32Z</time>
      </trkpt>
      <trkpt lat="45.96505" lon="4.7821">
        <ele>205</ele>
        <time>2017-06-16T09:36:33Z</time>
      </trkpt>
      <trkpt lat="45.96501" lon="4.78204">
        <ele>205</ele>
        <time>2017-06-16T09:36:34Z</time>
      </trkpt>
      <trkpt lat="45.96496" lon="4.782">
        <ele>200</ele>
        <time>2017-06-16T09:36:35Z</time>
      </trkpt>
      <trkpt lat="45.96491" lon="4.78196">
        <ele>201</ele>
        <time>2017-06-16T09:36:36Z</time>
      </trkpt>
      <trkpt lat="45.96485" lon="4.78193">
        <ele>201</ele>
        <time>2017-06-16T09:36:37Z</time>
      </trkpt>
      <trkpt lat="45.96479" lon="4.7819">
        <ele>201</ele>
        <time>2017-06-16T09:36:38Z</time>
      </trkpt>
      <trkpt lat="45.96474" lon="4.78186">
        <ele>200</ele>
        <time>2017-06-16T09:36:39Z</time>
      </trkpt>
      <trkpt lat="45.96467" lon="4.78181">
        <ele>200</ele>
        <time>2017-06-16T09:36:40Z</time>
      </trkpt>
      <trkpt lat="45.96461" lon="4.78176">
        <ele>200</ele>
        <time>2017-06-16T09:36:41Z</time>
      </trkpt>
      <trkpt lat="45.96455" lon="4.7817">
        <ele>200</ele>
        <time>2017-06-16T09:36:42Z</time>
      </trkpt>
      <trkpt lat="45.96449" lon="4.78164">
        <ele>203</ele>
        <time>2017-06-16T09:36:43Z</time>
      </trkpt>
      <trkpt lat="45.96443" lon="4.78158">
        <ele>203</ele>
        <time>2017-06-16T09:36:44Z</time>
      </trkpt>
      <trkpt lat="45.96436" lon="4.78152">
        <ele>203</ele>
        <time>2017-06-16T09:36:45Z</time>
      </trkpt>
      <trkpt lat="45.9643" lon="4.78146">
        <ele>203</ele>
        <time>2017-06-16T09:36:46Z</time>
      </trkpt>
      <trkpt lat="45.96423" lon="4.7814">
        <ele>203</ele>
        <time>2017-06-16T09:36:47Z</time>
      </trkpt>
      <trkpt lat="45.96417" lon="4.78134">
        <ele>203</ele>
        <time>2017-06-16T09:36:48Z</time>
      </trkpt>
      <trkpt lat="45.96411" lon="4.78128">
        <ele>200</ele>
        <time>2017-06-16T09:36:49Z</time>
      </trkpt>
      <trkpt lat="45.96405" lon="4.78123">
        <ele>200</ele>
        <time>2017-06-16T09:36:50Z</time>
      </trkpt>
      <trkpt lat="45.96399" lon="4.78117">
        <ele>200</ele>
        <time>2017-06-16T09:36:51Z</time>
      </trkpt>
      <trkpt lat="45.96394" lon="4.78112">
        <ele>200</ele>
        <time>2017-06-16T09:36:52Z</time>
      </trkpt>
      <trkpt lat="45.96389" lon="4.78107">
        <ele>200</ele>
        <time>2017-06-16T09:36:53Z</time>
      </trkpt>
      <trkpt lat="45.96384" lon="4.78103">
        <ele>200</ele>
        <time>2017-06-16T09:36:54Z</time>
      </trkpt>
      <trkpt lat="45.96378" lon="4.78098">
        <ele>200</ele>
        <time>2017-06-16T09:36:55Z</time>
      </trkpt>
      <trkpt lat="45.96374" lon="4.78094">
        <ele>200</ele>
        <time>2017-06-16T09:36:56Z</time>
      </trkpt>
      <trkpt lat="45.96369" lon="4.78089">
        <ele>199</ele>
        <time>2017-06-16T09:36:57Z</time>
      </trkpt>
      <trkpt lat="45.96363" lon="4.78083">
        <ele>202</ele>
        <time>2017-06-16T09:36:58Z</time>
      </trkpt>
      <trkpt lat="45.96358" lon="4.78077">
        <ele>202</ele>
        <time>2017-06-16T09:36:59Z</time>
      </trkpt>
      <trkpt lat="45.96352" lon="4.78071">
        <ele>202</ele>
        <time>2017-06-16T09:37:00Z</time>
      </trkpt>
      <trkpt lat="45.96347" lon="4.78065">
        <ele>202</ele>
        <time>2017-06-16T09:37:01Z</time>
      </trkpt>
      <trkpt lat="45.96342" lon="4.78058">
        <ele>202</ele>
        <time>2017-06-16T09:37:02Z</time>
      </trkpt>
      <trkpt lat="45.96337" lon="4.78052">
        <ele>202</ele>
        <time>2017-06-16T09:37:03Z</time>
      </trkpt>
      <trkpt lat="45.96332" lon="4.78046">
        <ele>199</ele>
        <time>2017-06-16T09:37:04Z</time>
      </trkpt>
      <trkpt lat="45.96327" lon="4.7804">
        <ele>200</ele>
        <time>2017-06-16T09:37:05Z</time>
      </trkpt>
      <trkpt lat="45.96322" lon="4.78034">
        <ele>200</ele>
        <time>2017-06-16T09:37:06Z</time>
      </trkpt>
      <trkpt lat="45.96318" lon="4.78028">
        <ele>200</ele>
        <time>2017-06-16T09:37:07Z</time>
      </trkpt>
      <trkpt lat="45.96313" lon="4.78022">
        <ele>200</ele>
        <time>2017-06-16T09:37:08Z</time>
      </trkpt>
      <trkpt lat="45.96308" lon="4.78016">
        <ele>200</ele>
        <time>2017-06-16T09:37:09Z</time>
      </trkpt>
      <trkpt lat="45.96303" lon="4.78011">
        <ele>200</ele>
        <time>2017-06-16T09:37:10Z</time>
      </trkpt>
      <trkpt lat="45.96298" lon="4.78006">
        <ele>200</ele>
        <time>2017-06-16T09:37:11Z</time>
      </trkpt>
      <trkpt lat="45.96293" lon="4.78001">
        <ele>199</ele>
        <time>2017-06-16T09:37:12Z</time>
      </trkpt>
      <trkpt lat="45.96288" lon="4.77996">
        <ele>204</ele>
        <time>2017-06-16T09:37:13Z</time>
      </trkpt>
      <trkpt lat="45.96283" lon="4.77992">
        <ele>204</ele>
        <time>2017-06-16T09:37:14Z</time>
      </trkpt>
      <trkpt lat="45.96278" lon="4.77987">
        <ele>203</ele>
        <time>2017-06-16T09:37:15Z</time>
      </trkpt>
      <trkpt lat="45.96274" lon="4.77983">
        <ele>203</ele>
        <time>2017-06-16T09:37:16Z</time>
      </trkpt>
      <trkpt lat="45.9627" lon="4.77978">
        <ele>203</ele>
        <time>2017-06-16T09:37:17Z</time>
      </trkpt>
      <trkpt lat="45.96265" lon="4.77974">
        <ele>203</ele>
        <time>2017-06-16T09:37:18Z</time>
      </trkpt>
      <trkpt lat="45.96259" lon="4.77968">
        <ele>204</ele>
        <time>2017-06-16T09:37:19Z</time>
      </trkpt>
      <trkpt lat="45.96254" lon="4.77963">
        <ele>204</ele>
        <time>2017-06-16T09:37:20Z</time>
      </trkpt>
      <trkpt lat="45.9625" lon="4.77957">
        <ele>199</ele>
        <time>2017-06-16T09:37:21Z</time>
      </trkpt>
      <trkpt lat="45.96246" lon="4.77952">
        <ele>200</ele>
        <time>2017-06-16T09:37:22Z</time>
      </trkpt>
      <trkpt lat="45.96241" lon="4.77945">
        <ele>201</ele>
        <time>2017-06-16T09:37:23Z</time>
      </trkpt>
      <trkpt lat="45.96235" lon="4.77939">
        <ele>201</ele>
        <time>2017-06-16T09:37:24Z</time>
      </trkpt>
      <trkpt lat="45.96231" lon="4.77933">
        <ele>201</ele>
        <time>2017-06-16T09:37:25Z</time>
      </trkpt>
      <trkpt lat="45.96226" lon="4.77927">
        <ele>201</ele>
        <time>2017-06-16T09:37:26Z</time>
      </trkpt>
      <trkpt lat="45.96221" lon="4.7792">
        <ele>201</ele>
        <time>2017-06-16T09:37:27Z</time>
      </trkpt>
      <trkpt lat="45.96217" lon="4.77913">
        <ele>203</ele>
        <time>2017-06-16T09:37:28Z</time>
      </trkpt>
      <trkpt lat="45.96213" lon="4.77906">
        <ele>203</ele>
        <time>2017-06-16T09:37:29Z</time>
      </trkpt>
      <trkpt lat="45.96208" lon="4.77899">
        <ele>202</ele>
        <time>2017-06-16T09:37:30Z</time>
      </trkpt>
      <trkpt lat="45.96203" lon="4.77892">
        <ele>202</ele>
        <time>2017-06-16T09:37:31Z</time>
      </trkpt>
      <trkpt lat="45.96198" lon="4.77886">
        <ele>202</ele>
        <time>2017-06-16T09:37:32Z</time>
      </trkpt>
      <trkpt lat="45.96193" lon="4.77879">
        <ele>202</ele>
        <time>2017-06-16T09:37:33Z</time>
      </trkpt>
      <trkpt lat="45.96189" lon="4.77873">
        <ele>202</ele>
        <time>2017-06-16T09:37:34Z</time>
      </trkpt>
      <trkpt lat="45.96184" lon="4.77866">
        <ele>202</ele>
        <time>2017-06-16T09:37:35Z</time>
      </trkpt>
      <trkpt lat="45.9618" lon="4.77859">
        <ele>201</ele>
        <time>2017-06-16T09:37:36Z</time>
      </trkpt>
      <trkpt lat="45.96176" lon="4.77852">
        <ele>201</ele>
        <time>2017-06-16T09:37:37Z</time>
      </trkpt>
      <trkpt lat="45.96171" lon="4.77845">
        <ele>200</ele>
        <time>2017-06-16T09:37:38Z</time>
      </trkpt>
      <trkpt lat="45.96167" lon="4.77838">
        <ele>200</ele>
        <time>2017-06-16T09:37:39Z</time>
      </trkpt>
      <trkpt lat="45.96162" lon="4.77833">
        <ele>199</ele>
        <time>2017-06-16T09:37:40Z</time>
      </trkpt>
      <trkpt lat="45.96158" lon="4.77827">
        <ele>198</ele>
        <time>2017-06-16T09:37:41Z</time>
      </trkpt>
      <trkpt lat="45.96153" lon="4.77821">
        <ele>198</ele>
        <time>2017-06-16T09:37:42Z</time>
      </trkpt>
      <trkpt lat="45.96149" lon="4.77814">
        <ele>198</ele>
        <time>2017-06-16T09:37:43Z</time>
      </trkpt>
      <trkpt lat="45.96145" lon="4.77809">
        <ele>198</ele>
        <time>2017-06-16T09:37:44Z</time>
      </trkpt>
      <trkpt lat="45.96142" lon="4.77802">
        <ele>198</ele>
        <time>2017-06-16T09:37:45Z</time>
      </trkpt>
      <trkpt lat="45.96138" lon="4.77796">
        <ele>198</ele>
        <time>2017-06-16T09:37:46Z</time>
      </trkpt>
      <trkpt lat="45.96135" lon="4.77789">
        <ele>198</ele>
        <time>2017-06-16T09:37:47Z</time>
      </trkpt>
      <trkpt lat="45.96132" lon="4.77783">
        <ele>198</ele>
        <time>2017-06-16T09:37:48Z</time>
      </trkpt>
      <trkpt lat="45.96128" lon="4.77776">
        <ele>198</ele>
        <time>2017-06-16T09:37:49Z</time>
      </trkpt>
      <trkpt lat="45.96125" lon="4.7777">
        <ele>198</ele>
        <time>2017-06-16T09:37:50Z</time>
      </trkpt>
      <trkpt lat="45.96121" lon="4.77764">
        <ele>197</ele>
        <time>2017-06-16T09:37:51Z</time>
      </trkpt>
      <trkpt lat="45.96117" lon="4.77758">
        <ele>197</ele>
        <time>2017-06-16T09:37:52Z</time>
      </trkpt>
      <trkpt lat="45.96114" lon="4.77751">
        <ele>197</ele>
        <time>2017-06-16T09:37:53Z</time>
      </trkpt>
      <trkpt lat="45.9611" lon="4.77745">
        <ele>199</ele>
        <time>2017-06-16T09:37:54Z</time>
      </trkpt>
      <trkpt lat="45.96106" lon="4.77739">
        <ele>199</ele>
        <time>2017-06-16T09:37:55Z</time>
      </trkpt>
      <trkpt lat="45.96103" lon="4.77733">
        <ele>199</ele>
        <time>2017-06-16T09:37:56Z</time>
      </trkpt>
      <trkpt lat="45.96099" lon="4.77726">
        <ele>199</ele>
        <time>2017-06-16T09:37:57Z</time>
      </trkpt>
      <trkpt lat="45.96095" lon="4.77719">
        <ele>199</ele>
        <time>2017-06-16T09:37:58Z</time>
      </trkpt>
      <trkpt lat="45.96091" lon="4.77712">
        <ele>200</ele>
        <time>2017-06-16T09:37:59Z</time>
      </trkpt>
      <trkpt lat="45.96087" lon="4.77705">
        <ele>200</ele>
        <time>2017-06-16T09:38:00Z</time>
      </trkpt>
      <trkpt lat="45.96083" lon="4.77699">
        <ele>197</ele>
        <time>2017-06-16T09:38:01Z</time>
      </trkpt>
      <trkpt lat="45.96079" lon="4.77692">
        <ele>198</ele>
        <time>2017-06-16T09:38:02Z</time>
      </trkpt>
      <trkpt lat="45.96075" lon="4.77686">
        <ele>198</ele>
        <time>2017-06-16T09:38:03Z</time>
      </trkpt>
      <trkpt lat="45.9607" lon="4.7768">
        <ele>198</ele>
        <time>2017-06-16T09:38:04Z</time>
      </trkpt>
      <trkpt lat="45.96065" lon="4.77674">
        <ele>198</ele>
        <time>2017-06-16T09:38:05Z</time>
      </trkpt>
      <trkpt lat="45.9606" lon="4.77667">
        <ele>198</ele>
        <time>2017-06-16T09:38:06Z</time>
      </trkpt>
      <trkpt lat="45.96056" lon="4.77661">
        <ele>200</ele>
        <time>2017-06-16T09:38:07Z</time>
      </trkpt>
      <trkpt lat="45.96051" lon="4.77655">
        <ele>200</ele>
        <time>2017-06-16T09:38:08Z</time>
      </trkpt>
      <trkpt lat="45.96047" lon="4.77649">
        <ele>200</ele>
        <time>2017-06-16T09:38:09Z</time>
      </trkpt>
      <trkpt lat="45.96042" lon="4.77642">
        <ele>199</ele>
        <time>2017-06-16T09:38:10Z</time>
      </trkpt>
      <trkpt lat="45.96036" lon="4.77636">
        <ele>199</ele>
        <time>2017-06-16T09:38:11Z</time>
      </trkpt>
      <trkpt lat="45.96031" lon="4.7763">
        <ele>199</ele>
        <time>2017-06-16T09:38:12Z</time>
      </trkpt>
      <trkpt lat="45.96025" lon="4.77623">
        <ele>199</ele>
        <time>2017-06-16T09:38:13Z</time>
      </trkpt>
      <trkpt lat="45.9602" lon="4.77616">
        <ele>199</ele>
        <time>2017-06-16T09:38:14Z</time>
      </trkpt>
      <trkpt lat="45.96015" lon="4.7761">
        <ele>199</ele>
        <time>2017-06-16T09:38:15Z</time>
      </trkpt>
      <trkpt lat="45.96011" lon="4.77605">
        <ele>199</ele>
        <time>2017-06-16T09:38:16Z</time>
      </trkpt>
      <trkpt lat="45.96006" lon="4.776">
        <ele>198</ele>
        <time>2017-06-16T09:38:17Z</time>
      </trkpt>
      <trkpt lat="45.96002" lon="4.77596">
        <ele>198</ele>
        <time>2017-06-16T09:38:18Z</time>
      </trkpt>
      <trkpt lat="45.95998" lon="4.77591">
        <ele>196</ele>
        <time>2017-06-16T09:38:19Z</time>
      </trkpt>
      <trkpt lat="45.95996" lon="4.77586">
        <ele>196</ele>
        <time>2017-06-16T09:38:20Z</time>
      </trkpt>
      <trkpt lat="45.95993" lon="4.7758">
        <ele>196</ele>
        <time>2017-06-16T09:38:21Z</time>
      </trkpt>
      <trkpt lat="45.9599" lon="4.77573">
        <ele>196</ele>
        <time>2017-06-16T09:38:22Z</time>
      </trkpt>
      <trkpt lat="45.95988" lon="4.77566">
        <ele>196</ele>
        <time>2017-06-16T09:38:23Z</time>
      </trkpt>
      <trkpt lat="45.95986" lon="4.7756">
        <ele>196</ele>
        <time>2017-06-16T09:38:24Z</time>
      </trkpt>
      <trkpt lat="45.95983" lon="4.77554">
        <ele>196</ele>
        <time>2017-06-16T09:38:25Z</time>
      </trkpt>
      <trkpt lat="45.95981" lon="4.77548">
        <ele>196</ele>
        <time>2017-06-16T09:38:26Z</time>
      </trkpt>
      <trkpt lat="45.95977" lon="4.77538">
        <ele>196</ele>
        <time>2017-06-16T09:38:28Z</time>
      </trkpt>
      <trkpt lat="45.95974" lon="4.77532">
        <ele>196</ele>
        <time>2017-06-16T09:38:29Z</time>
      </trkpt>
      <trkpt lat="45.95971" lon="4.77526">
        <ele>196</ele>
        <time>2017-06-16T09:38:30Z</time>
      </trkpt>
      <trkpt lat="45.95968" lon="4.77519">
        <ele>196</ele>
        <time>2017-06-16T09:38:31Z</time>
      </trkpt>
      <trkpt lat="45.95966" lon="4.77513">
        <ele>195</ele>
        <time>2017-06-16T09:38:32Z</time>
      </trkpt>
      <trkpt lat="45.95963" lon="4.77506">
        <ele>195</ele>
        <time>2017-06-16T09:38:33Z</time>
      </trkpt>
      <trkpt lat="45.9596" lon="4.77498">
        <ele>196</ele>
        <time>2017-06-16T09:38:34Z</time>
      </trkpt>
      <trkpt lat="45.95957" lon="4.7749">
        <ele>196</ele>
        <time>2017-06-16T09:38:35Z</time>
      </trkpt>
      <trkpt lat="45.95954" lon="4.77482">
        <ele>196</ele>
        <time>2017-06-16T09:38:36Z</time>
      </trkpt>
      <trkpt lat="45.95951" lon="4.77474">
        <ele>196</ele>
        <time>2017-06-16T09:38:37Z</time>
      </trkpt>
      <trkpt lat="45.95948" lon="4.77466">
        <ele>196</ele>
        <time>2017-06-16T09:38:38Z</time>
      </trkpt>
      <trkpt lat="45.95945" lon="4.77457">
        <ele>196</ele>
        <time>2017-06-16T09:38:39Z</time>
      </trkpt>
      <trkpt lat="45.95943" lon="4.77448">
        <ele>196</ele>
        <time>2017-06-16T09:38:40Z</time>
      </trkpt>
      <trkpt lat="45.9594" lon="4.77439">
        <ele>196</ele>
        <time>2017-06-16T09:38:41Z</time>
      </trkpt>
      <trkpt lat="45.95936" lon="4.77429">
        <ele>195</ele>
        <time>2017-06-16T09:38:42Z</time>
      </trkpt>
      <trkpt lat="45.95932" lon="4.77421">
        <ele>195</ele>
        <time>2017-06-16T09:38:43Z</time>
      </trkpt>
      <trkpt lat="45.95929" lon="4.77412">
        <ele>195</ele>
        <time>2017-06-16T09:38:44Z</time>
      </trkpt>
      <trkpt lat="45.95926" lon="4.77403">
        <ele>196</ele>
        <time>2017-06-16T09:38:45Z</time>
      </trkpt>
      <trkpt lat="45.95923" lon="4.77394">
        <ele>196</ele>
        <time>2017-06-16T09:38:46Z</time>
      </trkpt>
      <trkpt lat="45.95918" lon="4.77385">
        <ele>196</ele>
        <time>2017-06-16T09:38:47Z</time>
      </trkpt>
      <trkpt lat="45.95914" lon="4.77376">
        <ele>193</ele>
        <time>2017-06-16T09:38:48Z</time>
      </trkpt>
      <trkpt lat="45.95911" lon="4.77367">
        <ele>193</ele>
        <time>2017-06-16T09:38:49Z</time>
      </trkpt>
      <trkpt lat="45.95908" lon="4.77358">
        <ele>193</ele>
        <time>2017-06-16T09:38:50Z</time>
      </trkpt>
      <trkpt lat="45.95905" lon="4.77349">
        <ele>193</ele>
        <time>2017-06-16T09:38:51Z</time>
      </trkpt>
      <trkpt lat="45.95902" lon="4.77339">
        <ele>193</ele>
        <time>2017-06-16T09:38:52Z</time>
      </trkpt>
      <trkpt lat="45.95899" lon="4.7733">
        <ele>194</ele>
        <time>2017-06-16T09:38:53Z</time>
      </trkpt>
      <trkpt lat="45.95896" lon="4.77321">
        <ele>193</ele>
        <time>2017-06-16T09:38:54Z</time>
      </trkpt>
      <trkpt lat="45.95894" lon="4.77312">
        <ele>193</ele>
        <time>2017-06-16T09:38:55Z</time>
      </trkpt>
      <trkpt lat="45.95892" lon="4.77302">
        <ele>193</ele>
        <time>2017-06-16T09:38:56Z</time>
      </trkpt>
      <trkpt lat="45.9589" lon="4.77294">
        <ele>193</ele>
        <time>2017-06-16T09:38:57Z</time>
      </trkpt>
      <trkpt lat="45.95888" lon="4.77284">
        <ele>193</ele>
        <time>2017-06-16T09:38:58Z</time>
      </trkpt>
      <trkpt lat="45.95886" lon="4.77275">
        <ele>193</ele>
        <time>2017-06-16T09:38:59Z</time>
      </trkpt>
      <trkpt lat="45.95884" lon="4.77266">
        <ele>193</ele>
        <time>2017-06-16T09:39:00Z</time>
      </trkpt>
      <trkpt lat="45.95883" lon="4.77257">
        <ele>193</ele>
        <time>2017-06-16T09:39:01Z</time>
      </trkpt>
      <trkpt lat="45.95881" lon="4.77249">
        <ele>193</ele>
        <time>2017-06-16T09:39:02Z</time>
      </trkpt>
      <trkpt lat="45.9588" lon="4.77241">
        <ele>193</ele>
        <time>2017-06-16T09:39:03Z</time>
      </trkpt>
      <trkpt lat="45.95878" lon="4.77233">
        <ele>193</ele>
        <time>2017-06-16T09:39:04Z</time>
      </trkpt>
      <trkpt lat="45.95877" lon="4.77224">
        <ele>193</ele>
        <time>2017-06-16T09:39:05Z</time>
      </trkpt>
      <trkpt lat="45.95875" lon="4.77216">
        <ele>193</ele>
        <time>2017-06-16T09:39:06Z</time>
      </trkpt>
      <trkpt lat="45.95874" lon="4.77208">
        <ele>193</ele>
        <time>2017-06-16T09:39:07Z</time>
      </trkpt>
      <trkpt lat="45.95872" lon="4.772">
        <ele>193</ele>
        <time>2017-06-16T09:39:08Z</time>
      </trkpt>
      <trkpt lat="45.9587" lon="4.77192">
        <ele>193</ele>
        <time>2017-06-16T09:39:09Z</time>
      </trkpt>
      <trkpt lat="45.95868" lon="4.77184">
        <ele>193</ele>
        <time>2017-06-16T09:39:10Z</time>
      </trkpt>
      <trkpt lat="45.95866" lon="4.77177">
        <ele>193</ele>
        <time>2017-06-16T09:39:11Z</time>
      </trkpt>
      <trkpt lat="45.95865" lon="4.77169">
        <ele>192</ele>
        <time>2017-06-16T09:39:12Z</time>
      </trkpt>
      <trkpt lat="45.95863" lon="4.77161">
        <ele>193</ele>
        <time>2017-06-16T09:39:13Z</time>
      </trkpt>
      <trkpt lat="45.95861" lon="4.77153">
        <ele>193</ele>
        <time>2017-06-16T09:39:14Z</time>
      </trkpt>
      <trkpt lat="45.95859" lon="4.77146">
        <ele>193</ele>
        <time>2017-06-16T09:39:15Z</time>
      </trkpt>
      <trkpt lat="45.95857" lon="4.77139">
        <ele>193</ele>
        <time>2017-06-16T09:39:16Z</time>
      </trkpt>
      <trkpt lat="45.95856" lon="4.77132">
        <ele>193</ele>
        <time>2017-06-16T09:39:17Z</time>
      </trkpt>
      <trkpt lat="45.95854" lon="4.77124">
        <ele>193</ele>
        <time>2017-06-16T09:39:18Z</time>
      </trkpt>
      <trkpt lat="45.95852" lon="4.77117">
        <ele>193</ele>
        <time>2017-06-16T09:39:19Z</time>
      </trkpt>
      <trkpt lat="45.9585" lon="4.7711">
        <ele>193</ele>
        <time>2017-06-16T09:39:20Z</time>
      </trkpt>
      <trkpt lat="45.95848" lon="4.77104">
        <ele>193</ele>
        <time>2017-06-16T09:39:21Z</time>
      </trkpt>
      <trkpt lat="45.95846" lon="4.77096">
        <ele>193</ele>
        <time>2017-06-16T09:39:22Z</time>
      </trkpt>
      <trkpt lat="45.95843" lon="4.77089">
        <ele>193</ele>
        <time>2017-06-16T09:39:23Z</time>
      </trkpt>
      <trkpt lat="45.9584" lon="4.77082">
        <ele>192</ele>
        <time>2017-06-16T09:39:24Z</time>
      </trkpt>
      <trkpt lat="45.95837" lon="4.77075">
        <ele>192</ele>
        <time>2017-06-16T09:39:25Z</time>
      </trkpt>
      <trkpt lat="45.95833" lon="4.77068">
        <ele>191</ele>
        <time>2017-06-16T09:39:26Z</time>
      </trkpt>
      <trkpt lat="45.9583" lon="4.77061">
        <ele>191</ele>
        <time>2017-06-16T09:39:27Z</time>
      </trkpt>
      <trkpt lat="45.95827" lon="4.77055">
        <ele>190</ele>
        <time>2017-06-16T09:39:28Z</time>
      </trkpt>
      <trkpt lat="45.95823" lon="4.77048">
        <ele>190</ele>
        <time>2017-06-16T09:39:29Z</time>
      </trkpt>
      <trkpt lat="45.95821" lon="4.77041">
        <ele>190</ele>
        <time>2017-06-16T09:39:30Z</time>
      </trkpt>
      <trkpt lat="45.95818" lon="4.77035">
        <ele>190</ele>
        <time>2017-06-16T09:39:31Z</time>
      </trkpt>
      <trkpt lat="45.95815" lon="4.77028">
        <ele>190</ele>
        <time>2017-06-16T09:39:32Z</time>
      </trkpt>
      <trkpt lat="45.95812" lon="4.7702">
        <ele>190</ele>
        <time>2017-06-16T09:39:33Z</time>
      </trkpt>
      <trkpt lat="45.95809" lon="4.77012">
        <ele>190</ele>
        <time>2017-06-16T09:39:34Z</time>
      </trkpt>
      <trkpt lat="45.95807" lon="4.77003">
        <ele>190</ele>
        <time>2017-06-16T09:39:35Z</time>
      </trkpt>
      <trkpt lat="45.95806" lon="4.76994">
        <ele>190</ele>
        <time>2017-06-16T09:39:36Z</time>
      </trkpt>
      <trkpt lat="45.95805" lon="4.76985">
        <ele>189</ele>
        <time>2017-06-16T09:39:37Z</time>
      </trkpt>
      <trkpt lat="45.95805" lon="4.76976">
        <ele>189</ele>
        <time>2017-06-16T09:39:38Z</time>
      </trkpt>
      <trkpt lat="45.95806" lon="4.76967">
        <ele>189</ele>
        <time>2017-06-16T09:39:39Z</time>
      </trkpt>
      <trkpt lat="45.95807" lon="4.76958">
        <ele>189</ele>
        <time>2017-06-16T09:39:40Z</time>
      </trkpt>
      <trkpt lat="45.95809" lon="4.7695">
        <ele>189</ele>
        <time>2017-06-16T09:39:41Z</time>
      </trkpt>
      <trkpt lat="45.9581" lon="4.76942">
        <ele>189</ele>
        <time>2017-06-16T09:39:42Z</time>
      </trkpt>
      <trkpt lat="45.95812" lon="4.76933">
        <ele>189</ele>
        <time>2017-06-16T09:39:43Z</time>
      </trkpt>
      <trkpt lat="45.95813" lon="4.76925">
        <ele>189</ele>
        <time>2017-06-16T09:39:44Z</time>
      </trkpt>
      <trkpt lat="45.95815" lon="4.76917">
        <ele>189</ele>
        <time>2017-06-16T09:39:45Z</time>
      </trkpt>
      <trkpt lat="45.95817" lon="4.7691">
        <ele>189</ele>
        <time>2017-06-16T09:39:46Z</time>
      </trkpt>
      <trkpt lat="45.95818" lon="4.76902">
        <ele>189</ele>
        <time>2017-06-16T09:39:47Z</time>
      </trkpt>
      <trkpt lat="45.9582" lon="4.76895">
        <ele>189</ele>
        <time>2017-06-16T09:39:48Z</time>
      </trkpt>
      <trkpt lat="45.95822" lon="4.76888">
        <ele>189</ele>
        <time>2017-06-16T09:39:49Z</time>
      </trkpt>
      <trkpt lat="45.95823" lon="4.76881">
        <ele>189</ele>
        <time>2017-06-16T09:39:50Z</time>
      </trkpt>
      <trkpt lat="45.95825" lon="4.76874">
        <ele>189</ele>
        <time>2017-06-16T09:39:51Z</time>
      </trkpt>
      <trkpt lat="45.95826" lon="4.76868">
        <ele>189</ele>
        <time>2017-06-16T09:39:52Z</time>
      </trkpt>
      <trkpt lat="45.95827" lon="4.76861">
        <ele>189</ele>
        <time>2017-06-16T09:39:53Z</time>
      </trkpt>
      <trkpt lat="45.95828" lon="4.76854">
        <ele>190</ele>
        <time>2017-06-16T09:39:54Z</time>
      </trkpt>
      <trkpt lat="45.95829" lon="4.76848">
        <ele>190</ele>
        <time>2017-06-16T09:39:55Z</time>
      </trkpt>
      <trkpt lat="45.9583" lon="4.76837">
        <ele>190</ele>
        <time>2017-06-16T09:39:57Z</time>
      </trkpt>
      <trkpt lat="45.95831" lon="4.76831">
        <ele>190</ele>
        <time>2017-06-16T09:39:58Z</time>
      </trkpt>
      <trkpt lat="45.95833" lon="4.7682">
        <ele>190</ele>
        <time>2017-06-16T09:40:00Z</time>
      </trkpt>
      <trkpt lat="45.95833" lon="4.76814">
        <ele>190</ele>
        <time>2017-06-16T09:40:01Z</time>
      </trkpt>
      <trkpt lat="45.95836" lon="4.76803">
        <ele>191</ele>
        <time>2017-06-16T09:40:03Z</time>
      </trkpt>
      <trkpt lat="45.95837" lon="4.76796">
        <ele>191</ele>
        <time>2017-06-16T09:40:04Z</time>
      </trkpt>
      <trkpt lat="45.95837" lon="4.76788">
        <ele>191</ele>
        <time>2017-06-16T09:40:05Z</time>
      </trkpt>
      <trkpt lat="45.95836" lon="4.76781">
        <ele>191</ele>
        <time>2017-06-16T09:40:06Z</time>
      </trkpt>
      <trkpt lat="45.95834" lon="4.76773">
        <ele>191</ele>
        <time>2017-06-16T09:40:07Z</time>
      </trkpt>
      <trkpt lat="45.95832" lon="4.76766">
        <ele>190</ele>
        <time>2017-06-16T09:40:08Z</time>
      </trkpt>
      <trkpt lat="45.9583" lon="4.76758">
        <ele>191</ele>
        <time>2017-06-16T09:40:09Z</time>
      </trkpt>
      <trkpt lat="45.95828" lon="4.76749">
        <ele>191</ele>
        <time>2017-06-16T09:40:10Z</time>
      </trkpt>
      <trkpt lat="45.95826" lon="4.76741">
        <ele>190</ele>
        <time>2017-06-16T09:40:11Z</time>
      </trkpt>
      <trkpt lat="45.95825" lon="4.76732">
        <ele>190</ele>
        <time>2017-06-16T09:40:12Z</time>
      </trkpt>
      <trkpt lat="45.95823" lon="4.76724">
        <ele>190</ele>
        <time>2017-06-16T09:40:13Z</time>
      </trkpt>
      <trkpt lat="45.95822" lon="4.76715">
        <ele>189</ele>
        <time>2017-06-16T09:40:14Z</time>
      </trkpt>
      <trkpt lat="45.9582" lon="4.76707">
        <ele>189</ele>
        <time>2017-06-16T09:40:15Z</time>
      </trkpt>
      <trkpt lat="45.95818" lon="4.76699">
        <ele>189</ele>
        <time>2017-06-16T09:40:16Z</time>
      </trkpt>
      <trkpt lat="45.95818" lon="4.76691">
        <ele>189</ele>
        <time>2017-06-16T09:40:17Z</time>
      </trkpt>
      <trkpt lat="45.95817" lon="4.76683">
        <ele>189</ele>
        <time>2017-06-16T09:40:18Z</time>
      </trkpt>
      <trkpt lat="45.95816" lon="4.76676">
        <ele>189</ele>
        <time>2017-06-16T09:40:19Z</time>
      </trkpt>
      <trkpt lat="45.95815" lon="4.76667">
        <ele>188</ele>
        <time>2017-06-16T09:40:20Z</time>
      </trkpt>
      <trkpt lat="45.95814" lon="4.76659">
        <ele>188</ele>
        <time>2017-06-16T09:40:21Z</time>
      </trkpt>
      <trkpt lat="45.95812" lon="4.7665">
        <ele>188</ele>
        <time>2017-06-16T09:40:22Z</time>
      </trkpt>
      <trkpt lat="45.95811" lon="4.76642">
        <ele>188</ele>
        <time>2017-06-16T09:40:23Z</time>
      </trkpt>
      <trkpt lat="45.9581" lon="4.76634">
        <ele>188</ele>
        <time>2017-06-16T09:40:24Z</time>
      </trkpt>
      <trkpt lat="45.95809" lon="4.76626">
        <ele>188</ele>
        <time>2017-06-16T09:40:25Z</time>
      </trkpt>
      <trkpt lat="45.95808" lon="4.76618">
        <ele>188</ele>
        <time>2017-06-16T09:40:26Z</time>
      </trkpt>
      <trkpt lat="45.95807" lon="4.76609">
        <ele>188</ele>
        <time>2017-06-16T09:40:27Z</time>
      </trkpt>
      <trkpt lat="45.95806" lon="4.766">
        <ele>188</ele>
        <time>2017-06-16T09:40:28Z</time>
      </trkpt>
      <trkpt lat="45.95805" lon="4.76592">
        <ele>188</ele>
        <time>2017-06-16T09:40:29Z</time>
      </trkpt>
      <trkpt lat="45.95804" lon="4.76583">
        <ele>187</ele>
        <time>2017-06-16T09:40:30Z</time>
      </trkpt>
      <trkpt lat="45.95802" lon="4.76573">
        <ele>187</ele>
        <time>2017-06-16T09:40:31Z</time>
      </trkpt>
      <trkpt lat="45.95801" lon="4.76564">
        <ele>187</ele>
        <time>2017-06-16T09:40:32Z</time>
      </trkpt>
      <trkpt lat="45.958" lon="4.76555">
        <ele>187</ele>
        <time>2017-06-16T09:40:33Z</time>
      </trkpt>
      <trkpt lat="45.95798" lon="4.76546">
        <ele>187</ele>
        <time>2017-06-16T09:40:34Z</time>
      </trkpt>
      <trkpt lat="45.95797" lon="4.76537">
        <ele>187</ele>
        <time>2017-06-16T09:40:35Z</time>
      </trkpt>
      <trkpt lat="45.95796" lon="4.76528">
        <ele>187</ele>
        <time>2017-06-16T09:40:36Z</time>
      </trkpt>
      <trkpt lat="45.95795" lon="4.7652">
        <ele>187</ele>
        <time>2017-06-16T09:40:37Z</time>
      </trkpt>
      <trkpt lat="45.95793" lon="4.76512">
        <ele>187</ele>
        <time>2017-06-16T09:40:38Z</time>
      </trkpt>
      <trkpt lat="45.95792" lon="4.76503">
        <ele>187</ele>
        <time>2017-06-16T09:40:39Z</time>
      </trkpt>
      <trkpt lat="45.95791" lon="4.76495">
        <ele>186</ele>
        <time>2017-06-16T09:40:40Z</time>
      </trkpt>
      <trkpt lat="45.9579" lon="4.76488">
        <ele>186</ele>
        <time>2017-06-16T09:40:41Z</time>
      </trkpt>
      <trkpt lat="45.95788" lon="4.7648">
        <ele>186</ele>
        <time>2017-06-16T09:40:42Z</time>
      </trkpt>
      <trkpt lat="45.95788" lon="4.76472">
        <ele>186</ele>
        <time>2017-06-16T09:40:43Z</time>
      </trkpt>
      <trkpt lat="45.95786" lon="4.76464">
        <ele>186</ele>
        <time>2017-06-16T09:40:44Z</time>
      </trkpt>
      <trkpt lat="45.95785" lon="4.76456">
        <ele>186</ele>
        <time>2017-06-16T09:40:45Z</time>
      </trkpt>
      <trkpt lat="45.95784" lon="4.76448">
        <ele>186</ele>
        <time>2017-06-16T09:40:46Z</time>
      </trkpt>
      <trkpt lat="45.95783" lon="4.76439">
        <ele>186</ele>
        <time>2017-06-16T09:40:47Z</time>
      </trkpt>
      <trkpt lat="45.95782" lon="4.7643">
        <ele>186</ele>
        <time>2017-06-16T09:40:48Z</time>
      </trkpt>
      <trkpt lat="45.95781" lon="4.76422">
        <ele>186</ele>
        <time>2017-06-16T09:40:49Z</time>
      </trkpt>
      <trkpt lat="45.9578" lon="4.76413">
        <ele>186</ele>
        <time>2017-06-16T09:40:50Z</time>
      </trkpt>
      <trkpt lat="45.95779" lon="4.76405">
        <ele>186</ele>
        <time>2017-06-16T09:40:51Z</time>
      </trkpt>
      <trkpt lat="45.95778" lon="4.76397">
        <ele>186</ele>
        <time>2017-06-16T09:40:52Z</time>
      </trkpt>
      <trkpt lat="45.95778" lon="4.76388">
        <ele>186</ele>
        <time>2017-06-16T09:40:53Z</time>
      </trkpt>
      <trkpt lat="45.95777" lon="4.7638">
        <ele>186</ele>
        <time>2017-06-16T09:40:54Z</time>
      </trkpt>
      <trkpt lat="45.95776" lon="4.76372">
        <ele>186</ele>
        <time>2017-06-16T09:40:55Z</time>
      </trkpt>
      <trkpt lat="45.95776" lon="4.76365">
        <ele>186</ele>
        <time>2017-06-16T09:40:56Z</time>
      </trkpt>
      <trkpt lat="45.95775" lon="4.76357">
        <ele>186</ele>
        <time>2017-06-16T09:40:57Z</time>
      </trkpt>
      <trkpt lat="45.95775" lon="4.76349">
        <ele>186</ele>
        <time>2017-06-16T09:40:58Z</time>
      </trkpt>
      <trkpt lat="45.95774" lon="4.76342">
        <ele>186</ele>
        <time>2017-06-16T09:40:59Z</time>
      </trkpt>
      <trkpt lat="45.95773" lon="4.76335">
        <ele>186</ele>
        <time>2017-06-16T09:41:00Z</time>
      </trkpt>
      <trkpt lat="45.95773" lon="4.76327">
        <ele>185</ele>
        <time>2017-06-16T09:41:01Z</time>
      </trkpt>
      <trkpt lat="45.95773" lon="4.76319">
        <ele>185</ele>
        <time>2017-06-16T09:41:02Z</time>
      </trkpt>
      <trkpt lat="45.95773" lon="4.76312">
        <ele>186</ele>
        <time>2017-06-16T09:41:03Z</time>
      </trkpt>
      <trkpt lat="45.95773" lon="4.76303">
        <ele>186</ele>
        <time>2017-06-16T09:41:04Z</time>
      </trkpt>
      <trkpt lat="45.95772" lon="4.76295">
        <ele>186</ele>
        <time>2017-06-16T09:41:05Z</time>
      </trkpt>
      <trkpt lat="45.95772" lon="4.76287">
        <ele>186</ele>
        <time>2017-06-16T09:41:06Z</time>
      </trkpt>
      <trkpt lat="45.95771" lon="4.76278">
        <ele>186</ele>
        <time>2017-06-16T09:41:07Z</time>
      </trkpt>
      <trkpt lat="45.95771" lon="4.76269">
        <ele>186</ele>
        <time>2017-06-16T09:41:08Z</time>
      </trkpt>
      <trkpt lat="45.9577" lon="4.7626">
        <ele>185</ele>
        <time>2017-06-16T09:41:09Z</time>
      </trkpt>
      <trkpt lat="45.9577" lon="4.76252">
        <ele>185</ele>
        <time>2017-06-16T09:41:10Z</time>
      </trkpt>
      <trkpt lat="45.95769" lon="4.76244">
        <ele>186</ele>
        <time>2017-06-16T09:41:11Z</time>
      </trkpt>
      <trkpt lat="45.95769" lon="4.76236">
        <ele>186</ele>
        <time>2017-06-16T09:41:12Z</time>
      </trkpt>
      <trkpt lat="45.95768" lon="4.76228">
        <ele>186</ele>
        <time>2017-06-16T09:41:13Z</time>
      </trkpt>
      <trkpt lat="45.95768" lon="4.7622">
        <ele>186</ele>
        <time>2017-06-16T09:41:14Z</time>
      </trkpt>
      <trkpt lat="45.95768" lon="4.76212">
        <ele>186</ele>
        <time>2017-06-16T09:41:15Z</time>
      </trkpt>
      <trkpt lat="45.95767" lon="4.76204">
        <ele>186</ele>
        <time>2017-06-16T09:41:16Z</time>
      </trkpt>
      <trkpt lat="45.95767" lon="4.76196">
        <ele>186</ele>
        <time>2017-06-16T09:41:17Z</time>
      </trkpt>
      <trkpt lat="45.95767" lon="4.76188">
        <ele>186</ele>
        <time>2017-06-16T09:41:18Z</time>
      </trkpt>
      <trkpt lat="45.95767" lon="4.7618">
        <ele>186</ele>
        <time>2017-06-16T09:41:19Z</time>
      </trkpt>
      <trkpt lat="45.95766" lon="4.76172">
        <ele>186</ele>
        <time>2017-06-16T09:41:20Z</time>
      </trkpt>
      <trkpt lat="45.95765" lon="4.76164">
        <ele>186</ele>
        <time>2017-06-16T09:41:21Z</time>
      </trkpt>
      <trkpt lat="45.95765" lon="4.76157">
        <ele>186</ele>
        <time>2017-06-16T09:41:22Z</time>
      </trkpt>
      <trkpt lat="45.95764" lon="4.76149">
        <ele>186</ele>
        <time>2017-06-16T09:41:23Z</time>
      </trkpt>
      <trkpt lat="45.95763" lon="4.76142">
        <ele>186</ele>
        <time>2017-06-16T09:41:24Z</time>
      </trkpt>
      <trkpt lat="45.95763" lon="4.76134">
        <ele>186</ele>
        <time>2017-06-16T09:41:25Z</time>
      </trkpt>
      <trkpt lat="45.95762" lon="4.76126">
        <ele>186</ele>
        <time>2017-06-16T09:41:26Z</time>
      </trkpt>
      <trkpt lat="45.95761" lon="4.76118">
        <ele>186</ele>
        <time>2017-06-16T09:41:27Z</time>
      </trkpt>
      <trkpt lat="45.9576" lon="4.76111">
        <ele>186</ele>
        <time>2017-06-16T09:41:28Z</time>
      </trkpt>
      <trkpt lat="45.95758" lon="4.76103">
        <ele>186</ele>
        <time>2017-06-16T09:41:29Z</time>
      </trkpt>
      <trkpt lat="45.95756" lon="4.76095">
        <ele>186</ele>
        <time>2017-06-16T09:41:30Z</time>
      </trkpt>
      <trkpt lat="45.95754" lon="4.76087">
        <ele>185</ele>
        <time>2017-06-16T09:41:31Z</time>
      </trkpt>
      <trkpt lat="45.95751" lon="4.76079">
        <ele>185</ele>
        <time>2017-06-16T09:41:32Z</time>
      </trkpt>
      <trkpt lat="45.95749" lon="4.76071">
        <ele>185</ele>
        <time>2017-06-16T09:41:33Z</time>
      </trkpt>
      <trkpt lat="45.95745" lon="4.76063">
        <ele>185</ele>
        <time>2017-06-16T09:41:34Z</time>
      </trkpt>
      <trkpt lat="45.95742" lon="4.76055">
        <ele>184</ele>
        <time>2017-06-16T09:41:35Z</time>
      </trkpt>
      <trkpt lat="45.95738" lon="4.76047">
        <ele>184</ele>
        <time>2017-06-16T09:41:36Z</time>
      </trkpt>
      <trkpt lat="45.95734" lon="4.76039">
        <ele>184</ele>
        <time>2017-06-16T09:41:37Z</time>
      </trkpt>
      <trkpt lat="45.95731" lon="4.76032">
        <ele>184</ele>
        <time>2017-06-16T09:41:38Z</time>
      </trkpt>
      <trkpt lat="45.95727" lon="4.76024">
        <ele>185</ele>
        <time>2017-06-16T09:41:39Z</time>
      </trkpt>
      <trkpt lat="45.95724" lon="4.76017">
        <ele>185</ele>
        <time>2017-06-16T09:41:40Z</time>
      </trkpt>
      <trkpt lat="45.9572" lon="4.7601">
        <ele>184</ele>
        <time>2017-06-16T09:41:41Z</time>
      </trkpt>
      <trkpt lat="45.95717" lon="4.76003">
        <ele>184</ele>
        <time>2017-06-16T09:41:42Z</time>
      </trkpt>
      <trkpt lat="45.95713" lon="4.75995">
        <ele>185</ele>
        <time>2017-06-16T09:41:43Z</time>
      </trkpt>
      <trkpt lat="45.95711" lon="4.75988">
        <ele>185</ele>
        <time>2017-06-16T09:41:44Z</time>
      </trkpt>
      <trkpt lat="45.95707" lon="4.75981">
        <ele>185</ele>
        <time>2017-06-16T09:41:45Z</time>
      </trkpt>
      <trkpt lat="45.95704" lon="4.75974">
        <ele>185</ele>
        <time>2017-06-16T09:41:46Z</time>
      </trkpt>
      <trkpt lat="45.957" lon="4.75967">
        <ele>185</ele>
        <time>2017-06-16T09:41:47Z</time>
      </trkpt>
      <trkpt lat="45.95697" lon="4.75961">
        <ele>185</ele>
        <time>2017-06-16T09:41:48Z</time>
      </trkpt>
      <trkpt lat="45.95694" lon="4.75954">
        <ele>185</ele>
        <time>2017-06-16T09:41:49Z</time>
      </trkpt>
      <trkpt lat="45.9569" lon="4.75946">
        <ele>185</ele>
        <time>2017-06-16T09:41:50Z</time>
      </trkpt>
      <trkpt lat="45.95687" lon="4.75939">
        <ele>185</ele>
        <time>2017-06-16T09:41:51Z</time>
      </trkpt>
      <trkpt lat="45.95684" lon="4.75931">
        <ele>185</ele>
        <time>2017-06-16T09:41:52Z</time>
      </trkpt>
      <trkpt lat="45.9568" lon="4.75924">
        <ele>185</ele>
        <time>2017-06-16T09:41:53Z</time>
      </trkpt>
      <trkpt lat="45.95677" lon="4.75916">
        <ele>185</ele>
        <time>2017-06-16T09:41:54Z</time>
      </trkpt>
      <trkpt lat="45.95675" lon="4.75909">
        <ele>185</ele>
        <time>2017-06-16T09:41:55Z</time>
      </trkpt>
      <trkpt lat="45.95672" lon="4.75902">
        <ele>185</ele>
        <time>2017-06-16T09:41:56Z</time>
      </trkpt>
      <trkpt lat="45.95669" lon="4.75894">
        <ele>186</ele>
        <time>2017-06-16T09:41:57Z</time>
      </trkpt>
      <trkpt lat="45.95666" lon="4.75887">
        <ele>184</ele>
        <time>2017-06-16T09:41:58Z</time>
      </trkpt>
      <trkpt lat="45.95663" lon="4.75879">
        <ele>184</ele>
        <time>2017-06-16T09:41:59Z</time>
      </trkpt>
      <trkpt lat="45.9566" lon="4.75871">
        <ele>184</ele>
        <time>2017-06-16T09:42:00Z</time>
      </trkpt>
      <trkpt lat="45.95657" lon="4.75864">
        <ele>184</ele>
        <time>2017-06-16T09:42:01Z</time>
      </trkpt>
      <trkpt lat="45.95655" lon="4.75855">
        <ele>184</ele>
        <time>2017-06-16T09:42:02Z</time>
      </trkpt>
      <trkpt lat="45.95652" lon="4.75847">
        <ele>185</ele>
        <time>2017-06-16T09:42:03Z</time>
      </trkpt>
      <trkpt lat="45.9565" lon="4.75838">
        <ele>185</ele>
        <time>2017-06-16T09:42:04Z</time>
      </trkpt>
      <trkpt lat="45.95648" lon="4.7583">
        <ele>185</ele>
        <time>2017-06-16T09:42:05Z</time>
      </trkpt>
      <trkpt lat="45.95646" lon="4.75821">
        <ele>185</ele>
        <time>2017-06-16T09:42:06Z</time>
      </trkpt>
      <trkpt lat="45.95645" lon="4.75812">
        <ele>185</ele>
        <time>2017-06-16T09:42:07Z</time>
      </trkpt>
      <trkpt lat="45.95643" lon="4.75803">
        <ele>185</ele>
        <time>2017-06-16T09:42:08Z</time>
      </trkpt>
      <trkpt lat="45.95642" lon="4.75794">
        <ele>185</ele>
        <time>2017-06-16T09:42:09Z</time>
      </trkpt>
      <trkpt lat="45.95641" lon="4.75785">
        <ele>185</ele>
        <time>2017-06-16T09:42:10Z</time>
      </trkpt>
      <trkpt lat="45.95639" lon="4.75777">
        <ele>186</ele>
        <time>2017-06-16T09:42:11Z</time>
      </trkpt>
      <trkpt lat="45.95638" lon="4.75769">
        <ele>186</ele>
        <time>2017-06-16T09:42:12Z</time>
      </trkpt>
      <trkpt lat="45.95638" lon="4.75762">
        <ele>186</ele>
        <time>2017-06-16T09:42:13Z</time>
      </trkpt>
      <trkpt lat="45.95637" lon="4.75754">
        <ele>186</ele>
        <time>2017-06-16T09:42:14Z</time>
      </trkpt>
      <trkpt lat="45.95636" lon="4.75746">
        <ele>187</ele>
        <time>2017-06-16T09:42:15Z</time>
      </trkpt>
      <trkpt lat="45.95635" lon="4.75738">
        <ele>187</ele>
        <time>2017-06-16T09:42:16Z</time>
      </trkpt>
      <trkpt lat="45.95635" lon="4.7573">
        <ele>187</ele>
        <time>2017-06-16T09:42:17Z</time>
      </trkpt>
      <trkpt lat="45.95634" lon="4.75722">
        <ele>187</ele>
        <time>2017-06-16T09:42:18Z</time>
      </trkpt>
      <trkpt lat="45.95632" lon="4.75713">
        <ele>187</ele>
        <time>2017-06-16T09:42:19Z</time>
      </trkpt>
      <trkpt lat="45.95631" lon="4.75705">
        <ele>187</ele>
        <time>2017-06-16T09:42:20Z</time>
      </trkpt>
      <trkpt lat="45.95629" lon="4.75697">
        <ele>187</ele>
        <time>2017-06-16T09:42:21Z</time>
      </trkpt>
      <trkpt lat="45.95628" lon="4.75689">
        <ele>187</ele>
        <time>2017-06-16T09:42:22Z</time>
      </trkpt>
      <trkpt lat="45.95627" lon="4.75681">
        <ele>187</ele>
        <time>2017-06-16T09:42:23Z</time>
      </trkpt>
      <trkpt lat="45.95625" lon="4.75674">
        <ele>187</ele>
        <time>2017-06-16T09:42:24Z</time>
      </trkpt>
      <trkpt lat="45.95624" lon="4.75667">
        <ele>188</ele>
        <time>2017-06-16T09:42:25Z</time>
      </trkpt>
      <trkpt lat="45.95623" lon="4.7566">
        <ele>188</ele>
        <time>2017-06-16T09:42:26Z</time>
      </trkpt>
      <trkpt lat="45.95621" lon="4.75653">
        <ele>188</ele>
        <time>2017-06-16T09:42:27Z</time>
      </trkpt>
      <trkpt lat="45.95619" lon="4.75646">
        <ele>188</ele>
        <time>2017-06-16T09:42:28Z</time>
      </trkpt>
      <trkpt lat="45.95618" lon="4.75639">
        <ele>188</ele>
        <time>2017-06-16T09:42:29Z</time>
      </trkpt>
      <trkpt lat="45.95616" lon="4.75633">
        <ele>188</ele>
        <time>2017-06-16T09:42:30Z</time>
      </trkpt>
      <trkpt lat="45.95614" lon="4.75626">
        <ele>188</ele>
        <time>2017-06-16T09:42:31Z</time>
      </trkpt>
      <trkpt lat="45.95612" lon="4.75619">
        <ele>188</ele>
        <time>2017-06-16T09:42:32Z</time>
      </trkpt>
      <trkpt lat="45.95609" lon="4.75612">
        <ele>188</ele>
        <time>2017-06-16T09:42:33Z</time>
      </trkpt>
      <trkpt lat="45.95607" lon="4.75605">
        <ele>187</ele>
        <time>2017-06-16T09:42:34Z</time>
      </trkpt>
      <trkpt lat="45.95604" lon="4.75599">
        <ele>187</ele>
        <time>2017-06-16T09:42:35Z</time>
      </trkpt>
      <trkpt lat="45.95601" lon="4.75592">
        <ele>187</ele>
        <time>2017-06-16T09:42:36Z</time>
      </trkpt>
      <trkpt lat="45.95598" lon="4.75585">
        <ele>187</ele>
        <time>2017-06-16T09:42:37Z</time>
      </trkpt>
      <trkpt lat="45.95595" lon="4.75579">
        <ele>187</ele>
        <time>2017-06-16T09:42:38Z</time>
      </trkpt>
      <trkpt lat="45.95592" lon="4.75572">
        <ele>187</ele>
        <time>2017-06-16T09:42:39Z</time>
      </trkpt>
      <trkpt lat="45.95588" lon="4.75566">
        <ele>188</ele>
        <time>2017-06-16T09:42:40Z</time>
      </trkpt>
      <trkpt lat="45.95585" lon="4.7556">
        <ele>188</ele>
        <time>2017-06-16T09:42:41Z</time>
      </trkpt>
      <trkpt lat="45.95581" lon="4.75555">
        <ele>186</ele>
        <time>2017-06-16T09:42:42Z</time>
      </trkpt>
      <trkpt lat="45.95577" lon="4.75549">
        <ele>186</ele>
        <time>2017-06-16T09:42:43Z</time>
      </trkpt>
      <trkpt lat="45.95572" lon="4.75543">
        <ele>186</ele>
        <time>2017-06-16T09:42:44Z</time>
      </trkpt>
      <trkpt lat="45.95567" lon="4.75537">
        <ele>186</ele>
        <time>2017-06-16T09:42:45Z</time>
      </trkpt>
      <trkpt lat="45.95562" lon="4.75531">
        <ele>186</ele>
        <time>2017-06-16T09:42:46Z</time>
      </trkpt>
      <trkpt lat="45.95557" lon="4.75525">
        <ele>186</ele>
        <time>2017-06-16T09:42:47Z</time>
      </trkpt>
      <trkpt lat="45.95552" lon="4.75518">
        <ele>186</ele>
        <time>2017-06-16T09:42:48Z</time>
      </trkpt>
      <trkpt lat="45.95547" lon="4.75511">
        <ele>186</ele>
        <time>2017-06-16T09:42:49Z</time>
      </trkpt>
      <trkpt lat="45.95543" lon="4.75504">
        <ele>186</ele>
        <time>2017-06-16T09:42:50Z</time>
      </trkpt>
      <trkpt lat="45.9554" lon="4.75496">
        <ele>187</ele>
        <time>2017-06-16T09:42:51Z</time>
      </trkpt>
      <trkpt lat="45.95538" lon="4.75488">
        <ele>187</ele>
        <time>2017-06-16T09:42:52Z</time>
      </trkpt>
      <trkpt lat="45.95538" lon="4.75479">
        <ele>187</ele>
        <time>2017-06-16T09:42:53Z</time>
      </trkpt>
      <trkpt lat="45.95538" lon="4.75471">
        <ele>187</ele>
        <time>2017-06-16T09:42:54Z</time>
      </trkpt>
      <trkpt lat="45.95536" lon="4.75463">
        <ele>187</ele>
        <time>2017-06-16T09:42:55Z</time>
      </trkpt>
      <trkpt lat="45.95532" lon="4.75456">
        <ele>187</ele>
        <time>2017-06-16T09:42:56Z</time>
      </trkpt>
      <trkpt lat="45.95528" lon="4.75449">
        <ele>187</ele>
        <time>2017-06-16T09:42:57Z</time>
      </trkpt>
      <trkpt lat="45.95523" lon="4.75442">
        <ele>187</ele>
        <time>2017-06-16T09:42:58Z</time>
      </trkpt>
      <trkpt lat="45.95519" lon="4.75434">
        <ele>187</ele>
        <time>2017-06-16T09:42:59Z</time>
      </trkpt>
      <trkpt lat="45.95515" lon="4.75426">
        <ele>186</ele>
        <time>2017-06-16T09:43:00Z</time>
      </trkpt>
      <trkpt lat="45.95512" lon="4.75418">
        <ele>186</ele>
        <time>2017-06-16T09:43:01Z</time>
      </trkpt>
      <trkpt lat="45.9551" lon="4.7541">
        <ele>187</ele>
        <time>2017-06-16T09:43:02Z</time>
      </trkpt>
      <trkpt lat="45.95508" lon="4.75402">
        <ele>187</ele>
        <time>2017-06-16T09:43:03Z</time>
      </trkpt>
      <trkpt lat="45.95505" lon="4.75395">
        <ele>188</ele>
        <time>2017-06-16T09:43:04Z</time>
      </trkpt>
      <trkpt lat="45.95502" lon="4.75387">
        <ele>188</ele>
        <time>2017-06-16T09:43:05Z</time>
      </trkpt>
      <trkpt lat="45.95498" lon="4.7538">
        <ele>185</ele>
        <time>2017-06-16T09:43:06Z</time>
      </trkpt>
      <trkpt lat="45.95495" lon="4.75374">
        <ele>185</ele>
        <time>2017-06-16T09:43:07Z</time>
      </trkpt>
      <trkpt lat="45.95492" lon="4.75368">
        <ele>186</ele>
        <time>2017-06-16T09:43:08Z</time>
      </trkpt>
      <trkpt lat="45.95488" lon="4.75361">
        <ele>186</ele>
        <time>2017-06-16T09:43:09Z</time>
      </trkpt>
      <trkpt lat="45.95484" lon="4.75355">
        <ele>186</ele>
        <time>2017-06-16T09:43:10Z</time>
      </trkpt>
      <trkpt lat="45.95481" lon="4.75349">
        <ele>186</ele>
        <time>2017-06-16T09:43:11Z</time>
      </trkpt>
      <trkpt lat="45.95478" lon="4.75343">
        <ele>186</ele>
        <time>2017-06-16T09:43:12Z</time>
      </trkpt>
      <trkpt lat="45.95476" lon="4.75337">
        <ele>186</ele>
        <time>2017-06-16T09:43:13Z</time>
      </trkpt>
      <trkpt lat="45.95473" lon="4.75331">
        <ele>188</ele>
        <time>2017-06-16T09:43:14Z</time>
      </trkpt>
      <trkpt lat="45.95469" lon="4.75325">
        <ele>188</ele>
        <time>2017-06-16T09:43:15Z</time>
      </trkpt>
      <trkpt lat="45.95466" lon="4.7532">
        <ele>188</ele>
        <time>2017-06-16T09:43:16Z</time>
      </trkpt>
      <trkpt lat="45.95464" lon="4.75315">
        <ele>188</ele>
        <time>2017-06-16T09:43:17Z</time>
      </trkpt>
      <trkpt lat="45.95461" lon="4.75309">
        <ele>188</ele>
        <time>2017-06-16T09:43:18Z</time>
      </trkpt>
      <trkpt lat="45.95458" lon="4.75303">
        <ele>188</ele>
        <time>2017-06-16T09:43:19Z</time>
      </trkpt>
      <trkpt lat="45.95455" lon="4.75298">
        <ele>188</ele>
        <time>2017-06-16T09:43:20Z</time>
      </trkpt>
      <trkpt lat="45.95453" lon="4.75291">
        <ele>188</ele>
        <time>2017-06-16T09:43:21Z</time>
      </trkpt>
      <trkpt lat="45.9545" lon="4.75285">
        <ele>188</ele>
        <time>2017-06-16T09:43:22Z</time>
      </trkpt>
      <trkpt lat="45.95445" lon="4.75274">
        <ele>189</ele>
        <time>2017-06-16T09:43:24Z</time>
      </trkpt>
      <trkpt lat="45.95442" lon="4.75269">
        <ele>189</ele>
        <time>2017-06-16T09:43:25Z</time>
      </trkpt>
      <trkpt lat="45.9544" lon="4.75263">
        <ele>189</ele>
        <time>2017-06-16T09:43:26Z</time>
      </trkpt>
      <trkpt lat="45.95437" lon="4.75258">
        <ele>189</ele>
        <time>2017-06-16T09:43:27Z</time>
      </trkpt>
      <trkpt lat="45.95434" lon="4.75252">
        <ele>189</ele>
        <time>2017-06-16T09:43:28Z</time>
      </trkpt>
      <trkpt lat="45.95431" lon="4.75247">
        <ele>190</ele>
        <time>2017-06-16T09:43:29Z</time>
      </trkpt>
      <trkpt lat="45.95429" lon="4.75241">
        <ele>190</ele>
        <time>2017-06-16T09:43:30Z</time>
      </trkpt>
      <trkpt lat="45.95426" lon="4.75235">
        <ele>190</ele>
        <time>2017-06-16T09:43:31Z</time>
      </trkpt>
      <trkpt lat="45.95423" lon="4.7523">
        <ele>191</ele>
        <time>2017-06-16T09:43:32Z</time>
      </trkpt>
      <trkpt lat="45.95419" lon="4.75224">
        <ele>191</ele>
        <time>2017-06-16T09:43:33Z</time>
      </trkpt>
      <trkpt lat="45.95415" lon="4.75219">
        <ele>189</ele>
        <time>2017-06-16T09:43:34Z</time>
      </trkpt>
      <trkpt lat="45.95412" lon="4.75213">
        <ele>189</ele>
        <time>2017-06-16T09:43:35Z</time>
      </trkpt>
      <trkpt lat="45.95409" lon="4.75207">
        <ele>189</ele>
        <time>2017-06-16T09:43:36Z</time>
      </trkpt>
      <trkpt lat="45.95406" lon="4.75201">
        <ele>189</ele>
        <time>2017-06-16T09:43:37Z</time>
      </trkpt>
      <trkpt lat="45.95403" lon="4.75195">
        <ele>189</ele>
        <time>2017-06-16T09:43:38Z</time>
      </trkpt>
      <trkpt lat="45.95399" lon="4.75188">
        <ele>189</ele>
        <time>2017-06-16T09:43:39Z</time>
      </trkpt>
      <trkpt lat="45.95395" lon="4.75182">
        <ele>189</ele>
        <time>2017-06-16T09:43:40Z</time>
      </trkpt>
      <trkpt lat="45.95391" lon="4.75176">
        <ele>189</ele>
        <time>2017-06-16T09:43:41Z</time>
      </trkpt>
      <trkpt lat="45.95387" lon="4.7517">
        <ele>189</ele>
        <time>2017-06-16T09:43:42Z</time>
      </trkpt>
      <trkpt lat="45.95384" lon="4.75164">
        <ele>191</ele>
        <time>2017-06-16T09:43:43Z</time>
      </trkpt>
      <trkpt lat="45.9538" lon="4.75157">
        <ele>191</ele>
        <time>2017-06-16T09:43:44Z</time>
      </trkpt>
      <trkpt lat="45.95377" lon="4.75151">
        <ele>191</ele>
        <time>2017-06-16T09:43:45Z</time>
      </trkpt>
      <trkpt lat="45.95374" lon="4.75146">
        <ele>191</ele>
        <time>2017-06-16T09:43:46Z</time>
      </trkpt>
      <trkpt lat="45.95371" lon="4.7514">
        <ele>191</ele>
        <time>2017-06-16T09:43:47Z</time>
      </trkpt>
      <trkpt lat="45.95367" lon="4.75134">
        <ele>191</ele>
        <time>2017-06-16T09:43:48Z</time>
      </trkpt>
      <trkpt lat="45.95364" lon="4.75128">
        <ele>191</ele>
        <time>2017-06-16T09:43:49Z</time>
      </trkpt>
      <trkpt lat="45.95361" lon="4.75123">
        <ele>191</ele>
        <time>2017-06-16T09:43:50Z</time>
      </trkpt>
      <trkpt lat="45.95357" lon="4.75117">
        <ele>192</ele>
        <time>2017-06-16T09:43:51Z</time>
      </trkpt>
      <trkpt lat="45.95353" lon="4.75111">
        <ele>192</ele>
        <time>2017-06-16T09:43:52Z</time>
      </trkpt>
      <trkpt lat="45.95349" lon="4.75105">
        <ele>192</ele>
        <time>2017-06-16T09:43:53Z</time>
      </trkpt>
      <trkpt lat="45.95346" lon="4.75099">
        <ele>192</ele>
        <time>2017-06-16T09:43:54Z</time>
      </trkpt>
      <trkpt lat="45.95342" lon="4.75094">
        <ele>192</ele>
        <time>2017-06-16T09:43:55Z</time>
      </trkpt>
      <trkpt lat="45.95338" lon="4.75089">
        <ele>193</ele>
        <time>2017-06-16T09:43:56Z</time>
      </trkpt>
      <trkpt lat="45.95334" lon="4.75084">
        <ele>193</ele>
        <time>2017-06-16T09:43:57Z</time>
      </trkpt>
      <trkpt lat="45.95331" lon="4.7508">
        <ele>193</ele>
        <time>2017-06-16T09:43:58Z</time>
      </trkpt>
      <trkpt lat="45.95328" lon="4.75075">
        <ele>192</ele>
        <time>2017-06-16T09:43:59Z</time>
      </trkpt>
      <trkpt lat="45.95324" lon="4.7507">
        <ele>192</ele>
        <time>2017-06-16T09:44:00Z</time>
      </trkpt>
      <trkpt lat="45.95321" lon="4.75065">
        <ele>192</ele>
        <time>2017-06-16T09:44:01Z</time>
      </trkpt>
      <trkpt lat="45.95318" lon="4.75059">
        <ele>192</ele>
        <time>2017-06-16T09:44:02Z</time>
      </trkpt>
      <trkpt lat="45.95314" lon="4.75054">
        <ele>192</ele>
        <time>2017-06-16T09:44:03Z</time>
      </trkpt>
      <trkpt lat="45.95311" lon="4.75049">
        <ele>192</ele>
        <time>2017-06-16T09:44:04Z</time>
      </trkpt>
      <trkpt lat="45.95308" lon="4.75043">
        <ele>192</ele>
        <time>2017-06-16T09:44:05Z</time>
      </trkpt>
      <trkpt lat="45.95304" lon="4.75038">
        <ele>192</ele>
        <time>2017-06-16T09:44:06Z</time>
      </trkpt>
      <trkpt lat="45.95301" lon="4.75033">
        <ele>192</ele>
        <time>2017-06-16T09:44:07Z</time>
      </trkpt>
      <trkpt lat="45.95298" lon="4.75027">
        <ele>191</ele>
        <time>2017-06-16T09:44:08Z</time>
      </trkpt>
      <trkpt lat="45.95295" lon="4.75023">
        <ele>191</ele>
        <time>2017-06-16T09:44:09Z</time>
      </trkpt>
      <trkpt lat="45.95291" lon="4.75018">
        <ele>191</ele>
        <time>2017-06-16T09:44:10Z</time>
      </trkpt>
      <trkpt lat="45.95288" lon="4.75013">
        <ele>191</ele>
        <time>2017-06-16T09:44:11Z</time>
      </trkpt>
      <trkpt lat="45.95285" lon="4.75008">
        <ele>191</ele>
        <time>2017-06-16T09:44:12Z</time>
      </trkpt>
      <trkpt lat="45.95282" lon="4.75003">
        <ele>191</ele>
        <time>2017-06-16T09:44:13Z</time>
      </trkpt>
      <trkpt lat="45.95279" lon="4.74998">
        <ele>192</ele>
        <time>2017-06-16T09:44:14Z</time>
      </trkpt>
      <trkpt lat="45.95276" lon="4.74993">
        <ele>192</ele>
        <time>2017-06-16T09:44:15Z</time>
      </trkpt>
      <trkpt lat="45.95272" lon="4.74988">
        <ele>192</ele>
        <time>2017-06-16T09:44:16Z</time>
      </trkpt>
      <trkpt lat="45.95269" lon="4.74982">
        <ele>192</ele>
        <time>2017-06-16T09:44:17Z</time>
      </trkpt>
      <trkpt lat="45.95266" lon="4.74976">
        <ele>192</ele>
        <time>2017-06-16T09:44:18Z</time>
      </trkpt>
      <trkpt lat="45.95262" lon="4.74971">
        <ele>192</ele>
        <time>2017-06-16T09:44:19Z</time>
      </trkpt>
      <trkpt lat="45.95258" lon="4.74965">
        <ele>192</ele>
        <time>2017-06-16T09:44:20Z</time>
      </trkpt>
      <trkpt lat="45.95254" lon="4.74959">
        <ele>192</ele>
        <time>2017-06-16T09:44:21Z</time>
      </trkpt>
      <trkpt lat="45.95251" lon="4.74954">
        <ele>192</ele>
        <time>2017-06-16T09:44:22Z</time>
      </trkpt>
      <trkpt lat="45.95247" lon="4.74948">
        <ele>192</ele>
        <time>2017-06-16T09:44:23Z</time>
      </trkpt>
      <trkpt lat="45.95243" lon="4.74943">
        <ele>192</ele>
        <time>2017-06-16T09:44:24Z</time>
      </trkpt>
      <trkpt lat="45.95239" lon="4.74937">
        <ele>192</ele>
        <time>2017-06-16T09:44:25Z</time>
      </trkpt>
      <trkpt lat="45.95235" lon="4.74932">
        <ele>192</ele>
        <time>2017-06-16T09:44:26Z</time>
      </trkpt>
      <trkpt lat="45.95232" lon="4.74927">
        <ele>192</ele>
        <time>2017-06-16T09:44:27Z</time>
      </trkpt>
      <trkpt lat="45.95229" lon="4.74922">
        <ele>192</ele>
        <time>2017-06-16T09:44:28Z</time>
      </trkpt>
      <trkpt lat="45.95226" lon="4.74917">
        <ele>192</ele>
        <time>2017-06-16T09:44:29Z</time>
      </trkpt>
      <trkpt lat="45.95223" lon="4.74912">
        <ele>193</ele>
        <time>2017-06-16T09:44:30Z</time>
      </trkpt>
      <trkpt lat="45.9522" lon="4.74907">
        <ele>193</ele>
        <time>2017-06-16T09:44:31Z</time>
      </trkpt>
      <trkpt lat="45.95217" lon="4.74901">
        <ele>193</ele>
        <time>2017-06-16T09:44:32Z</time>
      </trkpt>
      <trkpt lat="45.95214" lon="4.74896">
        <ele>193</ele>
        <time>2017-06-16T09:44:33Z</time>
      </trkpt>
      <trkpt lat="45.95211" lon="4.7489">
        <ele>193</ele>
        <time>2017-06-16T09:44:34Z</time>
      </trkpt>
      <trkpt lat="45.95208" lon="4.74885">
        <ele>194</ele>
        <time>2017-06-16T09:44:35Z</time>
      </trkpt>
      <trkpt lat="45.95204" lon="4.74879">
        <ele>194</ele>
        <time>2017-06-16T09:44:36Z</time>
      </trkpt>
      <trkpt lat="45.95201" lon="4.74873">
        <ele>194</ele>
        <time>2017-06-16T09:44:37Z</time>
      </trkpt>
      <trkpt lat="45.95198" lon="4.74867">
        <ele>194</ele>
        <time>2017-06-16T09:44:38Z</time>
      </trkpt>
      <trkpt lat="45.95195" lon="4.74861">
        <ele>194</ele>
        <time>2017-06-16T09:44:39Z</time>
      </trkpt>
      <trkpt lat="45.95192" lon="4.74856">
        <ele>194</ele>
        <time>2017-06-16T09:44:40Z</time>
      </trkpt>
      <trkpt lat="45.95189" lon="4.7485">
        <ele>194</ele>
        <time>2017-06-16T09:44:41Z</time>
      </trkpt>
      <trkpt lat="45.95184" lon="4.74844">
        <ele>194</ele>
        <time>2017-06-16T09:44:42Z</time>
      </trkpt>
      <trkpt lat="45.9518" lon="4.74839">
        <ele>194</ele>
        <time>2017-06-16T09:44:43Z</time>
      </trkpt>
      <trkpt lat="45.95176" lon="4.74832">
        <ele>194</ele>
        <time>2017-06-16T09:44:44Z</time>
      </trkpt>
      <trkpt lat="45.95173" lon="4.74827">
        <ele>194</ele>
        <time>2017-06-16T09:44:45Z</time>
      </trkpt>
      <trkpt lat="45.95169" lon="4.74821">
        <ele>194</ele>
        <time>2017-06-16T09:44:46Z</time>
      </trkpt>
      <trkpt lat="45.95165" lon="4.74815">
        <ele>194</ele>
        <time>2017-06-16T09:44:47Z</time>
      </trkpt>
      <trkpt lat="45.95162" lon="4.74809">
        <ele>194</ele>
        <time>2017-06-16T09:44:48Z</time>
      </trkpt>
      <trkpt lat="45.95158" lon="4.74803">
        <ele>194</ele>
        <time>2017-06-16T09:44:49Z</time>
      </trkpt>
      <trkpt lat="45.95154" lon="4.74797">
        <ele>194</ele>
        <time>2017-06-16T09:44:50Z</time>
      </trkpt>
      <trkpt lat="45.95151" lon="4.74791">
        <ele>194</ele>
        <time>2017-06-16T09:44:51Z</time>
      </trkpt>
      <trkpt lat="45.95147" lon="4.74786">
        <ele>194</ele>
        <time>2017-06-16T09:44:52Z</time>
      </trkpt>
      <trkpt lat="45.95144" lon="4.74781">
        <ele>194</ele>
        <time>2017-06-16T09:44:53Z</time>
      </trkpt>
      <trkpt lat="45.9514" lon="4.74776">
        <ele>194</ele>
        <time>2017-06-16T09:44:54Z</time>
      </trkpt>
      <trkpt lat="45.95136" lon="4.74771">
        <ele>194</ele>
        <time>2017-06-16T09:44:55Z</time>
      </trkpt>
      <trkpt lat="45.95133" lon="4.74764">
        <ele>194</ele>
        <time>2017-06-16T09:44:56Z</time>
      </trkpt>
      <trkpt lat="45.9513" lon="4.74758">
        <ele>194</ele>
        <time>2017-06-16T09:44:57Z</time>
      </trkpt>
      <trkpt lat="45.95127" lon="4.74752">
        <ele>194</ele>
        <time>2017-06-16T09:44:58Z</time>
      </trkpt>
      <trkpt lat="45.95123" lon="4.74746">
        <ele>194</ele>
        <time>2017-06-16T09:44:59Z</time>
      </trkpt>
      <trkpt lat="45.9512" lon="4.7474">
        <ele>194</ele>
        <time>2017-06-16T09:45:00Z</time>
      </trkpt>
      <trkpt lat="45.95116" lon="4.74734">
        <ele>194</ele>
        <time>2017-06-16T09:45:01Z</time>
      </trkpt>
      <trkpt lat="45.95113" lon="4.74727">
        <ele>194</ele>
        <time>2017-06-16T09:45:02Z</time>
      </trkpt>
      <trkpt lat="45.9511" lon="4.7472">
        <ele>194</ele>
        <time>2017-06-16T09:45:03Z</time>
      </trkpt>
      <trkpt lat="45.95106" lon="4.74714">
        <ele>194</ele>
        <time>2017-06-16T09:45:04Z</time>
      </trkpt>
      <trkpt lat="45.95103" lon="4.74708">
        <ele>194</ele>
        <time>2017-06-16T09:45:05Z</time>
      </trkpt>
      <trkpt lat="45.95099" lon="4.74703">
        <ele>194</ele>
        <time>2017-06-16T09:45:06Z</time>
      </trkpt>
      <trkpt lat="45.95095" lon="4.74697">
        <ele>194</ele>
        <time>2017-06-16T09:45:07Z</time>
      </trkpt>
      <trkpt lat="45.95091" lon="4.74692">
        <ele>194</ele>
        <time>2017-06-16T09:45:08Z</time>
      </trkpt>
      <trkpt lat="45.95087" lon="4.74685">
        <ele>195</ele>
        <time>2017-06-16T09:45:09Z</time>
      </trkpt>
      <trkpt lat="45.95083" lon="4.74679">
        <ele>194</ele>
        <time>2017-06-16T09:45:10Z</time>
      </trkpt>
      <trkpt lat="45.95079" lon="4.74671">
        <ele>195</ele>
        <time>2017-06-16T09:45:11Z</time>
      </trkpt>
      <trkpt lat="45.95075" lon="4.74664">
        <ele>195</ele>
        <time>2017-06-16T09:45:12Z</time>
      </trkpt>
      <trkpt lat="45.95072" lon="4.74657">
        <ele>195</ele>
        <time>2017-06-16T09:45:13Z</time>
      </trkpt>
      <trkpt lat="45.95068" lon="4.74651">
        <ele>195</ele>
        <time>2017-06-16T09:45:14Z</time>
      </trkpt>
      <trkpt lat="45.95064" lon="4.74644">
        <ele>195</ele>
        <time>2017-06-16T09:45:15Z</time>
      </trkpt>
      <trkpt lat="45.95061" lon="4.74638">
        <ele>194</ele>
        <time>2017-06-16T09:45:16Z</time>
      </trkpt>
      <trkpt lat="45.95057" lon="4.74632">
        <ele>194</ele>
        <time>2017-06-16T09:45:17Z</time>
      </trkpt>
      <trkpt lat="45.95053" lon="4.74625">
        <ele>194</ele>
        <time>2017-06-16T09:45:18Z</time>
      </trkpt>
      <trkpt lat="45.9505" lon="4.74619">
        <ele>194</ele>
        <time>2017-06-16T09:45:19Z</time>
      </trkpt>
      <trkpt lat="45.95046" lon="4.74613">
        <ele>194</ele>
        <time>2017-06-16T09:45:20Z</time>
      </trkpt>
      <trkpt lat="45.95043" lon="4.74607">
        <ele>194</ele>
        <time>2017-06-16T09:45:21Z</time>
      </trkpt>
      <trkpt lat="45.9504" lon="4.74601">
        <ele>194</ele>
        <time>2017-06-16T09:45:22Z</time>
      </trkpt>
      <trkpt lat="45.95037" lon="4.74595">
        <ele>194</ele>
        <time>2017-06-16T09:45:23Z</time>
      </trkpt>
      <trkpt lat="45.95033" lon="4.74589">
        <ele>194</ele>
        <time>2017-06-16T09:45:24Z</time>
      </trkpt>
      <trkpt lat="45.9503" lon="4.74583">
        <ele>194</ele>
        <time>2017-06-16T09:45:25Z</time>
      </trkpt>
      <trkpt lat="45.95027" lon="4.74577">
        <ele>194</ele>
        <time>2017-06-16T09:45:26Z</time>
      </trkpt>
      <trkpt lat="45.95024" lon="4.7457">
        <ele>194</ele>
        <time>2017-06-16T09:45:27Z</time>
      </trkpt>
      <trkpt lat="45.95021" lon="4.74563">
        <ele>194</ele>
        <time>2017-06-16T09:45:28Z</time>
      </trkpt>
      <trkpt lat="45.95018" lon="4.74557">
        <ele>194</ele>
        <time>2017-06-16T09:45:29Z</time>
      </trkpt>
      <trkpt lat="45.95014" lon="4.7455">
        <ele>194</ele>
        <time>2017-06-16T09:45:30Z</time>
      </trkpt>
      <trkpt lat="45.9501" lon="4.74543">
        <ele>194</ele>
        <time>2017-06-16T09:45:31Z</time>
      </trkpt>
      <trkpt lat="45.95006" lon="4.74536">
        <ele>194</ele>
        <time>2017-06-16T09:45:32Z</time>
      </trkpt>
      <trkpt lat="45.95002" lon="4.74529">
        <ele>194</ele>
        <time>2017-06-16T09:45:33Z</time>
      </trkpt>
      <trkpt lat="45.94999" lon="4.74522">
        <ele>193</ele>
        <time>2017-06-16T09:45:34Z</time>
      </trkpt>
      <trkpt lat="45.94995" lon="4.74515">
        <ele>193</ele>
        <time>2017-06-16T09:45:35Z</time>
      </trkpt>
      <trkpt lat="45.94991" lon="4.74508">
        <ele>193</ele>
        <time>2017-06-16T09:45:36Z</time>
      </trkpt>
      <trkpt lat="45.94987" lon="4.74501">
        <ele>193</ele>
        <time>2017-06-16T09:45:37Z</time>
      </trkpt>
      <trkpt lat="45.94984" lon="4.74494">
        <ele>193</ele>
        <time>2017-06-16T09:45:38Z</time>
      </trkpt>
      <trkpt lat="45.9498" lon="4.74487">
        <ele>193</ele>
        <time>2017-06-16T09:45:39Z</time>
      </trkpt>
      <trkpt lat="45.94976" lon="4.7448">
        <ele>193</ele>
        <time>2017-06-16T09:45:40Z</time>
      </trkpt>
      <trkpt lat="45.94972" lon="4.74473">
        <ele>193</ele>
        <time>2017-06-16T09:45:41Z</time>
      </trkpt>
      <trkpt lat="45.94969" lon="4.74466">
        <ele>193</ele>
        <time>2017-06-16T09:45:42Z</time>
      </trkpt>
      <trkpt lat="45.94965" lon="4.74459">
        <ele>193</ele>
        <time>2017-06-16T09:45:43Z</time>
      </trkpt>
      <trkpt lat="45.94962" lon="4.74452">
        <ele>192</ele>
        <time>2017-06-16T09:45:44Z</time>
      </trkpt>
      <trkpt lat="45.94958" lon="4.74446">
        <ele>192</ele>
        <time>2017-06-16T09:45:45Z</time>
      </trkpt>
      <trkpt lat="45.94955" lon="4.74439">
        <ele>192</ele>
        <time>2017-06-16T09:45:46Z</time>
      </trkpt>
      <trkpt lat="45.94951" lon="4.74432">
        <ele>192</ele>
        <time>2017-06-16T09:45:47Z</time>
      </trkpt>
      <trkpt lat="45.94947" lon="4.74425">
        <ele>192</ele>
        <time>2017-06-16T09:45:48Z</time>
      </trkpt>
      <trkpt lat="45.94944" lon="4.74418">
        <ele>192</ele>
        <time>2017-06-16T09:45:49Z</time>
      </trkpt>
      <trkpt lat="45.9494" lon="4.7441">
        <ele>192</ele>
        <time>2017-06-16T09:45:50Z</time>
      </trkpt>
      <trkpt lat="45.94935" lon="4.74403">
        <ele>192</ele>
        <time>2017-06-16T09:45:51Z</time>
      </trkpt>
      <trkpt lat="45.94931" lon="4.74396">
        <ele>192</ele>
        <time>2017-06-16T09:45:52Z</time>
      </trkpt>
      <trkpt lat="45.94927" lon="4.74389">
        <ele>192</ele>
        <time>2017-06-16T09:45:53Z</time>
      </trkpt>
      <trkpt lat="45.94923" lon="4.74382">
        <ele>192</ele>
        <time>2017-06-16T09:45:54Z</time>
      </trkpt>
      <trkpt lat="45.94919" lon="4.74375">
        <ele>192</ele>
        <time>2017-06-16T09:45:55Z</time>
      </trkpt>
      <trkpt lat="45.94915" lon="4.74368">
        <ele>191</ele>
        <time>2017-06-16T09:45:56Z</time>
      </trkpt>
      <trkpt lat="45.94911" lon="4.7436">
        <ele>191</ele>
        <time>2017-06-16T09:45:57Z</time>
      </trkpt>
      <trkpt lat="45.94908" lon="4.74353">
        <ele>191</ele>
        <time>2017-06-16T09:45:58Z</time>
      </trkpt>
      <trkpt lat="45.94904" lon="4.74346">
        <ele>191</ele>
        <time>2017-06-16T09:45:59Z</time>
      </trkpt>
      <trkpt lat="45.94901" lon="4.7434">
        <ele>191</ele>
        <time>2017-06-16T09:46:00Z</time>
      </trkpt>
      <trkpt lat="45.94897" lon="4.74333">
        <ele>191</ele>
        <time>2017-06-16T09:46:01Z</time>
      </trkpt>
      <trkpt lat="45.94894" lon="4.74326">
        <ele>191</ele>
        <time>2017-06-16T09:46:02Z</time>
      </trkpt>
      <trkpt lat="45.9489" lon="4.74319">
        <ele>191</ele>
        <time>2017-06-16T09:46:03Z</time>
      </trkpt>
      <trkpt lat="45.94887" lon="4.74311">
        <ele>191</ele>
        <time>2017-06-16T09:46:04Z</time>
      </trkpt>
      <trkpt lat="45.94883" lon="4.74303">
        <ele>191</ele>
        <time>2017-06-16T09:46:05Z</time>
      </trkpt>
      <trkpt lat="45.94879" lon="4.74295">
        <ele>191</ele>
        <time>2017-06-16T09:46:06Z</time>
      </trkpt>
      <trkpt lat="45.94875" lon="4.74287">
        <ele>191</ele>
        <time>2017-06-16T09:46:07Z</time>
      </trkpt>
      <trkpt lat="45.9487" lon="4.74279">
        <ele>191</ele>
        <time>2017-06-16T09:46:08Z</time>
      </trkpt>
      <trkpt lat="45.94866" lon="4.7427">
        <ele>190</ele>
        <time>2017-06-16T09:46:09Z</time>
      </trkpt>
      <trkpt lat="45.94862" lon="4.74262">
        <ele>190</ele>
        <time>2017-06-16T09:46:10Z</time>
      </trkpt>
      <trkpt lat="45.94858" lon="4.74253">
        <ele>190</ele>
        <time>2017-06-16T09:46:11Z</time>
      </trkpt>
      <trkpt lat="45.94854" lon="4.74245">
        <ele>190</ele>
        <time>2017-06-16T09:46:12Z</time>
      </trkpt>
      <trkpt lat="45.94851" lon="4.74237">
        <ele>190</ele>
        <time>2017-06-16T09:46:13Z</time>
      </trkpt>
      <trkpt lat="45.94847" lon="4.7423">
        <ele>190</ele>
        <time>2017-06-16T09:46:14Z</time>
      </trkpt>
      <trkpt lat="45.94842" lon="4.74222">
        <ele>190</ele>
        <time>2017-06-16T09:46:15Z</time>
      </trkpt>
      <trkpt lat="45.94838" lon="4.74214">
        <ele>190</ele>
        <time>2017-06-16T09:46:16Z</time>
      </trkpt>
      <trkpt lat="45.94833" lon="4.74207">
        <ele>189</ele>
        <time>2017-06-16T09:46:17Z</time>
      </trkpt>
      <trkpt lat="45.94828" lon="4.74198">
        <ele>189</ele>
        <time>2017-06-16T09:46:18Z</time>
      </trkpt>
      <trkpt lat="45.94823" lon="4.74189">
        <ele>189</ele>
        <time>2017-06-16T09:46:19Z</time>
      </trkpt>
      <trkpt lat="45.94818" lon="4.7418">
        <ele>189</ele>
        <time>2017-06-16T09:46:20Z</time>
      </trkpt>
      <trkpt lat="45.94813" lon="4.74171">
        <ele>189</ele>
        <time>2017-06-16T09:46:21Z</time>
      </trkpt>
      <trkpt lat="45.94809" lon="4.74162">
        <ele>189</ele>
        <time>2017-06-16T09:46:22Z</time>
      </trkpt>
      <trkpt lat="45.94804" lon="4.74154">
        <ele>189</ele>
        <time>2017-06-16T09:46:23Z</time>
      </trkpt>
      <trkpt lat="45.94799" lon="4.74146">
        <ele>189</ele>
        <time>2017-06-16T09:46:24Z</time>
      </trkpt>
      <trkpt lat="45.94794" lon="4.74138">
        <ele>189</ele>
        <time>2017-06-16T09:46:25Z</time>
      </trkpt>
      <trkpt lat="45.94789" lon="4.74131">
        <ele>189</ele>
        <time>2017-06-16T09:46:26Z</time>
      </trkpt>
      <trkpt lat="45.94784" lon="4.74123">
        <ele>189</ele>
        <time>2017-06-16T09:46:27Z</time>
      </trkpt>
      <trkpt lat="45.94779" lon="4.74114">
        <ele>189</ele>
        <time>2017-06-16T09:46:28Z</time>
      </trkpt>
      <trkpt lat="45.94774" lon="4.74107">
        <ele>189</ele>
        <time>2017-06-16T09:46:29Z</time>
      </trkpt>
      <trkpt lat="45.94769" lon="4.74099">
        <ele>189</ele>
        <time>2017-06-16T09:46:30Z</time>
      </trkpt>
      <trkpt lat="45.94764" lon="4.74093">
        <ele>189</ele>
        <time>2017-06-16T09:46:31Z</time>
      </trkpt>
      <trkpt lat="45.94758" lon="4.74086">
        <ele>189</ele>
        <time>2017-06-16T09:46:32Z</time>
      </trkpt>
      <trkpt lat="45.94752" lon="4.7408">
        <ele>189</ele>
        <time>2017-06-16T09:46:33Z</time>
      </trkpt>
      <trkpt lat="45.94746" lon="4.74073">
        <ele>188</ele>
        <time>2017-06-16T09:46:34Z</time>
      </trkpt>
      <trkpt lat="45.94741" lon="4.74066">
        <ele>188</ele>
        <time>2017-06-16T09:46:35Z</time>
      </trkpt>
      <trkpt lat="45.94735" lon="4.74059">
        <ele>188</ele>
        <time>2017-06-16T09:46:36Z</time>
      </trkpt>
      <trkpt lat="45.9473" lon="4.74051">
        <ele>188</ele>
        <time>2017-06-16T09:46:37Z</time>
      </trkpt>
      <trkpt lat="45.94724" lon="4.74044">
        <ele>187</ele>
        <time>2017-06-16T09:46:38Z</time>
      </trkpt>
      <trkpt lat="45.94719" lon="4.74037">
        <ele>187</ele>
        <time>2017-06-16T09:46:39Z</time>
      </trkpt>
      <trkpt lat="45.94714" lon="4.7403">
        <ele>187</ele>
        <time>2017-06-16T09:46:40Z</time>
      </trkpt>
      <trkpt lat="45.94709" lon="4.74023">
        <ele>187</ele>
        <time>2017-06-16T09:46:41Z</time>
      </trkpt>
      <trkpt lat="45.94704" lon="4.74016">
        <ele>187</ele>
        <time>2017-06-16T09:46:42Z</time>
      </trkpt>
      <trkpt lat="45.94699" lon="4.7401">
        <ele>187</ele>
        <time>2017-06-16T09:46:43Z</time>
      </trkpt>
      <trkpt lat="45.94695" lon="4.74003">
        <ele>187</ele>
        <time>2017-06-16T09:46:44Z</time>
      </trkpt>
      <trkpt lat="45.9469" lon="4.73997">
        <ele>187</ele>
        <time>2017-06-16T09:46:45Z</time>
      </trkpt>
      <trkpt lat="45.94685" lon="4.7399">
        <ele>187</ele>
        <time>2017-06-16T09:46:46Z</time>
      </trkpt>
      <trkpt lat="45.9468" lon="4.73984">
        <ele>187</ele>
        <time>2017-06-16T09:46:47Z</time>
      </trkpt>
      <trkpt lat="45.94675" lon="4.73978">
        <ele>187</ele>
        <time>2017-06-16T09:46:48Z</time>
      </trkpt>
      <trkpt lat="45.9467" lon="4.73972">
        <ele>187</ele>
        <time>2017-06-16T09:46:49Z</time>
      </trkpt>
      <trkpt lat="45.94666" lon="4.73966">
        <ele>187</ele>
        <time>2017-06-16T09:46:50Z</time>
      </trkpt>
      <trkpt lat="45.94661" lon="4.73959">
        <ele>187</ele>
        <time>2017-06-16T09:46:51Z</time>
      </trkpt>
      <trkpt lat="45.94657" lon="4.73953">
        <ele>187</ele>
        <time>2017-06-16T09:46:52Z</time>
      </trkpt>
      <trkpt lat="45.94652" lon="4.73947">
        <ele>187</ele>
        <time>2017-06-16T09:46:53Z</time>
      </trkpt>
      <trkpt lat="45.94648" lon="4.73941">
        <ele>187</ele>
        <time>2017-06-16T09:46:54Z</time>
      </trkpt>
      <trkpt lat="45.94643" lon="4.73935">
        <ele>187</ele>
        <time>2017-06-16T09:46:55Z</time>
      </trkpt>
      <trkpt lat="45.94639" lon="4.73929">
        <ele>187</ele>
        <time>2017-06-16T09:46:56Z</time>
      </trkpt>
      <trkpt lat="45.94635" lon="4.73923">
        <ele>187</ele>
        <time>2017-06-16T09:46:57Z</time>
      </trkpt>
      <trkpt lat="45.9463" lon="4.73917">
        <ele>187</ele>
        <time>2017-06-16T09:46:58Z</time>
      </trkpt>
      <trkpt lat="45.94626" lon="4.73911">
        <ele>187</ele>
        <time>2017-06-16T09:46:59Z</time>
      </trkpt>
      <trkpt lat="45.94621" lon="4.73905">
        <ele>187</ele>
        <time>2017-06-16T09:47:00Z</time>
      </trkpt>
      <trkpt lat="45.94616" lon="4.73899">
        <ele>187</ele>
        <time>2017-06-16T09:47:01Z</time>
      </trkpt>
      <trkpt lat="45.94611" lon="4.73893">
        <ele>187</ele>
        <time>2017-06-16T09:47:02Z</time>
      </trkpt>
      <trkpt lat="45.94606" lon="4.73887">
        <ele>187</ele>
        <time>2017-06-16T09:47:03Z</time>
      </trkpt>
      <trkpt lat="45.94601" lon="4.73881">
        <ele>187</ele>
        <time>2017-06-16T09:47:04Z</time>
      </trkpt>
      <trkpt lat="45.94596" lon="4.73876">
        <ele>187</ele>
        <time>2017-06-16T09:47:05Z</time>
      </trkpt>
      <trkpt lat="45.94591" lon="4.7387">
        <ele>187</ele>
        <time>2017-06-16T09:47:06Z</time>
      </trkpt>
      <trkpt lat="45.94586" lon="4.73865">
        <ele>187</ele>
        <time>2017-06-16T09:47:07Z</time>
      </trkpt>
      <trkpt lat="45.9458" lon="4.73859">
        <ele>186</ele>
        <time>2017-06-16T09:47:08Z</time>
      </trkpt>
      <trkpt lat="45.94575" lon="4.73853">
        <ele>186</ele>
        <time>2017-06-16T09:47:09Z</time>
      </trkpt>
      <trkpt lat="45.9457" lon="4.73847">
        <ele>186</ele>
        <time>2017-06-16T09:47:10Z</time>
      </trkpt>
      <trkpt lat="45.94565" lon="4.73842">
        <ele>186</ele>
        <time>2017-06-16T09:47:11Z</time>
      </trkpt>
      <trkpt lat="45.94559" lon="4.73836">
        <ele>186</ele>
        <time>2017-06-16T09:47:12Z</time>
      </trkpt>
      <trkpt lat="45.94554" lon="4.73831">
        <ele>186</ele>
        <time>2017-06-16T09:47:13Z</time>
      </trkpt>
      <trkpt lat="45.94548" lon="4.73826">
        <ele>186</ele>
        <time>2017-06-16T09:47:14Z</time>
      </trkpt>
      <trkpt lat="45.94542" lon="4.73821">
        <ele>186</ele>
        <time>2017-06-16T09:47:15Z</time>
      </trkpt>
      <trkpt lat="45.94537" lon="4.73816">
        <ele>186</ele>
        <time>2017-06-16T09:47:16Z</time>
      </trkpt>
      <trkpt lat="45.94531" lon="4.73811">
        <ele>186</ele>
        <time>2017-06-16T09:47:17Z</time>
      </trkpt>
      <trkpt lat="45.94526" lon="4.73806">
        <ele>186</ele>
        <time>2017-06-16T09:47:18Z</time>
      </trkpt>
      <trkpt lat="45.94521" lon="4.73801">
        <ele>186</ele>
        <time>2017-06-16T09:47:19Z</time>
      </trkpt>
      <trkpt lat="45.94516" lon="4.73796">
        <ele>186</ele>
        <time>2017-06-16T09:47:20Z</time>
      </trkpt>
      <trkpt lat="45.94511" lon="4.7379">
        <ele>186</ele>
        <time>2017-06-16T09:47:21Z</time>
      </trkpt>
      <trkpt lat="45.94507" lon="4.73784">
        <ele>186</ele>
        <time>2017-06-16T09:47:22Z</time>
      </trkpt>
      <trkpt lat="45.94502" lon="4.73778">
        <ele>186</ele>
        <time>2017-06-16T09:47:23Z</time>
      </trkpt>
      <trkpt lat="45.94497" lon="4.73772">
        <ele>186</ele>
        <time>2017-06-16T09:47:24Z</time>
      </trkpt>
      <trkpt lat="45.94493" lon="4.73766">
        <ele>186</ele>
        <time>2017-06-16T09:47:25Z</time>
      </trkpt>
      <trkpt lat="45.9449" lon="4.73759">
        <ele>186</ele>
        <time>2017-06-16T09:47:26Z</time>
      </trkpt>
      <trkpt lat="45.94487" lon="4.73751">
        <ele>186</ele>
        <time>2017-06-16T09:47:27Z</time>
      </trkpt>
      <trkpt lat="45.94486" lon="4.73742">
        <ele>186</ele>
        <time>2017-06-16T09:47:28Z</time>
      </trkpt>
      <trkpt lat="45.94486" lon="4.73733">
        <ele>186</ele>
        <time>2017-06-16T09:47:29Z</time>
      </trkpt>
      <trkpt lat="45.94486" lon="4.73725">
        <ele>186</ele>
        <time>2017-06-16T09:47:30Z</time>
      </trkpt>
      <trkpt lat="45.94487" lon="4.73715">
        <ele>186</ele>
        <time>2017-06-16T09:47:31Z</time>
      </trkpt>
      <trkpt lat="45.94488" lon="4.73705">
        <ele>186</ele>
        <time>2017-06-16T09:47:32Z</time>
      </trkpt>
      <trkpt lat="45.9449" lon="4.73695">
        <ele>186</ele>
        <time>2017-06-16T09:47:33Z</time>
      </trkpt>
      <trkpt lat="45.94491" lon="4.73685">
        <ele>186</ele>
        <time>2017-06-16T09:47:34Z</time>
      </trkpt>
      <trkpt lat="45.94493" lon="4.73674">
        <ele>185</ele>
        <time>2017-06-16T09:47:35Z</time>
      </trkpt>
      <trkpt lat="45.94495" lon="4.73663">
        <ele>185</ele>
        <time>2017-06-16T09:47:36Z</time>
      </trkpt>
      <trkpt lat="45.94497" lon="4.73652">
        <ele>185</ele>
        <time>2017-06-16T09:47:37Z</time>
      </trkpt>
      <trkpt lat="45.94498" lon="4.73641">
        <ele>186</ele>
        <time>2017-06-16T09:47:38Z</time>
      </trkpt>
      <trkpt lat="45.945" lon="4.73631">
        <ele>184</ele>
        <time>2017-06-16T09:47:39Z</time>
      </trkpt>
      <trkpt lat="45.94501" lon="4.73621">
        <ele>184</ele>
        <time>2017-06-16T09:47:40Z</time>
      </trkpt>
      <trkpt lat="45.94503" lon="4.7361">
        <ele>184</ele>
        <time>2017-06-16T09:47:41Z</time>
      </trkpt>
      <trkpt lat="45.94503" lon="4.736">
        <ele>184</ele>
        <time>2017-06-16T09:47:42Z</time>
      </trkpt>
      <trkpt lat="45.94505" lon="4.7359">
        <ele>185</ele>
        <time>2017-06-16T09:47:43Z</time>
      </trkpt>
      <trkpt lat="45.94506" lon="4.73579">
        <ele>184</ele>
        <time>2017-06-16T09:47:44Z</time>
      </trkpt>
      <trkpt lat="45.94506" lon="4.73568">
        <ele>184</ele>
        <time>2017-06-16T09:47:45Z</time>
      </trkpt>
      <trkpt lat="45.94506" lon="4.73557">
        <ele>184</ele>
        <time>2017-06-16T09:47:46Z</time>
      </trkpt>
      <trkpt lat="45.94506" lon="4.73546">
        <ele>183</ele>
        <time>2017-06-16T09:47:47Z</time>
      </trkpt>
      <trkpt lat="45.94506" lon="4.73535">
        <ele>183</ele>
        <time>2017-06-16T09:47:48Z</time>
      </trkpt>
      <trkpt lat="45.94506" lon="4.73524">
        <ele>183</ele>
        <time>2017-06-16T09:47:49Z</time>
      </trkpt>
      <trkpt lat="45.94506" lon="4.73514">
        <ele>183</ele>
        <time>2017-06-16T09:47:50Z</time>
      </trkpt>
      <trkpt lat="45.94507" lon="4.73503">
        <ele>183</ele>
        <time>2017-06-16T09:47:51Z</time>
      </trkpt>
      <trkpt lat="45.94507" lon="4.73491">
        <ele>182</ele>
        <time>2017-06-16T09:47:52Z</time>
      </trkpt>
      <trkpt lat="45.94507" lon="4.73481">
        <ele>182</ele>
        <time>2017-06-16T09:47:53Z</time>
      </trkpt>
      <trkpt lat="45.94507" lon="4.73469">
        <ele>181</ele>
        <time>2017-06-16T09:47:54Z</time>
      </trkpt>
      <trkpt lat="45.94507" lon="4.73458">
        <ele>181</ele>
        <time>2017-06-16T09:47:55Z</time>
      </trkpt>
      <trkpt lat="45.94507" lon="4.73446">
        <ele>181</ele>
        <time>2017-06-16T09:47:56Z</time>
      </trkpt>
      <trkpt lat="45.94507" lon="4.73434">
        <ele>181</ele>
        <time>2017-06-16T09:47:57Z</time>
      </trkpt>
      <trkpt lat="45.94506" lon="4.73422">
        <ele>180</ele>
        <time>2017-06-16T09:47:58Z</time>
      </trkpt>
      <trkpt lat="45.94505" lon="4.73409">
        <ele>179</ele>
        <time>2017-06-16T09:47:59Z</time>
      </trkpt>
      <trkpt lat="45.94504" lon="4.73396">
        <ele>179</ele>
        <time>2017-06-16T09:48:00Z</time>
      </trkpt>
      <trkpt lat="45.94502" lon="4.73383">
        <ele>179</ele>
        <time>2017-06-16T09:48:01Z</time>
      </trkpt>
      <trkpt lat="45.94501" lon="4.73369">
        <ele>178</ele>
        <time>2017-06-16T09:48:02Z</time>
      </trkpt>
      <trkpt lat="45.94499" lon="4.73356">
        <ele>178</ele>
        <time>2017-06-16T09:48:03Z</time>
      </trkpt>
      <trkpt lat="45.94498" lon="4.73342">
        <ele>178</ele>
        <time>2017-06-16T09:48:04Z</time>
      </trkpt>
      <trkpt lat="45.94497" lon="4.73329">
        <ele>177</ele>
        <time>2017-06-16T09:48:05Z</time>
      </trkpt>
      <trkpt lat="45.94495" lon="4.73315">
        <ele>177</ele>
        <time>2017-06-16T09:48:06Z</time>
      </trkpt>
      <trkpt lat="45.94494" lon="4.73302">
        <ele>177</ele>
        <time>2017-06-16T09:48:07Z</time>
      </trkpt>
      <trkpt lat="45.94492" lon="4.7329">
        <ele>177</ele>
        <time>2017-06-16T09:48:08Z</time>
      </trkpt>
      <trkpt lat="45.94491" lon="4.73279">
        <ele>177</ele>
        <time>2017-06-16T09:48:09Z</time>
      </trkpt>
      <trkpt lat="45.94489" lon="4.73269">
        <ele>177</ele>
        <time>2017-06-16T09:48:10Z</time>
      </trkpt>
      <trkpt lat="45.94487" lon="4.7326">
        <ele>176</ele>
        <time>2017-06-16T09:48:11Z</time>
      </trkpt>
      <trkpt lat="45.94487" lon="4.7325">
        <ele>175</ele>
        <time>2017-06-16T09:48:12Z</time>
      </trkpt>
      <trkpt lat="45.94486" lon="4.73241">
        <ele>175</ele>
        <time>2017-06-16T09:48:13Z</time>
      </trkpt>
      <trkpt lat="45.94486" lon="4.73233">
        <ele>175</ele>
        <time>2017-06-16T09:48:14Z</time>
      </trkpt>
      <trkpt lat="45.94486" lon="4.73224">
        <ele>175</ele>
        <time>2017-06-16T09:48:15Z</time>
      </trkpt>
      <trkpt lat="45.94486" lon="4.73214">
        <ele>175</ele>
        <time>2017-06-16T09:48:16Z</time>
      </trkpt>
      <trkpt lat="45.94484" lon="4.73204">
        <ele>175</ele>
        <time>2017-06-16T09:48:17Z</time>
      </trkpt>
      <trkpt lat="45.94482" lon="4.73194">
        <ele>174</ele>
        <time>2017-06-16T09:48:18Z</time>
      </trkpt>
      <trkpt lat="45.94481" lon="4.73184">
        <ele>174</ele>
        <time>2017-06-16T09:48:19Z</time>
      </trkpt>
      <trkpt lat="45.94479" lon="4.73173">
        <ele>174</ele>
        <time>2017-06-16T09:48:20Z</time>
      </trkpt>
      <trkpt lat="45.94477" lon="4.73163">
        <ele>173</ele>
        <time>2017-06-16T09:48:21Z</time>
      </trkpt>
      <trkpt lat="45.94476" lon="4.73152">
        <ele>172</ele>
        <time>2017-06-16T09:48:22Z</time>
      </trkpt>
      <trkpt lat="45.94474" lon="4.73142">
        <ele>172</ele>
        <time>2017-06-16T09:48:23Z</time>
      </trkpt>
      <trkpt lat="45.94473" lon="4.73131">
        <ele>172</ele>
        <time>2017-06-16T09:48:24Z</time>
      </trkpt>
      <trkpt lat="45.94472" lon="4.7312">
        <ele>172</ele>
        <time>2017-06-16T09:48:25Z</time>
      </trkpt>
      <trkpt lat="45.94471" lon="4.7311">
        <ele>172</ele>
        <time>2017-06-16T09:48:26Z</time>
      </trkpt>
      <trkpt lat="45.94469" lon="4.731">
        <ele>172</ele>
        <time>2017-06-16T09:48:27Z</time>
      </trkpt>
      <trkpt lat="45.94467" lon="4.73089">
        <ele>172</ele>
        <time>2017-06-16T09:48:28Z</time>
      </trkpt>
      <trkpt lat="45.94465" lon="4.7308">
        <ele>170</ele>
        <time>2017-06-16T09:48:29Z</time>
      </trkpt>
      <trkpt lat="45.94464" lon="4.7307">
        <ele>170</ele>
        <time>2017-06-16T09:48:30Z</time>
      </trkpt>
      <trkpt lat="45.94462" lon="4.73061">
        <ele>170</ele>
        <time>2017-06-16T09:48:31Z</time>
      </trkpt>
      <trkpt lat="45.94461" lon="4.73051">
        <ele>170</ele>
        <time>2017-06-16T09:48:32Z</time>
      </trkpt>
      <trkpt lat="45.9446" lon="4.73042">
        <ele>170</ele>
        <time>2017-06-16T09:48:33Z</time>
      </trkpt>
      <trkpt lat="45.94459" lon="4.73033">
        <ele>169</ele>
        <time>2017-06-16T09:48:34Z</time>
      </trkpt>
      <trkpt lat="45.94458" lon="4.73024">
        <ele>169</ele>
        <time>2017-06-16T09:48:35Z</time>
      </trkpt>
      <trkpt lat="45.94457" lon="4.73015">
        <ele>169</ele>
        <time>2017-06-16T09:48:36Z</time>
      </trkpt>
      <trkpt lat="45.94456" lon="4.73006">
        <ele>169</ele>
        <time>2017-06-16T09:48:37Z</time>
      </trkpt>
      <trkpt lat="45.94455" lon="4.72997">
        <ele>168</ele>
        <time>2017-06-16T09:48:38Z</time>
      </trkpt>
      <trkpt lat="45.94454" lon="4.72988">
        <ele>167</ele>
        <time>2017-06-16T09:48:39Z</time>
      </trkpt>
      <trkpt lat="45.94453" lon="4.72979">
        <ele>167</ele>
        <time>2017-06-16T09:48:40Z</time>
      </trkpt>
      <trkpt lat="45.94451" lon="4.7297">
        <ele>167</ele>
        <time>2017-06-16T09:48:41Z</time>
      </trkpt>
      <trkpt lat="45.9445" lon="4.72961">
        <ele>167</ele>
        <time>2017-06-16T09:48:42Z</time>
      </trkpt>
      <trkpt lat="45.94448" lon="4.72952">
        <ele>167</ele>
        <time>2017-06-16T09:48:43Z</time>
      </trkpt>
      <trkpt lat="45.94447" lon="4.72943">
        <ele>167</ele>
        <time>2017-06-16T09:48:44Z</time>
      </trkpt>
      <trkpt lat="45.94445" lon="4.72934">
        <ele>167</ele>
        <time>2017-06-16T09:48:45Z</time>
      </trkpt>
      <trkpt lat="45.94444" lon="4.72925">
        <ele>167</ele>
        <time>2017-06-16T09:48:46Z</time>
      </trkpt>
      <trkpt lat="45.94443" lon="4.72915">
        <ele>166</ele>
        <time>2017-06-16T09:48:47Z</time>
      </trkpt>
      <trkpt lat="45.94442" lon="4.72906">
        <ele>166</ele>
        <time>2017-06-16T09:48:48Z</time>
      </trkpt>
      <trkpt lat="45.94441" lon="4.72896">
        <ele>166</ele>
        <time>2017-06-16T09:48:49Z</time>
      </trkpt>
      <trkpt lat="45.94439" lon="4.72887">
        <ele>166</ele>
        <time>2017-06-16T09:48:50Z</time>
      </trkpt>
      <trkpt lat="45.94438" lon="4.72877">
        <ele>166</ele>
        <time>2017-06-16T09:48:51Z</time>
      </trkpt>
      <trkpt lat="45.94437" lon="4.72868">
        <ele>166</ele>
        <time>2017-06-16T09:48:52Z</time>
      </trkpt>
      <trkpt lat="45.94436" lon="4.72858">
        <ele>166</ele>
        <time>2017-06-16T09:48:53Z</time>
      </trkpt>
      <trkpt lat="45.94434" lon="4.72848">
        <ele>166</ele>
        <time>2017-06-16T09:48:54Z</time>
      </trkpt>
      <trkpt lat="45.94433" lon="4.72838">
        <ele>166</ele>
        <time>2017-06-16T09:48:55Z</time>
      </trkpt>
      <trkpt lat="45.94431" lon="4.72827">
        <ele>167</ele>
        <time>2017-06-16T09:48:56Z</time>
      </trkpt>
      <trkpt lat="45.9443" lon="4.72817">
        <ele>167</ele>
        <time>2017-06-16T09:48:57Z</time>
      </trkpt>
      <trkpt lat="45.94428" lon="4.72806">
        <ele>167</ele>
        <time>2017-06-16T09:48:58Z</time>
      </trkpt>
      <trkpt lat="45.94427" lon="4.72795">
        <ele>168</ele>
        <time>2017-06-16T09:48:59Z</time>
      </trkpt>
      <trkpt lat="45.94425" lon="4.72784">
        <ele>168</ele>
        <time>2017-06-16T09:49:00Z</time>
      </trkpt>
      <trkpt lat="45.94424" lon="4.72772">
        <ele>169</ele>
        <time>2017-06-16T09:49:01Z</time>
      </trkpt>
      <trkpt lat="45.94422" lon="4.72761">
        <ele>170</ele>
        <time>2017-06-16T09:49:02Z</time>
      </trkpt>
      <trkpt lat="45.94421" lon="4.7275">
        <ele>171</ele>
        <time>2017-06-16T09:49:03Z</time>
      </trkpt>
      <trkpt lat="45.94419" lon="4.72739">
        <ele>171</ele>
        <time>2017-06-16T09:49:04Z</time>
      </trkpt>
      <trkpt lat="45.94417" lon="4.72727">
        <ele>171</ele>
        <time>2017-06-16T09:49:05Z</time>
      </trkpt>
      <trkpt lat="45.94416" lon="4.72717">
        <ele>172</ele>
        <time>2017-06-16T09:49:06Z</time>
      </trkpt>
      <trkpt lat="45.94415" lon="4.72706">
        <ele>172</ele>
        <time>2017-06-16T09:49:07Z</time>
      </trkpt>
      <trkpt lat="45.94414" lon="4.72695">
        <ele>173</ele>
        <time>2017-06-16T09:49:08Z</time>
      </trkpt>
      <trkpt lat="45.94413" lon="4.72684">
        <ele>173</ele>
        <time>2017-06-16T09:49:09Z</time>
      </trkpt>
      <trkpt lat="45.94412" lon="4.72673">
        <ele>173</ele>
        <time>2017-06-16T09:49:10Z</time>
      </trkpt>
      <trkpt lat="45.94411" lon="4.72662">
        <ele>174</ele>
        <time>2017-06-16T09:49:11Z</time>
      </trkpt>
      <trkpt lat="45.94411" lon="4.72652">
        <ele>174</ele>
        <time>2017-06-16T09:49:12Z</time>
      </trkpt>
      <trkpt lat="45.94411" lon="4.72642">
        <ele>174</ele>
        <time>2017-06-16T09:49:13Z</time>
      </trkpt>
      <trkpt lat="45.9441" lon="4.72631">
        <ele>174</ele>
        <time>2017-06-16T09:49:14Z</time>
      </trkpt>
      <trkpt lat="45.94409" lon="4.72621">
        <ele>173</ele>
        <time>2017-06-16T09:49:15Z</time>
      </trkpt>
      <trkpt lat="45.94408" lon="4.72611">
        <ele>173</ele>
        <time>2017-06-16T09:49:16Z</time>
      </trkpt>
      <trkpt lat="45.94406" lon="4.72601">
        <ele>173</ele>
        <time>2017-06-16T09:49:17Z</time>
      </trkpt>
      <trkpt lat="45.94403" lon="4.7259">
        <ele>173</ele>
        <time>2017-06-16T09:49:18Z</time>
      </trkpt>
      <trkpt lat="45.94401" lon="4.7258">
        <ele>173</ele>
        <time>2017-06-16T09:49:19Z</time>
      </trkpt>
      <trkpt lat="45.94399" lon="4.7257">
        <ele>173</ele>
        <time>2017-06-16T09:49:20Z</time>
      </trkpt>
      <trkpt lat="45.94399" lon="4.72561">
        <ele>173</ele>
        <time>2017-06-16T09:49:21Z</time>
      </trkpt>
      <trkpt lat="45.94396" lon="4.72552">
        <ele>173</ele>
        <time>2017-06-16T09:49:22Z</time>
      </trkpt>
      <trkpt lat="45.94394" lon="4.72542">
        <ele>174</ele>
        <time>2017-06-16T09:49:23Z</time>
      </trkpt>
      <trkpt lat="45.94393" lon="4.72533">
        <ele>174</ele>
        <time>2017-06-16T09:49:24Z</time>
      </trkpt>
      <trkpt lat="45.94391" lon="4.72525">
        <ele>174</ele>
        <time>2017-06-16T09:49:25Z</time>
      </trkpt>
      <trkpt lat="45.94388" lon="4.72517">
        <ele>174</ele>
        <time>2017-06-16T09:49:26Z</time>
      </trkpt>
      <trkpt lat="45.94386" lon="4.72509">
        <ele>174</ele>
        <time>2017-06-16T09:49:27Z</time>
      </trkpt>
      <trkpt lat="45.94384" lon="4.72502">
        <ele>174</ele>
        <time>2017-06-16T09:49:28Z</time>
      </trkpt>
      <trkpt lat="45.9438" lon="4.72494">
        <ele>173</ele>
        <time>2017-06-16T09:49:29Z</time>
      </trkpt>
      <trkpt lat="45.94377" lon="4.72488">
        <ele>173</ele>
        <time>2017-06-16T09:49:30Z</time>
      </trkpt>
      <trkpt lat="45.94373" lon="4.7248">
        <ele>173</ele>
        <time>2017-06-16T09:49:31Z</time>
      </trkpt>
      <trkpt lat="45.9437" lon="4.72473">
        <ele>173</ele>
        <time>2017-06-16T09:49:32Z</time>
      </trkpt>
      <trkpt lat="45.94366" lon="4.72466">
        <ele>173</ele>
        <time>2017-06-16T09:49:33Z</time>
      </trkpt>
      <trkpt lat="45.94363" lon="4.72459">
        <ele>173</ele>
        <time>2017-06-16T09:49:34Z</time>
      </trkpt>
      <trkpt lat="45.94365" lon="4.72453">
        <ele>173</ele>
        <time>2017-06-16T09:49:35Z</time>
      </trkpt>
      <trkpt lat="45.94361" lon="4.72446">
        <ele>173</ele>
        <time>2017-06-16T09:49:36Z</time>
      </trkpt>
      <trkpt lat="45.9436" lon="4.72439">
        <ele>173</ele>
        <time>2017-06-16T09:49:37Z</time>
      </trkpt>
      <trkpt lat="45.94356" lon="4.72432">
        <ele>173</ele>
        <time>2017-06-16T09:49:38Z</time>
      </trkpt>
      <trkpt lat="45.94354" lon="4.72426">
        <ele>173</ele>
        <time>2017-06-16T09:49:39Z</time>
      </trkpt>
      <trkpt lat="45.9435" lon="4.72419">
        <ele>173</ele>
        <time>2017-06-16T09:49:40Z</time>
      </trkpt>
      <trkpt lat="45.94348" lon="4.72413">
        <ele>173</ele>
        <time>2017-06-16T09:49:41Z</time>
      </trkpt>
      <trkpt lat="45.94345" lon="4.72407">
        <ele>173</ele>
        <time>2017-06-16T09:49:42Z</time>
      </trkpt>
      <trkpt lat="45.94343" lon="4.72402">
        <ele>172</ele>
        <time>2017-06-16T09:49:43Z</time>
      </trkpt>
      <trkpt lat="45.9434" lon="4.72396">
        <ele>172</ele>
        <time>2017-06-16T09:49:44Z</time>
      </trkpt>
      <trkpt lat="45.94337" lon="4.7239">
        <ele>172</ele>
        <time>2017-06-16T09:49:45Z</time>
      </trkpt>
      <trkpt lat="45.94333" lon="4.72383">
        <ele>172</ele>
        <time>2017-06-16T09:49:46Z</time>
      </trkpt>
      <trkpt lat="45.9433" lon="4.72376">
        <ele>172</ele>
        <time>2017-06-16T09:49:47Z</time>
      </trkpt>
      <trkpt lat="45.94326" lon="4.72369">
        <ele>172</ele>
        <time>2017-06-16T09:49:48Z</time>
      </trkpt>
      <trkpt lat="45.94323" lon="4.72362">
        <ele>172</ele>
        <time>2017-06-16T09:49:49Z</time>
      </trkpt>
      <trkpt lat="45.94321" lon="4.72355">
        <ele>172</ele>
        <time>2017-06-16T09:49:50Z</time>
      </trkpt>
      <trkpt lat="45.94318" lon="4.72349">
        <ele>172</ele>
        <time>2017-06-16T09:49:51Z</time>
      </trkpt>
      <trkpt lat="45.94315" lon="4.72343">
        <ele>172</ele>
        <time>2017-06-16T09:49:52Z</time>
      </trkpt>
      <trkpt lat="45.94312" lon="4.72336">
        <ele>172</ele>
        <time>2017-06-16T09:49:53Z</time>
      </trkpt>
      <trkpt lat="45.94308" lon="4.7233">
        <ele>171</ele>
        <time>2017-06-16T09:49:54Z</time>
      </trkpt>
      <trkpt lat="45.94305" lon="4.72323">
        <ele>171</ele>
        <time>2017-06-16T09:49:55Z</time>
      </trkpt>
      <trkpt lat="45.94302" lon="4.72315">
        <ele>171</ele>
        <time>2017-06-16T09:49:56Z</time>
      </trkpt>
      <trkpt lat="45.94299" lon="4.72308">
        <ele>171</ele>
        <time>2017-06-16T09:49:57Z</time>
      </trkpt>
      <trkpt lat="45.94296" lon="4.72301">
        <ele>171</ele>
        <time>2017-06-16T09:49:58Z</time>
      </trkpt>
      <trkpt lat="45.94293" lon="4.72294">
        <ele>171</ele>
        <time>2017-06-16T09:49:59Z</time>
      </trkpt>
      <trkpt lat="45.9429" lon="4.72288">
        <ele>171</ele>
        <time>2017-06-16T09:50:00Z</time>
      </trkpt>
      <trkpt lat="45.94287" lon="4.72282">
        <ele>171</ele>
        <time>2017-06-16T09:50:01Z</time>
      </trkpt>
      <trkpt lat="45.94283" lon="4.72277">
        <ele>171</ele>
        <time>2017-06-16T09:50:02Z</time>
      </trkpt>
      <trkpt lat="45.94279" lon="4.72274">
        <ele>171</ele>
        <time>2017-06-16T09:50:03Z</time>
      </trkpt>
      <trkpt lat="45.94273" lon="4.72274">
        <ele>171</ele>
        <time>2017-06-16T09:50:04Z</time>
      </trkpt>
      <trkpt lat="45.94267" lon="4.72275">
        <ele>171</ele>
        <time>2017-06-16T09:50:05Z</time>
      </trkpt>
      <trkpt lat="45.94261" lon="4.72277">
        <ele>171</ele>
        <time>2017-06-16T09:50:06Z</time>
      </trkpt>
      <trkpt lat="45.94255" lon="4.72279">
        <ele>171</ele>
        <time>2017-06-16T09:50:07Z</time>
      </trkpt>
      <trkpt lat="45.94249" lon="4.72281">
        <ele>171</ele>
        <time>2017-06-16T09:50:08Z</time>
      </trkpt>
      <trkpt lat="45.94242" lon="4.72283">
        <ele>171</ele>
        <time>2017-06-16T09:50:09Z</time>
      </trkpt>
      <trkpt lat="45.94235" lon="4.72285">
        <ele>171</ele>
        <time>2017-06-16T09:50:10Z</time>
      </trkpt>
      <trkpt lat="45.94228" lon="4.72287">
        <ele>171</ele>
        <time>2017-06-16T09:50:11Z</time>
      </trkpt>
      <trkpt lat="45.94221" lon="4.72287">
        <ele>171</ele>
        <time>2017-06-16T09:50:12Z</time>
      </trkpt>
      <trkpt lat="45.94214" lon="4.72287">
        <ele>171</ele>
        <time>2017-06-16T09:50:13Z</time>
      </trkpt>
      <trkpt lat="45.94206" lon="4.72287">
        <ele>171</ele>
        <time>2017-06-16T09:50:14Z</time>
      </trkpt>
      <trkpt lat="45.94199" lon="4.72287">
        <ele>171</ele>
        <time>2017-06-16T09:50:15Z</time>
      </trkpt>
      <trkpt lat="45.94192" lon="4.72287">
        <ele>171</ele>
        <time>2017-06-16T09:50:16Z</time>
      </trkpt>
      <trkpt lat="45.94185" lon="4.72286">
        <ele>171</ele>
        <time>2017-06-16T09:50:17Z</time>
      </trkpt>
      <trkpt lat="45.94178" lon="4.72286">
        <ele>171</ele>
        <time>2017-06-16T09:50:18Z</time>
      </trkpt>
      <trkpt lat="45.94171" lon="4.72286">
        <ele>171</ele>
        <time>2017-06-16T09:50:19Z</time>
      </trkpt>
      <trkpt lat="45.94165" lon="4.72285">
        <ele>171</ele>
        <time>2017-06-16T09:50:20Z</time>
      </trkpt>
      <trkpt lat="45.94159" lon="4.72285">
        <ele>171</ele>
        <time>2017-06-16T09:50:21Z</time>
      </trkpt>
      <trkpt lat="45.94153" lon="4.72283">
        <ele>171</ele>
        <time>2017-06-16T09:50:22Z</time>
      </trkpt>
      <trkpt lat="45.94148" lon="4.7228">
        <ele>171</ele>
        <time>2017-06-16T09:50:23Z</time>
      </trkpt>
      <trkpt lat="45.94142" lon="4.72277">
        <ele>171</ele>
        <time>2017-06-16T09:50:24Z</time>
      </trkpt>
      <trkpt lat="45.94137" lon="4.72275">
        <ele>171</ele>
        <time>2017-06-16T09:50:25Z</time>
      </trkpt>
      <trkpt lat="45.94131" lon="4.72272">
        <ele>171</ele>
        <time>2017-06-16T09:50:26Z</time>
      </trkpt>
      <trkpt lat="45.94126" lon="4.72269">
        <ele>171</ele>
        <time>2017-06-16T09:50:27Z</time>
      </trkpt>
      <trkpt lat="45.9412" lon="4.72266">
        <ele>171</ele>
        <time>2017-06-16T09:50:28Z</time>
      </trkpt>
      <trkpt lat="45.94114" lon="4.72264">
        <ele>171</ele>
        <time>2017-06-16T09:50:29Z</time>
      </trkpt>
      <trkpt lat="45.94108" lon="4.72263">
        <ele>171</ele>
        <time>2017-06-16T09:50:30Z</time>
      </trkpt>
      <trkpt lat="45.94102" lon="4.72263">
        <ele>171</ele>
        <time>2017-06-16T09:50:31Z</time>
      </trkpt>
      <trkpt lat="45.94095" lon="4.72264">
        <ele>171</ele>
        <time>2017-06-16T09:50:32Z</time>
      </trkpt>
      <trkpt lat="45.94088" lon="4.72265">
        <ele>171</ele>
        <time>2017-06-16T09:50:33Z</time>
      </trkpt>
      <trkpt lat="45.94082" lon="4.72268">
        <ele>171</ele>
        <time>2017-06-16T09:50:34Z</time>
      </trkpt>
      <trkpt lat="45.94075" lon="4.72272">
        <ele>171</ele>
        <time>2017-06-16T09:50:35Z</time>
      </trkpt>
      <trkpt lat="45.94069" lon="4.72276">
        <ele>171</ele>
        <time>2017-06-16T09:50:36Z</time>
      </trkpt>
      <trkpt lat="45.94064" lon="4.72282">
        <ele>171</ele>
        <time>2017-06-16T09:50:37Z</time>
      </trkpt>
      <trkpt lat="45.94058" lon="4.72288">
        <ele>171</ele>
        <time>2017-06-16T09:50:38Z</time>
      </trkpt>
      <trkpt lat="45.94053" lon="4.72294">
        <ele>171</ele>
        <time>2017-06-16T09:50:39Z</time>
      </trkpt>
      <trkpt lat="45.94048" lon="4.72301">
        <ele>171</ele>
        <time>2017-06-16T09:50:40Z</time>
      </trkpt>
      <trkpt lat="45.94043" lon="4.72307">
        <ele>171</ele>
        <time>2017-06-16T09:50:41Z</time>
      </trkpt>
      <trkpt lat="45.94038" lon="4.72313">
        <ele>171</ele>
        <time>2017-06-16T09:50:42Z</time>
      </trkpt>
      <trkpt lat="45.94033" lon="4.72319">
        <ele>171</ele>
        <time>2017-06-16T09:50:43Z</time>
      </trkpt>
      <trkpt lat="45.94028" lon="4.72326">
        <ele>171</ele>
        <time>2017-06-16T09:50:44Z</time>
      </trkpt>
      <trkpt lat="45.94023" lon="4.72333">
        <ele>171</ele>
        <time>2017-06-16T09:50:45Z</time>
      </trkpt>
      <trkpt lat="45.94018" lon="4.72339">
        <ele>171</ele>
        <time>2017-06-16T09:50:46Z</time>
      </trkpt>
      <trkpt lat="45.94013" lon="4.72346">
        <ele>171</ele>
        <time>2017-06-16T09:50:47Z</time>
      </trkpt>
      <trkpt lat="45.94008" lon="4.72352">
        <ele>171</ele>
        <time>2017-06-16T09:50:48Z</time>
      </trkpt>
      <trkpt lat="45.94004" lon="4.72358">
        <ele>171</ele>
        <time>2017-06-16T09:50:49Z</time>
      </trkpt>
      <trkpt lat="45.93999" lon="4.72364">
        <ele>171</ele>
        <time>2017-06-16T09:50:50Z</time>
      </trkpt>
      <trkpt lat="45.93995" lon="4.7237">
        <ele>171</ele>
        <time>2017-06-16T09:50:51Z</time>
      </trkpt>
      <trkpt lat="45.9399" lon="4.72376">
        <ele>171</ele>
        <time>2017-06-16T09:50:52Z</time>
      </trkpt>
      <trkpt lat="45.93985" lon="4.72383">
        <ele>171</ele>
        <time>2017-06-16T09:50:53Z</time>
      </trkpt>
      <trkpt lat="45.9398" lon="4.72388">
        <ele>171</ele>
        <time>2017-06-16T09:50:54Z</time>
      </trkpt>
      <trkpt lat="45.93975" lon="4.72394">
        <ele>171</ele>
        <time>2017-06-16T09:50:55Z</time>
      </trkpt>
      <trkpt lat="45.9397" lon="4.72401">
        <ele>171</ele>
        <time>2017-06-16T09:50:56Z</time>
      </trkpt>
      <trkpt lat="45.93965" lon="4.72407">
        <ele>171</ele>
        <time>2017-06-16T09:50:57Z</time>
      </trkpt>
      <trkpt lat="45.93959" lon="4.72414">
        <ele>171</ele>
        <time>2017-06-16T09:50:58Z</time>
      </trkpt>
      <trkpt lat="45.93953" lon="4.7242">
        <ele>171</ele>
        <time>2017-06-16T09:50:59Z</time>
      </trkpt>
      <trkpt lat="45.93948" lon="4.72427">
        <ele>171</ele>
        <time>2017-06-16T09:51:00Z</time>
      </trkpt>
      <trkpt lat="45.93943" lon="4.72433">
        <ele>171</ele>
        <time>2017-06-16T09:51:01Z</time>
      </trkpt>
      <trkpt lat="45.93938" lon="4.7244">
        <ele>171</ele>
        <time>2017-06-16T09:51:02Z</time>
      </trkpt>
      <trkpt lat="45.93932" lon="4.72447">
        <ele>171</ele>
        <time>2017-06-16T09:51:03Z</time>
      </trkpt>
      <trkpt lat="45.93927" lon="4.72454">
        <ele>171</ele>
        <time>2017-06-16T09:51:04Z</time>
      </trkpt>
      <trkpt lat="45.93922" lon="4.72461">
        <ele>171</ele>
        <time>2017-06-16T09:51:05Z</time>
      </trkpt>
      <trkpt lat="45.93917" lon="4.72468">
        <ele>171</ele>
        <time>2017-06-16T09:51:06Z</time>
      </trkpt>
      <trkpt lat="45.93912" lon="4.72473">
        <ele>172</ele>
        <time>2017-06-16T09:51:07Z</time>
      </trkpt>
      <trkpt lat="45.93907" lon="4.72479">
        <ele>172</ele>
        <time>2017-06-16T09:51:08Z</time>
      </trkpt>
      <trkpt lat="45.93903" lon="4.72484">
        <ele>172</ele>
        <time>2017-06-16T09:51:09Z</time>
      </trkpt>
      <trkpt lat="45.93899" lon="4.72489">
        <ele>172</ele>
        <time>2017-06-16T09:51:10Z</time>
      </trkpt>
      <trkpt lat="45.93895" lon="4.72494">
        <ele>172</ele>
        <time>2017-06-16T09:51:11Z</time>
      </trkpt>
      <trkpt lat="45.93891" lon="4.72498">
        <ele>172</ele>
        <time>2017-06-16T09:51:12Z</time>
      </trkpt>
      <trkpt lat="45.93888" lon="4.72503">
        <ele>173</ele>
        <time>2017-06-16T09:51:13Z</time>
      </trkpt>
      <trkpt lat="45.93884" lon="4.72508">
        <ele>173</ele>
        <time>2017-06-16T09:51:14Z</time>
      </trkpt>
      <trkpt lat="45.9388" lon="4.72512">
        <ele>173</ele>
        <time>2017-06-16T09:51:15Z</time>
      </trkpt>
      <trkpt lat="45.93876" lon="4.72514">
        <ele>173</ele>
        <time>2017-06-16T09:51:16Z</time>
      </trkpt>
      <trkpt lat="45.9387" lon="4.72514">
        <ele>173</ele>
        <time>2017-06-16T09:51:17Z</time>
      </trkpt>
      <trkpt lat="45.93865" lon="4.72513">
        <ele>173</ele>
        <time>2017-06-16T09:51:18Z</time>
      </trkpt>
      <trkpt lat="45.93861" lon="4.72512">
        <ele>173</ele>
        <time>2017-06-16T09:51:19Z</time>
      </trkpt>
      <trkpt lat="45.93857" lon="4.72509">
        <ele>173</ele>
        <time>2017-06-16T09:51:20Z</time>
      </trkpt>
      <trkpt lat="45.93852" lon="4.72506">
        <ele>173</ele>
        <time>2017-06-16T09:51:21Z</time>
      </trkpt>
      <trkpt lat="45.93847" lon="4.72503">
        <ele>174</ele>
        <time>2017-06-16T09:51:22Z</time>
      </trkpt>
      <trkpt lat="45.93842" lon="4.72501">
        <ele>174</ele>
        <time>2017-06-16T09:51:23Z</time>
      </trkpt>
      <trkpt lat="45.93838" lon="4.72497">
        <ele>174</ele>
        <time>2017-06-16T09:51:24Z</time>
      </trkpt>
      <trkpt lat="45.93833" lon="4.72494">
        <ele>173</ele>
        <time>2017-06-16T09:51:25Z</time>
      </trkpt>
      <trkpt lat="45.93827" lon="4.72488">
        <ele>173</ele>
        <time>2017-06-16T09:51:26Z</time>
      </trkpt>
      <trkpt lat="45.93824" lon="4.7248">
        <ele>173</ele>
        <time>2017-06-16T09:51:27Z</time>
      </trkpt>
      <trkpt lat="45.93819" lon="4.72473">
        <ele>172</ele>
        <time>2017-06-16T09:51:28Z</time>
      </trkpt>
      <trkpt lat="45.93814" lon="4.72469">
        <ele>172</ele>
        <time>2017-06-16T09:51:29Z</time>
      </trkpt>
      <trkpt lat="45.93809" lon="4.72465">
        <ele>172</ele>
        <time>2017-06-16T09:51:30Z</time>
      </trkpt>
      <trkpt lat="45.93805" lon="4.72462">
        <ele>172</ele>
        <time>2017-06-16T09:51:31Z</time>
      </trkpt>
      <trkpt lat="45.93801" lon="4.72455">
        <ele>172</ele>
        <time>2017-06-16T09:51:32Z</time>
      </trkpt>
      <trkpt lat="45.93797" lon="4.7245">
        <ele>172</ele>
        <time>2017-06-16T09:51:33Z</time>
      </trkpt>
      <trkpt lat="45.93792" lon="4.72446">
        <ele>172</ele>
        <time>2017-06-16T09:51:34Z</time>
      </trkpt>
      <trkpt lat="45.93787" lon="4.72442">
        <ele>172</ele>
        <time>2017-06-16T09:51:35Z</time>
      </trkpt>
      <trkpt lat="45.93782" lon="4.72437">
        <ele>172</ele>
        <time>2017-06-16T09:51:36Z</time>
      </trkpt>
      <trkpt lat="45.93776" lon="4.72432">
        <ele>171</ele>
        <time>2017-06-16T09:51:37Z</time>
      </trkpt>
      <trkpt lat="45.93771" lon="4.72427">
        <ele>171</ele>
        <time>2017-06-16T09:51:38Z</time>
      </trkpt>
      <trkpt lat="45.93766" lon="4.72422">
        <ele>171</ele>
        <time>2017-06-16T09:51:39Z</time>
      </trkpt>
      <trkpt lat="45.93762" lon="4.72417">
        <ele>171</ele>
        <time>2017-06-16T09:51:40Z</time>
      </trkpt>
      <trkpt lat="45.93757" lon="4.72412">
        <ele>171</ele>
        <time>2017-06-16T09:51:41Z</time>
      </trkpt>
      <trkpt lat="45.93753" lon="4.72407">
        <ele>171</ele>
        <time>2017-06-16T09:51:42Z</time>
      </trkpt>
      <trkpt lat="45.93748" lon="4.72402">
        <ele>171</ele>
        <time>2017-06-16T09:51:43Z</time>
      </trkpt>
      <trkpt lat="45.93743" lon="4.72398">
        <ele>171</ele>
        <time>2017-06-16T09:51:44Z</time>
      </trkpt>
      <trkpt lat="45.93739" lon="4.72394">
        <ele>171</ele>
        <time>2017-06-16T09:51:45Z</time>
      </trkpt>
      <trkpt lat="45.93735" lon="4.72389">
        <ele>171</ele>
        <time>2017-06-16T09:51:46Z</time>
      </trkpt>
      <trkpt lat="45.93729" lon="4.72385">
        <ele>171</ele>
        <time>2017-06-16T09:51:47Z</time>
      </trkpt>
      <trkpt lat="45.93725" lon="4.7238">
        <ele>171</ele>
        <time>2017-06-16T09:51:48Z</time>
      </trkpt>
      <trkpt lat="45.93721" lon="4.72375">
        <ele>171</ele>
        <time>2017-06-16T09:51:49Z</time>
      </trkpt>
      <trkpt lat="45.93717" lon="4.72371">
        <ele>172</ele>
        <time>2017-06-16T09:51:50Z</time>
      </trkpt>
      <trkpt lat="45.93713" lon="4.72366">
        <ele>172</ele>
        <time>2017-06-16T09:51:51Z</time>
      </trkpt>
      <trkpt lat="45.93708" lon="4.72362">
        <ele>171</ele>
        <time>2017-06-16T09:51:52Z</time>
      </trkpt>
      <trkpt lat="45.93704" lon="4.72359">
        <ele>171</ele>
        <time>2017-06-16T09:51:53Z</time>
      </trkpt>
      <trkpt lat="45.93699" lon="4.72354">
        <ele>171</ele>
        <time>2017-06-16T09:51:54Z</time>
      </trkpt>
      <trkpt lat="45.93694" lon="4.7235">
        <ele>171</ele>
        <time>2017-06-16T09:51:55Z</time>
      </trkpt>
      <trkpt lat="45.9369" lon="4.72346">
        <ele>171</ele>
        <time>2017-06-16T09:51:56Z</time>
      </trkpt>
      <trkpt lat="45.93685" lon="4.72342">
        <ele>171</ele>
        <time>2017-06-16T09:51:57Z</time>
      </trkpt>
      <trkpt lat="45.93678" lon="4.72335">
        <ele>171</ele>
        <time>2017-06-16T09:51:59Z</time>
      </trkpt>
      <trkpt lat="45.93673" lon="4.72331">
        <ele>171</ele>
        <time>2017-06-16T09:52:00Z</time>
      </trkpt>
      <trkpt lat="45.9367" lon="4.72326">
        <ele>171</ele>
        <time>2017-06-16T09:52:01Z</time>
      </trkpt>
      <trkpt lat="45.93667" lon="4.72322">
        <ele>171</ele>
        <time>2017-06-16T09:52:02Z</time>
      </trkpt>
      <trkpt lat="45.93662" lon="4.72318">
        <ele>172</ele>
        <time>2017-06-16T09:52:03Z</time>
      </trkpt>
      <trkpt lat="45.93658" lon="4.72313">
        <ele>172</ele>
        <time>2017-06-16T09:52:04Z</time>
      </trkpt>
      <trkpt lat="45.93653" lon="4.72307">
        <ele>172</ele>
        <time>2017-06-16T09:52:05Z</time>
      </trkpt>
      <trkpt lat="45.93649" lon="4.72303">
        <ele>172</ele>
        <time>2017-06-16T09:52:06Z</time>
      </trkpt>
      <trkpt lat="45.93644" lon="4.72298">
        <ele>172</ele>
        <time>2017-06-16T09:52:07Z</time>
      </trkpt>
      <trkpt lat="45.9364" lon="4.72293">
        <ele>172</ele>
        <time>2017-06-16T09:52:08Z</time>
      </trkpt>
      <trkpt lat="45.93635" lon="4.72288">
        <ele>172</ele>
        <time>2017-06-16T09:52:09Z</time>
      </trkpt>
      <trkpt lat="45.93631" lon="4.72283">
        <ele>172</ele>
        <time>2017-06-16T09:52:10Z</time>
      </trkpt>
      <trkpt lat="45.93627" lon="4.72279">
        <ele>172</ele>
        <time>2017-06-16T09:52:11Z</time>
      </trkpt>
      <trkpt lat="45.93623" lon="4.72275">
        <ele>172</ele>
        <time>2017-06-16T09:52:12Z</time>
      </trkpt>
      <trkpt lat="45.93619" lon="4.72271">
        <ele>172</ele>
        <time>2017-06-16T09:52:13Z</time>
      </trkpt>
      <trkpt lat="45.93615" lon="4.72267">
        <ele>172</ele>
        <time>2017-06-16T09:52:14Z</time>
      </trkpt>
      <trkpt lat="45.93611" lon="4.72264">
        <ele>172</ele>
        <time>2017-06-16T09:52:15Z</time>
      </trkpt>
      <trkpt lat="45.93607" lon="4.7226">
        <ele>173</ele>
        <time>2017-06-16T09:52:16Z</time>
      </trkpt>
      <trkpt lat="45.93602" lon="4.72256">
        <ele>173</ele>
        <time>2017-06-16T09:52:17Z</time>
      </trkpt>
      <trkpt lat="45.93596" lon="4.72251">
        <ele>173</ele>
        <time>2017-06-16T09:52:18Z</time>
      </trkpt>
      <trkpt lat="45.93591" lon="4.72247">
        <ele>173</ele>
        <time>2017-06-16T09:52:19Z</time>
      </trkpt>
      <trkpt lat="45.93588" lon="4.72243">
        <ele>173</ele>
        <time>2017-06-16T09:52:20Z</time>
      </trkpt>
      <trkpt lat="45.93581" lon="4.72236">
        <ele>173</ele>
        <time>2017-06-16T09:52:22Z</time>
      </trkpt>
      <trkpt lat="45.93578" lon="4.72232">
        <ele>173</ele>
        <time>2017-06-16T09:52:23Z</time>
      </trkpt>
      <trkpt lat="45.93572" lon="4.72227">
        <ele>173</ele>
        <time>2017-06-16T09:52:25Z</time>
      </trkpt>
      <trkpt lat="45.93569" lon="4.72225">
        <ele>173</ele>
        <time>2017-06-16T09:52:26Z</time>
      </trkpt>
      <trkpt lat="45.93564" lon="4.72222">
        <ele>173</ele>
        <time>2017-06-16T09:52:28Z</time>
      </trkpt>
      <trkpt lat="45.93561" lon="4.72221">
        <ele>173</ele>
        <time>2017-06-16T09:52:29Z</time>
      </trkpt>
      <trkpt lat="45.93553" lon="4.72224">
        <ele>173</ele>
        <time>2017-06-16T09:52:31Z</time>
      </trkpt>
      <trkpt lat="45.93549" lon="4.72228">
        <ele>172</ele>
        <time>2017-06-16T09:52:32Z</time>
      </trkpt>
      <trkpt lat="45.93544" lon="4.72237">
        <ele>172</ele>
        <time>2017-06-16T09:52:34Z</time>
      </trkpt>
      <trkpt lat="45.93542" lon="4.72243">
        <ele>172</ele>
        <time>2017-06-16T09:52:35Z</time>
      </trkpt>
      <trkpt lat="45.93539" lon="4.72249">
        <ele>172</ele>
        <time>2017-06-16T09:52:36Z</time>
      </trkpt>
      <trkpt lat="45.93536" lon="4.72256">
        <ele>172</ele>
        <time>2017-06-16T09:52:37Z</time>
      </trkpt>
      <trkpt lat="45.93533" lon="4.72262">
        <ele>172</ele>
        <time>2017-06-16T09:52:38Z</time>
      </trkpt>
      <trkpt lat="45.93531" lon="4.72267">
        <ele>172</ele>
        <time>2017-06-16T09:52:39Z</time>
      </trkpt>
      <trkpt lat="45.93528" lon="4.72274">
        <ele>172</ele>
        <time>2017-06-16T09:52:40Z</time>
      </trkpt>
      <trkpt lat="45.93525" lon="4.72279">
        <ele>172</ele>
        <time>2017-06-16T09:52:41Z</time>
      </trkpt>
      <trkpt lat="45.93523" lon="4.72285">
        <ele>172</ele>
        <time>2017-06-16T09:52:42Z</time>
      </trkpt>
      <trkpt lat="45.9352" lon="4.72291">
        <ele>172</ele>
        <time>2017-06-16T09:52:43Z</time>
      </trkpt>
      <trkpt lat="45.93517" lon="4.72297">
        <ele>172</ele>
        <time>2017-06-16T09:52:44Z</time>
      </trkpt>
      <trkpt lat="45.93514" lon="4.72303">
        <ele>173</ele>
        <time>2017-06-16T09:52:45Z</time>
      </trkpt>
      <trkpt lat="45.9351" lon="4.72309">
        <ele>173</ele>
        <time>2017-06-16T09:52:46Z</time>
      </trkpt>
      <trkpt lat="45.93506" lon="4.72315">
        <ele>173</ele>
        <time>2017-06-16T09:52:47Z</time>
      </trkpt>
      <trkpt lat="45.93502" lon="4.72321">
        <ele>173</ele>
        <time>2017-06-16T09:52:48Z</time>
      </trkpt>
      <trkpt lat="45.93497" lon="4.72327">
        <ele>173</ele>
        <time>2017-06-16T09:52:49Z</time>
      </trkpt>
      <trkpt lat="45.93493" lon="4.72334">
        <ele>173</ele>
        <time>2017-06-16T09:52:50Z</time>
      </trkpt>
      <trkpt lat="45.93489" lon="4.7234">
        <ele>173</ele>
        <time>2017-06-16T09:52:51Z</time>
      </trkpt>
      <trkpt lat="45.93485" lon="4.72345">
        <ele>173</ele>
        <time>2017-06-16T09:52:52Z</time>
      </trkpt>
      <trkpt lat="45.9348" lon="4.72352">
        <ele>173</ele>
        <time>2017-06-16T09:52:53Z</time>
      </trkpt>
      <trkpt lat="45.93475" lon="4.72358">
        <ele>173</ele>
        <time>2017-06-16T09:52:54Z</time>
      </trkpt>
      <trkpt lat="45.93471" lon="4.72364">
        <ele>173</ele>
        <time>2017-06-16T09:52:55Z</time>
      </trkpt>
      <trkpt lat="45.93466" lon="4.7237">
        <ele>173</ele>
        <time>2017-06-16T09:52:56Z</time>
      </trkpt>
      <trkpt lat="45.93461" lon="4.72375">
        <ele>173</ele>
        <time>2017-06-16T09:52:57Z</time>
      </trkpt>
      <trkpt lat="45.93457" lon="4.72381">
        <ele>173</ele>
        <time>2017-06-16T09:52:58Z</time>
      </trkpt>
      <trkpt lat="45.93452" lon="4.72386">
        <ele>173</ele>
        <time>2017-06-16T09:52:59Z</time>
      </trkpt>
      <trkpt lat="45.93447" lon="4.7239">
        <ele>173</ele>
        <time>2017-06-16T09:53:00Z</time>
      </trkpt>
      <trkpt lat="45.93442" lon="4.72394">
        <ele>173</ele>
        <time>2017-06-16T09:53:01Z</time>
      </trkpt>
      <trkpt lat="45.93437" lon="4.72397">
        <ele>173</ele>
        <time>2017-06-16T09:53:02Z</time>
      </trkpt>
      <trkpt lat="45.93432" lon="4.72401">
        <ele>174</ele>
        <time>2017-06-16T09:53:03Z</time>
      </trkpt>
      <trkpt lat="45.93426" lon="4.72404">
        <ele>174</ele>
        <time>2017-06-16T09:53:04Z</time>
      </trkpt>
      <trkpt lat="45.93421" lon="4.72406">
        <ele>174</ele>
        <time>2017-06-16T09:53:05Z</time>
      </trkpt>
      <trkpt lat="45.93416" lon="4.72407">
        <ele>174</ele>
        <time>2017-06-16T09:53:06Z</time>
      </trkpt>
      <trkpt lat="45.93411" lon="4.72408">
        <ele>174</ele>
        <time>2017-06-16T09:53:07Z</time>
      </trkpt>
      <trkpt lat="45.93406" lon="4.72409">
        <ele>174</ele>
        <time>2017-06-16T09:53:08Z</time>
      </trkpt>
      <trkpt lat="45.93402" lon="4.72408">
        <ele>174</ele>
        <time>2017-06-16T09:53:09Z</time>
      </trkpt>
      <trkpt lat="45.93397" lon="4.72408">
        <ele>174</ele>
        <time>2017-06-16T09:53:10Z</time>
      </trkpt>
      <trkpt lat="45.93392" lon="4.72408">
        <ele>174</ele>
        <time>2017-06-16T09:53:11Z</time>
      </trkpt>
      <trkpt lat="45.93387" lon="4.72412">
        <ele>174</ele>
        <time>2017-06-16T09:53:12Z</time>
      </trkpt>
      <trkpt lat="45.93384" lon="4.72418">
        <ele>173</ele>
        <time>2017-06-16T09:53:13Z</time>
      </trkpt>
      <trkpt lat="45.93383" lon="4.72425">
        <ele>173</ele>
        <time>2017-06-16T09:53:14Z</time>
      </trkpt>
      <trkpt lat="45.93385" lon="4.72433">
        <ele>173</ele>
        <time>2017-06-16T09:53:15Z</time>
      </trkpt>
      <trkpt lat="45.93387" lon="4.72439">
        <ele>173</ele>
        <time>2017-06-16T09:53:16Z</time>
      </trkpt>
      <trkpt lat="45.9339" lon="4.72446">
        <ele>173</ele>
        <time>2017-06-16T09:53:17Z</time>
      </trkpt>
      <trkpt lat="45.93391" lon="4.72453">
        <ele>173</ele>
        <time>2017-06-16T09:53:18Z</time>
      </trkpt>
      <trkpt lat="45.93391" lon="4.7246">
        <ele>173</ele>
        <time>2017-06-16T09:53:19Z</time>
      </trkpt>
      <trkpt lat="45.9339" lon="4.72466">
        <ele>173</ele>
        <time>2017-06-16T09:53:20Z</time>
      </trkpt>
      <trkpt lat="45.93386" lon="4.72471">
        <ele>173</ele>
        <time>2017-06-16T09:53:21Z</time>
      </trkpt>
      <trkpt lat="45.9338" lon="4.72476">
        <ele>173</ele>
        <time>2017-06-16T09:53:22Z</time>
      </trkpt>
      <trkpt lat="45.93376" lon="4.72481">
        <ele>173</ele>
        <time>2017-06-16T09:53:23Z</time>
      </trkpt>
      <trkpt lat="45.93371" lon="4.72486">
        <ele>173</ele>
        <time>2017-06-16T09:53:24Z</time>
      </trkpt>
      <trkpt lat="45.93367" lon="4.7249">
        <ele>173</ele>
        <time>2017-06-16T09:53:25Z</time>
      </trkpt>
      <trkpt lat="45.93362" lon="4.72496">
        <ele>173</ele>
        <time>2017-06-16T09:53:26Z</time>
      </trkpt>
      <trkpt lat="45.93358" lon="4.72501">
        <ele>172</ele>
        <time>2017-06-16T09:53:27Z</time>
      </trkpt>
      <trkpt lat="45.93355" lon="4.72507">
        <ele>172</ele>
        <time>2017-06-16T09:53:28Z</time>
      </trkpt>
      <trkpt lat="45.93351" lon="4.72512">
        <ele>172</ele>
        <time>2017-06-16T09:53:29Z</time>
      </trkpt>
      <trkpt lat="45.93347" lon="4.72517">
        <ele>172</ele>
        <time>2017-06-16T09:53:30Z</time>
      </trkpt>
      <trkpt lat="45.93343" lon="4.72522">
        <ele>172</ele>
        <time>2017-06-16T09:53:31Z</time>
      </trkpt>
      <trkpt lat="45.93339" lon="4.72527">
        <ele>172</ele>
        <time>2017-06-16T09:53:32Z</time>
      </trkpt>
      <trkpt lat="45.93335" lon="4.72532">
        <ele>172</ele>
        <time>2017-06-16T09:53:33Z</time>
      </trkpt>
      <trkpt lat="45.9333" lon="4.72537">
        <ele>172</ele>
        <time>2017-06-16T09:53:34Z</time>
      </trkpt>
      <trkpt lat="45.93326" lon="4.72542">
        <ele>172</ele>
        <time>2017-06-16T09:53:35Z</time>
      </trkpt>
      <trkpt lat="45.93321" lon="4.72547">
        <ele>172</ele>
        <time>2017-06-16T09:53:36Z</time>
      </trkpt>
      <trkpt lat="45.93317" lon="4.72552">
        <ele>172</ele>
        <time>2017-06-16T09:53:37Z</time>
      </trkpt>
      <trkpt lat="45.93312" lon="4.72557">
        <ele>172</ele>
        <time>2017-06-16T09:53:38Z</time>
      </trkpt>
      <trkpt lat="45.93307" lon="4.72562">
        <ele>171</ele>
        <time>2017-06-16T09:53:39Z</time>
      </trkpt>
      <trkpt lat="45.93302" lon="4.72567">
        <ele>171</ele>
        <time>2017-06-16T09:53:40Z</time>
      </trkpt>
      <trkpt lat="45.93298" lon="4.72572">
        <ele>171</ele>
        <time>2017-06-16T09:53:41Z</time>
      </trkpt>
      <trkpt lat="45.93293" lon="4.72576">
        <ele>171</ele>
        <time>2017-06-16T09:53:42Z</time>
      </trkpt>
      <trkpt lat="45.93289" lon="4.72581">
        <ele>171</ele>
        <time>2017-06-16T09:53:43Z</time>
      </trkpt>
      <trkpt lat="45.93285" lon="4.72585">
        <ele>170</ele>
        <time>2017-06-16T09:53:44Z</time>
      </trkpt>
      <trkpt lat="45.93281" lon="4.7259">
        <ele>170</ele>
        <time>2017-06-16T09:53:45Z</time>
      </trkpt>
      <trkpt lat="45.93276" lon="4.72594">
        <ele>170</ele>
        <time>2017-06-16T09:53:46Z</time>
      </trkpt>
      <trkpt lat="45.93272" lon="4.726">
        <ele>170</ele>
        <time>2017-06-16T09:53:47Z</time>
      </trkpt>
      <trkpt lat="45.93268" lon="4.72605">
        <ele>170</ele>
        <time>2017-06-16T09:53:48Z</time>
      </trkpt>
      <trkpt lat="45.93263" lon="4.72611">
        <ele>170</ele>
        <time>2017-06-16T09:53:49Z</time>
      </trkpt>
      <trkpt lat="45.93258" lon="4.72616">
        <ele>170</ele>
        <time>2017-06-16T09:53:50Z</time>
      </trkpt>
      <trkpt lat="45.93254" lon="4.72621">
        <ele>170</ele>
        <time>2017-06-16T09:53:51Z</time>
      </trkpt>
      <trkpt lat="45.93249" lon="4.72626">
        <ele>170</ele>
        <time>2017-06-16T09:53:52Z</time>
      </trkpt>
      <trkpt lat="45.93245" lon="4.72632">
        <ele>170</ele>
        <time>2017-06-16T09:53:53Z</time>
      </trkpt>
      <trkpt lat="45.93241" lon="4.72638">
        <ele>170</ele>
        <time>2017-06-16T09:53:54Z</time>
      </trkpt>
      <trkpt lat="45.93236" lon="4.72643">
        <ele>170</ele>
        <time>2017-06-16T09:53:55Z</time>
      </trkpt>
      <trkpt lat="45.93232" lon="4.72648">
        <ele>170</ele>
        <time>2017-06-16T09:53:56Z</time>
      </trkpt>
      <trkpt lat="45.93227" lon="4.72653">
        <ele>170</ele>
        <time>2017-06-16T09:53:57Z</time>
      </trkpt>
      <trkpt lat="45.93223" lon="4.72657">
        <ele>170</ele>
        <time>2017-06-16T09:53:58Z</time>
      </trkpt>
      <trkpt lat="45.93219" lon="4.72662">
        <ele>170</ele>
        <time>2017-06-16T09:53:59Z</time>
      </trkpt>
      <trkpt lat="45.93214" lon="4.72666">
        <ele>170</ele>
        <time>2017-06-16T09:54:00Z</time>
      </trkpt>
      <trkpt lat="45.93209" lon="4.72671">
        <ele>169</ele>
        <time>2017-06-16T09:54:01Z</time>
      </trkpt>
      <trkpt lat="45.93204" lon="4.72676">
        <ele>169</ele>
        <time>2017-06-16T09:54:02Z</time>
      </trkpt>
      <trkpt lat="45.93199" lon="4.72681">
        <ele>169</ele>
        <time>2017-06-16T09:54:03Z</time>
      </trkpt>
      <trkpt lat="45.93194" lon="4.72687">
        <ele>169</ele>
        <time>2017-06-16T09:54:04Z</time>
      </trkpt>
      <trkpt lat="45.93188" lon="4.72694">
        <ele>169</ele>
        <time>2017-06-16T09:54:05Z</time>
      </trkpt>
      <trkpt lat="45.93183" lon="4.727">
        <ele>169</ele>
        <time>2017-06-16T09:54:06Z</time>
      </trkpt>
      <trkpt lat="45.93178" lon="4.72706">
        <ele>169</ele>
        <time>2017-06-16T09:54:07Z</time>
      </trkpt>
      <trkpt lat="45.93173" lon="4.72712">
        <ele>170</ele>
        <time>2017-06-16T09:54:08Z</time>
      </trkpt>
      <trkpt lat="45.93169" lon="4.72718">
        <ele>170</ele>
        <time>2017-06-16T09:54:09Z</time>
      </trkpt>
      <trkpt lat="45.93164" lon="4.72723">
        <ele>170</ele>
        <time>2017-06-16T09:54:10Z</time>
      </trkpt>
      <trkpt lat="45.93159" lon="4.72728">
        <ele>170</ele>
        <time>2017-06-16T09:54:11Z</time>
      </trkpt>
      <trkpt lat="45.93154" lon="4.72733">
        <ele>170</ele>
        <time>2017-06-16T09:54:12Z</time>
      </trkpt>
      <trkpt lat="45.9315" lon="4.72739">
        <ele>170</ele>
        <time>2017-06-16T09:54:13Z</time>
      </trkpt>
      <trkpt lat="45.93145" lon="4.72745">
        <ele>170</ele>
        <time>2017-06-16T09:54:14Z</time>
      </trkpt>
      <trkpt lat="45.93141" lon="4.7275">
        <ele>171</ele>
        <time>2017-06-16T09:54:15Z</time>
      </trkpt>
      <trkpt lat="45.93136" lon="4.72756">
        <ele>171</ele>
        <time>2017-06-16T09:54:16Z</time>
      </trkpt>
      <trkpt lat="45.93131" lon="4.72762">
        <ele>171</ele>
        <time>2017-06-16T09:54:17Z</time>
      </trkpt>
      <trkpt lat="45.93126" lon="4.72767">
        <ele>171</ele>
        <time>2017-06-16T09:54:18Z</time>
      </trkpt>
      <trkpt lat="45.93121" lon="4.72773">
        <ele>171</ele>
        <time>2017-06-16T09:54:19Z</time>
      </trkpt>
      <trkpt lat="45.93117" lon="4.7278">
        <ele>171</ele>
        <time>2017-06-16T09:54:20Z</time>
      </trkpt>
      <trkpt lat="45.93112" lon="4.72786">
        <ele>171</ele>
        <time>2017-06-16T09:54:21Z</time>
      </trkpt>
      <trkpt lat="45.93108" lon="4.72793">
        <ele>171</ele>
        <time>2017-06-16T09:54:22Z</time>
      </trkpt>
      <trkpt lat="45.93103" lon="4.72799">
        <ele>171</ele>
        <time>2017-06-16T09:54:23Z</time>
      </trkpt>
      <trkpt lat="45.93099" lon="4.72804">
        <ele>171</ele>
        <time>2017-06-16T09:54:24Z</time>
      </trkpt>
      <trkpt lat="45.93095" lon="4.72809">
        <ele>172</ele>
        <time>2017-06-16T09:54:25Z</time>
      </trkpt>
      <trkpt lat="45.93091" lon="4.72813">
        <ele>172</ele>
        <time>2017-06-16T09:54:26Z</time>
      </trkpt>
      <trkpt lat="45.93086" lon="4.72818">
        <ele>172</ele>
        <time>2017-06-16T09:54:27Z</time>
      </trkpt>
      <trkpt lat="45.93082" lon="4.72822">
        <ele>173</ele>
        <time>2017-06-16T09:54:28Z</time>
      </trkpt>
      <trkpt lat="45.93078" lon="4.72826">
        <ele>173</ele>
        <time>2017-06-16T09:54:29Z</time>
      </trkpt>
      <trkpt lat="45.93073" lon="4.72831">
        <ele>173</ele>
        <time>2017-06-16T09:54:30Z</time>
      </trkpt>
      <trkpt lat="45.9307" lon="4.72835">
        <ele>173</ele>
        <time>2017-06-16T09:54:31Z</time>
      </trkpt>
      <trkpt lat="45.93066" lon="4.72839">
        <ele>173</ele>
        <time>2017-06-16T09:54:32Z</time>
      </trkpt>
      <trkpt lat="45.93062" lon="4.72845">
        <ele>172</ele>
        <time>2017-06-16T09:54:33Z</time>
      </trkpt>
      <trkpt lat="45.9306" lon="4.7285">
        <ele>172</ele>
        <time>2017-06-16T09:54:34Z</time>
      </trkpt>
      <trkpt lat="45.93052" lon="4.72854">
        <ele>172</ele>
        <time>2017-06-16T09:54:35Z</time>
      </trkpt>
      <trkpt lat="45.93046" lon="4.72863">
        <ele>172</ele>
        <time>2017-06-16T09:54:36Z</time>
      </trkpt>
      <trkpt lat="45.93041" lon="4.72868">
        <ele>172</ele>
        <time>2017-06-16T09:54:37Z</time>
      </trkpt>
      <trkpt lat="45.93036" lon="4.72874">
        <ele>172</ele>
        <time>2017-06-16T09:54:38Z</time>
      </trkpt>
      <trkpt lat="45.93031" lon="4.7288">
        <ele>172</ele>
        <time>2017-06-16T09:54:39Z</time>
      </trkpt>
      <trkpt lat="45.93026" lon="4.72885">
        <ele>172</ele>
        <time>2017-06-16T09:54:40Z</time>
      </trkpt>
      <trkpt lat="45.93021" lon="4.72891">
        <ele>172</ele>
        <time>2017-06-16T09:54:41Z</time>
      </trkpt>
      <trkpt lat="45.93017" lon="4.72897">
        <ele>172</ele>
        <time>2017-06-16T09:54:42Z</time>
      </trkpt>
      <trkpt lat="45.93012" lon="4.72903">
        <ele>172</ele>
        <time>2017-06-16T09:54:43Z</time>
      </trkpt>
      <trkpt lat="45.93008" lon="4.72908">
        <ele>171</ele>
        <time>2017-06-16T09:54:44Z</time>
      </trkpt>
      <trkpt lat="45.93004" lon="4.72913">
        <ele>171</ele>
        <time>2017-06-16T09:54:45Z</time>
      </trkpt>
      <trkpt lat="45.93" lon="4.72919">
        <ele>171</ele>
        <time>2017-06-16T09:54:46Z</time>
      </trkpt>
      <trkpt lat="45.92996" lon="4.72924">
        <ele>171</ele>
        <time>2017-06-16T09:54:47Z</time>
      </trkpt>
      <trkpt lat="45.92992" lon="4.72929">
        <ele>171</ele>
        <time>2017-06-16T09:54:48Z</time>
      </trkpt>
      <trkpt lat="45.92987" lon="4.72934">
        <ele>171</ele>
        <time>2017-06-16T09:54:49Z</time>
      </trkpt>
      <trkpt lat="45.92982" lon="4.7294">
        <ele>171</ele>
        <time>2017-06-16T09:54:50Z</time>
      </trkpt>
      <trkpt lat="45.92978" lon="4.72945">
        <ele>171</ele>
        <time>2017-06-16T09:54:51Z</time>
      </trkpt>
      <trkpt lat="45.92972" lon="4.72951">
        <ele>171</ele>
        <time>2017-06-16T09:54:52Z</time>
      </trkpt>
      <trkpt lat="45.92967" lon="4.72958">
        <ele>171</ele>
        <time>2017-06-16T09:54:53Z</time>
      </trkpt>
      <trkpt lat="45.92962" lon="4.72965">
        <ele>171</ele>
        <time>2017-06-16T09:54:54Z</time>
      </trkpt>
      <trkpt lat="45.92957" lon="4.72972">
        <ele>171</ele>
        <time>2017-06-16T09:54:55Z</time>
      </trkpt>
      <trkpt lat="45.92952" lon="4.72978">
        <ele>171</ele>
        <time>2017-06-16T09:54:56Z</time>
      </trkpt>
      <trkpt lat="45.92947" lon="4.72984">
        <ele>171</ele>
        <time>2017-06-16T09:54:57Z</time>
      </trkpt>
      <trkpt lat="45.92942" lon="4.7299">
        <ele>171</ele>
        <time>2017-06-16T09:54:58Z</time>
      </trkpt>
      <trkpt lat="45.92937" lon="4.72995">
        <ele>171</ele>
        <time>2017-06-16T09:54:59Z</time>
      </trkpt>
      <trkpt lat="45.92932" lon="4.73001">
        <ele>171</ele>
        <time>2017-06-16T09:55:00Z</time>
      </trkpt>
      <trkpt lat="45.92928" lon="4.73006">
        <ele>172</ele>
        <time>2017-06-16T09:55:01Z</time>
      </trkpt>
      <trkpt lat="45.92923" lon="4.73011">
        <ele>172</ele>
        <time>2017-06-16T09:55:02Z</time>
      </trkpt>
      <trkpt lat="45.92919" lon="4.73015">
        <ele>172</ele>
        <time>2017-06-16T09:55:03Z</time>
      </trkpt>
      <trkpt lat="45.92915" lon="4.7302">
        <ele>172</ele>
        <time>2017-06-16T09:55:04Z</time>
      </trkpt>
      <trkpt lat="45.92912" lon="4.73025">
        <ele>172</ele>
        <time>2017-06-16T09:55:05Z</time>
      </trkpt>
      <trkpt lat="45.92908" lon="4.7303">
        <ele>172</ele>
        <time>2017-06-16T09:55:06Z</time>
      </trkpt>
      <trkpt lat="45.92904" lon="4.73036">
        <ele>172</ele>
        <time>2017-06-16T09:55:07Z</time>
      </trkpt>
      <trkpt lat="45.92901" lon="4.73041">
        <ele>172</ele>
        <time>2017-06-16T09:55:08Z</time>
      </trkpt>
      <trkpt lat="45.92897" lon="4.73047">
        <ele>172</ele>
        <time>2017-06-16T09:55:09Z</time>
      </trkpt>
      <trkpt lat="45.92894" lon="4.73053">
        <ele>172</ele>
        <time>2017-06-16T09:55:10Z</time>
      </trkpt>
      <trkpt lat="45.9289" lon="4.73058">
        <ele>172</ele>
        <time>2017-06-16T09:55:11Z</time>
      </trkpt>
      <trkpt lat="45.92886" lon="4.73063">
        <ele>172</ele>
        <time>2017-06-16T09:55:12Z</time>
      </trkpt>
      <trkpt lat="45.92882" lon="4.73069">
        <ele>172</ele>
        <time>2017-06-16T09:55:13Z</time>
      </trkpt>
      <trkpt lat="45.92879" lon="4.73074">
        <ele>172</ele>
        <time>2017-06-16T09:55:14Z</time>
      </trkpt>
      <trkpt lat="45.92876" lon="4.7308">
        <ele>172</ele>
        <time>2017-06-16T09:55:15Z</time>
      </trkpt>
      <trkpt lat="45.92872" lon="4.73085">
        <ele>172</ele>
        <time>2017-06-16T09:55:16Z</time>
      </trkpt>
      <trkpt lat="45.92868" lon="4.7309">
        <ele>172</ele>
        <time>2017-06-16T09:55:17Z</time>
      </trkpt>
      <trkpt lat="45.92864" lon="4.73094">
        <ele>171</ele>
        <time>2017-06-16T09:55:18Z</time>
      </trkpt>
      <trkpt lat="45.9286" lon="4.73099">
        <ele>171</ele>
        <time>2017-06-16T09:55:19Z</time>
      </trkpt>
      <trkpt lat="45.92853" lon="4.73103">
        <ele>171</ele>
        <time>2017-06-16T09:55:21Z</time>
      </trkpt>
      <trkpt lat="45.9285" lon="4.73101">
        <ele>171</ele>
        <time>2017-06-16T09:55:22Z</time>
      </trkpt>
      <trkpt lat="45.92845" lon="4.73092">
        <ele>171</ele>
        <time>2017-06-16T09:55:24Z</time>
      </trkpt>
      <trkpt lat="45.92845" lon="4.73086">
        <ele>171</ele>
        <time>2017-06-16T09:55:25Z</time>
      </trkpt>
      <trkpt lat="45.92843" lon="4.73074">
        <ele>171</ele>
        <time>2017-06-16T09:55:27Z</time>
      </trkpt>
      <trkpt lat="45.92842" lon="4.73067">
        <ele>171</ele>
        <time>2017-06-16T09:55:28Z</time>
      </trkpt>
      <trkpt lat="45.92841" lon="4.7306">
        <ele>171</ele>
        <time>2017-06-16T09:55:29Z</time>
      </trkpt>
      <trkpt lat="45.92839" lon="4.73052">
        <ele>171</ele>
        <time>2017-06-16T09:55:30Z</time>
      </trkpt>
      <trkpt lat="45.92838" lon="4.73043">
        <ele>171</ele>
        <time>2017-06-16T09:55:31Z</time>
      </trkpt>
      <trkpt lat="45.92836" lon="4.73035">
        <ele>171</ele>
        <time>2017-06-16T09:55:32Z</time>
      </trkpt>
      <trkpt lat="45.92834" lon="4.73026">
        <ele>171</ele>
        <time>2017-06-16T09:55:33Z</time>
      </trkpt>
      <trkpt lat="45.92833" lon="4.73018">
        <ele>170</ele>
        <time>2017-06-16T09:55:34Z</time>
      </trkpt>
      <trkpt lat="45.92832" lon="4.7301">
        <ele>170</ele>
        <time>2017-06-16T09:55:35Z</time>
      </trkpt>
      <trkpt lat="45.92831" lon="4.73002">
        <ele>170</ele>
        <time>2017-06-16T09:55:36Z</time>
      </trkpt>
      <trkpt lat="45.9283" lon="4.72994">
        <ele>170</ele>
        <time>2017-06-16T09:55:37Z</time>
      </trkpt>
      <trkpt lat="45.92829" lon="4.72987">
        <ele>170</ele>
        <time>2017-06-16T09:55:38Z</time>
      </trkpt>
      <trkpt lat="45.92828" lon="4.72979">
        <ele>170</ele>
        <time>2017-06-16T09:55:39Z</time>
      </trkpt>
      <trkpt lat="45.92827" lon="4.72972">
        <ele>170</ele>
        <time>2017-06-16T09:55:40Z</time>
      </trkpt>
      <trkpt lat="45.92827" lon="4.72965">
        <ele>170</ele>
        <time>2017-06-16T09:55:41Z</time>
      </trkpt>
      <trkpt lat="45.92826" lon="4.72957">
        <ele>170</ele>
        <time>2017-06-16T09:55:42Z</time>
      </trkpt>
      <trkpt lat="45.92826" lon="4.72949">
        <ele>170</ele>
        <time>2017-06-16T09:55:43Z</time>
      </trkpt>
      <trkpt lat="45.92825" lon="4.72942">
        <ele>170</ele>
        <time>2017-06-16T09:55:44Z</time>
      </trkpt>
      <trkpt lat="45.92825" lon="4.72934">
        <ele>170</ele>
        <time>2017-06-16T09:55:45Z</time>
      </trkpt>
      <trkpt lat="45.92824" lon="4.72926">
        <ele>170</ele>
        <time>2017-06-16T09:55:46Z</time>
      </trkpt>
      <trkpt lat="45.92823" lon="4.72919">
        <ele>170</ele>
        <time>2017-06-16T09:55:47Z</time>
      </trkpt>
      <trkpt lat="45.92822" lon="4.72911">
        <ele>170</ele>
        <time>2017-06-16T09:55:48Z</time>
      </trkpt>
      <trkpt lat="45.92821" lon="4.72904">
        <ele>170</ele>
        <time>2017-06-16T09:55:49Z</time>
      </trkpt>
      <trkpt lat="45.9282" lon="4.72897">
        <ele>170</ele>
        <time>2017-06-16T09:55:50Z</time>
      </trkpt>
      <trkpt lat="45.92818" lon="4.7289">
        <ele>170</ele>
        <time>2017-06-16T09:55:51Z</time>
      </trkpt>
      <trkpt lat="45.92817" lon="4.72883">
        <ele>170</ele>
        <time>2017-06-16T09:55:52Z</time>
      </trkpt>
      <trkpt lat="45.92816" lon="4.72875">
        <ele>170</ele>
        <time>2017-06-16T09:55:53Z</time>
      </trkpt>
      <trkpt lat="45.92814" lon="4.72867">
        <ele>170</ele>
        <time>2017-06-16T09:55:54Z</time>
      </trkpt>
      <trkpt lat="45.92812" lon="4.72859">
        <ele>170</ele>
        <time>2017-06-16T09:55:55Z</time>
      </trkpt>
      <trkpt lat="45.9281" lon="4.72851">
        <ele>170</ele>
        <time>2017-06-16T09:55:56Z</time>
      </trkpt>
      <trkpt lat="45.92809" lon="4.72843">
        <ele>170</ele>
        <time>2017-06-16T09:55:57Z</time>
      </trkpt>
      <trkpt lat="45.92808" lon="4.72836">
        <ele>170</ele>
        <time>2017-06-16T09:55:58Z</time>
      </trkpt>
      <trkpt lat="45.92806" lon="4.72829">
        <ele>171</ele>
        <time>2017-06-16T09:55:59Z</time>
      </trkpt>
      <trkpt lat="45.92805" lon="4.72822">
        <ele>171</ele>
        <time>2017-06-16T09:56:00Z</time>
      </trkpt>
      <trkpt lat="45.92804" lon="4.72815">
        <ele>171</ele>
        <time>2017-06-16T09:56:01Z</time>
      </trkpt>
      <trkpt lat="45.92804" lon="4.72809">
        <ele>171</ele>
        <time>2017-06-16T09:56:02Z</time>
      </trkpt>
      <trkpt lat="45.92803" lon="4.72802">
        <ele>171</ele>
        <time>2017-06-16T09:56:03Z</time>
      </trkpt>
      <trkpt lat="45.92802" lon="4.72796">
        <ele>171</ele>
        <time>2017-06-16T09:56:04Z</time>
      </trkpt>
      <trkpt lat="45.928" lon="4.72786">
        <ele>171</ele>
        <time>2017-06-16T09:56:06Z</time>
      </trkpt>
      <trkpt lat="45.92795" lon="4.72783">
        <ele>171</ele>
        <time>2017-06-16T09:56:07Z</time>
      </trkpt>
      <trkpt lat="45.92787" lon="4.72786">
        <ele>171</ele>
        <time>2017-06-16T09:56:09Z</time>
      </trkpt>
      <trkpt lat="45.92782" lon="4.72789">
        <ele>170</ele>
        <time>2017-06-16T09:56:10Z</time>
      </trkpt>
      <trkpt lat="45.92777" lon="4.72792">
        <ele>170</ele>
        <time>2017-06-16T09:56:11Z</time>
      </trkpt>
      <trkpt lat="45.92773" lon="4.72796">
        <ele>170</ele>
        <time>2017-06-16T09:56:12Z</time>
      </trkpt>
      <trkpt lat="45.92768" lon="4.728">
        <ele>170</ele>
        <time>2017-06-16T09:56:13Z</time>
      </trkpt>
      <trkpt lat="45.92762" lon="4.72805">
        <ele>170</ele>
        <time>2017-06-16T09:56:14Z</time>
      </trkpt>
      <trkpt lat="45.92756" lon="4.72808">
        <ele>170</ele>
        <time>2017-06-16T09:56:15Z</time>
      </trkpt>
      <trkpt lat="45.9275" lon="4.72813">
        <ele>170</ele>
        <time>2017-06-16T09:56:16Z</time>
      </trkpt>
      <trkpt lat="45.92745" lon="4.72818">
        <ele>169</ele>
        <time>2017-06-16T09:56:17Z</time>
      </trkpt>
      <trkpt lat="45.92739" lon="4.72823">
        <ele>169</ele>
        <time>2017-06-16T09:56:18Z</time>
      </trkpt>
      <trkpt lat="45.92734" lon="4.72827">
        <ele>169</ele>
        <time>2017-06-16T09:56:19Z</time>
      </trkpt>
      <trkpt lat="45.92729" lon="4.72831">
        <ele>170</ele>
        <time>2017-06-16T09:56:20Z</time>
      </trkpt>
      <trkpt lat="45.92724" lon="4.72835">
        <ele>169</ele>
        <time>2017-06-16T09:56:21Z</time>
      </trkpt>
      <trkpt lat="45.92719" lon="4.72839">
        <ele>169</ele>
        <time>2017-06-16T09:56:22Z</time>
      </trkpt>
      <trkpt lat="45.92714" lon="4.72843">
        <ele>169</ele>
        <time>2017-06-16T09:56:23Z</time>
      </trkpt>
      <trkpt lat="45.9271" lon="4.72848">
        <ele>169</ele>
        <time>2017-06-16T09:56:24Z</time>
      </trkpt>
      <trkpt lat="45.92705" lon="4.72852">
        <ele>169</ele>
        <time>2017-06-16T09:56:25Z</time>
      </trkpt>
      <trkpt lat="45.92701" lon="4.72856">
        <ele>169</ele>
        <time>2017-06-16T09:56:26Z</time>
      </trkpt>
      <trkpt lat="45.92696" lon="4.7286">
        <ele>169</ele>
        <time>2017-06-16T09:56:27Z</time>
      </trkpt>
      <trkpt lat="45.92691" lon="4.72864">
        <ele>169</ele>
        <time>2017-06-16T09:56:28Z</time>
      </trkpt>
      <trkpt lat="45.92686" lon="4.72869">
        <ele>169</ele>
        <time>2017-06-16T09:56:29Z</time>
      </trkpt>
      <trkpt lat="45.92681" lon="4.72872">
        <ele>169</ele>
        <time>2017-06-16T09:56:30Z</time>
      </trkpt>
      <trkpt lat="45.92677" lon="4.72876">
        <ele>170</ele>
        <time>2017-06-16T09:56:31Z</time>
      </trkpt>
      <trkpt lat="45.92672" lon="4.7288">
        <ele>170</ele>
        <time>2017-06-16T09:56:32Z</time>
      </trkpt>
      <trkpt lat="45.92667" lon="4.72883">
        <ele>170</ele>
        <time>2017-06-16T09:56:33Z</time>
      </trkpt>
      <trkpt lat="45.92663" lon="4.72887">
        <ele>169</ele>
        <time>2017-06-16T09:56:34Z</time>
      </trkpt>
      <trkpt lat="45.92658" lon="4.72891">
        <ele>169</ele>
        <time>2017-06-16T09:56:35Z</time>
      </trkpt>
      <trkpt lat="45.92653" lon="4.72896">
        <ele>169</ele>
        <time>2017-06-16T09:56:36Z</time>
      </trkpt>
      <trkpt lat="45.92648" lon="4.729">
        <ele>169</ele>
        <time>2017-06-16T09:56:37Z</time>
      </trkpt>
      <trkpt lat="45.92643" lon="4.72904">
        <ele>169</ele>
        <time>2017-06-16T09:56:38Z</time>
      </trkpt>
      <trkpt lat="45.92638" lon="4.72908">
        <ele>169</ele>
        <time>2017-06-16T09:56:39Z</time>
      </trkpt>
      <trkpt lat="45.92633" lon="4.72912">
        <ele>169</ele>
        <time>2017-06-16T09:56:40Z</time>
      </trkpt>
      <trkpt lat="45.92629" lon="4.72916">
        <ele>169</ele>
        <time>2017-06-16T09:56:41Z</time>
      </trkpt>
      <trkpt lat="45.92624" lon="4.7292">
        <ele>169</ele>
        <time>2017-06-16T09:56:42Z</time>
      </trkpt>
      <trkpt lat="45.92619" lon="4.72924">
        <ele>169</ele>
        <time>2017-06-16T09:56:43Z</time>
      </trkpt>
      <trkpt lat="45.92615" lon="4.72928">
        <ele>169</ele>
        <time>2017-06-16T09:56:44Z</time>
      </trkpt>
      <trkpt lat="45.9261" lon="4.72933">
        <ele>169</ele>
        <time>2017-06-16T09:56:45Z</time>
      </trkpt>
      <trkpt lat="45.92606" lon="4.72937">
        <ele>169</ele>
        <time>2017-06-16T09:56:46Z</time>
      </trkpt>
      <trkpt lat="45.92601" lon="4.72942">
        <ele>169</ele>
        <time>2017-06-16T09:56:47Z</time>
      </trkpt>
      <trkpt lat="45.92597" lon="4.72947">
        <ele>169</ele>
        <time>2017-06-16T09:56:48Z</time>
      </trkpt>
      <trkpt lat="45.92592" lon="4.72952">
        <ele>169</ele>
        <time>2017-06-16T09:56:49Z</time>
      </trkpt>
      <trkpt lat="45.92588" lon="4.72956">
        <ele>169</ele>
        <time>2017-06-16T09:56:50Z</time>
      </trkpt>
      <trkpt lat="45.92584" lon="4.72961">
        <ele>169</ele>
        <time>2017-06-16T09:56:51Z</time>
      </trkpt>
      <trkpt lat="45.9258" lon="4.72965">
        <ele>169</ele>
        <time>2017-06-16T09:56:52Z</time>
      </trkpt>
      <trkpt lat="45.92576" lon="4.72969">
        <ele>169</ele>
        <time>2017-06-16T09:56:53Z</time>
      </trkpt>
      <trkpt lat="45.92572" lon="4.72973">
        <ele>169</ele>
        <time>2017-06-16T09:56:54Z</time>
      </trkpt>
      <trkpt lat="45.92567" lon="4.72977">
        <ele>169</ele>
        <time>2017-06-16T09:56:55Z</time>
      </trkpt>
      <trkpt lat="45.92562" lon="4.72981">
        <ele>169</ele>
        <time>2017-06-16T09:56:56Z</time>
      </trkpt>
      <trkpt lat="45.92558" lon="4.72986">
        <ele>169</ele>
        <time>2017-06-16T09:56:57Z</time>
      </trkpt>
      <trkpt lat="45.92553" lon="4.72991">
        <ele>169</ele>
        <time>2017-06-16T09:56:58Z</time>
      </trkpt>
      <trkpt lat="45.92548" lon="4.72996">
        <ele>169</ele>
        <time>2017-06-16T09:56:59Z</time>
      </trkpt>
      <trkpt lat="45.92543" lon="4.73002">
        <ele>169</ele>
        <time>2017-06-16T09:57:00Z</time>
      </trkpt>
      <trkpt lat="45.92538" lon="4.73008">
        <ele>169</ele>
        <time>2017-06-16T09:57:01Z</time>
      </trkpt>
      <trkpt lat="45.92533" lon="4.73013">
        <ele>169</ele>
        <time>2017-06-16T09:57:02Z</time>
      </trkpt>
      <trkpt lat="45.92528" lon="4.73017">
        <ele>169</ele>
        <time>2017-06-16T09:57:03Z</time>
      </trkpt>
      <trkpt lat="45.92523" lon="4.73021">
        <ele>169</ele>
        <time>2017-06-16T09:57:04Z</time>
      </trkpt>
      <trkpt lat="45.92518" lon="4.73025">
        <ele>169</ele>
        <time>2017-06-16T09:57:05Z</time>
      </trkpt>
      <trkpt lat="45.92514" lon="4.7303">
        <ele>169</ele>
        <time>2017-06-16T09:57:06Z</time>
      </trkpt>
      <trkpt lat="45.9251" lon="4.73034">
        <ele>169</ele>
        <time>2017-06-16T09:57:07Z</time>
      </trkpt>
      <trkpt lat="45.92505" lon="4.73038">
        <ele>169</ele>
        <time>2017-06-16T09:57:08Z</time>
      </trkpt>
      <trkpt lat="45.92501" lon="4.73042">
        <ele>170</ele>
        <time>2017-06-16T09:57:09Z</time>
      </trkpt>
      <trkpt lat="45.92496" lon="4.73047">
        <ele>170</ele>
        <time>2017-06-16T09:57:10Z</time>
      </trkpt>
      <trkpt lat="45.92492" lon="4.73051">
        <ele>170</ele>
        <time>2017-06-16T09:57:11Z</time>
      </trkpt>
      <trkpt lat="45.92487" lon="4.73055">
        <ele>170</ele>
        <time>2017-06-16T09:57:12Z</time>
      </trkpt>
      <trkpt lat="45.92483" lon="4.73059">
        <ele>170</ele>
        <time>2017-06-16T09:57:13Z</time>
      </trkpt>
      <trkpt lat="45.92478" lon="4.73063">
        <ele>170</ele>
        <time>2017-06-16T09:57:14Z</time>
      </trkpt>
      <trkpt lat="45.92474" lon="4.73067">
        <ele>170</ele>
        <time>2017-06-16T09:57:15Z</time>
      </trkpt>
      <trkpt lat="45.92469" lon="4.73071">
        <ele>170</ele>
        <time>2017-06-16T09:57:16Z</time>
      </trkpt>
      <trkpt lat="45.92464" lon="4.73075">
        <ele>170</ele>
        <time>2017-06-16T09:57:17Z</time>
      </trkpt>
      <trkpt lat="45.9246" lon="4.73079">
        <ele>170</ele>
        <time>2017-06-16T09:57:18Z</time>
      </trkpt>
      <trkpt lat="45.92455" lon="4.73083">
        <ele>170</ele>
        <time>2017-06-16T09:57:19Z</time>
      </trkpt>
      <trkpt lat="45.92451" lon="4.73087">
        <ele>170</ele>
        <time>2017-06-16T09:57:20Z</time>
      </trkpt>
      <trkpt lat="45.92446" lon="4.7309">
        <ele>170</ele>
        <time>2017-06-16T09:57:21Z</time>
      </trkpt>
      <trkpt lat="45.92442" lon="4.73093">
        <ele>170</ele>
        <time>2017-06-16T09:57:22Z</time>
      </trkpt>
      <trkpt lat="45.92438" lon="4.73096">
        <ele>171</ele>
        <time>2017-06-16T09:57:23Z</time>
      </trkpt>
      <trkpt lat="45.92434" lon="4.73099">
        <ele>171</ele>
        <time>2017-06-16T09:57:24Z</time>
      </trkpt>
      <trkpt lat="45.9243" lon="4.73102">
        <ele>171</ele>
        <time>2017-06-16T09:57:25Z</time>
      </trkpt>
      <trkpt lat="45.92426" lon="4.73105">
        <ele>171</ele>
        <time>2017-06-16T09:57:26Z</time>
      </trkpt>
      <trkpt lat="45.92419" lon="4.73112">
        <ele>170</ele>
        <time>2017-06-16T09:57:28Z</time>
      </trkpt>
      <trkpt lat="45.92415" lon="4.73116">
        <ele>171</ele>
        <time>2017-06-16T09:57:29Z</time>
      </trkpt>
      <trkpt lat="45.9241" lon="4.73126">
        <ele>171</ele>
        <time>2017-06-16T09:57:31Z</time>
      </trkpt>
      <trkpt lat="45.92409" lon="4.73132">
        <ele>171</ele>
        <time>2017-06-16T09:57:32Z</time>
      </trkpt>
      <trkpt lat="45.92409" lon="4.73139">
        <ele>171</ele>
        <time>2017-06-16T09:57:33Z</time>
      </trkpt>
      <trkpt lat="45.92408" lon="4.73145">
        <ele>171</ele>
        <time>2017-06-16T09:57:34Z</time>
      </trkpt>
      <trkpt lat="45.92408" lon="4.73151">
        <ele>171</ele>
        <time>2017-06-16T09:57:35Z</time>
      </trkpt>
      <trkpt lat="45.92408" lon="4.73158">
        <ele>170</ele>
        <time>2017-06-16T09:57:36Z</time>
      </trkpt>
      <trkpt lat="45.92408" lon="4.73165">
        <ele>170</ele>
        <time>2017-06-16T09:57:37Z</time>
      </trkpt>
      <trkpt lat="45.92408" lon="4.73172">
        <ele>170</ele>
        <time>2017-06-16T09:57:38Z</time>
      </trkpt>
      <trkpt lat="45.92408" lon="4.73179">
        <ele>171</ele>
        <time>2017-06-16T09:57:39Z</time>
      </trkpt>
      <trkpt lat="45.92408" lon="4.73187">
        <ele>171</ele>
        <time>2017-06-16T09:57:40Z</time>
      </trkpt>
      <trkpt lat="45.92408" lon="4.73194">
        <ele>171</ele>
        <time>2017-06-16T09:57:41Z</time>
      </trkpt>
      <trkpt lat="45.92409" lon="4.73202">
        <ele>171</ele>
        <time>2017-06-16T09:57:42Z</time>
      </trkpt>
      <trkpt lat="45.9241" lon="4.7321">
        <ele>171</ele>
        <time>2017-06-16T09:57:43Z</time>
      </trkpt>
      <trkpt lat="45.9241" lon="4.73218">
        <ele>171</ele>
        <time>2017-06-16T09:57:44Z</time>
      </trkpt>
      <trkpt lat="45.9241" lon="4.73225">
        <ele>171</ele>
        <time>2017-06-16T09:57:45Z</time>
      </trkpt>
      <trkpt lat="45.92411" lon="4.73233">
        <ele>171</ele>
        <time>2017-06-16T09:57:46Z</time>
      </trkpt>
      <trkpt lat="45.92411" lon="4.73241">
        <ele>171</ele>
        <time>2017-06-16T09:57:47Z</time>
      </trkpt>
      <trkpt lat="45.92412" lon="4.73249">
        <ele>171</ele>
        <time>2017-06-16T09:57:48Z</time>
      </trkpt>
      <trkpt lat="45.92412" lon="4.73257">
        <ele>171</ele>
        <time>2017-06-16T09:57:49Z</time>
      </trkpt>
      <trkpt lat="45.92412" lon="4.73264">
        <ele>171</ele>
        <time>2017-06-16T09:57:50Z</time>
      </trkpt>
      <trkpt lat="45.92413" lon="4.73272">
        <ele>171</ele>
        <time>2017-06-16T09:57:51Z</time>
      </trkpt>
      <trkpt lat="45.92413" lon="4.73279">
        <ele>171</ele>
        <time>2017-06-16T09:57:52Z</time>
      </trkpt>
      <trkpt lat="45.92414" lon="4.73286">
        <ele>171</ele>
        <time>2017-06-16T09:57:53Z</time>
      </trkpt>
      <trkpt lat="45.92414" lon="4.73293">
        <ele>171</ele>
        <time>2017-06-16T09:57:54Z</time>
      </trkpt>
      <trkpt lat="45.92415" lon="4.733">
        <ele>171</ele>
        <time>2017-06-16T09:57:55Z</time>
      </trkpt>
      <trkpt lat="45.92415" lon="4.73307">
        <ele>171</ele>
        <time>2017-06-16T09:57:56Z</time>
      </trkpt>
      <trkpt lat="45.92416" lon="4.73315">
        <ele>171</ele>
        <time>2017-06-16T09:57:57Z</time>
      </trkpt>
      <trkpt lat="45.92417" lon="4.73322">
        <ele>171</ele>
        <time>2017-06-16T09:57:58Z</time>
      </trkpt>
      <trkpt lat="45.92417" lon="4.7333">
        <ele>171</ele>
        <time>2017-06-16T09:57:59Z</time>
      </trkpt>
      <trkpt lat="45.92418" lon="4.73337">
        <ele>171</ele>
        <time>2017-06-16T09:58:00Z</time>
      </trkpt>
      <trkpt lat="45.92419" lon="4.73345">
        <ele>171</ele>
        <time>2017-06-16T09:58:01Z</time>
      </trkpt>
      <trkpt lat="45.9242" lon="4.73353">
        <ele>171</ele>
        <time>2017-06-16T09:58:02Z</time>
      </trkpt>
      <trkpt lat="45.92421" lon="4.7336">
        <ele>171</ele>
        <time>2017-06-16T09:58:03Z</time>
      </trkpt>
      <trkpt lat="45.92422" lon="4.73368">
        <ele>172</ele>
        <time>2017-06-16T09:58:04Z</time>
      </trkpt>
      <trkpt lat="45.92424" lon="4.73374">
        <ele>172</ele>
        <time>2017-06-16T09:58:05Z</time>
      </trkpt>
      <trkpt lat="45.92426" lon="4.73381">
        <ele>172</ele>
        <time>2017-06-16T09:58:06Z</time>
      </trkpt>
      <trkpt lat="45.92427" lon="4.73387">
        <ele>172</ele>
        <time>2017-06-16T09:58:07Z</time>
      </trkpt>
      <trkpt lat="45.92428" lon="4.73394">
        <ele>172</ele>
        <time>2017-06-16T09:58:08Z</time>
      </trkpt>
      <trkpt lat="45.9243" lon="4.734">
        <ele>172</ele>
        <time>2017-06-16T09:58:09Z</time>
      </trkpt>
      <trkpt lat="45.92432" lon="4.73406">
        <ele>172</ele>
        <time>2017-06-16T09:58:10Z</time>
      </trkpt>
      <trkpt lat="45.92435" lon="4.73411">
        <ele>172</ele>
        <time>2017-06-16T09:58:11Z</time>
      </trkpt>
      <trkpt lat="45.92439" lon="4.73415">
        <ele>172</ele>
        <time>2017-06-16T09:58:12Z</time>
      </trkpt>
      <trkpt lat="45.92447" lon="4.73422">
        <ele>173</ele>
        <time>2017-06-16T09:58:14Z</time>
      </trkpt>
      <trkpt lat="45.9245" lon="4.73425">
        <ele>173</ele>
        <time>2017-06-16T09:58:15Z</time>
      </trkpt>
      <trkpt lat="45.92457" lon="4.73432">
        <ele>173</ele>
        <time>2017-06-16T09:58:17Z</time>
      </trkpt>
      <trkpt lat="45.9246" lon="4.73436">
        <ele>173</ele>
        <time>2017-06-16T09:58:18Z</time>
      </trkpt>
      <trkpt lat="45.92463" lon="4.7344">
        <ele>173</ele>
        <time>2017-06-16T09:58:19Z</time>
      </trkpt>
      <trkpt lat="45.92465" lon="4.73446">
        <ele>173</ele>
        <time>2017-06-16T09:58:20Z</time>
      </trkpt>
      <trkpt lat="45.92467" lon="4.73452">
        <ele>173</ele>
        <time>2017-06-16T09:58:21Z</time>
      </trkpt>
      <trkpt lat="45.92468" lon="4.73459">
        <ele>173</ele>
        <time>2017-06-16T09:58:22Z</time>
      </trkpt>
      <trkpt lat="45.92469" lon="4.73466">
        <ele>173</ele>
        <time>2017-06-16T09:58:23Z</time>
      </trkpt>
      <trkpt lat="45.92469" lon="4.73473">
        <ele>173</ele>
        <time>2017-06-16T09:58:24Z</time>
      </trkpt>
      <trkpt lat="45.92469" lon="4.7348">
        <ele>173</ele>
        <time>2017-06-16T09:58:25Z</time>
      </trkpt>
      <trkpt lat="45.92469" lon="4.73487">
        <ele>173</ele>
        <time>2017-06-16T09:58:26Z</time>
      </trkpt>
      <trkpt lat="45.92469" lon="4.73494">
        <ele>173</ele>
        <time>2017-06-16T09:58:27Z</time>
      </trkpt>
      <trkpt lat="45.92469" lon="4.73502">
        <ele>174</ele>
        <time>2017-06-16T09:58:28Z</time>
      </trkpt>
      <trkpt lat="45.92469" lon="4.73509">
        <ele>174</ele>
        <time>2017-06-16T09:58:29Z</time>
      </trkpt>
      <trkpt lat="45.92469" lon="4.73516">
        <ele>174</ele>
        <time>2017-06-16T09:58:30Z</time>
      </trkpt>
      <trkpt lat="45.92468" lon="4.73528">
        <ele>174</ele>
        <time>2017-06-16T09:58:32Z</time>
      </trkpt>
      <trkpt lat="45.92468" lon="4.73534">
        <ele>174</ele>
        <time>2017-06-16T09:58:33Z</time>
      </trkpt>
      <trkpt lat="45.92468" lon="4.73546">
        <ele>173</ele>
        <time>2017-06-16T09:58:35Z</time>
      </trkpt>
      <trkpt lat="45.92467" lon="4.73553">
        <ele>173</ele>
        <time>2017-06-16T09:58:36Z</time>
      </trkpt>
      <trkpt lat="45.92467" lon="4.7356">
        <ele>173</ele>
        <time>2017-06-16T09:58:37Z</time>
      </trkpt>
      <trkpt lat="45.92466" lon="4.73567">
        <ele>173</ele>
        <time>2017-06-16T09:58:38Z</time>
      </trkpt>
      <trkpt lat="45.92467" lon="4.73575">
        <ele>173</ele>
        <time>2017-06-16T09:58:39Z</time>
      </trkpt>
      <trkpt lat="45.92468" lon="4.73583">
        <ele>173</ele>
        <time>2017-06-16T09:58:40Z</time>
      </trkpt>
      <trkpt lat="45.92468" lon="4.7359">
        <ele>174</ele>
        <time>2017-06-16T09:58:41Z</time>
      </trkpt>
      <trkpt lat="45.92469" lon="4.73598">
        <ele>174</ele>
        <time>2017-06-16T09:58:42Z</time>
      </trkpt>
      <trkpt lat="45.92469" lon="4.73607">
        <ele>174</ele>
        <time>2017-06-16T09:58:43Z</time>
      </trkpt>
      <trkpt lat="45.92469" lon="4.73615">
        <ele>174</ele>
        <time>2017-06-16T09:58:44Z</time>
      </trkpt>
      <trkpt lat="45.92469" lon="4.73623">
        <ele>174</ele>
        <time>2017-06-16T09:58:45Z</time>
      </trkpt>
      <trkpt lat="45.92469" lon="4.7363">
        <ele>174</ele>
        <time>2017-06-16T09:58:46Z</time>
      </trkpt>
      <trkpt lat="45.9247" lon="4.73638">
        <ele>174</ele>
        <time>2017-06-16T09:58:47Z</time>
      </trkpt>
      <trkpt lat="45.9247" lon="4.73645">
        <ele>174</ele>
        <time>2017-06-16T09:58:48Z</time>
      </trkpt>
      <trkpt lat="45.9247" lon="4.73658">
        <ele>174</ele>
        <time>2017-06-16T09:58:50Z</time>
      </trkpt>
      <trkpt lat="45.9247" lon="4.73664">
        <ele>174</ele>
        <time>2017-06-16T09:58:51Z</time>
      </trkpt>
      <trkpt lat="45.92469" lon="4.73677">
        <ele>174</ele>
        <time>2017-06-16T09:58:53Z</time>
      </trkpt>
      <trkpt lat="45.92469" lon="4.73682">
        <ele>174</ele>
        <time>2017-06-16T09:58:54Z</time>
      </trkpt>
      <trkpt lat="45.92467" lon="4.73693">
        <ele>174</ele>
        <time>2017-06-16T09:58:56Z</time>
      </trkpt>
      <trkpt lat="45.92466" lon="4.73698">
        <ele>174</ele>
        <time>2017-06-16T09:58:57Z</time>
      </trkpt>
      <trkpt lat="45.92464" lon="4.73708">
        <ele>174</ele>
        <time>2017-06-16T09:59:00Z</time>
      </trkpt>
      <trkpt lat="45.92464" lon="4.73709">
        <ele>174</ele>
        <time>2017-06-16T09:59:01Z</time>
      </trkpt>
      <trkpt lat="45.92463" lon="4.73712">
        <ele>174</ele>
        <time>2017-06-16T09:59:12Z</time>
      </trkpt>
      <trkpt lat="45.92462" lon="4.73713">
        <ele>174</ele>
        <time>2017-06-16T09:59:13Z</time>
      </trkpt>
      <trkpt lat="45.92461" lon="4.73713">
        <ele>174</ele>
        <time>2017-06-16T09:59:25.025Z</time>
      </trkpt>
    </trkseg>
  </trk>
</gpx>